Wetterdaten: Montag, 03.07.2017
Datum Zeit Temp. A. Temp. A. max Feuchte A. Luftdruck Regen Wind Richtung Richtung Sonnenschein ET UV Solar Taupunkt Windchill Windböen
03.07.2017 00:00 12,2 °C 12,2 °C 93 % 1021,3 hPa 0,0 mm 5,4 km/h (1 Bft) W 273 ° 0 min 0,000 mm 0,0 UV-I 0 W/m² 11,1 °C 12,2 °C 8,0 km/h (2 Bft)
03.07.2017 00:01 12,1 °C 12,2 °C 93 % 1021,4 hPa 0,0 mm 5,7 km/h (1 Bft) NW 317 ° 0 min 0,000 mm 0,0 UV-I 0 W/m² 11,0 °C 12,1 °C 9,7 km/h (2 Bft)
03.07.2017 00:02 12,1 °C 12,1 °C 93 % 1021,4 hPa 0,0 mm 5,9 km/h (2 Bft) SW 235 ° 0 min 0,000 mm 0,0 UV-I 0 W/m² 11,0 °C 12,1 °C 9,7 km/h (2 Bft)
03.07.2017 00:03 12,1 °C 12,1 °C 93 % 1021,3 hPa 0,2 mm 5,4 km/h (1 Bft) W 281 ° 0 min 0,000 mm 0,0 UV-I 0 W/m² 11,0 °C 12,1 °C 9,7 km/h (2 Bft)
03.07.2017 00:04 12,1 °C 12,1 °C 93 % 1021,4 hPa 0,0 mm 7,6 km/h (2 Bft) W 274 ° 0 min 0,000 mm 0,0 UV-I 0 W/m² 11,0 °C 12,1 °C 11,3 km/h (2 Bft)
03.07.2017 00:05 12,1 °C 12,1 °C 93 % 1021,4 hPa 0,0 mm 6,4 km/h (2 Bft) W-NW 300 ° 0 min 0,000 mm 0,0 UV-I 0 W/m² 11,0 °C 12,1 °C 11,3 km/h (2 Bft)
03.07.2017 00:06 12,1 °C 12,1 °C 94 % 1021,4 hPa 0,0 mm 3,9 km/h (1 Bft) W-NW 282 ° 0 min 0,000 mm 0,0 UV-I 0 W/m² 11,2 °C 12,1 °C 4,8 km/h (1 Bft)
03.07.2017 00:07 12,1 °C 12,1 °C 94 % 1021,4 hPa 0,0 mm 3,3 km/h (1 Bft) W-NW 284 ° 0 min 0,000 mm 0,0 UV-I 0 W/m² 11,2 °C 12,1 °C 6,4 km/h (2 Bft)
03.07.2017 00:08 12,1 °C 12,1 °C 94 % 1021,4 hPa 0,2 mm 4,3 km/h (1 Bft) W-NW 283 ° 0 min 0,000 mm 0,0 UV-I 0 W/m² 11,2 °C 12,1 °C 6,4 km/h (2 Bft)
03.07.2017 00:09 12,1 °C 12,1 °C 94 % 1021,4 hPa 0,0 mm 4,8 km/h (1 Bft) W 279 ° 0 min 0,000 mm 0,0 UV-I 0 W/m² 11,2 °C 12,1 °C 6,4 km/h (2 Bft)
03.07.2017 00:10 12,0 °C 12,1 °C 94 % 1021,4 hPa 0,0 mm 3,1 km/h (1 Bft) W 281 ° 0 min 0,000 mm 0,0 UV-I 0 W/m² 11,1 °C 12,0 °C 4,8 km/h (1 Bft)
03.07.2017 00:11 12,1 °C 12,1 °C 94 % 1021,4 hPa 0,2 mm 4,2 km/h (1 Bft) W-SW 250 ° 0 min 0,000 mm 0,0 UV-I 0 W/m² 11,2 °C 12,1 °C 4,8 km/h (1 Bft)
03.07.2017 00:12 12,1 °C 12,1 °C 94 % 1021,4 hPa 0,0 mm 4,0 km/h (1 Bft) W 267 ° 0 min 0,000 mm 0,0 UV-I 0 W/m² 11,2 °C 12,1 °C 6,4 km/h (2 Bft)
03.07.2017 00:13 12,1 °C 12,1 °C 94 % 1021,4 hPa 0,0 mm 6,1 km/h (2 Bft) W 263 ° 0 min 0,000 mm 0,0 UV-I 0 W/m² 11,2 °C 12,1 °C 9,7 km/h (2 Bft)
03.07.2017 00:14 12,0 °C 12,1 °C 94 % 1021,4 hPa 0,2 mm 5,0 km/h (1 Bft) N 9 ° 0 min 0,000 mm 0,0 UV-I 0 W/m² 11,1 °C 12,0 °C 11,3 km/h (2 Bft)
03.07.2017 00:15 12,0 °C 12,1 °C 94 % 1021,5 hPa 0,0 mm 2,2 km/h (1 Bft) NW 319 ° 0 min 0,000 mm 0,0 UV-I 0 W/m² 11,1 °C 12,0 °C 4,8 km/h (1 Bft)
03.07.2017 00:16 12,0 °C 12,0 °C 94 % 1021,5 hPa 0,0 mm 9,0 km/h (2 Bft) W 274 ° 0 min 0,000 mm 0,0 UV-I 0 W/m² 11,1 °C 12,0 °C 14,5 km/h (3 Bft)
03.07.2017 00:17 12,0 °C 12,0 °C 94 % 1021,5 hPa 0,2 mm 11,3 km/h (2 Bft) W-NW 296 ° 0 min 0,000 mm 0,0 UV-I 0 W/m² 11,1 °C 12,0 °C 17,7 km/h (3 Bft)
03.07.2017 00:18 12,0 °C 12,0 °C 94 % 1021,5 hPa 0,0 mm 8,5 km/h (2 Bft) W 273 ° 0 min 0,000 mm 0,0 UV-I 0 W/m² 11,1 °C 12,0 °C 12,9 km/h (3 Bft)
03.07.2017 00:19 11,9 °C 12,0 °C 94 % 1021,4 hPa 0,0 mm 8,6 km/h (2 Bft) W-SW 258 ° 0 min 0,000 mm 0,0 UV-I 0 W/m² 11,0 °C 11,9 °C 11,3 km/h (2 Bft)
03.07.2017 00:20 11,9 °C 11,9 °C 94 % 1021,4 hPa 0,2 mm 8,2 km/h (2 Bft) W-NW 301 ° 0 min 0,000 mm 0,0 UV-I 0 W/m² 11,0 °C 11,9 °C 12,9 km/h (3 Bft)
03.07.2017 00:21 12,0 °C 12,0 °C 94 % 1021,4 hPa 0,0 mm 3,4 km/h (1 Bft) W-SW 255 ° 0 min 0,000 mm 0,0 UV-I 0 W/m² 11,1 °C 12,0 °C 11,3 km/h (2 Bft)
03.07.2017 00:22 11,9 °C 12,0 °C 94 % 1021,4 hPa 0,0 mm 8,9 km/h (2 Bft) W-SW 242 ° 0 min 0,000 mm 0,0 UV-I 0 W/m² 11,0 °C 11,9 °C 12,9 km/h (3 Bft)
03.07.2017 00:23 12,0 °C 12,0 °C 94 % 1021,5 hPa 0,0 mm 7,0 km/h (2 Bft) W 278 ° 0 min 0,000 mm 0,0 UV-I 0 W/m² 11,1 °C 12,0 °C 11,3 km/h (2 Bft)
03.07.2017 00:24 11,9 °C 12,0 °C 94 % 1021,5 hPa 0,2 mm 4,5 km/h (1 Bft) W-NW 286 ° 0 min 0,000 mm 0,0 UV-I 0 W/m² 11,0 °C 11,9 °C 6,4 km/h (2 Bft)
03.07.2017 00:25 11,9 °C 11,9 °C 94 % 1021,5 hPa 0,0 mm 4,0 km/h (1 Bft) W-SW 250 ° 0 min 0,000 mm 0,0 UV-I 0 W/m² 11,0 °C 11,9 °C 4,8 km/h (1 Bft)
03.07.2017 00:26 12,0 °C 12,0 °C 94 % 1021,5 hPa 0,0 mm 3,2 km/h (1 Bft) W 259 ° 0 min 0,000 mm 0,0 UV-I 0 W/m² 11,1 °C 12,0 °C 4,8 km/h (1 Bft)
03.07.2017 00:27 11,9 °C 12,0 °C 94 % 1021,5 hPa 0,0 mm 5,4 km/h (1 Bft) W-NW 291 ° 0 min 0,000 mm 0,0 UV-I 0 W/m² 11,0 °C 11,9 °C 11,3 km/h (2 Bft)
03.07.2017 00:28 11,9 °C 11,9 °C 94 % 1021,5 hPa 0,0 mm 7,9 km/h (2 Bft) W-NW 287 ° 0 min 0,000 mm 0,0 UV-I 0 W/m² 11,0 °C 11,9 °C 12,9 km/h (3 Bft)
03.07.2017 00:29 11,9 °C 12,0 °C 94 % 1021,5 hPa 0,0 mm 9,0 km/h (2 Bft) W 274 ° 0 min 0,000 mm 0,0 UV-I 0 W/m² 11,0 °C 11,9 °C 14,5 km/h (3 Bft)
03.07.2017 00:30 11,9 °C 11,9 °C 94 % 1021,6 hPa 0,0 mm 5,7 km/h (1 Bft) W 267 ° 0 min 0,000 mm 0,0 UV-I 0 W/m² 11,0 °C 11,9 °C 9,7 km/h (2 Bft)
03.07.2017 00:31 11,9 °C 12,0 °C 94 % 1021,5 hPa 0,0 mm 6,2 km/h (2 Bft) W-NW 288 ° 0 min 0,000 mm 0,0 UV-I 0 W/m² 11,0 °C 11,9 °C 9,7 km/h (2 Bft)
03.07.2017 00:32 11,9 °C 11,9 °C 94 % 1021,6 hPa 0,2 mm 4,4 km/h (1 Bft) W 273 ° 0 min 0,000 mm 0,0 UV-I 0 W/m² 11,0 °C 11,9 °C 9,7 km/h (2 Bft)
03.07.2017 00:33 11,9 °C 11,9 °C 94 % 1021,6 hPa 0,0 mm 7,2 km/h (2 Bft) W 272 ° 0 min 0,000 mm 0,0 UV-I 0 W/m² 11,0 °C 11,9 °C 16,1 km/h (3 Bft)
03.07.2017 00:34 11,9 °C 11,9 °C 94 % 1021,6 hPa 0,0 mm 8,7 km/h (2 Bft) W-SW 255 ° 0 min 0,000 mm 0,0 UV-I 0 W/m² 11,0 °C 11,9 °C 11,3 km/h (2 Bft)
03.07.2017 00:35 11,9 °C 11,9 °C 94 % 1021,6 hPa 0,0 mm 11,0 km/h (2 Bft) W-NW 288 ° 0 min 0,000 mm 0,0 UV-I 0 W/m² 11,0 °C 11,9 °C 14,5 km/h (3 Bft)
03.07.2017 00:36 11,9 °C 11,9 °C 94 % 1021,6 hPa 0,0 mm 8,3 km/h (2 Bft) W 272 ° 0 min 0,000 mm 0,0 UV-I 0 W/m² 11,0 °C 11,9 °C 11,3 km/h (2 Bft)
03.07.2017 00:37 11,9 °C 11,9 °C 94 % 1021,6 hPa 0,0 mm 4,5 km/h (1 Bft) W-NW 286 ° 0 min 0,000 mm 0,0 UV-I 0 W/m² 11,0 °C 11,9 °C 8,0 km/h (2 Bft)
03.07.2017 00:38 11,9 °C 11,9 °C 94 % 1021,6 hPa 0,2 mm 7,7 km/h (2 Bft) W 271 ° 0 min 0,000 mm 0,0 UV-I 0 W/m² 11,0 °C 11,9 °C 14,5 km/h (3 Bft)
03.07.2017 00:39 11,9 °C 11,9 °C 94 % 1021,6 hPa 0,0 mm 6,4 km/h (2 Bft) W-SW 243 ° 0 min 0,000 mm 0,0 UV-I 0 W/m² 11,0 °C 11,9 °C 9,7 km/h (2 Bft)
03.07.2017 00:40 11,9 °C 11,9 °C 94 % 1021,6 hPa 0,2 mm 8,8 km/h (2 Bft) W-NW 284 ° 0 min 0,000 mm 0,0 UV-I 0 W/m² 11,0 °C 11,9 °C 14,5 km/h (3 Bft)
03.07.2017 00:41 11,9 °C 11,9 °C 94 % 1021,6 hPa 0,0 mm 12,1 km/h (2 Bft) S-SW 204 ° 0 min 0,000 mm 0,0 UV-I 0 W/m² 11,0 °C 11,9 °C 17,7 km/h (3 Bft)
03.07.2017 00:42 11,8 °C 11,9 °C 94 % 1021,6 hPa 0,0 mm 9,9 km/h (2 Bft) W 271 ° 0 min 0,000 mm 0,0 UV-I 0 W/m² 10,9 °C 11,8 °C 17,7 km/h (3 Bft)
03.07.2017 00:43 11,8 °C 11,9 °C 94 % 1021,7 hPa 0,2 mm 7,2 km/h (2 Bft) W 274 ° 0 min 0,000 mm 0,0 UV-I 0 W/m² 10,9 °C 11,8 °C 12,9 km/h (3 Bft)
03.07.2017 00:44 11,8 °C 11,9 °C 94 % 1021,6 hPa 0,0 mm 3,4 km/h (1 Bft) W 260 ° 0 min 0,000 mm 0,0 UV-I 0 W/m² 10,9 °C 11,8 °C 8,0 km/h (2 Bft)
03.07.2017 00:45 11,8 °C 11,8 °C 94 % 1021,6 hPa 0,0 mm 7,5 km/h (2 Bft) W 274 ° 0 min 0,000 mm 0,0 UV-I 0 W/m² 10,9 °C 11,8 °C 11,3 km/h (2 Bft)
03.07.2017 00:46 11,8 °C 11,9 °C 94 % 1021,6 hPa 0,0 mm 13,3 km/h (3 Bft) W 263 ° 0 min 0,000 mm 0,0 UV-I 0 W/m² 10,9 °C 11,8 °C 19,3 km/h (3 Bft)
03.07.2017 00:47 11,8 °C 11,8 °C 94 % 1021,6 hPa 0,0 mm 14,6 km/h (3 Bft) W 265 ° 0 min 0,000 mm 0,0 UV-I 0 W/m² 10,9 °C 11,8 °C 19,3 km/h (3 Bft)
03.07.2017 00:48 11,8 °C 11,8 °C 94 % 1021,6 hPa 0,0 mm 10,4 km/h (2 Bft) W-NW 285 ° 0 min 0,000 mm 0,0 UV-I 0 W/m² 10,9 °C 11,8 °C 17,7 km/h (3 Bft)
03.07.2017 00:49 11,8 °C 11,8 °C 94 % 1021,6 hPa 0,0 mm 12,0 km/h (2 Bft) W-NW 298 ° 0 min 0,000 mm 0,0 UV-I 0 W/m² 10,9 °C 11,8 °C 19,3 km/h (3 Bft)
03.07.2017 00:50 11,8 °C 11,8 °C 94 % 1021,6 hPa 0,2 mm 7,4 km/h (2 Bft) W 270 ° 0 min 0,000 mm 0,0 UV-I 0 W/m² 10,9 °C 11,8 °C 14,5 km/h (3 Bft)
03.07.2017 00:51 11,8 °C 11,8 °C 94 % 1021,6 hPa 0,0 mm 13,3 km/h (3 Bft) W 264 ° 0 min 0,000 mm 0,0 UV-I 0 W/m² 10,9 °C 11,8 °C 19,3 km/h (3 Bft)
03.07.2017 00:52 11,8 °C 11,8 °C 94 % 1021,6 hPa 0,0 mm 9,7 km/h (2 Bft) W 276 ° 0 min 0,000 mm 0,0 UV-I 0 W/m² 10,9 °C 11,8 °C 12,9 km/h (3 Bft)
03.07.2017 00:53 11,8 °C 11,8 °C 94 % 1021,7 hPa 0,0 mm 12,5 km/h (3 Bft) W-NW 296 ° 0 min 0,000 mm 0,0 UV-I 0 W/m² 10,9 °C 11,8 °C 17,7 km/h (3 Bft)
03.07.2017 00:54 11,8 °C 11,8 °C 94 % 1021,6 hPa 0,2 mm 8,9 km/h (2 Bft) W 263 ° 0 min 0,000 mm 0,0 UV-I 0 W/m² 10,9 °C 11,8 °C 17,7 km/h (3 Bft)
03.07.2017 00:55 11,8 °C 11,8 °C 94 % 1021,6 hPa 0,0 mm 7,8 km/h (2 Bft) W-NW 295 ° 0 min 0,000 mm 0,0 UV-I 0 W/m² 10,9 °C 11,8 °C 11,3 km/h (2 Bft)
03.07.2017 00:56 11,8 °C 11,8 °C 94 % 1021,6 hPa 0,0 mm 7,4 km/h (2 Bft) W-SW 251 ° 0 min 0,000 mm 0,0 UV-I 0 W/m² 10,9 °C 11,8 °C 11,3 km/h (2 Bft)
03.07.2017 00:57 11,8 °C 11,8 °C 94 % 1021,6 hPa 0,0 mm 5,9 km/h (2 Bft) W-NW 287 ° 0 min 0,000 mm 0,0 UV-I 0 W/m² 10,9 °C 11,8 °C 9,7 km/h (2 Bft)
03.07.2017 00:58 11,8 °C 11,8 °C 94 % 1021,6 hPa 0,0 mm 7,0 km/h (2 Bft) W 263 ° 0 min 0,000 mm 0,0 UV-I 0 W/m² 10,9 °C 11,8 °C 12,9 km/h (3 Bft)
03.07.2017 00:59 11,8 °C 11,8 °C 94 % 1021,6 hPa 0,0 mm 9,6 km/h (2 Bft) W-SW 255 ° 0 min 0,000 mm 0,0 UV-I 0 W/m² 10,9 °C 11,8 °C 12,9 km/h (3 Bft)
03.07.2017 01:00 11,8 °C 11,8 °C 94 % 1021,6 hPa 0,0 mm 7,1 km/h (2 Bft) W 279 ° 0 min 0,000 mm 0,0 UV-I 0 W/m² 10,9 °C 11,8 °C 14,5 km/h (3 Bft)
03.07.2017 01:01 11,8 °C 11,8 °C 94 % 1021,6 hPa 0,2 mm 8,5 km/h (2 Bft) W-NW 300 ° 0 min 0,000 mm 0,0 UV-I 0 W/m² 10,9 °C 11,8 °C 12,9 km/h (3 Bft)
03.07.2017 01:02 11,8 °C 11,8 °C 94 % 1021,6 hPa 0,0 mm 10,5 km/h (2 Bft) W-SW 243 ° 0 min 0,000 mm 0,0 UV-I 0 W/m² 10,9 °C 11,8 °C 14,5 km/h (3 Bft)
03.07.2017 01:03 11,7 °C 11,8 °C 94 % 1021,6 hPa 0,0 mm 10,8 km/h (2 Bft) W-SW 254 ° 0 min 0,000 mm 0,0 UV-I 0 W/m² 10,8 °C 11,7 °C 16,1 km/h (3 Bft)
03.07.2017 01:04 11,7 °C 11,8 °C 94 % 1021,6 hPa 0,0 mm 6,2 km/h (2 Bft) SW 220 ° 0 min 0,000 mm 0,0 UV-I 0 W/m² 10,8 °C 11,7 °C 11,3 km/h (2 Bft)
03.07.2017 01:05 11,8 °C 11,8 °C 94 % 1021,7 hPa 0,0 mm 9,1 km/h (2 Bft) W 263 ° 0 min 0,000 mm 0,0 UV-I 0 W/m² 10,9 °C 11,8 °C 16,1 km/h (3 Bft)
03.07.2017 01:06 11,8 °C 11,8 °C 94 % 1021,7 hPa 0,2 mm 10,1 km/h (2 Bft) NW 306 ° 0 min 0,000 mm 0,0 UV-I 0 W/m² 10,9 °C 11,8 °C 14,5 km/h (3 Bft)
03.07.2017 01:07 11,7 °C 11,8 °C 94 % 1021,6 hPa 0,0 mm 6,4 km/h (2 Bft) W 281 ° 0 min 0,000 mm 0,0 UV-I 0 W/m² 10,8 °C 11,7 °C 12,9 km/h (3 Bft)
03.07.2017 01:08 11,7 °C 11,8 °C 94 % 1021,6 hPa 0,0 mm 8,7 km/h (2 Bft) W-NW 296 ° 0 min 0,000 mm 0,0 UV-I 0 W/m² 10,8 °C 11,7 °C 14,5 km/h (3 Bft)
03.07.2017 01:09 11,7 °C 11,7 °C 94 % 1021,6 hPa 0,2 mm 7,6 km/h (2 Bft) W-SW 242 ° 0 min 0,000 mm 0,0 UV-I 0 W/m² 10,8 °C 11,7 °C 12,9 km/h (3 Bft)
03.07.2017 01:10 11,7 °C 11,7 °C 94 % 1021,6 hPa 0,0 mm 8,6 km/h (2 Bft) W 259 ° 0 min 0,000 mm 0,0 UV-I 0 W/m² 10,8 °C 11,7 °C 14,5 km/h (3 Bft)
03.07.2017 01:11 11,7 °C 11,7 °C 94 % 1021,6 hPa 0,0 mm 7,2 km/h (2 Bft) NW 306 ° 0 min 0,000 mm 0,0 UV-I 0 W/m² 10,8 °C 11,7 °C 11,3 km/h (2 Bft)
03.07.2017 01:12 11,7 °C 11,7 °C 94 % 1021,6 hPa 0,2 mm 10,5 km/h (2 Bft) W-NW 285 ° 0 min 0,000 mm 0,0 UV-I 0 W/m² 10,8 °C 11,7 °C 14,5 km/h (3 Bft)
03.07.2017 01:13 11,7 °C 11,7 °C 94 % 1021,6 hPa 0,0 mm 5,5 km/h (1 Bft) W-NW 296 ° 0 min 0,000 mm 0,0 UV-I 0 W/m² 10,8 °C 11,7 °C 8,0 km/h (2 Bft)
03.07.2017 01:14 11,7 °C 11,7 °C 94 % 1021,6 hPa 0,0 mm 8,9 km/h (2 Bft) W 277 ° 0 min 0,000 mm 0,0 UV-I 0 W/m² 10,8 °C 11,7 °C 16,1 km/h (3 Bft)
03.07.2017 01:15 11,7 °C 11,7 °C 94 % 1021,7 hPa 0,2 mm 6,1 km/h (2 Bft) NW 313 ° 0 min 0,000 mm 0,0 UV-I 0 W/m² 10,8 °C 11,7 °C 12,9 km/h (3 Bft)
03.07.2017 01:16 11,7 °C 11,7 °C 94 % 1021,6 hPa 0,0 mm 5,7 km/h (1 Bft) W 267 ° 0 min 0,000 mm 0,0 UV-I 0 W/m² 10,8 °C 11,7 °C 11,3 km/h (2 Bft)
03.07.2017 01:17 11,7 °C 11,7 °C 94 % 1021,6 hPa 0,0 mm 10,4 km/h (2 Bft) W-SW 254 ° 0 min 0,000 mm 0,0 UV-I 0 W/m² 10,8 °C 11,7 °C 16,1 km/h (3 Bft)
03.07.2017 01:18 11,7 °C 11,7 °C 94 % 1021,6 hPa 0,2 mm 7,3 km/h (2 Bft) W 281 ° 0 min 0,000 mm 0,0 UV-I 0 W/m² 10,8 °C 11,7 °C 12,9 km/h (3 Bft)
03.07.2017 01:19 11,7 °C 11,7 °C 94 % 1021,6 hPa 0,0 mm 6,8 km/h (2 Bft) W-NW 282 ° 0 min 0,000 mm 0,0 UV-I 0 W/m² 10,8 °C 11,7 °C 12,9 km/h (3 Bft)
03.07.2017 01:20 11,7 °C 11,7 °C 94 % 1021,6 hPa 0,0 mm 6,6 km/h (2 Bft) W-NW 282 ° 0 min 0,000 mm 0,0 UV-I 0 W/m² 10,8 °C 11,7 °C 11,3 km/h (2 Bft)
03.07.2017 01:21 11,7 °C 11,7 °C 94 % 1021,6 hPa 0,0 mm 10,0 km/h (2 Bft) W-NW 298 ° 0 min 0,000 mm 0,0 UV-I 0 W/m² 10,8 °C 11,7 °C 14,5 km/h (3 Bft)
03.07.2017 01:22 11,7 °C 11,7 °C 94 % 1021,6 hPa 0,2 mm 5,4 km/h (1 Bft) W 268 ° 0 min 0,000 mm 0,0 UV-I 0 W/m² 10,8 °C 11,7 °C 11,3 km/h (2 Bft)
03.07.2017 01:23 11,7 °C 11,7 °C 94 % 1021,7 hPa 0,0 mm 7,4 km/h (2 Bft) W-SW 257 ° 0 min 0,000 mm 0,0 UV-I 0 W/m² 10,8 °C 11,7 °C 11,3 km/h (2 Bft)
03.07.2017 01:24 11,7 °C 11,7 °C 94 % 1021,7 hPa 0,0 mm 4,9 km/h (1 Bft) W 259 ° 0 min 0,000 mm 0,0 UV-I 0 W/m² 10,8 °C 11,7 °C 8,0 km/h (2 Bft)
03.07.2017 01:25 11,7 °C 11,7 °C 94 % 1021,7 hPa 0,0 mm 3,2 km/h (1 Bft) W 261 ° 0 min 0,000 mm 0,0 UV-I 0 W/m² 10,8 °C 11,7 °C 6,4 km/h (2 Bft)
03.07.2017 01:26 11,7 °C 11,7 °C 94 % 1021,7 hPa 0,2 mm 7,2 km/h (2 Bft) W-NW 288 ° 0 min 0,000 mm 0,0 UV-I 0 W/m² 10,8 °C 11,7 °C 11,3 km/h (2 Bft)
03.07.2017 01:27 11,7 °C 11,7 °C 94 % 1021,7 hPa 0,0 mm 8,7 km/h (2 Bft) W-SW 258 ° 0 min 0,000 mm 0,0 UV-I 0 W/m² 10,8 °C 11,7 °C 14,5 km/h (3 Bft)
03.07.2017 01:28 11,7 °C 11,7 °C 94 % 1021,6 hPa 0,0 mm 9,0 km/h (2 Bft) W-NW 290 ° 0 min 0,000 mm 0,0 UV-I 0 W/m² 10,8 °C 11,7 °C 11,3 km/h (2 Bft)
03.07.2017 01:29 11,7 °C 11,7 °C 94 % 1021,7 hPa 0,0 mm 4,6 km/h (1 Bft) W-SW 252 ° 0 min 0,000 mm 0,0 UV-I 0 W/m² 10,8 °C 11,7 °C 6,4 km/h (2 Bft)
03.07.2017 01:30 11,7 °C 11,7 °C 94 % 1021,7 hPa 0,2 mm 3,6 km/h (1 Bft) W 275 ° 0 min 0,000 mm 0,0 UV-I 0 W/m² 10,8 °C 11,7 °C 6,4 km/h (2 Bft)
03.07.2017 01:31 11,7 °C 11,7 °C 94 % 1021,7 hPa 0,0 mm 5,4 km/h (1 Bft) W-NW 300 ° 0 min 0,000 mm 0,0 UV-I 0 W/m² 10,8 °C 11,7 °C 8,0 km/h (2 Bft)
03.07.2017 01:32 11,7 °C 11,7 °C 94 % 1021,7 hPa 0,0 mm 4,9 km/h (1 Bft) W-NW 287 ° 0 min 0,000 mm 0,0 UV-I 0 W/m² 10,8 °C 11,7 °C 6,4 km/h (2 Bft)
03.07.2017 01:33 11,7 °C 11,7 °C 94 % 1021,7 hPa 0,0 mm 8,2 km/h (2 Bft) W 263 ° 0 min 0,000 mm 0,0 UV-I 0 W/m² 10,8 °C 11,7 °C 14,5 km/h (3 Bft)
03.07.2017 01:34 11,7 °C 11,7 °C 94 % 1021,7 hPa 0,0 mm 3,8 km/h (1 Bft) W-NW 284 ° 0 min 0,000 mm 0,0 UV-I 0 W/m² 10,8 °C 11,7 °C 4,8 km/h (1 Bft)
03.07.2017 01:35 11,7 °C 11,7 °C 94 % 1021,7 hPa 0,0 mm 4,3 km/h (1 Bft) W 263 ° 0 min 0,000 mm 0,0 UV-I 0 W/m² 10,8 °C 11,7 °C 6,4 km/h (2 Bft)
03.07.2017 01:36 11,7 °C 11,7 °C 94 % 1021,7 hPa 0,0 mm 5,6 km/h (1 Bft) W-SW 256 ° 0 min 0,000 mm 0,0 UV-I 0 W/m² 10,8 °C 11,7 °C 9,7 km/h (2 Bft)
03.07.2017 01:37 11,7 °C 11,7 °C 95 % 1021,7 hPa 0,2 mm 3,6 km/h (1 Bft) W-NW 293 ° 0 min 0,000 mm 0,0 UV-I 0 W/m² 10,9 °C 11,7 °C 6,4 km/h (2 Bft)
03.07.2017 01:38 11,7 °C 11,7 °C 95 % 1021,7 hPa 0,0 mm 5,7 km/h (1 Bft) W-NW 283 ° 0 min 0,000 mm 0,0 UV-I 0 W/m² 10,9 °C 11,7 °C 8,0 km/h (2 Bft)
03.07.2017 01:39 11,7 °C 11,7 °C 94 % 1021,7 hPa 0,0 mm 4,1 km/h (1 Bft) W-NW 290 ° 0 min 0,000 mm 0,0 UV-I 0 W/m² 10,8 °C 11,7 °C 6,4 km/h (2 Bft)
03.07.2017 01:40 11,7 °C 11,7 °C 95 % 1021,7 hPa 0,0 mm 4,9 km/h (1 Bft) W-NW 298 ° 0 min 0,000 mm 0,0 UV-I 0 W/m² 10,9 °C 11,7 °C 8,0 km/h (2 Bft)
03.07.2017 01:41 11,7 °C 11,7 °C 95 % 1021,7 hPa 0,0 mm 4,7 km/h (1 Bft) W-NW 283 ° 0 min 0,000 mm 0,0 UV-I 0 W/m² 10,9 °C 11,7 °C 6,4 km/h (2 Bft)
03.07.2017 01:42 11,7 °C 11,7 °C 95 % 1021,7 hPa 0,0 mm 4,0 km/h (1 Bft) W-NW 290 ° 0 min 0,000 mm 0,0 UV-I 0 W/m² 10,9 °C 11,7 °C 6,4 km/h (2 Bft)
03.07.2017 01:43 11,7 °C 11,7 °C 95 % 1021,7 hPa 0,0 mm 4,5 km/h (1 Bft) W 281 ° 0 min 0,000 mm 0,0 UV-I 0 W/m² 10,9 °C 11,7 °C 6,4 km/h (2 Bft)
03.07.2017 01:44 11,7 °C 11,7 °C 95 % 1021,6 hPa 0,0 mm 2,9 km/h (1 Bft) W-NW 289 ° 0 min 0,000 mm 0,0 UV-I 0 W/m² 10,9 °C 11,7 °C 6,4 km/h (2 Bft)
03.07.2017 01:45 11,7 °C 11,7 °C 95 % 1021,7 hPa 0,0 mm 5,8 km/h (2 Bft) W-NW 286 ° 0 min 0,000 mm 0,0 UV-I 0 W/m² 10,9 °C 11,7 °C 11,3 km/h (2 Bft)
03.07.2017 01:46 11,7 °C 11,7 °C 95 % 1021,6 hPa 0,0 mm 3,7 km/h (1 Bft) NW 312 ° 0 min 0,000 mm 0,0 UV-I 0 W/m² 10,9 °C 11,7 °C 8,0 km/h (2 Bft)
03.07.2017 01:47 11,7 °C 11,7 °C 95 % 1021,7 hPa 0,0 mm 4,3 km/h (1 Bft) W-NW 301 ° 0 min 0,000 mm 0,0 UV-I 0 W/m² 10,9 °C 11,7 °C 6,4 km/h (2 Bft)
03.07.2017 01:48 11,7 °C 11,7 °C 95 % 1021,7 hPa 0,0 mm 4,0 km/h (1 Bft) W 275 ° 0 min 0,000 mm 0,0 UV-I 0 W/m² 10,9 °C 11,7 °C 4,8 km/h (1 Bft)
03.07.2017 01:49 11,7 °C 11,7 °C 95 % 1021,7 hPa 0,0 mm 4,8 km/h (1 Bft) W-NW 295 ° 0 min 0,000 mm 0,0 UV-I 0 W/m² 10,9 °C 11,7 °C 9,7 km/h (2 Bft)
03.07.2017 01:50 11,7 °C 11,7 °C 95 % 1021,7 hPa 0,0 mm 1,6 km/h (1 Bft) W-NW 295 ° 0 min 0,000 mm 0,0 UV-I 0 W/m² 10,9 °C 11,7 °C 3,2 km/h (1 Bft)
03.07.2017 01:51 11,7 °C 11,7 °C 95 % 1021,6 hPa 0,2 mm 2,7 km/h (1 Bft) W-NW 294 ° 0 min 0,000 mm 0,0 UV-I 0 W/m² 10,9 °C 11,7 °C 4,8 km/h (1 Bft)
03.07.2017 01:52 11,7 °C 11,7 °C 95 % 1021,5 hPa 0,0 mm 2,4 km/h (1 Bft) W-NW 294 ° 0 min 0,000 mm 0,0 UV-I 0 W/m² 10,9 °C 11,7 °C 4,8 km/h (1 Bft)
03.07.2017 01:53 11,7 °C 11,7 °C 95 % 1021,6 hPa 0,0 mm 4,5 km/h (1 Bft) W 275 ° 0 min 0,000 mm 0,0 UV-I 0 W/m² 10,9 °C 11,7 °C 6,4 km/h (2 Bft)
03.07.2017 01:54 11,7 °C 11,7 °C 95 % 1021,6 hPa 0,0 mm 3,5 km/h (1 Bft) W-SW 254 ° 0 min 0,000 mm 0,0 UV-I 0 W/m² 10,9 °C 11,7 °C 6,4 km/h (2 Bft)
03.07.2017 01:55 11,7 °C 11,7 °C 95 % 1021,6 hPa 0,0 mm 5,1 km/h (1 Bft) W-SW 256 ° 0 min 0,000 mm 0,0 UV-I 0 W/m² 10,9 °C 11,7 °C 9,7 km/h (2 Bft)
03.07.2017 01:56 11,7 °C 11,7 °C 95 % 1021,6 hPa 0,0 mm 4,4 km/h (1 Bft) W 269 ° 0 min 0,000 mm 0,0 UV-I 0 W/m² 10,9 °C 11,7 °C 6,4 km/h (2 Bft)
03.07.2017 01:57 11,7 °C 11,7 °C 95 % 1021,6 hPa 0,0 mm 4,1 km/h (1 Bft) W 259 ° 0 min 0,000 mm 0,0 UV-I 0 W/m² 10,9 °C 11,7 °C 4,8 km/h (1 Bft)
03.07.2017 01:58 11,7 °C 11,7 °C 95 % 1021,6 hPa 0,0 mm 4,2 km/h (1 Bft) W-SW 252 ° 0 min 0,000 mm 0,0 UV-I 0 W/m² 10,9 °C 11,7 °C 6,4 km/h (2 Bft)
03.07.2017 01:59 11,7 °C 11,7 °C 95 % 1021,6 hPa 0,0 mm 2,5 km/h (1 Bft) W-SW 246 ° 0 min 0,000 mm 0,0 UV-I 0 W/m² 10,9 °C 11,7 °C 4,8 km/h (1 Bft)
03.07.2017 02:00 11,7 °C 11,7 °C 95 % 1021,6 hPa 0,0 mm 2,7 km/h (1 Bft) W-SW 247 ° 0 min 0,000 mm 0,0 UV-I 0 W/m² 10,9 °C 11,7 °C 4,8 km/h (1 Bft)
03.07.2017 02:01 11,7 °C 11,7 °C 95 % 1021,6 hPa 0,0 mm 5,1 km/h (1 Bft) W 261 ° 0 min 0,000 mm 0,0 UV-I 0 W/m² 10,9 °C 11,7 °C 6,4 km/h (2 Bft)
03.07.2017 02:02 11,7 °C 11,7 °C 95 % 1021,6 hPa 0,0 mm 2,7 km/h (1 Bft) W 261 ° 0 min 0,000 mm 0,0 UV-I 0 W/m² 10,9 °C 11,7 °C 4,8 km/h (1 Bft)
03.07.2017 02:03 11,8 °C 11,8 °C 95 % 1021,6 hPa 0,0 mm 2,7 km/h (1 Bft) W 261 ° 0 min 0,000 mm 0,0 UV-I 0 W/m² 11,0 °C 11,8 °C 3,2 km/h (1 Bft)
03.07.2017 02:04 11,7 °C 11,8 °C 95 % 1021,6 hPa 0,0 mm 1,2 km/h (1 Bft) W-SW 242 ° 0 min 0,000 mm 0,0 UV-I 0 W/m² 10,9 °C 11,7 °C 3,2 km/h (1 Bft)
03.07.2017 02:05 11,7 °C 11,7 °C 95 % 1021,6 hPa 0,0 mm 1,9 km/h (1 Bft) W-SW 243 ° 0 min 0,000 mm 0,0 UV-I 0 W/m² 10,9 °C 11,7 °C 3,2 km/h (1 Bft)
03.07.2017 02:06 11,7 °C 11,7 °C 95 % 1021,6 hPa 0,0 mm 1,9 km/h (1 Bft) W-SW 243 ° 0 min 0,000 mm 0,0 UV-I 0 W/m² 10,9 °C 11,7 °C 3,2 km/h (1 Bft)
03.07.2017 02:07 11,7 °C 11,7 °C 95 % 1021,6 hPa 0,0 mm 0,1 km/h (0 Bft) W-SW 242 ° 0 min 0,000 mm 0,0 UV-I 0 W/m² 10,9 °C 11,7 °C 1,6 km/h (1 Bft)
03.07.2017 02:08 11,7 °C 11,7 °C 95 % 1021,6 hPa 0,0 mm 0,0 km/h (0 Bft) W-SW 243 ° 0 min 0,000 mm 0,0 UV-I 0 W/m² 10,9 °C 11,7 °C 0,0 km/h (0 Bft)
03.07.2017 02:09 11,7 °C 11,7 °C 95 % 1021,6 hPa 0,0 mm 1,1 km/h (1 Bft) W 275 ° 0 min 0,000 mm 0,0 UV-I 0 W/m² 10,9 °C 11,7 °C 4,8 km/h (1 Bft)
03.07.2017 02:10 11,7 °C 11,7 °C 95 % 1021,6 hPa 0,0 mm 2,1 km/h (1 Bft) W-NW 292 ° 0 min 0,000 mm 0,0 UV-I 0 W/m² 10,9 °C 11,7 °C 4,8 km/h (1 Bft)
03.07.2017 02:11 11,7 °C 11,7 °C 95 % 1021,6 hPa 0,0 mm 1,3 km/h (1 Bft) W-NW 284 ° 0 min 0,000 mm 0,0 UV-I 0 W/m² 10,9 °C 11,7 °C 3,2 km/h (1 Bft)
03.07.2017 02:12 11,7 °C 11,7 °C 95 % 1021,7 hPa 0,0 mm 0,3 km/h (0 Bft) W-NW 284 ° 0 min 0,000 mm 0,0 UV-I 0 W/m² 10,9 °C 11,7 °C 1,6 km/h (1 Bft)
03.07.2017 02:13 11,7 °C 11,7 °C 95 % 1021,6 hPa 0,0 mm 0,7 km/h (0 Bft) W-NW 284 ° 0 min 0,000 mm 0,0 UV-I 0 W/m² 10,9 °C 11,7 °C 1,6 km/h (1 Bft)
03.07.2017 02:14 11,7 °C 11,7 °C 95 % 1021,6 hPa 0,0 mm 0,8 km/h (0 Bft) W-NW 284 ° 0 min 0,000 mm 0,0 UV-I 0 W/m² 10,9 °C 11,7 °C 3,2 km/h (1 Bft)
03.07.2017 02:15 11,7 °C 11,8 °C 95 % 1021,6 hPa 0,0 mm 2,4 km/h (1 Bft) SW 236 ° 0 min 0,000 mm 0,0 UV-I 0 W/m² 10,9 °C 11,7 °C 4,8 km/h (1 Bft)
03.07.2017 02:16 11,8 °C 11,8 °C 95 % 1021,6 hPa 0,0 mm 0,4 km/h (0 Bft) SW 236 ° 0 min 0,000 mm 0,0 UV-I 0 W/m² 11,0 °C 11,8 °C 1,6 km/h (1 Bft)
03.07.2017 02:17 11,8 °C 11,8 °C 95 % 1021,6 hPa 0,0 mm 1,1 km/h (1 Bft) SW 236 ° 0 min 0,000 mm 0,0 UV-I 0 W/m² 11,0 °C 11,8 °C 1,6 km/h (1 Bft)
03.07.2017 02:18 11,7 °C 11,8 °C 95 % 1021,6 hPa 0,0 mm 0,2 km/h (0 Bft) SW 236 ° 0 min 0,000 mm 0,0 UV-I 0 W/m² 10,9 °C 11,7 °C 1,6 km/h (1 Bft)
03.07.2017 02:19 11,8 °C 11,8 °C 95 % 1021,6 hPa 0,0 mm 0,0 km/h (0 Bft) SW 236 ° 0 min 0,000 mm 0,0 UV-I 0 W/m² 11,0 °C 11,8 °C 0,0 km/h (0 Bft)
03.07.2017 02:20 11,8 °C 11,8 °C 95 % 1021,7 hPa 0,0 mm 0,0 km/h (0 Bft) SW 236 ° 0 min 0,000 mm 0,0 UV-I 0 W/m² 11,0 °C 11,8 °C 0,0 km/h (0 Bft)
03.07.2017 02:21 11,8 °C 11,8 °C 95 % 1021,7 hPa 0,0 mm 1,2 km/h (1 Bft) SW 232 ° 0 min 0,000 mm 0,0 UV-I 0 W/m² 11,0 °C 11,8 °C 3,2 km/h (1 Bft)
03.07.2017 02:22 11,8 °C 11,8 °C 95 % 1021,6 hPa 0,0 mm 0,5 km/h (0 Bft) SW 232 ° 0 min 0,000 mm 0,0 UV-I 0 W/m² 11,0 °C 11,8 °C 1,6 km/h (1 Bft)
03.07.2017 02:23 11,8 °C 11,8 °C 95 % 1021,7 hPa 0,0 mm 0,7 km/h (0 Bft) SW 232 ° 0 min 0,000 mm 0,0 UV-I 0 W/m² 11,0 °C 11,8 °C 1,6 km/h (1 Bft)
03.07.2017 02:24 11,8 °C 11,8 °C 95 % 1021,7 hPa 0,0 mm 1,1 km/h (1 Bft) SW 231 ° 0 min 0,000 mm 0,0 UV-I 0 W/m² 11,0 °C 11,8 °C 3,2 km/h (1 Bft)
03.07.2017 02:25 11,8 °C 11,9 °C 95 % 1021,7 hPa 0,0 mm 0,5 km/h (0 Bft) SW 234 ° 0 min 0,000 mm 0,0 UV-I 0 W/m² 11,0 °C 11,8 °C 1,6 km/h (1 Bft)
03.07.2017 02:26 11,9 °C 11,9 °C 95 % 1021,7 hPa 0,0 mm 1,2 km/h (1 Bft) SW 234 ° 0 min 0,000 mm 0,0 UV-I 0 W/m² 11,1 °C 11,9 °C 3,2 km/h (1 Bft)
03.07.2017 02:27 11,9 °C 11,9 °C 95 % 1021,8 hPa 0,0 mm 0,3 km/h (0 Bft) SW 234 ° 0 min 0,000 mm 0,0 UV-I 0 W/m² 11,1 °C 11,9 °C 1,6 km/h (1 Bft)
03.07.2017 02:28 11,9 °C 11,9 °C 95 % 1021,7 hPa 0,0 mm 1,9 km/h (1 Bft) W-SW 249 ° 0 min 0,000 mm 0,0 UV-I 0 W/m² 11,1 °C 11,9 °C 4,8 km/h (1 Bft)
03.07.2017 02:29 11,9 °C 11,9 °C 95 % 1021,7 hPa 0,0 mm 0,1 km/h (0 Bft) W-SW 249 ° 0 min 0,000 mm 0,0 UV-I 0 W/m² 11,1 °C 11,9 °C 1,6 km/h (1 Bft)
03.07.2017 02:30 11,9 °C 11,9 °C 95 % 1021,7 hPa 0,0 mm 4,4 km/h (1 Bft) W-SW 240 ° 0 min 0,000 mm 0,0 UV-I 0 W/m² 11,1 °C 11,9 °C 11,3 km/h (2 Bft)
03.07.2017 02:31 11,9 °C 11,9 °C 95 % 1021,7 hPa 0,0 mm 6,8 km/h (2 Bft) W 275 ° 0 min 0,000 mm 0,0 UV-I 0 W/m² 11,1 °C 11,9 °C 11,3 km/h (2 Bft)
03.07.2017 02:32 11,9 °C 11,9 °C 95 % 1021,7 hPa 0,0 mm 3,5 km/h (1 Bft) W-SW 247 ° 0 min 0,000 mm 0,0 UV-I 0 W/m² 11,1 °C 11,9 °C 6,4 km/h (2 Bft)
03.07.2017 02:33 11,9 °C 11,9 °C 95 % 1021,7 hPa 0,0 mm 3,6 km/h (1 Bft) W 259 ° 0 min 0,000 mm 0,0 UV-I 0 W/m² 11,1 °C 11,9 °C 4,8 km/h (1 Bft)
03.07.2017 02:34 11,9 °C 11,9 °C 95 % 1021,7 hPa 0,0 mm 3,0 km/h (1 Bft) W 260 ° 0 min 0,000 mm 0,0 UV-I 0 W/m² 11,1 °C 11,9 °C 4,8 km/h (1 Bft)
03.07.2017 02:35 11,9 °C 11,9 °C 95 % 1021,7 hPa 0,0 mm 6,0 km/h (2 Bft) W 268 ° 0 min 0,000 mm 0,0 UV-I 0 W/m² 11,1 °C 11,9 °C 11,3 km/h (2 Bft)
03.07.2017 02:36 11,9 °C 11,9 °C 95 % 1021,7 hPa 0,0 mm 0,5 km/h (0 Bft) W 268 ° 0 min 0,000 mm 0,0 UV-I 0 W/m² 11,1 °C 11,9 °C 3,2 km/h (1 Bft)
03.07.2017 02:37 11,9 °C 11,9 °C 95 % 1021,7 hPa 0,0 mm 2,8 km/h (1 Bft) W-SW 240 ° 0 min 0,000 mm 0,0 UV-I 0 W/m² 11,1 °C 11,9 °C 6,4 km/h (2 Bft)
03.07.2017 02:38 11,9 °C 12,0 °C 95 % 1021,7 hPa 0,0 mm 4,5 km/h (1 Bft) SW 228 ° 0 min 0,000 mm 0,0 UV-I 0 W/m² 11,1 °C 11,9 °C 6,4 km/h (2 Bft)
03.07.2017 02:39 11,9 °C 12,0 °C 95 % 1021,7 hPa 0,0 mm 8,3 km/h (2 Bft) W-SW 255 ° 0 min 0,000 mm 0,0 UV-I 0 W/m² 11,1 °C 11,9 °C 14,5 km/h (3 Bft)
03.07.2017 02:40 11,9 °C 12,0 °C 95 % 1021,7 hPa 0,0 mm 7,4 km/h (2 Bft) W-SW 254 ° 0 min 0,000 mm 0,0 UV-I 0 W/m² 11,1 °C 11,9 °C 12,9 km/h (3 Bft)
03.07.2017 02:41 12,0 °C 12,0 °C 95 % 1021,7 hPa 0,2 mm 8,3 km/h (2 Bft) W-SW 257 ° 0 min 0,000 mm 0,0 UV-I 0 W/m² 11,2 °C 12,0 °C 14,5 km/h (3 Bft)
03.07.2017 02:42 12,0 °C 12,0 °C 95 % 1021,7 hPa 0,0 mm 3,0 km/h (1 Bft) W-SW 257 ° 0 min 0,000 mm 0,0 UV-I 0 W/m² 11,2 °C 12,0 °C 8,0 km/h (2 Bft)
03.07.2017 02:43 12,0 °C 12,0 °C 94 % 1021,8 hPa 0,0 mm 6,4 km/h (2 Bft) W-SW 257 ° 0 min 0,000 mm 0,0 UV-I 0 W/m² 11,1 °C 12,0 °C 11,3 km/h (2 Bft)
03.07.2017 02:44 12,0 °C 12,0 °C 94 % 1021,8 hPa 0,0 mm 9,3 km/h (2 Bft) W 259 ° 0 min 0,000 mm 0,0 UV-I 0 W/m² 11,1 °C 12,0 °C 12,9 km/h (3 Bft)
03.07.2017 02:45 12,0 °C 12,0 °C 94 % 1021,8 hPa 0,0 mm 8,2 km/h (2 Bft) W-SW 244 ° 0 min 0,000 mm 0,0 UV-I 0 W/m² 11,1 °C 12,0 °C 14,5 km/h (3 Bft)
03.07.2017 02:46 12,0 °C 12,0 °C 94 % 1021,8 hPa 0,0 mm 6,6 km/h (2 Bft) SW 232 ° 0 min 0,000 mm 0,0 UV-I 0 W/m² 11,1 °C 12,0 °C 11,3 km/h (2 Bft)
03.07.2017 02:47 12,0 °C 12,0 °C 94 % 1021,7 hPa 0,0 mm 3,0 km/h (1 Bft) W 269 ° 0 min 0,000 mm 0,0 UV-I 0 W/m² 11,1 °C 12,0 °C 6,4 km/h (2 Bft)
03.07.2017 02:48 12,0 °C 12,0 °C 94 % 1021,7 hPa 0,0 mm 5,5 km/h (1 Bft) W 262 ° 0 min 0,000 mm 0,0 UV-I 0 W/m² 11,1 °C 12,0 °C 11,3 km/h (2 Bft)
03.07.2017 02:49 11,9 °C 12,0 °C 94 % 1021,7 hPa 0,0 mm 5,3 km/h (1 Bft) NW 310 ° 0 min 0,000 mm 0,0 UV-I 0 W/m² 11,0 °C 11,9 °C 8,0 km/h (2 Bft)
03.07.2017 02:50 11,9 °C 11,9 °C 94 % 1021,6 hPa 0,0 mm 3,8 km/h (1 Bft) W 269 ° 0 min 0,000 mm 0,0 UV-I 0 W/m² 11,0 °C 11,9 °C 6,4 km/h (2 Bft)
03.07.2017 02:51 11,9 °C 12,0 °C 94 % 1021,7 hPa 0,0 mm 7,6 km/h (2 Bft) S 189 ° 0 min 0,000 mm 0,0 UV-I 0 W/m² 11,0 °C 11,9 °C 9,7 km/h (2 Bft)
03.07.2017 02:52 11,9 °C 11,9 °C 94 % 1021,7 hPa 0,0 mm 5,7 km/h (1 Bft) SW 214 ° 0 min 0,000 mm 0,0 UV-I 0 W/m² 11,0 °C 11,9 °C 9,7 km/h (2 Bft)
03.07.2017 02:53 11,9 °C 11,9 °C 94 % 1021,6 hPa 0,0 mm 6,9 km/h (2 Bft) W 269 ° 0 min 0,000 mm 0,0 UV-I 0 W/m² 11,0 °C 11,9 °C 11,3 km/h (2 Bft)
03.07.2017 02:54 12,0 °C 12,0 °C 94 % 1021,7 hPa 0,0 mm 7,2 km/h (2 Bft) W 271 ° 0 min 0,000 mm 0,0 UV-I 0 W/m² 11,1 °C 12,0 °C 16,1 km/h (3 Bft)
03.07.2017 02:55 12,0 °C 12,0 °C 94 % 1021,6 hPa 0,0 mm 11,4 km/h (2 Bft) W 263 ° 0 min 0,000 mm 0,0 UV-I 0 W/m² 11,1 °C 12,0 °C 14,5 km/h (3 Bft)
03.07.2017 02:56 12,0 °C 12,0 °C 94 % 1021,7 hPa 0,0 mm 7,0 km/h (2 Bft) W-SW 254 ° 0 min 0,000 mm 0,0 UV-I 0 W/m² 11,1 °C 12,0 °C 11,3 km/h (2 Bft)
03.07.2017 02:57 12,0 °C 12,0 °C 94 % 1021,7 hPa 0,0 mm 7,6 km/h (2 Bft) W-SW 253 ° 0 min 0,000 mm 0,0 UV-I 0 W/m² 11,1 °C 12,0 °C 14,5 km/h (3 Bft)
03.07.2017 02:58 12,0 °C 12,1 °C 94 % 1021,7 hPa 0,0 mm 5,6 km/h (1 Bft) W 265 ° 0 min 0,000 mm 0,0 UV-I 0 W/m² 11,1 °C 12,0 °C 9,7 km/h (2 Bft)
03.07.2017 02:59 12,0 °C 12,1 °C 94 % 1021,7 hPa 0,0 mm 6,6 km/h (2 Bft) SW 215 ° 0 min 0,000 mm 0,0 UV-I 0 W/m² 11,1 °C 12,0 °C 12,9 km/h (3 Bft)
03.07.2017 03:00 12,0 °C 12,1 °C 94 % 1021,7 hPa 0,2 mm 5,0 km/h (1 Bft) W-SW 257 ° 0 min 0,000 mm 0,0 UV-I 0 W/m² 11,1 °C 12,0 °C 8,0 km/h (2 Bft)
03.07.2017 03:01 12,0 °C 12,1 °C 94 % 1021,7 hPa 0,0 mm 5,0 km/h (1 Bft) W-NW 284 ° 0 min 0,000 mm 0,0 UV-I 0 W/m² 11,1 °C 12,0 °C 6,4 km/h (2 Bft)
03.07.2017 03:02 12,0 °C 12,1 °C 94 % 1021,7 hPa 0,0 mm 6,6 km/h (2 Bft) W-SW 250 ° 0 min 0,000 mm 0,0 UV-I 0 W/m² 11,1 °C 12,0 °C 9,7 km/h (2 Bft)
03.07.2017 03:03 12,1 °C 12,1 °C 94 % 1021,7 hPa 0,0 mm 6,7 km/h (2 Bft) W-SW 257 ° 0 min 0,000 mm 0,0 UV-I 0 W/m² 11,2 °C 12,1 °C 11,3 km/h (2 Bft)
03.07.2017 03:04 12,1 °C 12,1 °C 94 % 1021,7 hPa 0,0 mm 11,1 km/h (2 Bft) W 276 ° 0 min 0,000 mm 0,0 UV-I 0 W/m² 11,2 °C 12,1 °C 14,5 km/h (3 Bft)
03.07.2017 03:05 12,0 °C 12,1 °C 94 % 1021,7 hPa 0,0 mm 8,5 km/h (2 Bft) W 265 ° 0 min 0,000 mm 0,0 UV-I 0 W/m² 11,1 °C 12,0 °C 14,5 km/h (3 Bft)
03.07.2017 03:06 12,0 °C 12,0 °C 94 % 1021,6 hPa 0,0 mm 4,2 km/h (1 Bft) W-SW 244 ° 0 min 0,000 mm 0,0 UV-I 0 W/m² 11,1 °C 12,0 °C 9,7 km/h (2 Bft)
03.07.2017 03:07 12,0 °C 12,0 °C 94 % 1021,6 hPa 0,0 mm 9,0 km/h (2 Bft) W-SW 258 ° 0 min 0,000 mm 0,0 UV-I 0 W/m² 11,1 °C 12,0 °C 17,7 km/h (3 Bft)
03.07.2017 03:08 11,9 °C 12,0 °C 94 % 1021,7 hPa 0,0 mm 12,2 km/h (2 Bft) W-SW 253 ° 0 min 0,000 mm 0,0 UV-I 0 W/m² 11,0 °C 11,9 °C 19,3 km/h (3 Bft)
03.07.2017 03:09 12,0 °C 12,0 °C 94 % 1021,6 hPa 0,0 mm 7,4 km/h (2 Bft) W 279 ° 0 min 0,000 mm 0,0 UV-I 0 W/m² 11,1 °C 12,0 °C 16,1 km/h (3 Bft)
03.07.2017 03:10 12,0 °C 12,0 °C 94 % 1021,6 hPa 0,2 mm 4,8 km/h (1 Bft) W 267 ° 0 min 0,000 mm 0,0 UV-I 0 W/m² 11,1 °C 12,0 °C 9,7 km/h (2 Bft)
03.07.2017 03:11 12,0 °C 12,0 °C 94 % 1021,6 hPa 0,0 mm 7,5 km/h (2 Bft) W-SW 252 ° 0 min 0,000 mm 0,0 UV-I 0 W/m² 11,1 °C 12,0 °C 12,9 km/h (3 Bft)
03.07.2017 03:12 12,0 °C 12,0 °C 94 % 1021,6 hPa 0,0 mm 7,4 km/h (2 Bft) W-SW 257 ° 0 min 0,000 mm 0,0 UV-I 0 W/m² 11,1 °C 12,0 °C 12,9 km/h (3 Bft)
03.07.2017 03:13 11,9 °C 12,0 °C 94 % 1021,6 hPa 0,0 mm 5,8 km/h (2 Bft) W-SW 242 ° 0 min 0,000 mm 0,0 UV-I 0 W/m² 11,0 °C 11,9 °C 11,3 km/h (2 Bft)
03.07.2017 03:14 12,0 °C 12,0 °C 94 % 1021,6 hPa 0,0 mm 10,3 km/h (2 Bft) W 266 ° 0 min 0,000 mm 0,0 UV-I 0 W/m² 11,1 °C 12,0 °C 16,1 km/h (3 Bft)
03.07.2017 03:15 11,9 °C 12,0 °C 94 % 1021,6 hPa 0,0 mm 6,9 km/h (2 Bft) W-SW 244 ° 0 min 0,000 mm 0,0 UV-I 0 W/m² 11,0 °C 11,9 °C 16,1 km/h (3 Bft)
03.07.2017 03:16 11,9 °C 11,9 °C 94 % 1021,6 hPa 0,0 mm 6,6 km/h (2 Bft) W-SW 256 ° 0 min 0,000 mm 0,0 UV-I 0 W/m² 11,0 °C 11,9 °C 14,5 km/h (3 Bft)
03.07.2017 03:17 11,9 °C 12,0 °C 94 % 1021,6 hPa 0,0 mm 4,4 km/h (1 Bft) W 267 ° 0 min 0,000 mm 0,0 UV-I 0 W/m² 11,0 °C 11,9 °C 9,7 km/h (2 Bft)
03.07.2017 03:18 11,9 °C 12,0 °C 94 % 1021,6 hPa 0,0 mm 5,9 km/h (2 Bft) W-SW 248 ° 0 min 0,000 mm 0,0 UV-I 0 W/m² 11,0 °C 11,9 °C 9,7 km/h (2 Bft)
03.07.2017 03:19 11,9 °C 12,0 °C 94 % 1021,6 hPa 0,0 mm 8,4 km/h (2 Bft) W 275 ° 0 min 0,000 mm 0,0 UV-I 0 W/m² 11,0 °C 11,9 °C 11,3 km/h (2 Bft)
03.07.2017 03:20 11,9 °C 11,9 °C 94 % 1021,6 hPa 0,0 mm 7,8 km/h (2 Bft) W 267 ° 0 min 0,000 mm 0,0 UV-I 0 W/m² 11,0 °C 11,9 °C 11,3 km/h (2 Bft)
03.07.2017 03:21 11,9 °C 11,9 °C 94 % 1021,6 hPa 0,0 mm 8,4 km/h (2 Bft) W-SW 252 ° 0 min 0,000 mm 0,0 UV-I 0 W/m² 11,0 °C 11,9 °C 12,9 km/h (3 Bft)
03.07.2017 03:22 11,9 °C 11,9 °C 94 % 1021,6 hPa 0,2 mm 6,4 km/h (2 Bft) W 265 ° 0 min 0,000 mm 0,0 UV-I 0 W/m² 11,0 °C 11,9 °C 11,3 km/h (2 Bft)
03.07.2017 03:23 11,9 °C 11,9 °C 94 % 1021,6 hPa 0,0 mm 8,0 km/h (2 Bft) S-SW 207 ° 0 min 0,000 mm 0,0 UV-I 0 W/m² 11,0 °C 11,9 °C 14,5 km/h (3 Bft)
03.07.2017 03:24 11,9 °C 11,9 °C 94 % 1021,6 hPa 0,0 mm 10,2 km/h (2 Bft) W-SW 239 ° 0 min 0,000 mm 0,0 UV-I 0 W/m² 11,0 °C 11,9 °C 14,5 km/h (3 Bft)
03.07.2017 03:25 11,9 °C 11,9 °C 94 % 1021,6 hPa 0,0 mm 7,7 km/h (2 Bft) W 278 ° 0 min 0,000 mm 0,0 UV-I 0 W/m² 11,0 °C 11,9 °C 11,3 km/h (2 Bft)
03.07.2017 03:26 11,9 °C 11,9 °C 94 % 1021,6 hPa 0,0 mm 5,2 km/h (1 Bft) W-SW 254 ° 0 min 0,000 mm 0,0 UV-I 0 W/m² 11,0 °C 11,9 °C 9,7 km/h (2 Bft)
03.07.2017 03:27 11,9 °C 11,9 °C 94 % 1021,6 hPa 0,0 mm 4,0 km/h (1 Bft) W-NW 290 ° 0 min 0,000 mm 0,0 UV-I 0 W/m² 11,0 °C 11,9 °C 11,3 km/h (2 Bft)
03.07.2017 03:28 11,9 °C 11,9 °C 94 % 1021,6 hPa 0,0 mm 9,3 km/h (2 Bft) W 267 ° 0 min 0,000 mm 0,0 UV-I 0 W/m² 11,0 °C 11,9 °C 12,9 km/h (3 Bft)
03.07.2017 03:29 11,9 °C 11,9 °C 94 % 1021,6 hPa 0,0 mm 7,5 km/h (2 Bft) W 261 ° 0 min 0,000 mm 0,0 UV-I 0 W/m² 11,0 °C 11,9 °C 12,9 km/h (3 Bft)
03.07.2017 03:30 11,9 °C 11,9 °C 94 % 1021,6 hPa 0,0 mm 4,0 km/h (1 Bft) W-SW 252 ° 0 min 0,000 mm 0,0 UV-I 0 W/m² 11,0 °C 11,9 °C 8,0 km/h (2 Bft)
03.07.2017 03:31 11,9 °C 11,9 °C 94 % 1021,6 hPa 0,0 mm 3,1 km/h (1 Bft) SW 235 ° 0 min 0,000 mm 0,0 UV-I 0 W/m² 11,0 °C 11,9 °C 6,4 km/h (2 Bft)
03.07.2017 03:32 11,9 °C 11,9 °C 94 % 1021,6 hPa 0,2 mm 4,8 km/h (1 Bft) W 267 ° 0 min 0,000 mm 0,0 UV-I 0 W/m² 11,0 °C 11,9 °C 9,7 km/h (2 Bft)
03.07.2017 03:33 11,9 °C 11,9 °C 94 % 1021,6 hPa 0,0 mm 4,2 km/h (1 Bft) W-SW 238 ° 0 min 0,000 mm 0,0 UV-I 0 W/m² 11,0 °C 11,9 °C 6,4 km/h (2 Bft)
03.07.2017 03:34 11,9 °C 11,9 °C 94 % 1021,6 hPa 0,0 mm 3,8 km/h (1 Bft) W 278 ° 0 min 0,000 mm 0,0 UV-I 0 W/m² 11,0 °C 11,9 °C 8,0 km/h (2 Bft)
03.07.2017 03:35 11,9 °C 11,9 °C 94 % 1021,6 hPa 0,0 mm 2,9 km/h (1 Bft) W-SW 246 ° 0 min 0,000 mm 0,0 UV-I 0 W/m² 11,0 °C 11,9 °C 4,8 km/h (1 Bft)
03.07.2017 03:36 11,8 °C 11,9 °C 94 % 1021,5 hPa 0,0 mm 3,6 km/h (1 Bft) SW 232 ° 0 min 0,000 mm 0,0 UV-I 0 W/m² 10,9 °C 11,8 °C 6,4 km/h (2 Bft)
03.07.2017 03:37 11,9 °C 11,9 °C 94 % 1021,6 hPa 0,0 mm 4,4 km/h (1 Bft) W-SW 248 ° 0 min 0,000 mm 0,0 UV-I 0 W/m² 11,0 °C 11,9 °C 8,0 km/h (2 Bft)
03.07.2017 03:38 11,8 °C 11,9 °C 94 % 1021,5 hPa 0,0 mm 6,5 km/h (2 Bft) SW 233 ° 0 min 0,000 mm 0,0 UV-I 0 W/m² 10,9 °C 11,8 °C 9,7 km/h (2 Bft)
03.07.2017 03:39 11,9 °C 11,9 °C 94 % 1021,5 hPa 0,0 mm 3,6 km/h (1 Bft) W-SW 256 ° 0 min 0,000 mm 0,0 UV-I 0 W/m² 11,0 °C 11,9 °C 6,4 km/h (2 Bft)
03.07.2017 03:40 11,9 °C 11,9 °C 94 % 1021,5 hPa 0,0 mm 3,4 km/h (1 Bft) SW 229 ° 0 min 0,000 mm 0,0 UV-I 0 W/m² 11,0 °C 11,9 °C 6,4 km/h (2 Bft)
03.07.2017 03:41 11,8 °C 11,9 °C 94 % 1021,5 hPa 0,0 mm 3,8 km/h (1 Bft) SW 217 ° 0 min 0,000 mm 0,0 UV-I 0 W/m² 10,9 °C 11,8 °C 6,4 km/h (2 Bft)
03.07.2017 03:42 11,9 °C 11,9 °C 94 % 1021,5 hPa 0,0 mm 3,4 km/h (1 Bft) W-SW 243 ° 0 min 0,000 mm 0,0 UV-I 0 W/m² 11,0 °C 11,9 °C 4,8 km/h (1 Bft)
03.07.2017 03:43 11,9 °C 11,9 °C 94 % 1021,5 hPa 0,0 mm 1,9 km/h (1 Bft) W-SW 243 ° 0 min 0,000 mm 0,0 UV-I 0 W/m² 11,0 °C 11,9 °C 4,8 km/h (1 Bft)
03.07.2017 03:44 11,9 °C 11,9 °C 94 % 1021,5 hPa 0,0 mm 3,4 km/h (1 Bft) W-SW 238 ° 0 min 0,000 mm 0,0 UV-I 0 W/m² 11,0 °C 11,9 °C 4,8 km/h (1 Bft)
03.07.2017 03:45 11,9 °C 11,9 °C 94 % 1021,4 hPa 0,0 mm 3,3 km/h (1 Bft) SW 236 ° 0 min 0,000 mm 0,0 UV-I 0 W/m² 11,0 °C 11,9 °C 8,0 km/h (2 Bft)
03.07.2017 03:46 11,9 °C 11,9 °C 94 % 1021,5 hPa 0,0 mm 4,4 km/h (1 Bft) W-SW 242 ° 0 min 0,000 mm 0,0 UV-I 0 W/m² 11,0 °C 11,9 °C 12,9 km/h (3 Bft)
03.07.2017 03:47 11,9 °C 11,9 °C 94 % 1021,5 hPa 0,0 mm 2,6 km/h (1 Bft) SW 226 ° 0 min 0,000 mm 0,0 UV-I 0 W/m² 11,0 °C 11,9 °C 8,0 km/h (2 Bft)
03.07.2017 03:48 11,9 °C 11,9 °C 94 % 1021,5 hPa 0,0 mm 6,0 km/h (2 Bft) W-NW 282 ° 0 min 0,000 mm 0,0 UV-I 0 W/m² 11,0 °C 11,9 °C 11,3 km/h (2 Bft)
03.07.2017 03:49 11,9 °C 11,9 °C 94 % 1021,5 hPa 0,0 mm 5,4 km/h (1 Bft) W-SW 244 ° 0 min 0,000 mm 0,0 UV-I 0 W/m² 11,0 °C 11,9 °C 9,7 km/h (2 Bft)
03.07.2017 03:50 11,9 °C 11,9 °C 94 % 1021,5 hPa 0,0 mm 2,8 km/h (1 Bft) W 261 ° 0 min 0,000 mm 0,0 UV-I 0 W/m² 11,0 °C 11,9 °C 4,8 km/h (1 Bft)
03.07.2017 03:51 11,9 °C 11,9 °C 94 % 1021,4 hPa 0,0 mm 4,1 km/h (1 Bft) W-NW 288 ° 0 min 0,000 mm 0,0 UV-I 0 W/m² 11,0 °C 11,9 °C 4,8 km/h (1 Bft)
03.07.2017 03:52 11,9 °C 11,9 °C 94 % 1021,4 hPa 0,0 mm 8,4 km/h (2 Bft) S 175 ° 0 min 0,000 mm 0,0 UV-I 0 W/m² 11,0 °C 11,9 °C 12,9 km/h (3 Bft)
03.07.2017 03:53 11,8 °C 11,9 °C 94 % 1021,4 hPa 0,0 mm 9,4 km/h (2 Bft) W-NW 282 ° 0 min 0,000 mm 0,0 UV-I 0 W/m² 10,9 °C 11,8 °C 16,1 km/h (3 Bft)
03.07.2017 03:54 11,9 °C 11,9 °C 94 % 1021,4 hPa 0,0 mm 6,1 km/h (2 Bft) W-SW 254 ° 0 min 0,000 mm 0,0 UV-I 0 W/m² 11,0 °C 11,9 °C 11,3 km/h (2 Bft)
03.07.2017 03:55 11,9 °C 11,9 °C 94 % 1021,4 hPa 0,0 mm 4,6 km/h (1 Bft) S-SW 212 ° 0 min 0,000 mm 0,0 UV-I 0 W/m² 11,0 °C 11,9 °C 6,4 km/h (2 Bft)
03.07.2017 03:56 11,9 °C 11,9 °C 94 % 1021,4 hPa 0,0 mm 2,0 km/h (1 Bft) S-SW 212 ° 0 min 0,000 mm 0,0 UV-I 0 W/m² 11,0 °C 11,9 °C 3,2 km/h (1 Bft)
03.07.2017 03:57 11,9 °C 11,9 °C 94 % 1021,4 hPa 0,0 mm 6,1 km/h (2 Bft) S-SW 202 ° 0 min 0,000 mm 0,0 UV-I 0 W/m² 11,0 °C 11,9 °C 11,3 km/h (2 Bft)
03.07.2017 03:58 11,9 °C 11,9 °C 94 % 1021,4 hPa 0,0 mm 10,4 km/h (2 Bft) SW 232 ° 0 min 0,000 mm 0,0 UV-I 0 W/m² 11,0 °C 11,9 °C 17,7 km/h (3 Bft)
03.07.2017 03:59 11,9 °C 11,9 °C 94 % 1021,4 hPa 0,0 mm 4,7 km/h (1 Bft) W-NW 302 ° 0 min 0,000 mm 0,0 UV-I 0 W/m² 11,0 °C 11,9 °C 9,7 km/h (2 Bft)
03.07.2017 04:00 11,9 °C 11,9 °C 94 % 1021,4 hPa 0,0 mm 9,3 km/h (2 Bft) W 267 ° 0 min 0,000 mm 0,0 UV-I 0 W/m² 11,0 °C 11,9 °C 12,9 km/h (3 Bft)
03.07.2017 04:01 11,9 °C 11,9 °C 94 % 1021,4 hPa 0,0 mm 7,1 km/h (2 Bft) W 277 ° 0 min 0,000 mm 0,0 UV-I 0 W/m² 11,0 °C 11,9 °C 9,7 km/h (2 Bft)
03.07.2017 04:02 11,9 °C 11,9 °C 94 % 1021,4 hPa 0,0 mm 13,0 km/h (3 Bft) W 281 ° 0 min 0,000 mm 0,0 UV-I 0 W/m² 11,0 °C 11,9 °C 17,7 km/h (3 Bft)
03.07.2017 04:03 11,9 °C 11,9 °C 94 % 1021,4 hPa 0,0 mm 6,0 km/h (2 Bft) W-SW 258 ° 0 min 0,000 mm 0,0 UV-I 0 W/m² 11,0 °C 11,9 °C 9,7 km/h (2 Bft)
03.07.2017 04:04 11,9 °C 11,9 °C 94 % 1021,4 hPa 0,0 mm 3,4 km/h (1 Bft) W-SW 256 ° 0 min 0,000 mm 0,0 UV-I 0 W/m² 11,0 °C 11,9 °C 6,4 km/h (2 Bft)
03.07.2017 04:05 11,9 °C 11,9 °C 94 % 1021,4 hPa 0,0 mm 5,6 km/h (1 Bft) W-SW 237 ° 0 min 0,000 mm 0,0 UV-I 0 W/m² 11,0 °C 11,9 °C 11,3 km/h (2 Bft)
03.07.2017 04:06 11,9 °C 11,9 °C 94 % 1021,4 hPa 0,0 mm 3,7 km/h (1 Bft) W-NW 300 ° 0 min 0,000 mm 0,0 UV-I 0 W/m² 11,0 °C 11,9 °C 8,0 km/h (2 Bft)
03.07.2017 04:07 11,9 °C 11,9 °C 94 % 1021,5 hPa 0,0 mm 2,7 km/h (1 Bft) W-SW 249 ° 0 min 0,000 mm 0,0 UV-I 0 W/m² 11,0 °C 11,9 °C 4,8 km/h (1 Bft)
03.07.2017 04:08 11,9 °C 11,9 °C 94 % 1021,4 hPa 0,0 mm 3,8 km/h (1 Bft) W 279 ° 0 min 0,000 mm 0,0 UV-I 0 W/m² 11,0 °C 11,9 °C 9,7 km/h (2 Bft)
03.07.2017 04:09 11,9 °C 11,9 °C 94 % 1021,4 hPa 0,0 mm 3,0 km/h (1 Bft) W-SW 251 ° 0 min 0,000 mm 0,0 UV-I 0 W/m² 11,0 °C 11,9 °C 4,8 km/h (1 Bft)
03.07.2017 04:10 11,9 °C 11,9 °C 94 % 1021,4 hPa 0,0 mm 3,1 km/h (1 Bft) W-SW 242 ° 0 min 0,000 mm 0,0 UV-I 0 W/m² 11,0 °C 11,9 °C 4,8 km/h (1 Bft)
03.07.2017 04:11 11,9 °C 11,9 °C 94 % 1021,4 hPa 0,0 mm 2,7 km/h (1 Bft) W-SW 248 ° 0 min 0,000 mm 0,0 UV-I 0 W/m² 11,0 °C 11,9 °C 4,8 km/h (1 Bft)
03.07.2017 04:12 11,9 °C 11,9 °C 94 % 1021,4 hPa 0,0 mm 5,0 km/h (1 Bft) W-SW 257 ° 0 min 0,000 mm 0,0 UV-I 0 W/m² 11,0 °C 11,9 °C 6,4 km/h (2 Bft)
03.07.2017 04:13 11,9 °C 11,9 °C 94 % 1021,4 hPa 0,0 mm 7,5 km/h (2 Bft) W 259 ° 0 min 0,000 mm 0,0 UV-I 0 W/m² 11,0 °C 11,9 °C 11,3 km/h (2 Bft)
03.07.2017 04:14 11,9 °C 11,9 °C 94 % 1021,5 hPa 0,0 mm 6,5 km/h (2 Bft) W-SW 246 ° 0 min 0,000 mm 0,0 UV-I 0 W/m² 11,0 °C 11,9 °C 9,7 km/h (2 Bft)
03.07.2017 04:15 11,9 °C 11,9 °C 94 % 1021,4 hPa 0,0 mm 3,2 km/h (1 Bft) W 269 ° 0 min 0,000 mm 0,0 UV-I 0 W/m² 11,0 °C 11,9 °C 4,8 km/h (1 Bft)
03.07.2017 04:16 11,9 °C 11,9 °C 94 % 1021,4 hPa 0,0 mm 7,4 km/h (2 Bft) W-SW 256 ° 0 min 0,000 mm 0,0 UV-I 0 W/m² 11,0 °C 11,9 °C 11,3 km/h (2 Bft)
03.07.2017 04:17 11,9 °C 11,9 °C 94 % 1021,4 hPa 0,0 mm 6,1 km/h (2 Bft) W-SW 251 ° 0 min 0,000 mm 0,0 UV-I 0 W/m² 11,0 °C 11,9 °C 12,9 km/h (3 Bft)
03.07.2017 04:18 11,9 °C 11,9 °C 94 % 1021,4 hPa 0,0 mm 5,2 km/h (1 Bft) W 279 ° 0 min 0,000 mm 0,0 UV-I 0 W/m² 11,0 °C 11,9 °C 9,7 km/h (2 Bft)
03.07.2017 04:19 11,9 °C 11,9 °C 94 % 1021,4 hPa 0,0 mm 5,6 km/h (1 Bft) W 277 ° 0 min 0,000 mm 0,0 UV-I 0 W/m² 11,0 °C 11,9 °C 11,3 km/h (2 Bft)
03.07.2017 04:20 11,9 °C 11,9 °C 94 % 1021,4 hPa 0,0 mm 4,5 km/h (1 Bft) W 261 ° 0 min 0,000 mm 0,0 UV-I 0 W/m² 11,0 °C 11,9 °C 9,7 km/h (2 Bft)
03.07.2017 04:21 11,9 °C 11,9 °C 94 % 1021,4 hPa 0,0 mm 5,0 km/h (1 Bft) SW 224 ° 0 min 0,000 mm 0,0 UV-I 0 W/m² 11,0 °C 11,9 °C 11,3 km/h (2 Bft)
03.07.2017 04:22 11,9 °C 11,9 °C 94 % 1021,4 hPa 0,0 mm 4,2 km/h (1 Bft) W 265 ° 0 min 0,000 mm 0,0 UV-I 0 W/m² 11,0 °C 11,9 °C 6,4 km/h (2 Bft)
03.07.2017 04:23 11,9 °C 11,9 °C 94 % 1021,4 hPa 0,0 mm 3,9 km/h (1 Bft) W-SW 246 ° 0 min 0,000 mm 0,0 UV-I 0 W/m² 11,0 °C 11,9 °C 6,4 km/h (2 Bft)
03.07.2017 04:24 11,9 °C 11,9 °C 94 % 1021,4 hPa 0,0 mm 3,7 km/h (1 Bft) SW 232 ° 0 min 0,000 mm 0,0 UV-I 0 W/m² 11,0 °C 11,9 °C 4,8 km/h (1 Bft)
03.07.2017 04:25 11,9 °C 11,9 °C 94 % 1021,4 hPa 0,0 mm 1,1 km/h (1 Bft) S 190 ° 0 min 0,000 mm 0,0 UV-I 0 W/m² 11,0 °C 11,9 °C 3,2 km/h (1 Bft)
03.07.2017 04:26 11,9 °C 11,9 °C 94 % 1021,4 hPa 0,0 mm 1,3 km/h (1 Bft) S 190 ° 0 min 0,000 mm 0,0 UV-I 0 W/m² 11,0 °C 11,9 °C 3,2 km/h (1 Bft)
03.07.2017 04:27 11,9 °C 11,9 °C 94 % 1021,4 hPa 0,0 mm 0,9 km/h (0 Bft) SW 231 ° 0 min 0,000 mm 0,0 UV-I 0 W/m² 11,0 °C 11,9 °C 3,2 km/h (1 Bft)
03.07.2017 04:28 11,9 °C 11,9 °C 94 % 1021,4 hPa 0,0 mm 3,8 km/h (1 Bft) SW 235 ° 0 min 0,000 mm 0,0 UV-I 0 W/m² 11,0 °C 11,9 °C 6,4 km/h (2 Bft)
03.07.2017 04:29 11,9 °C 11,9 °C 94 % 1021,4 hPa 0,0 mm 1,9 km/h (1 Bft) SW 235 ° 0 min 0,000 mm 0,0 UV-I 0 W/m² 11,0 °C 11,9 °C 3,2 km/h (1 Bft)
03.07.2017 04:30 11,9 °C 11,9 °C 94 % 1021,4 hPa 0,0 mm 2,2 km/h (1 Bft) W-SW 252 ° 0 min 0,000 mm 0,0 UV-I 0 W/m² 11,0 °C 11,9 °C 6,4 km/h (2 Bft)
03.07.2017 04:31 11,9 °C 11,9 °C 94 % 1021,4 hPa 0,0 mm 3,4 km/h (1 Bft) W-SW 244 ° 0 min 0,000 mm 0,0 UV-I 0 W/m² 11,0 °C 11,9 °C 4,8 km/h (1 Bft)
03.07.2017 04:32 11,9 °C 11,9 °C 94 % 1021,4 hPa 0,0 mm 2,1 km/h (1 Bft) W-SW 242 ° 0 min 0,000 mm 0,0 UV-I 0 W/m² 11,0 °C 11,9 °C 4,8 km/h (1 Bft)
03.07.2017 04:33 11,9 °C 11,9 °C 94 % 1021,4 hPa 0,0 mm 4,3 km/h (1 Bft) W 266 ° 0 min 0,000 mm 0,0 UV-I 0 W/m² 11,0 °C 11,9 °C 9,7 km/h (2 Bft)
03.07.2017 04:34 11,9 °C 11,9 °C 94 % 1021,4 hPa 0,0 mm 4,1 km/h (1 Bft) S-SW 206 ° 0 min 0,000 mm 0,0 UV-I 0 W/m² 11,0 °C 11,9 °C 6,4 km/h (2 Bft)
03.07.2017 04:35 11,9 °C 11,9 °C 94 % 1021,4 hPa 0,0 mm 1,2 km/h (1 Bft) S-SW 207 ° 0 min 0,000 mm 0,0 UV-I 0 W/m² 11,0 °C 11,9 °C 1,6 km/h (1 Bft)
03.07.2017 04:36 11,9 °C 11,9 °C 94 % 1021,4 hPa 0,0 mm 2,9 km/h (1 Bft) W 261 ° 0 min 0,000 mm 0,0 UV-I 0 W/m² 11,0 °C 11,9 °C 6,4 km/h (2 Bft)
03.07.2017 04:37 11,9 °C 11,9 °C 94 % 1021,4 hPa 0,0 mm 1,0 km/h (0 Bft) W 260 ° 0 min 0,000 mm 0,0 UV-I 0 W/m² 11,0 °C 11,9 °C 1,6 km/h (1 Bft)
03.07.2017 04:38 11,9 °C 11,9 °C 94 % 1021,4 hPa 0,0 mm 2,1 km/h (1 Bft) W-SW 258 ° 0 min 0,000 mm 0,0 UV-I 0 W/m² 11,0 °C 11,9 °C 3,2 km/h (1 Bft)
03.07.2017 04:39 11,9 °C 11,9 °C 94 % 1021,3 hPa 0,0 mm 1,5 km/h (1 Bft) W-SW 258 ° 0 min 0,000 mm 0,0 UV-I 0 W/m² 11,0 °C 11,9 °C 3,2 km/h (1 Bft)
03.07.2017 04:40 11,9 °C 11,9 °C 94 % 1021,3 hPa 0,0 mm 2,4 km/h (1 Bft) SW 235 ° 0 min 0,000 mm 0,0 UV-I 0 W/m² 11,0 °C 11,9 °C 4,8 km/h (1 Bft)
03.07.2017 04:41 11,9 °C 11,9 °C 94 % 1021,3 hPa 0,0 mm 1,9 km/h (1 Bft) W-SW 246 ° 0 min 0,000 mm 0,0 UV-I 0 W/m² 11,0 °C 11,9 °C 4,8 km/h (1 Bft)
03.07.2017 04:42 11,9 °C 11,9 °C 94 % 1021,3 hPa 0,0 mm 0,0 km/h (0 Bft) W-SW 246 ° 0 min 0,000 mm 0,0 UV-I 0 W/m² 11,0 °C 11,9 °C 0,0 km/h (0 Bft)
03.07.2017 04:43 11,9 °C 11,9 °C 94 % 1021,3 hPa 0,0 mm 0,0 km/h (0 Bft) W-SW 246 ° 0 min 0,000 mm 0,0 UV-I 0 W/m² 11,0 °C 11,9 °C 0,0 km/h (0 Bft)
03.07.2017 04:44 11,9 °C 11,9 °C 94 % 1021,3 hPa 0,0 mm 0,9 km/h (0 Bft) W-SW 246 ° 0 min 0,000 mm 0,0 UV-I 0 W/m² 11,0 °C 11,9 °C 3,2 km/h (1 Bft)
03.07.2017 04:45 11,9 °C 11,9 °C 94 % 1021,3 hPa 0,0 mm 2,4 km/h (1 Bft) W-SW 248 ° 0 min 0,000 mm 0,0 UV-I 0 W/m² 11,0 °C 11,9 °C 4,8 km/h (1 Bft)
03.07.2017 04:46 11,9 °C 11,9 °C 94 % 1021,3 hPa 0,0 mm 0,7 km/h (0 Bft) W-SW 248 ° 0 min 0,000 mm 0,0 UV-I 0 W/m² 11,0 °C 11,9 °C 1,6 km/h (1 Bft)
03.07.2017 04:47 11,9 °C 11,9 °C 94 % 1021,3 hPa 0,0 mm 2,1 km/h (1 Bft) W-SW 248 ° 0 min 0,000 mm 0,0 UV-I 0 W/m² 11,0 °C 11,9 °C 4,8 km/h (1 Bft)
03.07.2017 04:48 11,9 °C 11,9 °C 94 % 1021,4 hPa 0,0 mm 3,5 km/h (1 Bft) W-SW 257 ° 0 min 0,000 mm 0,0 UV-I 0 W/m² 11,0 °C 11,9 °C 6,4 km/h (2 Bft)
03.07.2017 04:49 11,9 °C 11,9 °C 94 % 1021,4 hPa 0,0 mm 3,1 km/h (1 Bft) SW 229 ° 0 min 0,000 mm 0,0 UV-I 0 W/m² 11,0 °C 11,9 °C 4,8 km/h (1 Bft)
03.07.2017 04:50 11,9 °C 11,9 °C 94 % 1021,4 hPa 0,0 mm 5,4 km/h (1 Bft) W 259 ° 0 min 0,000 mm 0,0 UV-I 0 W/m² 11,0 °C 11,9 °C 9,7 km/h (2 Bft)
03.07.2017 04:51 11,9 °C 11,9 °C 94 % 1021,3 hPa 0,0 mm 1,3 km/h (1 Bft) W 259 ° 0 min 0,000 mm 0,0 UV-I 0 W/m² 11,0 °C 11,9 °C 3,2 km/h (1 Bft)
03.07.2017 04:52 11,9 °C 11,9 °C 94 % 1021,3 hPa 0,0 mm 0,3 km/h (0 Bft) W 259 ° 0 min 0,000 mm 0,0 UV-I 0 W/m² 11,0 °C 11,9 °C 1,6 km/h (1 Bft)
03.07.2017 04:53 11,9 °C 11,9 °C 94 % 1021,4 hPa 0,0 mm 0,1 km/h (0 Bft) W 259 ° 0 min 0,000 mm 0,0 UV-I 0 W/m² 11,0 °C 11,9 °C 1,6 km/h (1 Bft)
03.07.2017 04:54 11,9 °C 11,9 °C 94 % 1021,4 hPa 0,0 mm 3,5 km/h (1 Bft) W 271 ° 0 min 0,000 mm 0,0 UV-I 0 W/m² 11,0 °C 11,9 °C 6,4 km/h (2 Bft)
03.07.2017 04:55 11,9 °C 11,9 °C 94 % 1021,4 hPa 0,0 mm 0,9 km/h (0 Bft) W 271 ° 0 min 0,000 mm 0,0 UV-I 0 W/m² 11,0 °C 11,9 °C 3,2 km/h (1 Bft)
03.07.2017 04:56 11,9 °C 11,9 °C 94 % 1021,4 hPa 0,0 mm 0,7 km/h (0 Bft) W 271 ° 0 min 0,000 mm 0,0 UV-I 0 W/m² 11,0 °C 11,9 °C 1,6 km/h (1 Bft)
03.07.2017 04:57 11,9 °C 11,9 °C 94 % 1021,4 hPa 0,0 mm 0,1 km/h (0 Bft) W 271 ° 0 min 0,000 mm 0,0 UV-I 0 W/m² 11,0 °C 11,9 °C 1,6 km/h (1 Bft)
03.07.2017 04:58 11,9 °C 11,9 °C 94 % 1021,4 hPa 0,0 mm 2,6 km/h (1 Bft) SW 217 ° 0 min 0,000 mm 0,0 UV-I 0 W/m² 11,0 °C 11,9 °C 4,8 km/h (1 Bft)
03.07.2017 04:59 11,9 °C 11,9 °C 94 % 1021,4 hPa 0,0 mm 0,5 km/h (0 Bft) SW 217 ° 0 min 0,000 mm 0,0 UV-I 0 W/m² 11,0 °C 11,9 °C 3,2 km/h (1 Bft)
03.07.2017 05:00 11,9 °C 11,9 °C 94 % 1021,4 hPa 0,0 mm 2,0 km/h (1 Bft) W-SW 246 ° 0 min 0,000 mm 0,0 UV-I 0 W/m² 11,0 °C 11,9 °C 4,8 km/h (1 Bft)
03.07.2017 05:01 11,9 °C 11,9 °C 94 % 1021,4 hPa 0,0 mm 3,1 km/h (1 Bft) W-SW 248 ° 0 min 0,000 mm 0,0 UV-I 0 W/m² 11,0 °C 11,9 °C 6,4 km/h (2 Bft)
03.07.2017 05:02 11,9 °C 11,9 °C 94 % 1021,5 hPa 0,0 mm 6,3 km/h (2 Bft) W-SW 245 ° 0 min 0,000 mm 0,0 UV-I 0 W/m² 11,0 °C 11,9 °C 9,7 km/h (2 Bft)
03.07.2017 05:03 11,9 °C 11,9 °C 94 % 1021,5 hPa 0,0 mm 4,0 km/h (1 Bft) W-SW 254 ° 0 min 0,000 mm 0,0 UV-I 0 W/m² 11,0 °C 11,9 °C 6,4 km/h (2 Bft)
03.07.2017 05:04 11,9 °C 11,9 °C 94 % 1021,5 hPa 0,0 mm 0,9 km/h (0 Bft) W-SW 254 ° 0 min 0,000 mm 0,0 UV-I 0 W/m² 11,0 °C 11,9 °C 3,2 km/h (1 Bft)
03.07.2017 05:05 11,9 °C 11,9 °C 94 % 1021,5 hPa 0,0 mm 1,7 km/h (1 Bft) W-SW 254 ° 0 min 0,000 mm 0,0 UV-I 0 W/m² 11,0 °C 11,9 °C 4,8 km/h (1 Bft)
03.07.2017 05:06 11,9 °C 11,9 °C 94 % 1021,4 hPa 0,0 mm 2,3 km/h (1 Bft) W-SW 254 ° 0 min 0,000 mm 0,0 UV-I 0 W/m² 11,0 °C 11,9 °C 4,8 km/h (1 Bft)
03.07.2017 05:07 11,9 °C 11,9 °C 94 % 1021,4 hPa 0,0 mm 2,2 km/h (1 Bft) W-SW 248 ° 0 min 0,000 mm 0,0 UV-I 0 W/m² 11,0 °C 11,9 °C 4,8 km/h (1 Bft)
03.07.2017 05:08 11,9 °C 11,9 °C 94 % 1021,5 hPa 0,0 mm 4,1 km/h (1 Bft) W-SW 248 ° 0 min 0,000 mm 0,0 UV-I 0 W/m² 11,0 °C 11,9 °C 9,7 km/h (2 Bft)
03.07.2017 05:09 11,9 °C 11,9 °C 94 % 1021,5 hPa 0,0 mm 3,4 km/h (1 Bft) W-SW 256 ° 0 min 0,000 mm 0,0 UV-I 0 W/m² 11,0 °C 11,9 °C 6,4 km/h (2 Bft)
03.07.2017 05:10 11,9 °C 11,9 °C 94 % 1021,5 hPa 0,0 mm 3,7 km/h (1 Bft) W-SW 252 ° 0 min 0,000 mm 0,0 UV-I 0 W/m² 11,0 °C 11,9 °C 6,4 km/h (2 Bft)
03.07.2017 05:11 11,9 °C 11,9 °C 94 % 1021,5 hPa 0,0 mm 3,2 km/h (1 Bft) W-SW 252 ° 0 min 0,000 mm 0,0 UV-I 0 W/m² 11,0 °C 11,9 °C 4,8 km/h (1 Bft)
03.07.2017 05:12 11,9 °C 11,9 °C 94 % 1021,4 hPa 0,0 mm 1,3 km/h (1 Bft) W-SW 252 ° 0 min 0,000 mm 0,0 UV-I 0 W/m² 11,0 °C 11,9 °C 3,2 km/h (1 Bft)
03.07.2017 05:13 11,9 °C 11,9 °C 94 % 1021,4 hPa 0,0 mm 2,8 km/h (1 Bft) W 265 ° 0 min 0,000 mm 0,0 UV-I 0 W/m² 11,0 °C 11,9 °C 6,4 km/h (2 Bft)
03.07.2017 05:14 11,9 °C 11,9 °C 94 % 1021,5 hPa 0,0 mm 2,3 km/h (1 Bft) W-SW 257 ° 0 min 0,000 mm 0,0 UV-I 0 W/m² 11,0 °C 11,9 °C 4,8 km/h (1 Bft)
03.07.2017 05:15 11,9 °C 11,9 °C 94 % 1021,5 hPa 0,0 mm 2,9 km/h (1 Bft) W 267 ° 0 min 0,000 mm 0,0 UV-I 0 W/m² 11,0 °C 11,9 °C 6,4 km/h (2 Bft)
03.07.2017 05:16 11,9 °C 11,9 °C 94 % 1021,5 hPa 0,0 mm 4,6 km/h (1 Bft) W 266 ° 0 min 0,000 mm 0,0 UV-I 0 W/m² 11,0 °C 11,9 °C 6,4 km/h (2 Bft)
03.07.2017 05:17 11,9 °C 11,9 °C 94 % 1021,5 hPa 0,0 mm 3,3 km/h (1 Bft) W 266 ° 0 min 0,000 mm 0,0 UV-I 0 W/m² 11,0 °C 11,9 °C 4,8 km/h (1 Bft)
03.07.2017 05:18 11,9 °C 12,0 °C 94 % 1021,5 hPa 0,0 mm 3,4 km/h (1 Bft) W-SW 258 ° 0 min 0,000 mm 0,0 UV-I 0 W/m² 11,0 °C 11,9 °C 4,8 km/h (1 Bft)
03.07.2017 05:19 11,9 °C 12,0 °C 94 % 1021,6 hPa 0,0 mm 7,1 km/h (2 Bft) W 271 ° 0 min 0,000 mm 0,0 UV-I 0 W/m² 11,0 °C 11,9 °C 11,3 km/h (2 Bft)
03.07.2017 05:20 11,9 °C 12,0 °C 94 % 1021,6 hPa 0,2 mm 4,2 km/h (1 Bft) N-NW 334 ° 0 min 0,000 mm 0,0 UV-I 0 W/m² 11,0 °C 11,9 °C 9,7 km/h (2 Bft)
03.07.2017 05:21 11,9 °C 12,0 °C 94 % 1021,6 hPa 0,0 mm 4,3 km/h (1 Bft) W 271 ° 0 min 0,000 mm 0,0 UV-I 0 W/m² 11,0 °C 11,9 °C 6,4 km/h (2 Bft)
03.07.2017 05:22 11,9 °C 11,9 °C 94 % 1021,6 hPa 0,0 mm 6,6 km/h (2 Bft) W 266 ° 0 min 0,000 mm 0,0 UV-I 0 W/m² 11,0 °C 11,9 °C 9,7 km/h (2 Bft)
03.07.2017 05:23 11,9 °C 11,9 °C 94 % 1021,6 hPa 0,0 mm 3,8 km/h (1 Bft) W-NW 284 ° 0 min 0,000 mm 0,0 UV-I 0 W/m² 11,0 °C 11,9 °C 6,4 km/h (2 Bft)
03.07.2017 05:24 11,9 °C 11,9 °C 94 % 1021,6 hPa 0,0 mm 3,6 km/h (1 Bft) W-SW 242 ° 0 min 0,000 mm 0,0 UV-I 0 W/m² 11,0 °C 11,9 °C 4,8 km/h (1 Bft)
03.07.2017 05:25 11,9 °C 12,0 °C 94 % 1021,6 hPa 0,0 mm 1,6 km/h (1 Bft) W 259 ° 0 min 0,000 mm 0,0 UV-I 0 W/m² 11,0 °C 11,9 °C 4,8 km/h (1 Bft)
03.07.2017 05:26 11,9 °C 11,9 °C 94 % 1021,6 hPa 0,0 mm 2,5 km/h (1 Bft) W 259 ° 0 min 0,000 mm 0,0 UV-I 0 W/m² 11,0 °C 11,9 °C 6,4 km/h (2 Bft)
03.07.2017 05:27 11,9 °C 12,0 °C 94 % 1021,6 hPa 0,0 mm 4,7 km/h (1 Bft) W 277 ° 0 min 0,000 mm 0,0 UV-I 0 W/m² 11,0 °C 11,9 °C 6,4 km/h (2 Bft)
03.07.2017 05:28 12,0 °C 12,0 °C 94 % 1021,7 hPa 0,0 mm 3,2 km/h (1 Bft) W-SW 246 ° 0 min 0,000 mm 0,0 UV-I 0 W/m² 11,1 °C 12,0 °C 4,8 km/h (1 Bft)
03.07.2017 05:29 11,9 °C 12,0 °C 94 % 1021,6 hPa 0,0 mm 4,8 km/h (1 Bft) W 263 ° 0 min 0,000 mm 0,0 UV-I 0 W/m² 11,0 °C 11,9 °C 9,7 km/h (2 Bft)
03.07.2017 05:30 11,9 °C 11,9 °C 94 % 1021,6 hPa 0,0 mm 1,7 km/h (1 Bft) W 261 ° 0 min 0,000 mm 0,0 UV-I 0 W/m² 11,0 °C 11,9 °C 4,8 km/h (1 Bft)
03.07.2017 05:31 11,9 °C 12,0 °C 94 % 1021,6 hPa 0,0 mm 2,4 km/h (1 Bft) W 273 ° 0 min 0,000 mm 0,0 UV-I 0 W/m² 11,0 °C 11,9 °C 4,8 km/h (1 Bft)
03.07.2017 05:32 12,0 °C 12,0 °C 94 % 1021,6 hPa 0,0 mm 2,8 km/h (1 Bft) W 275 ° 0 min 0,000 mm 0,0 UV-I 0 W/m² 11,1 °C 12,0 °C 3,2 km/h (1 Bft)
03.07.2017 05:33 11,9 °C 12,0 °C 94 % 1021,7 hPa 0,0 mm 3,6 km/h (1 Bft) W-NW 286 ° 0 min 0,000 mm 0,0 UV-I 0 W/m² 11,0 °C 11,9 °C 4,8 km/h (1 Bft)
03.07.2017 05:34 12,0 °C 12,0 °C 94 % 1021,7 hPa 0,0 mm 4,3 km/h (1 Bft) W-NW 292 ° 0 min 0,000 mm 0,0 UV-I 0 W/m² 11,1 °C 12,0 °C 6,4 km/h (2 Bft)
03.07.2017 05:35 12,0 °C 12,0 °C 94 % 1021,7 hPa 0,0 mm 4,0 km/h (1 Bft) W-NW 295 ° 0 min 0,000 mm 0,0 UV-I 0 W/m² 11,1 °C 12,0 °C 6,4 km/h (2 Bft)
03.07.2017 05:36 12,0 °C 12,0 °C 94 % 1021,8 hPa 0,0 mm 5,6 km/h (1 Bft) NW 314 ° 0 min 0,000 mm 0,0 UV-I 0 W/m² 11,1 °C 12,0 °C 9,7 km/h (2 Bft)
03.07.2017 05:37 12,0 °C 12,0 °C 94 % 1021,8 hPa 0,0 mm 4,6 km/h (1 Bft) NW 318 ° 0 min 0,000 mm 0,0 UV-I 0 W/m² 11,1 °C 12,0 °C 8,0 km/h (2 Bft)
03.07.2017 05:38 11,9 °C 12,0 °C 94 % 1021,9 hPa 0,2 mm 4,2 km/h (1 Bft) W-NW 300 ° 0 min 0,000 mm 0,0 UV-I 0 W/m² 11,0 °C 11,9 °C 6,4 km/h (2 Bft)
03.07.2017 05:39 12,0 °C 12,0 °C 94 % 1021,9 hPa 0,0 mm 4,3 km/h (1 Bft) W-NW 286 ° 0 min 0,000 mm 0,0 UV-I 0 W/m² 11,1 °C 12,0 °C 6,4 km/h (2 Bft)
03.07.2017 05:40 11,9 °C 12,0 °C 94 % 1021,9 hPa 0,2 mm 3,2 km/h (1 Bft) W-NW 287 ° 0 min 0,000 mm 0,0 UV-I 0 W/m² 11,0 °C 11,9 °C 4,8 km/h (1 Bft)
03.07.2017 05:41 11,9 °C 12,0 °C 94 % 1021,9 hPa 0,0 mm 3,5 km/h (1 Bft) W-NW 293 ° 0 min 0,000 mm 0,0 UV-I 0 W/m² 11,0 °C 11,9 °C 6,4 km/h (2 Bft)
03.07.2017 05:42 11,9 °C 12,0 °C 94 % 1021,9 hPa 0,0 mm 4,0 km/h (1 Bft) W-NW 286 ° 0 min 0,000 mm 0,0 UV-I 0 W/m² 11,0 °C 11,9 °C 9,7 km/h (2 Bft)
03.07.2017 05:43 11,9 °C 11,9 °C 94 % 1021,9 hPa 0,2 mm 6,6 km/h (2 Bft) NW 315 ° 0 min 0,000 mm 0,0 UV-I 0 W/m² 11,0 °C 11,9 °C 8,0 km/h (2 Bft)
03.07.2017 05:44 11,9 °C 11,9 °C 94 % 1021,9 hPa 0,0 mm 5,0 km/h (1 Bft) W-NW 303 ° 0 min 0,000 mm 0,0 UV-I 0 W/m² 11,0 °C 11,9 °C 9,7 km/h (2 Bft)
03.07.2017 05:45 11,9 °C 11,9 °C 94 % 1021,9 hPa 0,2 mm 5,0 km/h (1 Bft) N-NW 327 ° 0 min 0,000 mm 0,0 UV-I 0 W/m² 11,0 °C 11,9 °C 6,4 km/h (2 Bft)
03.07.2017 05:46 11,9 °C 11,9 °C 94 % 1021,9 hPa 0,0 mm 6,0 km/h (2 Bft) NW 323 ° 0 min 0,000 mm 0,0 UV-I 0 W/m² 11,0 °C 11,9 °C 9,7 km/h (2 Bft)
03.07.2017 05:47 11,8 °C 11,9 °C 94 % 1021,9 hPa 0,2 mm 3,6 km/h (1 Bft) NW 319 ° 0 min 0,000 mm 0,0 UV-I 0 W/m² 10,9 °C 11,8 °C 4,8 km/h (1 Bft)
03.07.2017 05:48 11,9 °C 11,9 °C 94 % 1021,9 hPa 0,2 mm 4,4 km/h (1 Bft) NW 319 ° 0 min 0,000 mm 0,0 UV-I 0 W/m² 11,0 °C 11,9 °C 8,0 km/h (2 Bft)
03.07.2017 05:49 11,8 °C 11,9 °C 94 % 1022,0 hPa 0,2 mm 4,2 km/h (1 Bft) W 278 ° 0 min 0,000 mm 0,0 UV-I 0 W/m² 10,9 °C 11,8 °C 9,7 km/h (2 Bft)
03.07.2017 05:50 11,8 °C 11,8 °C 94 % 1022,0 hPa 0,0 mm 4,3 km/h (1 Bft) W-NW 282 ° 0 min 0,000 mm 0,0 UV-I 0 W/m² 10,9 °C 11,8 °C 6,4 km/h (2 Bft)
03.07.2017 05:51 11,8 °C 11,8 °C 94 % 1021,9 hPa 0,2 mm 4,8 km/h (1 Bft) W-NW 290 ° 0 min 0,000 mm 0,0 UV-I 0 W/m² 10,9 °C 11,8 °C 6,4 km/h (2 Bft)
03.07.2017 05:52 11,8 °C 11,8 °C 94 % 1022,0 hPa 0,0 mm 3,7 km/h (1 Bft) NW 308 ° 0 min 0,000 mm 0,0 UV-I 0 W/m² 10,9 °C 11,8 °C 4,8 km/h (1 Bft)
03.07.2017 05:53 11,8 °C 11,8 °C 94 % 1021,9 hPa 0,0 mm 6,4 km/h (2 Bft) W-NW 293 ° 0 min 0,000 mm 0,0 UV-I 0 W/m² 10,9 °C 11,8 °C 8,0 km/h (2 Bft)
03.07.2017 05:54 11,8 °C 11,8 °C 94 % 1021,9 hPa 0,2 mm 3,9 km/h (1 Bft) W-NW 288 ° 0 min 0,000 mm 0,0 UV-I 0 W/m² 10,9 °C 11,8 °C 6,4 km/h (2 Bft)
03.07.2017 05:55 11,8 °C 11,8 °C 95 % 1021,9 hPa 0,0 mm 3,4 km/h (1 Bft) W 263 ° 0 min 0,000 mm 0,0 UV-I 5 W/m² 11,0 °C 11,8 °C 4,8 km/h (1 Bft)
03.07.2017 05:56 11,8 °C 11,8 °C 95 % 1022,0 hPa 0,0 mm 4,2 km/h (1 Bft) W 273 ° 0 min 0,000 mm 0,0 UV-I 5 W/m² 11,0 °C 11,8 °C 6,4 km/h (2 Bft)
03.07.2017 05:57 11,8 °C 11,8 °C 95 % 1022,0 hPa 0,0 mm 4,3 km/h (1 Bft) NW 307 ° 0 min 0,000 mm 0,0 UV-I 5 W/m² 11,0 °C 11,8 °C 6,4 km/h (2 Bft)
03.07.2017 05:58 11,8 °C 11,8 °C 95 % 1022,0 hPa 0,0 mm 3,9 km/h (1 Bft) W-NW 283 ° 0 min 0,000 mm 0,0 UV-I 7 W/m² 11,0 °C 11,8 °C 4,8 km/h (1 Bft)
03.07.2017 05:59 11,8 °C 11,8 °C 95 % 1022,0 hPa 0,0 mm 3,6 km/h (1 Bft) W-NW 296 ° 0 min 0,000 mm 0,0 UV-I 7 W/m² 11,0 °C 11,8 °C 6,4 km/h (2 Bft)
03.07.2017 06:00 11,8 °C 11,8 °C 95 % 1022,0 hPa 0,0 mm 4,8 km/h (1 Bft) W 281 ° 0 min 0,000 mm 0,0 UV-I 9 W/m² 11,0 °C 11,8 °C 6,4 km/h (2 Bft)
03.07.2017 06:01 11,8 °C 11,8 °C 95 % 1022,0 hPa 0,2 mm 3,9 km/h (1 Bft) W-NW 291 ° 0 min 0,000 mm 0,0 UV-I 9 W/m² 11,0 °C 11,8 °C 6,4 km/h (2 Bft)
03.07.2017 06:02 11,8 °C 11,8 °C 95 % 1022,0 hPa 0,0 mm 0,5 km/h (0 Bft) W-NW 291 ° 0 min 0,000 mm 0,0 UV-I 9 W/m² 11,0 °C 11,8 °C 1,6 km/h (1 Bft)
03.07.2017 06:03 11,8 °C 11,8 °C 95 % 1022,0 hPa 0,0 mm 3,6 km/h (1 Bft) W-NW 288 ° 0 min 0,000 mm 0,0 UV-I 9 W/m² 11,0 °C 11,8 °C 4,8 km/h (1 Bft)
03.07.2017 06:04 11,8 °C 11,8 °C 95 % 1022,0 hPa 0,0 mm 4,7 km/h (1 Bft) W-NW 291 ° 0 min 0,000 mm 0,0 UV-I 7 W/m² 11,0 °C 11,8 °C 6,4 km/h (2 Bft)
03.07.2017 06:05 11,7 °C 11,8 °C 95 % 1022,0 hPa 0,0 mm 2,1 km/h (1 Bft) W-NW 287 ° 0 min 0,000 mm 0,0 UV-I 9 W/m² 10,9 °C 11,7 °C 3,2 km/h (1 Bft)
03.07.2017 06:06 11,8 °C 11,8 °C 95 % 1022,0 hPa 0,0 mm 1,5 km/h (1 Bft) W-NW 287 ° 0 min 0,000 mm 0,0 UV-I 9 W/m² 11,0 °C 11,8 °C 3,2 km/h (1 Bft)
03.07.2017 06:07 11,8 °C 11,8 °C 95 % 1022,0 hPa 0,2 mm 2,1 km/h (1 Bft) W-NW 286 ° 0 min 0,000 mm 0,0 UV-I 9 W/m² 11,0 °C 11,8 °C 3,2 km/h (1 Bft)
03.07.2017 06:08 11,7 °C 11,8 °C 95 % 1022,0 hPa 0,0 mm 2,0 km/h (1 Bft) W-NW 287 ° 0 min 0,000 mm 0,0 UV-I 11 W/m² 10,9 °C 11,7 °C 3,2 km/h (1 Bft)
03.07.2017 06:09 11,7 °C 11,8 °C 95 % 1022,0 hPa 0,0 mm 1,9 km/h (1 Bft) W-NW 287 ° 0 min 0,000 mm 0,0 UV-I 11 W/m² 10,9 °C 11,7 °C 3,2 km/h (1 Bft)
03.07.2017 06:10 11,7 °C 11,8 °C 95 % 1022,0 hPa 0,0 mm 2,2 km/h (1 Bft) W-NW 287 ° 0 min 0,000 mm 0,0 UV-I 9 W/m² 10,9 °C 11,7 °C 4,8 km/h (1 Bft)
03.07.2017 06:11 11,7 °C 11,8 °C 95 % 1022,0 hPa 0,0 mm 2,6 km/h (1 Bft) W-NW 287 ° 0 min 0,000 mm 0,0 UV-I 9 W/m² 10,9 °C 11,7 °C 3,2 km/h (1 Bft)
03.07.2017 06:12 11,8 °C 11,8 °C 95 % 1022,0 hPa 0,0 mm 3,0 km/h (1 Bft) W 275 ° 0 min 0,000 mm 0,0 UV-I 11 W/m² 11,0 °C 11,8 °C 4,8 km/h (1 Bft)
03.07.2017 06:13 11,7 °C 11,8 °C 95 % 1022,0 hPa 0,0 mm 1,3 km/h (1 Bft) W 275 ° 0 min 0,000 mm 0,0 UV-I 11 W/m² 10,9 °C 11,7 °C 3,2 km/h (1 Bft)
03.07.2017 06:14 11,8 °C 11,8 °C 95 % 1022,0 hPa 0,0 mm 2,3 km/h (1 Bft) W 275 ° 0 min 0,000 mm 0,0 UV-I 11 W/m² 11,0 °C 11,8 °C 4,8 km/h (1 Bft)
03.07.2017 06:15 11,8 °C 11,8 °C 95 % 1022,0 hPa 0,0 mm 2,0 km/h (1 Bft) W 275 ° 0 min 0,000 mm 0,0 UV-I 11 W/m² 11,0 °C 11,8 °C 3,2 km/h (1 Bft)
03.07.2017 06:16 11,8 °C 11,8 °C 95 % 1022,0 hPa 0,0 mm 2,1 km/h (1 Bft) W 275 ° 0 min 0,000 mm 0,0 UV-I 11 W/m² 11,0 °C 11,8 °C 3,2 km/h (1 Bft)
03.07.2017 06:17 11,8 °C 11,8 °C 95 % 1022,0 hPa 0,2 mm 0,4 km/h (0 Bft) W 275 ° 0 min 0,000 mm 0,0 UV-I 12 W/m² 11,0 °C 11,8 °C 1,6 km/h (1 Bft)
03.07.2017 06:18 11,8 °C 11,8 °C 95 % 1022,0 hPa 0,0 mm 1,1 km/h (1 Bft) W 275 ° 0 min 0,000 mm 0,0 UV-I 12 W/m² 11,0 °C 11,8 °C 3,2 km/h (1 Bft)
03.07.2017 06:19 11,8 °C 11,8 °C 95 % 1022,0 hPa 0,0 mm 0,9 km/h (0 Bft) W 275 ° 0 min 0,000 mm 0,0 UV-I 14 W/m² 11,0 °C 11,8 °C 3,2 km/h (1 Bft)
03.07.2017 06:20 11,8 °C 11,8 °C 95 % 1022,0 hPa 0,0 mm 0,9 km/h (0 Bft) W 275 ° 0 min 0,000 mm 0,0 UV-I 18 W/m² 11,0 °C 11,8 °C 3,2 km/h (1 Bft)
03.07.2017 06:21 11,8 °C 11,8 °C 95 % 1022,0 hPa 0,0 mm 1,2 km/h (1 Bft) W 271 ° 0 min 0,000 mm 0,0 UV-I 21 W/m² 11,0 °C 11,8 °C 6,4 km/h (2 Bft)
03.07.2017 06:22 11,8 °C 11,8 °C 95 % 1022,0 hPa 0,0 mm 5,3 km/h (1 Bft) W 267 ° 0 min 0,000 mm 0,0 UV-I 23 W/m² 11,0 °C 11,8 °C 9,7 km/h (2 Bft)
03.07.2017 06:23 11,8 °C 11,8 °C 95 % 1022,0 hPa 0,0 mm 3,4 km/h (1 Bft) W-SW 238 ° 0 min 0,000 mm 0,0 UV-I 23 W/m² 11,0 °C 11,8 °C 6,4 km/h (2 Bft)
03.07.2017 06:24 11,8 °C 11,8 °C 95 % 1022,0 hPa 0,0 mm 6,4 km/h (2 Bft) SW 233 ° 0 min 0,000 mm 0,0 UV-I 23 W/m² 11,0 °C 11,8 °C 9,7 km/h (2 Bft)
03.07.2017 06:25 11,8 °C 11,8 °C 95 % 1022,0 hPa 0,0 mm 4,9 km/h (1 Bft) W 261 ° 0 min 0,000 mm 0,0 UV-I 23 W/m² 11,0 °C 11,8 °C 6,4 km/h (2 Bft)
03.07.2017 06:26 11,8 °C 11,8 °C 95 % 1022,0 hPa 0,0 mm 5,4 km/h (1 Bft) W-SW 248 ° 0 min 0,000 mm 0,0 UV-I 21 W/m² 11,0 °C 11,8 °C 9,7 km/h (2 Bft)
03.07.2017 06:27 11,8 °C 11,8 °C 95 % 1022,0 hPa 0,0 mm 5,6 km/h (1 Bft) W-NW 298 ° 0 min 0,000 mm 0,0 UV-I 18 W/m² 11,0 °C 11,8 °C 12,9 km/h (3 Bft)
03.07.2017 06:28 11,8 °C 11,8 °C 95 % 1022,1 hPa 0,0 mm 1,1 km/h (1 Bft) W-NW 298 ° 0 min 0,000 mm 0,0 UV-I 14 W/m² 11,0 °C 11,8 °C 3,2 km/h (1 Bft)
03.07.2017 06:29 11,8 °C 11,8 °C 95 % 1022,0 hPa 0,0 mm 2,4 km/h (1 Bft) W-SW 254 ° 0 min 0,000 mm 0,0 UV-I 12 W/m² 11,0 °C 11,8 °C 6,4 km/h (2 Bft)
03.07.2017 06:30 11,8 °C 11,8 °C 95 % 1022,1 hPa 0,0 mm 3,4 km/h (1 Bft) W-SW 250 ° 0 min 0,000 mm 0,0 UV-I 12 W/m² 11,0 °C 11,8 °C 6,4 km/h (2 Bft)
03.07.2017 06:31 11,8 °C 11,8 °C 95 % 1022,1 hPa 0,0 mm 4,6 km/h (1 Bft) NW 304 ° 0 min 0,000 mm 0,0 UV-I 12 W/m² 11,0 °C 11,8 °C 6,4 km/h (2 Bft)
03.07.2017 06:32 11,8 °C 11,8 °C 95 % 1022,1 hPa 0,0 mm 6,2 km/h (2 Bft) W 274 ° 0 min 0,000 mm 0,0 UV-I 14 W/m² 11,0 °C 11,8 °C 12,9 km/h (3 Bft)
03.07.2017 06:33 11,8 °C 11,8 °C 95 % 1022,1 hPa 0,2 mm 4,2 km/h (1 Bft) W 277 ° 0 min 0,000 mm 0,0 UV-I 12 W/m² 11,0 °C 11,8 °C 4,8 km/h (1 Bft)
03.07.2017 06:34 11,8 °C 11,8 °C 95 % 1022,1 hPa 0,0 mm 3,2 km/h (1 Bft) W-NW 296 ° 0 min 0,000 mm 0,0 UV-I 12 W/m² 11,0 °C 11,8 °C 4,8 km/h (1 Bft)
03.07.2017 06:35 11,8 °C 11,8 °C 95 % 1022,1 hPa 0,0 mm 1,9 km/h (1 Bft) W-NW 296 ° 0 min 0,000 mm 0,0 UV-I 12 W/m² 11,0 °C 11,8 °C 3,2 km/h (1 Bft)
03.07.2017 06:36 11,8 °C 11,8 °C 95 % 1022,0 hPa 0,0 mm 2,2 km/h (1 Bft) W-NW 296 ° 0 min 0,000 mm 0,0 UV-I 11 W/m² 11,0 °C 11,8 °C 4,8 km/h (1 Bft)
03.07.2017 06:37 11,8 °C 11,8 °C 95 % 1022,1 hPa 0,0 mm 3,0 km/h (1 Bft) W-SW 251 ° 0 min 0,000 mm 0,0 UV-I 11 W/m² 11,0 °C 11,8 °C 4,8 km/h (1 Bft)
03.07.2017 06:38 11,8 °C 11,8 °C 95 % 1022,1 hPa 0,0 mm 1,7 km/h (1 Bft) W-SW 249 ° 0 min 0,000 mm 0,0 UV-I 9 W/m² 11,0 °C 11,8 °C 3,2 km/h (1 Bft)
03.07.2017 06:39 11,8 °C 11,8 °C 95 % 1022,1 hPa 0,0 mm 4,4 km/h (1 Bft) W 271 ° 0 min 0,000 mm 0,0 UV-I 11 W/m² 11,0 °C 11,8 °C 9,7 km/h (2 Bft)
03.07.2017 06:40 11,8 °C 11,8 °C 95 % 1022,1 hPa 0,0 mm 5,1 km/h (1 Bft) SW 235 ° 0 min 0,000 mm 0,0 UV-I 11 W/m² 11,0 °C 11,8 °C 6,4 km/h (2 Bft)
03.07.2017 06:41 11,8 °C 11,8 °C 95 % 1022,1 hPa 0,0 mm 3,5 km/h (1 Bft) W-SW 257 ° 0 min 0,000 mm 0,0 UV-I 11 W/m² 11,0 °C 11,8 °C 4,8 km/h (1 Bft)
03.07.2017 06:42 11,8 °C 11,8 °C 95 % 1022,1 hPa 0,0 mm 1,9 km/h (1 Bft) W-SW 257 ° 0 min 0,000 mm 0,0 UV-I 11 W/m² 11,0 °C 11,8 °C 3,2 km/h (1 Bft)
03.07.2017 06:43 11,8 °C 11,8 °C 95 % 1022,1 hPa 0,0 mm 1,3 km/h (1 Bft) W-SW 257 ° 0 min 0,000 mm 0,0 UV-I 11 W/m² 11,0 °C 11,8 °C 4,8 km/h (1 Bft)
03.07.2017 06:44 11,8 °C 11,8 °C 95 % 1022,1 hPa 0,0 mm 0,8 km/h (0 Bft) W-SW 257 ° 0 min 0,000 mm 0,0 UV-I 12 W/m² 11,0 °C 11,8 °C 3,2 km/h (1 Bft)
03.07.2017 06:45 11,8 °C 11,8 °C 95 % 1022,1 hPa 0,0 mm 0,1 km/h (0 Bft) W-SW 257 ° 0 min 0,000 mm 0,0 UV-I 14 W/m² 11,0 °C 11,8 °C 1,6 km/h (1 Bft)
03.07.2017 06:46 11,8 °C 11,8 °C 95 % 1022,1 hPa 0,0 mm 1,1 km/h (1 Bft) W-SW 257 ° 0 min 0,000 mm 0,0 UV-I 16 W/m² 11,0 °C 11,8 °C 3,2 km/h (1 Bft)
03.07.2017 06:47 11,8 °C 11,8 °C 95 % 1022,1 hPa 0,0 mm 1,5 km/h (1 Bft) W-NW 282 ° 0 min 0,000 mm 0,0 UV-I 14 W/m² 11,0 °C 11,8 °C 4,8 km/h (1 Bft)
03.07.2017 06:48 11,8 °C 11,9 °C 95 % 1022,1 hPa 0,0 mm 3,4 km/h (1 Bft) W 281 ° 0 min 0,000 mm 0,0 UV-I 16 W/m² 11,0 °C 11,8 °C 4,8 km/h (1 Bft)
03.07.2017 06:49 11,8 °C 11,8 °C 95 % 1022,1 hPa 0,0 mm 2,3 km/h (1 Bft) W 281 ° 0 min 0,000 mm 0,0 UV-I 18 W/m² 11,0 °C 11,8 °C 3,2 km/h (1 Bft)
03.07.2017 06:50 11,8 °C 11,9 °C 95 % 1022,1 hPa 0,0 mm 0,2 km/h (0 Bft) W 281 ° 0 min 0,000 mm 0,0 UV-I 19 W/m² 11,0 °C 11,8 °C 1,6 km/h (1 Bft)
03.07.2017 06:51 11,8 °C 11,8 °C 95 % 1022,1 hPa 0,0 mm 0,1 km/h (0 Bft) W 281 ° 0 min 0,000 mm 0,0 UV-I 21 W/m² 11,0 °C 11,8 °C 1,6 km/h (1 Bft)
03.07.2017 06:52 11,8 °C 11,8 °C 95 % 1022,1 hPa 0,0 mm 0,2 km/h (0 Bft) W 281 ° 0 min 0,000 mm 0,0 UV-I 21 W/m² 11,0 °C 11,8 °C 1,6 km/h (1 Bft)
03.07.2017 06:53 11,8 °C 11,8 °C 95 % 1022,1 hPa 0,0 mm 0,7 km/h (0 Bft) W 281 ° 0 min 0,000 mm 0,0 UV-I 21 W/m² 11,0 °C 11,8 °C 3,2 km/h (1 Bft)
03.07.2017 06:54 11,8 °C 11,8 °C 95 % 1022,1 hPa 0,0 mm 3,1 km/h (1 Bft) W 267 ° 0 min 0,000 mm 0,0 UV-I 25 W/m² 11,0 °C 11,8 °C 6,4 km/h (2 Bft)
03.07.2017 06:55 11,8 °C 11,8 °C 95 % 1022,1 hPa 0,0 mm 2,8 km/h (1 Bft) W 270 ° 0 min 0,000 mm 0,0 UV-I 23 W/m² 11,0 °C 11,8 °C 4,8 km/h (1 Bft)
03.07.2017 06:56 11,8 °C 11,8 °C 95 % 1022,1 hPa 0,0 mm 3,1 km/h (1 Bft) W 270 ° 0 min 0,000 mm 0,0 UV-I 23 W/m² 11,0 °C 11,8 °C 4,8 km/h (1 Bft)
03.07.2017 06:57 11,8 °C 11,8 °C 95 % 1022,1 hPa 0,0 mm 4,8 km/h (1 Bft) W-SW 241 ° 0 min 0,000 mm 0,0 UV-I 25 W/m² 11,0 °C 11,8 °C 6,4 km/h (2 Bft)
03.07.2017 06:58 11,8 °C 11,8 °C 95 % 1022,1 hPa 0,0 mm 4,5 km/h (1 Bft) W-NW 290 ° 0 min 0,000 mm 0,0 UV-I 26 W/m² 11,0 °C 11,8 °C 6,4 km/h (2 Bft)
03.07.2017 06:59 11,8 °C 11,8 °C 95 % 1022,1 hPa 0,0 mm 4,8 km/h (1 Bft) W-NW 295 ° 0 min 0,000 mm 0,0 UV-I 26 W/m² 11,0 °C 11,8 °C 6,4 km/h (2 Bft)
03.07.2017 07:00 11,9 °C 11,9 °C 95 % 1022,1 hPa 0,0 mm 3,4 km/h (1 Bft) W-NW 295 ° 0 min 0,000 mm 0,0 UV-I 30 W/m² 11,1 °C 11,9 °C 6,4 km/h (2 Bft)
03.07.2017 07:01 11,8 °C 11,9 °C 95 % 1022,1 hPa 0,0 mm 4,2 km/h (1 Bft) W 277 ° 0 min 0,000 mm 0,0 UV-I 33 W/m² 11,0 °C 11,8 °C 6,4 km/h (2 Bft)
03.07.2017 07:02 11,9 °C 11,9 °C 95 % 1022,2 hPa 0,0 mm 2,3 km/h (1 Bft) W 277 ° 0 min 0,000 mm 0,0 UV-I 30 W/m² 11,1 °C 11,9 °C 4,8 km/h (1 Bft)
03.07.2017 07:03 11,9 °C 11,9 °C 95 % 1022,2 hPa 0,0 mm 2,4 km/h (1 Bft) W 277 ° 0 min 0,000 mm 0,0 UV-I 28 W/m² 11,1 °C 11,9 °C 3,2 km/h (1 Bft)
03.07.2017 07:04 11,9 °C 11,9 °C 95 % 1022,2 hPa 0,0 mm 3,7 km/h (1 Bft) W-NW 294 ° 0 min 0,000 mm 0,0 UV-I 32 W/m² 11,1 °C 11,9 °C 4,8 km/h (1 Bft)
03.07.2017 07:05 11,9 °C 11,9 °C 95 % 1022,2 hPa 0,0 mm 2,3 km/h (1 Bft) W-NW 293 ° 0 min 0,000 mm 0,0 UV-I 33 W/m² 11,1 °C 11,9 °C 4,8 km/h (1 Bft)
03.07.2017 07:06 11,9 °C 11,9 °C 95 % 1022,1 hPa 0,0 mm 1,8 km/h (1 Bft) W-NW 293 ° 0 min 0,000 mm 0,0 UV-I 35 W/m² 11,1 °C 11,9 °C 4,8 km/h (1 Bft)
03.07.2017 07:07 11,9 °C 11,9 °C 95 % 1022,2 hPa 0,0 mm 4,2 km/h (1 Bft) W-NW 290 ° 0 min 0,000 mm 0,0 UV-I 35 W/m² 11,1 °C 11,9 °C 6,4 km/h (2 Bft)
03.07.2017 07:08 11,9 °C 11,9 °C 95 % 1022,2 hPa 0,0 mm 4,1 km/h (1 Bft) W-NW 301 ° 0 min 0,000 mm 0,0 UV-I 37 W/m² 11,1 °C 11,9 °C 4,8 km/h (1 Bft)
03.07.2017 07:09 11,9 °C 11,9 °C 94 % 1022,3 hPa 0,0 mm 3,1 km/h (1 Bft) W-NW 301 ° 0 min 0,000 mm 0,0 UV-I 37 W/m² 11,0 °C 11,9 °C 4,8 km/h (1 Bft)
03.07.2017 07:10 11,9 °C 11,9 °C 94 % 1022,3 hPa 0,0 mm 1,2 km/h (1 Bft) W-NW 293 ° 0 min 0,000 mm 0,0 UV-I 33 W/m² 11,0 °C 11,9 °C 3,2 km/h (1 Bft)
03.07.2017 07:11 12,0 °C 12,0 °C 94 % 1022,2 hPa 0,0 mm 3,8 km/h (1 Bft) W-SW 257 ° 0 min 0,000 mm 0,0 UV-I 33 W/m² 11,1 °C 12,0 °C 6,4 km/h (2 Bft)
03.07.2017 07:12 11,9 °C 12,0 °C 94 % 1022,3 hPa 0,0 mm 2,1 km/h (1 Bft) W-SW 257 ° 0 min 0,000 mm 0,0 UV-I 33 W/m² 11,0 °C 11,9 °C 3,2 km/h (1 Bft)
03.07.2017 07:13 12,0 °C 12,0 °C 94 % 1022,3 hPa 0,0 mm 4,8 km/h (1 Bft) W-NW 291 ° 0 min 0,000 mm 0,0 UV-I 37 W/m² 11,1 °C 12,0 °C 8,0 km/h (2 Bft)
03.07.2017 07:14 12,0 °C 12,0 °C 94 % 1022,3 hPa 0,0 mm 3,3 km/h (1 Bft) NW 313 ° 0 min 0,000 mm 0,0 UV-I 42 W/m² 11,1 °C 12,0 °C 6,4 km/h (2 Bft)
03.07.2017 07:15 12,0 °C 12,0 °C 94 % 1022,2 hPa 0,0 mm 2,1 km/h (1 Bft) NW 313 ° 0 min 0,000 mm 0,0 UV-I 46 W/m² 11,1 °C 12,0 °C 4,8 km/h (1 Bft)
03.07.2017 07:16 12,0 °C 12,0 °C 94 % 1022,3 hPa 0,0 mm 2,2 km/h (1 Bft) W-NW 298 ° 0 min 0,000 mm 0,0 UV-I 49 W/m² 11,1 °C 12,0 °C 4,8 km/h (1 Bft)
03.07.2017 07:17 12,0 °C 12,1 °C 94 % 1022,4 hPa 0,0 mm 0,9 km/h (0 Bft) W-NW 298 ° 0 min 0,000 mm 0,0 UV-I 53 W/m² 11,1 °C 12,0 °C 1,6 km/h (1 Bft)
03.07.2017 07:18 12,0 °C 12,1 °C 94 % 1022,3 hPa 0,0 mm 0,9 km/h (0 Bft) W-NW 298 ° 0 min 0,000 mm 0,0 UV-I 56 W/m² 11,1 °C 12,0 °C 3,2 km/h (1 Bft)
03.07.2017 07:19 12,1 °C 12,1 °C 94 % 1022,3 hPa 0,0 mm 1,9 km/h (1 Bft) W-NW 298 ° 0 min 0,000 mm 0,0 UV-I 60 W/m² 11,2 °C 12,1 °C 3,2 km/h (1 Bft)
03.07.2017 07:20 12,1 °C 12,1 °C 95 % 1022,4 hPa 0,0 mm 2,5 km/h (1 Bft) W-NW 298 ° 0 min 0,000 mm 0,0 UV-I 63 W/m² 11,3 °C 12,1 °C 3,2 km/h (1 Bft)
03.07.2017 07:21 12,1 °C 12,1 °C 94 % 1022,4 hPa 0,0 mm 3,0 km/h (1 Bft) W-NW 296 ° 0 min 0,000 mm 0,0 UV-I 67 W/m² 11,2 °C 12,1 °C 4,8 km/h (1 Bft)
03.07.2017 07:22 12,1 °C 12,1 °C 95 % 1022,4 hPa 0,0 mm 1,5 km/h (1 Bft) W-NW 296 ° 0 min 0,000 mm 0,5 UV-I 70 W/m² 11,3 °C 12,1 °C 3,2 km/h (1 Bft)
03.07.2017 07:23 12,1 °C 12,2 °C 95 % 1022,4 hPa 0,0 mm 2,4 km/h (1 Bft) W-NW 296 ° 0 min 0,000 mm 0,0 UV-I 70 W/m² 11,3 °C 12,1 °C 4,8 km/h (1 Bft)
03.07.2017 07:24 12,1 °C 12,2 °C 94 % 1022,4 hPa 0,0 mm 3,0 km/h (1 Bft) W-NW 296 ° 0 min 0,000 mm 0,0 UV-I 69 W/m² 11,2 °C 12,1 °C 4,8 km/h (1 Bft)
03.07.2017 07:25 12,2 °C 12,2 °C 95 % 1022,4 hPa 0,0 mm 3,2 km/h (1 Bft) W-NW 290 ° 0 min 0,000 mm 0,5 UV-I 70 W/m² 11,4 °C 12,2 °C 4,8 km/h (1 Bft)
03.07.2017 07:26 12,2 °C 12,2 °C 95 % 1022,4 hPa 0,0 mm 0,7 km/h (0 Bft) W-NW 290 ° 0 min 0,000 mm 0,5 UV-I 72 W/m² 11,4 °C 12,2 °C 1,6 km/h (1 Bft)
03.07.2017 07:27 12,2 °C 12,2 °C 95 % 1022,4 hPa 0,0 mm 0,4 km/h (0 Bft) W-NW 290 ° 0 min 0,000 mm 0,5 UV-I 74 W/m² 11,4 °C 12,2 °C 1,6 km/h (1 Bft)
03.07.2017 07:28 12,2 °C 12,2 °C 95 % 1022,4 hPa 0,0 mm 1,3 km/h (1 Bft) W-NW 290 ° 0 min 0,000 mm 0,5 UV-I 70 W/m² 11,4 °C 12,2 °C 3,2 km/h (1 Bft)
03.07.2017 07:29 12,3 °C 12,3 °C 95 % 1022,4 hPa 0,0 mm 0,3 km/h (0 Bft) W-NW 290 ° 0 min 0,000 mm 0,5 UV-I 72 W/m² 11,5 °C 12,3 °C 1,6 km/h (1 Bft)
03.07.2017 07:30 12,3 °C 12,3 °C 95 % 1022,4 hPa 0,0 mm 0,0 km/h (0 Bft) W-NW 290 ° 0 min 0,000 mm 0,5 UV-I 76 W/m² 11,5 °C 12,3 °C 0,0 km/h (0 Bft)
03.07.2017 07:31 12,3 °C 12,3 °C 94 % 1022,4 hPa 0,0 mm 0,6 km/h (0 Bft) W-NW 290 ° 0 min 0,000 mm 0,5 UV-I 76 W/m² 11,4 °C 12,3 °C 3,2 km/h (1 Bft)
03.07.2017 07:32 12,3 °C 12,3 °C 95 % 1022,4 hPa 0,0 mm 2,2 km/h (1 Bft) W-NW 290 ° 0 min 0,000 mm 0,5 UV-I 74 W/m² 11,5 °C 12,3 °C 3,2 km/h (1 Bft)
03.07.2017 07:33 12,3 °C 12,3 °C 94 % 1022,4 hPa 0,0 mm 0,3 km/h (0 Bft) W-NW 290 ° 0 min 0,000 mm 0,0 UV-I 69 W/m² 11,4 °C 12,3 °C 1,6 km/h (1 Bft)
03.07.2017 07:34 12,3 °C 12,3 °C 94 % 1022,4 hPa 0,0 mm 0,1 km/h (0 Bft) W-NW 290 ° 0 min 0,000 mm 0,0 UV-I 70 W/m² 11,4 °C 12,3 °C 1,6 km/h (1 Bft)
03.07.2017 07:35 12,3 °C 12,3 °C 94 % 1022,4 hPa 0,0 mm 2,2 km/h (1 Bft) W-NW 289 ° 0 min 0,000 mm 0,5 UV-I 74 W/m² 11,4 °C 12,3 °C 4,8 km/h (1 Bft)
03.07.2017 07:36 12,3 °C 12,3 °C 94 % 1022,4 hPa 0,0 mm 3,6 km/h (1 Bft) W-NW 289 ° 0 min 0,000 mm 0,5 UV-I 77 W/m² 11,4 °C 12,3 °C 4,8 km/h (1 Bft)
03.07.2017 07:37 12,3 °C 12,3 °C 94 % 1022,4 hPa 0,0 mm 2,1 km/h (1 Bft) W-NW 288 ° 0 min 0,000 mm 0,5 UV-I 77 W/m² 11,4 °C 12,3 °C 3,2 km/h (1 Bft)
03.07.2017 07:38 12,3 °C 12,3 °C 94 % 1022,4 hPa 0,0 mm 0,6 km/h (0 Bft) W-NW 288 ° 0 min 0,000 mm 0,5 UV-I 76 W/m² 11,4 °C 12,3 °C 1,6 km/h (1 Bft)
03.07.2017 07:39 12,3 °C 12,3 °C 94 % 1022,4 hPa 0,0 mm 0,9 km/h (0 Bft) W-NW 288 ° 0 min 0,000 mm 0,5 UV-I 77 W/m² 11,4 °C 12,3 °C 3,2 km/h (1 Bft)
03.07.2017 07:40 12,3 °C 12,3 °C 94 % 1022,4 hPa 0,0 mm 4,1 km/h (1 Bft) W-NW 288 ° 0 min 0,000 mm 0,5 UV-I 77 W/m² 11,4 °C 12,3 °C 6,4 km/h (2 Bft)
03.07.2017 07:41 12,4 °C 12,4 °C 94 % 1022,5 hPa 0,0 mm 2,8 km/h (1 Bft) W-NW 288 ° 0 min 0,000 mm 0,5 UV-I 74 W/m² 11,5 °C 12,4 °C 4,8 km/h (1 Bft)
03.07.2017 07:42 12,4 °C 12,4 °C 95 % 1022,5 hPa 0,0 mm 4,2 km/h (1 Bft) W-SW 250 ° 0 min 0,000 mm 0,5 UV-I 72 W/m² 11,6 °C 12,4 °C 6,4 km/h (2 Bft)
03.07.2017 07:43 12,4 °C 12,4 °C 95 % 1022,5 hPa 0,0 mm 4,6 km/h (1 Bft) W 260 ° 0 min 0,000 mm 0,5 UV-I 72 W/m² 11,6 °C 12,4 °C 6,4 km/h (2 Bft)
03.07.2017 07:44 12,4 °C 12,4 °C 94 % 1022,5 hPa 0,0 mm 4,3 km/h (1 Bft) W 260 ° 0 min 0,000 mm 0,5 UV-I 76 W/m² 11,5 °C 12,4 °C 6,4 km/h (2 Bft)
03.07.2017 07:45 12,4 °C 12,4 °C 94 % 1022,4 hPa 0,0 mm 1,6 km/h (1 Bft) W 260 ° 0 min 0,000 mm 0,5 UV-I 93 W/m² 11,5 °C 12,4 °C 3,2 km/h (1 Bft)
03.07.2017 07:46 12,4 °C 12,4 °C 94 % 1022,4 hPa 0,0 mm 2,7 km/h (1 Bft) W 260 ° 0 min 0,000 mm 0,6 UV-I 104 W/m² 11,5 °C 12,4 °C 4,8 km/h (1 Bft)
03.07.2017 07:47 12,4 °C 12,4 °C 94 % 1022,4 hPa 0,0 mm 3,6 km/h (1 Bft) W 260 ° 0 min 0,000 mm 0,7 UV-I 113 W/m² 11,5 °C 12,4 °C 4,8 km/h (1 Bft)
03.07.2017 07:48 12,4 °C 12,4 °C 94 % 1022,4 hPa 0,0 mm 2,7 km/h (1 Bft) W-SW 255 ° 0 min 0,000 mm 0,7 UV-I 120 W/m² 11,5 °C 12,4 °C 4,8 km/h (1 Bft)
03.07.2017 07:49 12,4 °C 12,4 °C 94 % 1022,4 hPa 0,0 mm 4,8 km/h (1 Bft) W 281 ° 0 min 0,000 mm 0,8 UV-I 123 W/m² 11,5 °C 12,4 °C 11,3 km/h (2 Bft)
03.07.2017 07:50 12,4 °C 12,4 °C 94 % 1022,4 hPa 0,0 mm 6,6 km/h (2 Bft) W-NW 294 ° 0 min 0,000 mm 0,8 UV-I 125 W/m² 11,5 °C 12,4 °C 11,3 km/h (2 Bft)
03.07.2017 07:51 12,4 °C 12,5 °C 94 % 1022,4 hPa 0,0 mm 3,3 km/h (1 Bft) W-NW 292 ° 0 min 0,000 mm 0,8 UV-I 137 W/m² 11,5 °C 12,4 °C 4,8 km/h (1 Bft)
03.07.2017 07:52 12,6 °C 12,6 °C 94 % 1022,4 hPa 0,0 mm 1,2 km/h (1 Bft) N 349 ° 0 min 0,000 mm 1,0 UV-I 146 W/m² 11,7 °C 12,6 °C 1,6 km/h (1 Bft)
03.07.2017 07:53 12,6 °C 12,6 °C 94 % 1022,4 hPa 0,0 mm 0,8 km/h (0 Bft) N-NW 338 ° 0 min 0,000 mm 1,0 UV-I 155 W/m² 11,7 °C 12,6 °C 3,2 km/h (1 Bft)
03.07.2017 07:54 12,6 °C 12,6 °C 94 % 1022,4 hPa 0,0 mm 3,4 km/h (1 Bft) W 275 ° 0 min 0,000 mm 1,0 UV-I 160 W/m² 11,7 °C 12,6 °C 6,4 km/h (2 Bft)
03.07.2017 07:55 12,7 °C 12,7 °C 94 % 1022,4 hPa 0,0 mm 4,4 km/h (1 Bft) W 274 ° 0 min 0,000 mm 1,0 UV-I 162 W/m² 11,8 °C 12,7 °C 6,4 km/h (2 Bft)
03.07.2017 07:56 12,7 °C 12,7 °C 94 % 1022,4 hPa 0,0 mm 5,2 km/h (1 Bft) W 267 ° 0 min 0,000 mm 1,0 UV-I 160 W/m² 11,8 °C 12,7 °C 6,4 km/h (2 Bft)
03.07.2017 07:57 12,7 °C 12,7 °C 94 % 1022,5 hPa 0,0 mm 4,4 km/h (1 Bft) W 275 ° 0 min 0,000 mm 1,0 UV-I 153 W/m² 11,8 °C 12,7 °C 6,4 km/h (2 Bft)
03.07.2017 07:58 12,7 °C 12,7 °C 94 % 1022,5 hPa 0,0 mm 4,2 km/h (1 Bft) W-NW 285 ° 0 min 0,000 mm 1,0 UV-I 149 W/m² 11,8 °C 12,7 °C 6,4 km/h (2 Bft)
03.07.2017 07:59 12,7 °C 12,7 °C 94 % 1022,4 hPa 0,0 mm 4,1 km/h (1 Bft) W 277 ° 0 min 0,000 mm 1,0 UV-I 151 W/m² 11,8 °C 12,7 °C 6,4 km/h (2 Bft)
03.07.2017 08:00 12,7 °C 12,7 °C 94 % 1022,5 hPa 0,0 mm 3,9 km/h (1 Bft) W 275 ° 0 min 0,000 mm 1,0 UV-I 151 W/m² 11,8 °C 12,7 °C 4,8 km/h (1 Bft)
03.07.2017 08:01 12,7 °C 12,7 °C 94 % 1022,4 hPa 0,0 mm 1,8 km/h (1 Bft) W 275 ° 0 min 0,051 mm 1,1 UV-I 153 W/m² 11,8 °C 12,7 °C 3,2 km/h (1 Bft)
03.07.2017 08:02 12,8 °C 12,8 °C 94 % 1022,5 hPa 0,0 mm 5,0 km/h (1 Bft) W 259 ° 0 min 0,000 mm 1,1 UV-I 153 W/m² 11,9 °C 12,8 °C 9,7 km/h (2 Bft)
03.07.2017 08:03 12,8 °C 12,8 °C 94 % 1022,5 hPa 0,0 mm 4,2 km/h (1 Bft) W 261 ° 0 min 0,000 mm 1,1 UV-I 153 W/m² 11,9 °C 12,8 °C 6,4 km/h (2 Bft)
03.07.2017 08:04 12,8 °C 12,8 °C 94 % 1022,5 hPa 0,0 mm 4,4 km/h (1 Bft) W-NW 291 ° 0 min 0,000 mm 1,1 UV-I 156 W/m² 11,9 °C 12,8 °C 6,4 km/h (2 Bft)
03.07.2017 08:05 12,8 °C 12,8 °C 93 % 1022,5 hPa 0,0 mm 4,0 km/h (1 Bft) W-NW 296 ° 0 min 0,000 mm 1,1 UV-I 156 W/m² 11,7 °C 12,8 °C 6,4 km/h (2 Bft)
03.07.2017 08:06 12,8 °C 12,8 °C 93 % 1022,5 hPa 0,0 mm 6,6 km/h (2 Bft) W-NW 286 ° 0 min 0,000 mm 1,0 UV-I 153 W/m² 11,7 °C 12,8 °C 11,3 km/h (2 Bft)
03.07.2017 08:07 12,8 °C 12,8 °C 93 % 1022,5 hPa 0,0 mm 5,1 km/h (1 Bft) W-NW 283 ° 0 min 0,000 mm 1,0 UV-I 149 W/m² 11,7 °C 12,8 °C 9,7 km/h (2 Bft)
03.07.2017 08:08 12,8 °C 12,8 °C 93 % 1022,5 hPa 0,0 mm 2,6 km/h (1 Bft) W 277 ° 0 min 0,000 mm 1,0 UV-I 137 W/m² 11,7 °C 12,8 °C 4,8 km/h (1 Bft)
03.07.2017 08:09 12,8 °C 12,8 °C 93 % 1022,5 hPa 0,0 mm 4,6 km/h (1 Bft) W 280 ° 0 min 0,000 mm 0,9 UV-I 116 W/m² 11,7 °C 12,8 °C 6,4 km/h (2 Bft)
03.07.2017 08:10 12,8 °C 12,8 °C 93 % 1022,5 hPa 0,0 mm 2,9 km/h (1 Bft) W 280 ° 0 min 0,000 mm 1,0 UV-I 118 W/m² 11,7 °C 12,8 °C 3,2 km/h (1 Bft)
03.07.2017 08:11 12,8 °C 12,8 °C 93 % 1022,5 hPa 0,0 mm 3,5 km/h (1 Bft) W 280 ° 0 min 0,000 mm 1,0 UV-I 127 W/m² 11,7 °C 12,8 °C 4,8 km/h (1 Bft)
03.07.2017 08:12 12,8 °C 12,8 °C 93 % 1022,5 hPa 0,0 mm 2,0 km/h (1 Bft) W 279 ° 0 min 0,000 mm 0,9 UV-I 127 W/m² 11,7 °C 12,8 °C 3,2 km/h (1 Bft)
03.07.2017 08:13 12,8 °C 12,9 °C 93 % 1022,6 hPa 0,0 mm 3,2 km/h (1 Bft) W 279 ° 0 min 0,000 mm 0,9 UV-I 118 W/m² 11,7 °C 12,8 °C 4,8 km/h (1 Bft)
03.07.2017 08:14 12,8 °C 12,9 °C 93 % 1022,6 hPa 0,0 mm 2,5 km/h (1 Bft) W 279 ° 0 min 0,000 mm 0,9 UV-I 114 W/m² 11,7 °C 12,8 °C 4,8 km/h (1 Bft)
03.07.2017 08:15 12,9 °C 12,9 °C 93 % 1022,6 hPa 0,0 mm 2,0 km/h (1 Bft) W 279 ° 0 min 0,000 mm 0,9 UV-I 114 W/m² 11,8 °C 12,9 °C 3,2 km/h (1 Bft)
03.07.2017 08:16 12,8 °C 12,9 °C 93 % 1022,6 hPa 0,0 mm 2,9 km/h (1 Bft) W 267 ° 0 min 0,000 mm 0,9 UV-I 118 W/m² 11,7 °C 12,8 °C 6,4 km/h (2 Bft)
03.07.2017 08:17 12,8 °C 12,8 °C 93 % 1022,6 hPa 0,0 mm 2,8 km/h (1 Bft) W 267 ° 0 min 0,000 mm 0,9 UV-I 118 W/m² 11,7 °C 12,8 °C 4,8 km/h (1 Bft)
03.07.2017 08:18 12,9 °C 12,9 °C 93 % 1022,6 hPa 0,0 mm 3,3 km/h (1 Bft) W 279 ° 0 min 0,000 mm 0,9 UV-I 120 W/m² 11,8 °C 12,9 °C 4,8 km/h (1 Bft)
03.07.2017 08:19 12,9 °C 12,9 °C 93 % 1022,6 hPa 0,0 mm 3,6 km/h (1 Bft) W 273 ° 0 min 0,000 mm 0,9 UV-I 114 W/m² 11,8 °C 12,9 °C 6,4 km/h (2 Bft)
03.07.2017 08:20 12,9 °C 12,9 °C 93 % 1022,6 hPa 0,0 mm 4,3 km/h (1 Bft) W-SW 252 ° 0 min 0,000 mm 1,0 UV-I 118 W/m² 11,8 °C 12,9 °C 6,4 km/h (2 Bft)
03.07.2017 08:21 12,9 °C 12,9 °C 93 % 1022,6 hPa 0,0 mm 3,6 km/h (1 Bft) W 267 ° 0 min 0,000 mm 1,0 UV-I 113 W/m² 11,8 °C 12,9 °C 6,4 km/h (2 Bft)
03.07.2017 08:22 12,9 °C 12,9 °C 93 % 1022,6 hPa 0,0 mm 6,1 km/h (2 Bft) W 262 ° 0 min 0,000 mm 1,1 UV-I 118 W/m² 11,8 °C 12,9 °C 11,3 km/h (2 Bft)
03.07.2017 08:23 12,9 °C 12,9 °C 93 % 1022,6 hPa 0,0 mm 5,9 km/h (2 Bft) W 277 ° 0 min 0,000 mm 1,2 UV-I 135 W/m² 11,8 °C 12,9 °C 9,7 km/h (2 Bft)
03.07.2017 08:24 12,9 °C 12,9 °C 93 % 1022,6 hPa 0,0 mm 5,8 km/h (2 Bft) W 265 ° 0 min 0,000 mm 1,3 UV-I 144 W/m² 11,8 °C 12,9 °C 9,7 km/h (2 Bft)
03.07.2017 08:25 12,9 °C 12,9 °C 93 % 1022,6 hPa 0,0 mm 5,2 km/h (1 Bft) W 269 ° 0 min 0,000 mm 1,4 UV-I 151 W/m² 11,8 °C 12,9 °C 8,0 km/h (2 Bft)
03.07.2017 08:26 12,9 °C 12,9 °C 93 % 1022,6 hPa 0,0 mm 4,4 km/h (1 Bft) W 271 ° 0 min 0,000 mm 1,4 UV-I 172 W/m² 11,8 °C 12,9 °C 6,4 km/h (2 Bft)
03.07.2017 08:27 12,9 °C 12,9 °C 93 % 1022,6 hPa 0,0 mm 4,0 km/h (1 Bft) W 259 ° 0 min 0,000 mm 1,5 UV-I 179 W/m² 11,8 °C 12,9 °C 6,4 km/h (2 Bft)
03.07.2017 08:28 13,0 °C 13,0 °C 93 % 1022,6 hPa 0,0 mm 3,7 km/h (1 Bft) W 270 ° 0 min 0,000 mm 1,5 UV-I 190 W/m² 11,9 °C 13,0 °C 9,7 km/h (2 Bft)
03.07.2017 08:29 13,1 °C 13,1 °C 93 % 1022,6 hPa 0,0 mm 6,7 km/h (2 Bft) W-NW 282 ° 0 min 0,000 mm 1,6 UV-I 200 W/m² 12,0 °C 13,1 °C 9,7 km/h (2 Bft)
03.07.2017 08:30 13,1 °C 13,1 °C 93 % 1022,6 hPa 0,0 mm 2,5 km/h (1 Bft) W-SW 246 ° 0 min 0,000 mm 1,6 UV-I 211 W/m² 12,0 °C 13,1 °C 4,8 km/h (1 Bft)
03.07.2017 08:31 13,1 °C 13,2 °C 93 % 1022,6 hPa 0,0 mm 4,8 km/h (1 Bft) W-NW 287 ° 0 min 0,000 mm 1,6 UV-I 221 W/m² 12,0 °C 13,1 °C 6,4 km/h (2 Bft)
03.07.2017 08:32 13,2 °C 13,2 °C 93 % 1022,6 hPa 0,0 mm 3,0 km/h (1 Bft) W 280 ° 0 min 0,000 mm 1,7 UV-I 250 W/m² 12,1 °C 13,2 °C 4,8 km/h (1 Bft)
03.07.2017 08:33 13,3 °C 13,3 °C 93 % 1022,6 hPa 0,0 mm 3,4 km/h (1 Bft) W-NW 289 ° 0 min 0,000 mm 1,7 UV-I 258 W/m² 12,2 °C 13,3 °C 4,8 km/h (1 Bft)
03.07.2017 08:34 13,4 °C 13,4 °C 93 % 1022,6 hPa 0,0 mm 4,1 km/h (1 Bft) W-NW 287 ° 0 min 0,000 mm 1,7 UV-I 262 W/m² 12,3 °C 13,4 °C 6,4 km/h (2 Bft)
03.07.2017 08:35 13,5 °C 13,5 °C 93 % 1022,6 hPa 0,0 mm 1,3 km/h (1 Bft) W-NW 287 ° 0 min 0,000 mm 1,7 UV-I 251 W/m² 12,4 °C 13,5 °C 3,2 km/h (1 Bft)
03.07.2017 08:36 13,5 °C 13,5 °C 93 % 1022,6 hPa 0,0 mm 3,5 km/h (1 Bft) W-SW 253 ° 0 min 0,000 mm 1,6 UV-I 230 W/m² 12,4 °C 13,5 °C 4,8 km/h (1 Bft)
03.07.2017 08:37 13,5 °C 13,6 °C 92 % 1022,6 hPa 0,0 mm 3,4 km/h (1 Bft) W-SW 252 ° 0 min 0,000 mm 1,6 UV-I 223 W/m² 12,2 °C 13,5 °C 6,4 km/h (2 Bft)
03.07.2017 08:38 13,5 °C 13,5 °C 92 % 1022,6 hPa 0,0 mm 6,2 km/h (2 Bft) W-SW 242 ° 0 min 0,000 mm 1,5 UV-I 227 W/m² 12,2 °C 13,5 °C 9,7 km/h (2 Bft)
03.07.2017 08:39 13,5 °C 13,5 °C 92 % 1022,6 hPa 0,0 mm 3,8 km/h (1 Bft) W 263 ° 0 min 0,000 mm 1,5 UV-I 225 W/m² 12,2 °C 13,5 °C 4,8 km/h (1 Bft)
03.07.2017 08:40 13,4 °C 13,5 °C 92 % 1022,6 hPa 0,0 mm 2,2 km/h (1 Bft) W-SW 251 ° 0 min 0,000 mm 1,5 UV-I 241 W/m² 12,1 °C 13,4 °C 4,8 km/h (1 Bft)
03.07.2017 08:41 13,5 °C 13,5 °C 92 % 1022,6 hPa 0,0 mm 3,8 km/h (1 Bft) W 272 ° 1 min 0,000 mm 1,8 UV-I 302 W/m² 12,2 °C 13,5 °C 6,4 km/h (2 Bft)
03.07.2017 08:42 13,6 °C 13,6 °C 92 % 1022,6 hPa 0,0 mm 4,1 km/h (1 Bft) W-SW 254 ° 0 min 0,000 mm 1,5 UV-I 248 W/m² 12,3 °C 13,6 °C 6,4 km/h (2 Bft)
03.07.2017 08:43 13,6 °C 13,6 °C 92 % 1022,5 hPa 0,0 mm 3,9 km/h (1 Bft) S-SW 202 ° 0 min 0,000 mm 1,4 UV-I 227 W/m² 12,3 °C 13,6 °C 8,0 km/h (2 Bft)
03.07.2017 08:44 13,6 °C 13,6 °C 92 % 1022,5 hPa 0,0 mm 3,2 km/h (1 Bft) S-SW 199 ° 0 min 0,000 mm 1,4 UV-I 223 W/m² 12,3 °C 13,6 °C 6,4 km/h (2 Bft)
03.07.2017 08:45 13,7 °C 13,7 °C 92 % 1022,5 hPa 0,0 mm 2,5 km/h (1 Bft) W 266 ° 0 min 0,000 mm 1,5 UV-I 230 W/m² 12,4 °C 13,7 °C 6,4 km/h (2 Bft)
03.07.2017 08:46 13,7 °C 13,7 °C 92 % 1022,6 hPa 0,0 mm 7,4 km/h (2 Bft) W 268 ° 0 min 0,000 mm 1,6 UV-I 230 W/m² 12,4 °C 13,7 °C 11,3 km/h (2 Bft)
03.07.2017 08:47 13,7 °C 13,7 °C 92 % 1022,6 hPa 0,0 mm 6,4 km/h (2 Bft) W 281 ° 0 min 0,000 mm 1,7 UV-I 274 W/m² 12,4 °C 13,7 °C 9,7 km/h (2 Bft)
03.07.2017 08:48 13,7 °C 13,7 °C 92 % 1022,6 hPa 0,0 mm 4,8 km/h (1 Bft) W 265 ° 1 min 0,000 mm 1,8 UV-I 345 W/m² 12,4 °C 13,7 °C 6,4 km/h (2 Bft)
03.07.2017 08:49 13,8 °C 13,8 °C 92 % 1022,6 hPa 0,0 mm 5,0 km/h (1 Bft) W 267 ° 0 min 0,000 mm 1,6 UV-I 258 W/m² 12,5 °C 13,8 °C 6,4 km/h (2 Bft)
03.07.2017 08:50 13,8 °C 13,8 °C 92 % 1022,6 hPa 0,0 mm 6,6 km/h (2 Bft) W-SW 241 ° 0 min 0,000 mm 1,6 UV-I 243 W/m² 12,5 °C 13,8 °C 9,7 km/h (2 Bft)
03.07.2017 08:51 13,8 °C 13,8 °C 91 % 1022,6 hPa 0,0 mm 9,8 km/h (2 Bft) W 277 ° 0 min 0,000 mm 1,6 UV-I 241 W/m² 12,4 °C 13,8 °C 12,9 km/h (3 Bft)
03.07.2017 08:52 13,8 °C 13,8 °C 92 % 1022,6 hPa 0,0 mm 7,4 km/h (2 Bft) W 263 ° 0 min 0,000 mm 1,6 UV-I 234 W/m² 12,5 °C 13,8 °C 11,3 km/h (2 Bft)
03.07.2017 08:53 13,8 °C 13,8 °C 91 % 1022,6 hPa 0,0 mm 6,0 km/h (2 Bft) W-SW 243 ° 0 min 0,000 mm 1,6 UV-I 236 W/m² 12,4 °C 13,8 °C 11,3 km/h (2 Bft)
03.07.2017 08:54 13,8 °C 13,8 °C 92 % 1022,6 hPa 0,0 mm 4,3 km/h (1 Bft) W-SW 248 ° 1 min 0,000 mm 2,2 UV-I 297 W/m² 12,5 °C 13,8 °C 6,4 km/h (2 Bft)
03.07.2017 08:55 13,8 °C 13,8 °C 91 % 1022,6 hPa 0,0 mm 2,2 km/h (1 Bft) W-SW 250 ° 0 min 0,000 mm 1,6 UV-I 220 W/m² 12,4 °C 13,8 °C 4,8 km/h (1 Bft)
03.07.2017 08:56 13,8 °C 13,8 °C 91 % 1022,6 hPa 0,0 mm 5,0 km/h (1 Bft) W 277 ° 0 min 0,000 mm 1,6 UV-I 220 W/m² 12,4 °C 13,8 °C 9,7 km/h (2 Bft)
03.07.2017 08:57 13,8 °C 13,8 °C 91 % 1022,5 hPa 0,0 mm 4,1 km/h (1 Bft) W 268 ° 0 min 0,000 mm 1,6 UV-I 220 W/m² 12,4 °C 13,8 °C 6,4 km/h (2 Bft)
03.07.2017 08:58 13,8 °C 13,8 °C 91 % 1022,6 hPa 0,0 mm 4,9 km/h (1 Bft) W 271 ° 0 min 0,000 mm 1,6 UV-I 220 W/m² 12,4 °C 13,8 °C 6,4 km/h (2 Bft)
03.07.2017 08:59 13,8 °C 13,8 °C 91 % 1022,6 hPa 0,0 mm 2,3 km/h (1 Bft) W-NW 283 ° 0 min 0,000 mm 1,7 UV-I 223 W/m² 12,4 °C 13,8 °C 3,2 km/h (1 Bft)
03.07.2017 09:00 13,8 °C 13,8 °C 91 % 1022,6 hPa 0,0 mm 4,0 km/h (1 Bft) W-NW 288 ° 0 min 0,000 mm 1,7 UV-I 229 W/m² 12,4 °C 13,8 °C 6,4 km/h (2 Bft)
03.07.2017 09:01 13,8 °C 13,8 °C 91 % 1022,6 hPa 0,0 mm 3,0 km/h (1 Bft) W-NW 288 ° 0 min 0,101 mm 1,7 UV-I 223 W/m² 12,4 °C 13,8 °C 4,8 km/h (1 Bft)
03.07.2017 09:02 13,8 °C 13,8 °C 91 % 1022,6 hPa 0,0 mm 4,0 km/h (1 Bft) W 271 ° 0 min 0,000 mm 1,6 UV-I 216 W/m² 12,4 °C 13,8 °C 9,7 km/h (2 Bft)
03.07.2017 09:03 13,8 °C 13,8 °C 91 % 1022,6 hPa 0,0 mm 7,0 km/h (2 Bft) W 274 ° 0 min 0,000 mm 1,5 UV-I 206 W/m² 12,4 °C 13,8 °C 9,7 km/h (2 Bft)
03.07.2017 09:04 13,8 °C 13,9 °C 92 % 1022,6 hPa 0,0 mm 4,4 km/h (1 Bft) SW 229 ° 0 min 0,000 mm 1,4 UV-I 202 W/m² 12,5 °C 13,8 °C 6,4 km/h (2 Bft)
03.07.2017 09:05 13,8 °C 13,8 °C 91 % 1022,7 hPa 0,0 mm 4,3 km/h (1 Bft) W-NW 285 ° 0 min 0,000 mm 1,3 UV-I 188 W/m² 12,4 °C 13,8 °C 6,4 km/h (2 Bft)
03.07.2017 09:06 13,8 °C 13,8 °C 92 % 1022,6 hPa 0,0 mm 4,7 km/h (1 Bft) W-NW 303 ° 0 min 0,000 mm 1,3 UV-I 179 W/m² 12,5 °C 13,8 °C 9,7 km/h (2 Bft)
03.07.2017 09:07 13,9 °C 13,9 °C 92 % 1022,6 hPa 0,0 mm 1,0 km/h (0 Bft) W-NW 303 ° 0 min 0,000 mm 1,4 UV-I 192 W/m² 12,6 °C 13,9 °C 4,8 km/h (1 Bft)
03.07.2017 09:08 13,9 °C 13,9 °C 92 % 1022,7 hPa 0,0 mm 0,5 km/h (0 Bft) W-NW 303 ° 0 min 0,000 mm 1,5 UV-I 206 W/m² 12,6 °C 13,9 °C 1,6 km/h (1 Bft)
03.07.2017 09:09 13,8 °C 13,9 °C 91 % 1022,6 hPa 0,0 mm 2,2 km/h (1 Bft) W-NW 297 ° 0 min 0,000 mm 1,6 UV-I 218 W/m² 12,4 °C 13,8 °C 3,2 km/h (1 Bft)
03.07.2017 09:10 13,8 °C 13,8 °C 91 % 1022,6 hPa 0,0 mm 5,4 km/h (1 Bft) W-NW 302 ° 0 min 0,000 mm 1,8 UV-I 243 W/m² 12,4 °C 13,8 °C 9,7 km/h (2 Bft)
03.07.2017 09:11 13,8 °C 13,8 °C 91 % 1022,6 hPa 0,0 mm 4,2 km/h (1 Bft) NW 319 ° 0 min 0,000 mm 1,8 UV-I 253 W/m² 12,4 °C 13,8 °C 8,0 km/h (2 Bft)
03.07.2017 09:12 13,7 °C 13,8 °C 90 % 1022,6 hPa 0,0 mm 0,5 km/h (0 Bft) NW 319 ° 0 min 0,000 mm 1,8 UV-I 243 W/m² 12,1 °C 13,7 °C 1,6 km/h (1 Bft)
03.07.2017 09:13 13,8 °C 13,8 °C 91 % 1022,7 hPa 0,0 mm 3,2 km/h (1 Bft) NW 318 ° 0 min 0,000 mm 1,8 UV-I 239 W/m² 12,4 °C 13,8 °C 4,8 km/h (1 Bft)
03.07.2017 09:14 13,8 °C 13,8 °C 92 % 1022,6 hPa 0,0 mm 2,3 km/h (1 Bft) NW 318 ° 0 min 0,000 mm 1,7 UV-I 232 W/m² 12,5 °C 13,8 °C 4,8 km/h (1 Bft)
03.07.2017 09:15 13,8 °C 13,8 °C 91 % 1022,6 hPa 0,0 mm 2,8 km/h (1 Bft) W-NW 300 ° 0 min 0,000 mm 1,7 UV-I 229 W/m² 12,4 °C 13,8 °C 4,8 km/h (1 Bft)
03.07.2017 09:16 13,8 °C 13,8 °C 91 % 1022,6 hPa 0,0 mm 3,0 km/h (1 Bft) W 265 ° 0 min 0,000 mm 1,6 UV-I 221 W/m² 12,4 °C 13,8 °C 4,8 km/h (1 Bft)
03.07.2017 09:17 13,9 °C 13,9 °C 92 % 1022,6 hPa 0,0 mm 5,4 km/h (1 Bft) W 277 ° 0 min 0,000 mm 1,6 UV-I 221 W/m² 12,6 °C 13,9 °C 9,7 km/h (2 Bft)
03.07.2017 09:18 13,9 °C 13,9 °C 92 % 1022,7 hPa 0,0 mm 4,8 km/h (1 Bft) W 263 ° 0 min 0,000 mm 1,6 UV-I 204 W/m² 12,6 °C 13,9 °C 4,8 km/h (1 Bft)
03.07.2017 09:19 13,9 °C 13,9 °C 91 % 1022,6 hPa 0,0 mm 3,4 km/h (1 Bft) W 277 ° 0 min 0,000 mm 1,7 UV-I 197 W/m² 12,5 °C 13,9 °C 4,8 km/h (1 Bft)
03.07.2017 09:20 13,9 °C 13,9 °C 91 % 1022,6 hPa 0,0 mm 1,2 km/h (1 Bft) W-SW 255 ° 0 min 0,000 mm 1,7 UV-I 199 W/m² 12,5 °C 13,9 °C 4,8 km/h (1 Bft)
03.07.2017 09:21 13,9 °C 13,9 °C 91 % 1022,6 hPa 0,0 mm 1,9 km/h (1 Bft) W-SW 255 ° 0 min 0,000 mm 1,8 UV-I 200 W/m² 12,5 °C 13,9 °C 3,2 km/h (1 Bft)
03.07.2017 09:22 13,9 °C 13,9 °C 91 % 1022,6 hPa 0,0 mm 3,8 km/h (1 Bft) W 262 ° 0 min 0,000 mm 1,9 UV-I 207 W/m² 12,5 °C 13,9 °C 6,4 km/h (2 Bft)
03.07.2017 09:23 13,8 °C 13,9 °C 91 % 1022,6 hPa 0,0 mm 3,7 km/h (1 Bft) W 269 ° 0 min 0,000 mm 1,9 UV-I 229 W/m² 12,4 °C 13,8 °C 4,8 km/h (1 Bft)
03.07.2017 09:24 13,9 °C 13,9 °C 92 % 1022,6 hPa 0,0 mm 3,1 km/h (1 Bft) W 270 ° 0 min 0,000 mm 2,0 UV-I 253 W/m² 12,6 °C 13,9 °C 4,8 km/h (1 Bft)
03.07.2017 09:25 14,0 °C 14,1 °C 92 % 1022,6 hPa 0,0 mm 3,7 km/h (1 Bft) SW 217 ° 0 min 0,000 mm 2,0 UV-I 260 W/m² 12,7 °C 14,0 °C 4,8 km/h (1 Bft)
03.07.2017 09:26 14,0 °C 14,0 °C 91 % 1022,6 hPa 0,0 mm 1,9 km/h (1 Bft) SW 217 ° 0 min 0,000 mm 1,8 UV-I 230 W/m² 12,6 °C 14,0 °C 3,2 km/h (1 Bft)
03.07.2017 09:27 14,1 °C 14,1 °C 92 % 1022,6 hPa 0,0 mm 5,5 km/h (1 Bft) W-SW 253 ° 0 min 0,000 mm 1,8 UV-I 227 W/m² 12,8 °C 14,1 °C 9,7 km/h (2 Bft)
03.07.2017 09:28 14,1 °C 14,1 °C 91 % 1022,7 hPa 0,0 mm 5,4 km/h (1 Bft) NW 307 ° 0 min 0,000 mm 1,7 UV-I 209 W/m² 12,7 °C 14,1 °C 6,4 km/h (2 Bft)
03.07.2017 09:29 14,0 °C 14,1 °C 91 % 1022,7 hPa 0,0 mm 4,0 km/h (1 Bft) W-NW 294 ° 0 min 0,000 mm 1,8 UV-I 206 W/m² 12,6 °C 14,0 °C 6,4 km/h (2 Bft)
03.07.2017 09:30 14,0 °C 14,1 °C 90 % 1022,6 hPa 0,0 mm 2,3 km/h (1 Bft) NW 309 ° 0 min 0,000 mm 1,9 UV-I 211 W/m² 12,4 °C 14,0 °C 4,8 km/h (1 Bft)
03.07.2017 09:31 13,9 °C 14,0 °C 90 % 1022,6 hPa 0,0 mm 4,1 km/h (1 Bft) NW 309 ° 0 min 0,000 mm 2,0 UV-I 243 W/m² 12,3 °C 13,9 °C 6,4 km/h (2 Bft)
03.07.2017 09:32 13,9 °C 13,9 °C 89 % 1022,6 hPa 0,0 mm 0,1 km/h (0 Bft) NW 309 ° 1 min 0,000 mm 2,4 UV-I 299 W/m² 12,1 °C 13,9 °C 1,6 km/h (1 Bft)
03.07.2017 09:33 13,9 °C 13,9 °C 90 % 1022,7 hPa 0,0 mm 1,5 km/h (1 Bft) NW 309 ° 1 min 0,000 mm 3,1 UV-I 299 W/m² 12,3 °C 13,9 °C 3,2 km/h (1 Bft)
03.07.2017 09:34 14,1 °C 14,1 °C 91 % 1022,7 hPa 0,0 mm 3,6 km/h (1 Bft) NW 309 ° 1 min 0,000 mm 2,9 UV-I 519 W/m² 12,7 °C 14,1 °C 4,8 km/h (1 Bft)
03.07.2017 09:35 14,2 °C 14,2 °C 91 % 1022,6 hPa 0,0 mm 3,4 km/h (1 Bft) NW 305 ° 1 min 0,000 mm 2,3 UV-I 519 W/m² 12,8 °C 14,2 °C 4,8 km/h (1 Bft)
03.07.2017 09:36 14,2 °C 14,2 °C 90 % 1022,7 hPa 0,0 mm 2,5 km/h (1 Bft) NW 304 ° 1 min 0,000 mm 2,4 UV-I 301 W/m² 12,6 °C 14,2 °C 3,2 km/h (1 Bft)
03.07.2017 09:37 14,3 °C 14,3 °C 90 % 1022,7 hPa 0,0 mm 2,9 km/h (1 Bft) NW 305 ° 1 min 0,000 mm 2,2 UV-I 315 W/m² 12,7 °C 14,3 °C 4,8 km/h (1 Bft)
03.07.2017 09:38 14,2 °C 14,3 °C 90 % 1022,7 hPa 0,0 mm 2,5 km/h (1 Bft) NW 305 ° 1 min 0,000 mm 2,2 UV-I 302 W/m² 12,6 °C 14,2 °C 4,8 km/h (1 Bft)
03.07.2017 09:39 14,3 °C 14,3 °C 89 % 1022,7 hPa 0,0 mm 1,9 km/h (1 Bft) NW 305 ° 1 min 0,000 mm 2,1 UV-I 338 W/m² 12,5 °C 14,3 °C 3,2 km/h (1 Bft)
03.07.2017 09:40 14,3 °C 14,3 °C 91 % 1022,7 hPa 0,0 mm 2,3 km/h (1 Bft) NW 305 ° 1 min 0,000 mm 2,8 UV-I 338 W/m² 12,8 °C 14,3 °C 3,2 km/h (1 Bft)
03.07.2017 09:41 14,3 °C 14,4 °C 90 % 1022,7 hPa 0,0 mm 1,7 km/h (1 Bft) NW 304 ° 1 min 0,000 mm 2,4 UV-I 338 W/m² 12,7 °C 14,3 °C 3,2 km/h (1 Bft)
03.07.2017 09:42 14,4 °C 14,4 °C 91 % 1022,6 hPa 0,0 mm 2,0 km/h (1 Bft) W-NW 302 ° 1 min 0,000 mm 1,7 UV-I 338 W/m² 12,9 °C 14,4 °C 3,2 km/h (1 Bft)
03.07.2017 09:43 14,4 °C 14,4 °C 91 % 1022,7 hPa 0,0 mm 3,7 km/h (1 Bft) W-NW 285 ° 0 min 0,000 mm 1,8 UV-I 236 W/m² 12,9 °C 14,4 °C 6,4 km/h (2 Bft)
03.07.2017 09:44 14,5 °C 14,5 °C 91 % 1022,6 hPa 0,0 mm 3,0 km/h (1 Bft) W 272 ° 0 min 0,000 mm 2,0 UV-I 251 W/m² 13,0 °C 14,5 °C 4,8 km/h (1 Bft)
03.07.2017 09:45 14,4 °C 14,5 °C 91 % 1022,6 hPa 0,0 mm 1,8 km/h (1 Bft) W 272 ° 0 min 0,000 mm 2,2 UV-I 269 W/m² 12,9 °C 14,4 °C 3,2 km/h (1 Bft)
03.07.2017 09:46 14,3 °C 14,4 °C 89 % 1022,6 hPa 0,0 mm 2,7 km/h (1 Bft) W 272 ° 1 min 0,000 mm 2,3 UV-I 299 W/m² 12,5 °C 14,3 °C 4,8 km/h (1 Bft)
03.07.2017 09:47 14,3 °C 14,3 °C 89 % 1022,6 hPa 0,0 mm 0,6 km/h (0 Bft) W 272 ° 1 min 0,000 mm 2,2 UV-I 299 W/m² 12,5 °C 14,3 °C 3,2 km/h (1 Bft)
03.07.2017 09:48 14,3 °C 14,3 °C 90 % 1022,7 hPa 0,0 mm 0,1 km/h (0 Bft) W 272 ° 0 min 0,000 mm 2,5 UV-I 274 W/m² 12,7 °C 14,3 °C 1,6 km/h (1 Bft)
03.07.2017 09:49 14,2 °C 14,3 °C 89 % 1022,7 hPa 0,0 mm 2,3 km/h (1 Bft) W-SW 247 ° 0 min 0,000 mm 2,0 UV-I 237 W/m² 12,4 °C 14,2 °C 3,2 km/h (1 Bft)
03.07.2017 09:50 14,2 °C 14,2 °C 90 % 1022,7 hPa 0,0 mm 3,2 km/h (1 Bft) W-SW 250 ° 0 min 0,000 mm 1,8 UV-I 223 W/m² 12,6 °C 14,2 °C 4,8 km/h (1 Bft)
03.07.2017 09:51 14,2 °C 14,2 °C 89 % 1022,6 hPa 0,0 mm 2,5 km/h (1 Bft) W-SW 250 ° 0 min 0,000 mm 1,8 UV-I 221 W/m² 12,4 °C 14,2 °C 3,2 km/h (1 Bft)
03.07.2017 09:52 14,2 °C 14,2 °C 89 % 1022,6 hPa 0,0 mm 3,4 km/h (1 Bft) W-SW 250 ° 0 min 0,000 mm 1,9 UV-I 227 W/m² 12,4 °C 14,2 °C 4,8 km/h (1 Bft)
03.07.2017 09:53 14,2 °C 14,2 °C 91 % 1022,6 hPa 0,0 mm 3,1 km/h (1 Bft) W-SW 250 ° 0 min 0,000 mm 2,0 UV-I 232 W/m² 12,8 °C 14,2 °C 4,8 km/h (1 Bft)
03.07.2017 09:54 14,3 °C 14,3 °C 90 % 1022,6 hPa 0,0 mm 4,2 km/h (1 Bft) W 261 ° 0 min 0,000 mm 2,1 UV-I 258 W/m² 12,7 °C 14,3 °C 4,8 km/h (1 Bft)
03.07.2017 09:55 14,4 °C 14,4 °C 91 % 1022,7 hPa 0,0 mm 4,8 km/h (1 Bft) W-SW 247 ° 0 min 0,000 mm 2,2 UV-I 271 W/m² 12,9 °C 14,4 °C 6,4 km/h (2 Bft)
03.07.2017 09:56 14,4 °C 14,4 °C 91 % 1022,6 hPa 0,0 mm 3,8 km/h (1 Bft) W-SW 246 ° 0 min 0,000 mm 2,2 UV-I 279 W/m² 12,9 °C 14,4 °C 4,8 km/h (1 Bft)
03.07.2017 09:57 14,4 °C 14,4 °C 90 % 1022,7 hPa 0,0 mm 2,4 km/h (1 Bft) W-SW 246 ° 0 min 0,000 mm 2,2 UV-I 272 W/m² 12,8 °C 14,4 °C 3,2 km/h (1 Bft)
03.07.2017 09:58 14,4 °C 14,4 °C 90 % 1022,7 hPa 0,0 mm 0,6 km/h (0 Bft) W-SW 246 ° 0 min 0,000 mm 2,1 UV-I 260 W/m² 12,8 °C 14,4 °C 3,2 km/h (1 Bft)
03.07.2017 09:59 14,4 °C 14,4 °C 90 % 1022,6 hPa 0,0 mm 0,5 km/h (0 Bft) W-SW 246 ° 0 min 0,000 mm 2,2 UV-I 264 W/m² 12,8 °C 14,4 °C 1,6 km/h (1 Bft)
03.07.2017 10:00 14,4 °C 14,4 °C 89 % 1022,6 hPa 0,0 mm 0,1 km/h (0 Bft) W-SW 246 ° 0 min 0,000 mm 2,2 UV-I 274 W/m² 12,6 °C 14,4 °C 1,6 km/h (1 Bft)
03.07.2017 10:01 14,4 °C 14,4 °C 90 % 1022,7 hPa 0,0 mm 1,1 km/h (1 Bft) W-SW 246 ° 0 min 0,127 mm 2,3 UV-I 281 W/m² 12,8 °C 14,4 °C 3,2 km/h (1 Bft)
03.07.2017 10:02 14,4 °C 14,5 °C 90 % 1022,7 hPa 0,0 mm 1,7 km/h (1 Bft) S-SW 210 ° 1 min 0,000 mm 2,4 UV-I 295 W/m² 12,8 °C 14,4 °C 4,8 km/h (1 Bft)
03.07.2017 10:03 14,4 °C 14,4 °C 90 % 1022,7 hPa 0,2 mm 3,5 km/h (1 Bft) S-SW 198 ° 1 min 0,000 mm 2,5 UV-I 313 W/m² 12,8 °C 14,4 °C 4,8 km/h (1 Bft)
03.07.2017 10:04 14,4 °C 14,4 °C 89 % 1022,7 hPa 0,0 mm 0,9 km/h (0 Bft) S-SW 198 ° 1 min 0,000 mm 2,8 UV-I 313 W/m² 12,6 °C 14,4 °C 3,2 km/h (1 Bft)
03.07.2017 10:05 14,5 °C 14,5 °C 91 % 1022,6 hPa 0,0 mm 0,5 km/h (0 Bft) S-SW 199 ° 1 min 0,000 mm 3,1 UV-I 313 W/m² 13,0 °C 14,5 °C 3,2 km/h (1 Bft)
03.07.2017 10:06 14,7 °C 14,7 °C 92 % 1022,6 hPa 0,0 mm 1,4 km/h (1 Bft) W-SW 247 ° 1 min 0,000 mm 2,5 UV-I 295 W/m² 13,4 °C 14,7 °C 3,2 km/h (1 Bft)
03.07.2017 10:07 14,7 °C 14,7 °C 91 % 1022,6 hPa 0,0 mm 4,8 km/h (1 Bft) W 271 ° 1 min 0,000 mm 2,6 UV-I 315 W/m² 13,2 °C 14,7 °C 6,4 km/h (2 Bft)
03.07.2017 10:08 14,6 °C 14,7 °C 90 % 1022,6 hPa 0,0 mm 2,9 km/h (1 Bft) SW 218 ° 1 min 0,000 mm 3,5 UV-I 315 W/m² 13,0 °C 14,6 °C 4,8 km/h (1 Bft)
03.07.2017 10:09 14,6 °C 14,6 °C 91 % 1022,6 hPa 0,0 mm 4,0 km/h (1 Bft) W 259 ° 1 min 0,000 mm 3,7 UV-I 540 W/m² 13,1 °C 14,6 °C 6,4 km/h (2 Bft)
03.07.2017 10:10 14,7 °C 14,7 °C 91 % 1022,6 hPa 0,0 mm 3,5 km/h (1 Bft) W-SW 258 ° 1 min 0,000 mm 3,8 UV-I 540 W/m² 13,2 °C 14,7 °C 6,4 km/h (2 Bft)
03.07.2017 10:11 14,9 °C 14,9 °C 92 % 1022,6 hPa 0,0 mm 4,3 km/h (1 Bft) W 271 ° 1 min 0,000 mm 3,7 UV-I 540 W/m² 13,6 °C 14,9 °C 6,4 km/h (2 Bft)
03.07.2017 10:12 15,0 °C 15,0 °C 91 % 1022,6 hPa 0,0 mm 2,5 km/h (1 Bft) W 271 ° 1 min 0,000 mm 3,5 UV-I 548 W/m² 13,5 °C 15,0 °C 4,8 km/h (1 Bft)
03.07.2017 10:13 15,1 °C 15,1 °C 90 % 1022,6 hPa 0,0 mm 2,8 km/h (1 Bft) W-SW 254 ° 0 min 0,000 mm 2,2 UV-I 237 W/m² 13,5 °C 15,1 °C 4,8 km/h (1 Bft)
03.07.2017 10:14 15,0 °C 15,1 °C 90 % 1022,6 hPa 0,0 mm 1,1 km/h (1 Bft) W-SW 254 ° 0 min 0,000 mm 2,2 UV-I 244 W/m² 13,4 °C 15,0 °C 3,2 km/h (1 Bft)
03.07.2017 10:15 15,0 °C 15,1 °C 89 % 1022,6 hPa 0,0 mm 1,4 km/h (1 Bft) SW 231 ° 0 min 0,000 mm 2,3 UV-I 269 W/m² 13,2 °C 15,0 °C 3,2 km/h (1 Bft)
03.07.2017 10:16 14,9 °C 15,0 °C 89 % 1022,6 hPa 0,0 mm 3,6 km/h (1 Bft) S 191 ° 0 min 0,000 mm 2,4 UV-I 283 W/m² 13,1 °C 14,9 °C 4,8 km/h (1 Bft)
03.07.2017 10:17 14,7 °C 14,9 °C 88 % 1022,6 hPa 0,0 mm 6,7 km/h (2 Bft) S 180 ° 1 min 0,000 mm 4,5 UV-I 348 W/m² 12,7 °C 14,7 °C 9,7 km/h (2 Bft)
03.07.2017 10:18 14,7 °C 14,7 °C 90 % 1022,5 hPa 0,0 mm 3,2 km/h (1 Bft) W 263 ° 1 min 0,000 mm 3,2 UV-I 348 W/m² 13,1 °C 14,7 °C 4,8 km/h (1 Bft)
03.07.2017 10:19 14,8 °C 14,8 °C 90 % 1022,6 hPa 0,0 mm 3,9 km/h (1 Bft) W 269 ° 1 min 0,000 mm 2,5 UV-I 330 W/m² 13,2 °C 14,8 °C 6,4 km/h (2 Bft)
03.07.2017 10:20 14,8 °C 14,8 °C 89 % 1022,6 hPa 0,0 mm 5,3 km/h (1 Bft) W 261 ° 0 min 0,000 mm 2,3 UV-I 288 W/m² 13,0 °C 14,8 °C 6,4 km/h (2 Bft)
03.07.2017 10:21 14,9 °C 14,9 °C 91 % 1022,6 hPa 0,0 mm 5,3 km/h (1 Bft) W-SW 254 ° 0 min 0,000 mm 2,2 UV-I 278 W/m² 13,4 °C 14,9 °C 9,7 km/h (2 Bft)
03.07.2017 10:22 14,9 °C 14,9 °C 89 % 1022,6 hPa 0,0 mm 3,5 km/h (1 Bft) W 264 ° 0 min 0,000 mm 2,2 UV-I 264 W/m² 13,1 °C 14,9 °C 6,4 km/h (2 Bft)
03.07.2017 10:23 14,8 °C 14,9 °C 88 % 1022,6 hPa 0,0 mm 1,7 km/h (1 Bft) W 264 ° 0 min 0,000 mm 2,2 UV-I 264 W/m² 12,8 °C 14,8 °C 3,2 km/h (1 Bft)
03.07.2017 10:24 14,8 °C 14,8 °C 89 % 1022,6 hPa 0,0 mm 3,5 km/h (1 Bft) SW 232 ° 0 min 0,000 mm 2,3 UV-I 287 W/m² 13,0 °C 14,8 °C 6,4 km/h (2 Bft)
03.07.2017 10:25 14,7 °C 14,8 °C 87 % 1022,7 hPa 0,0 mm 2,0 km/h (1 Bft) S-SW 196 ° 1 min 0,000 mm 2,5 UV-I 309 W/m² 12,6 °C 14,7 °C 6,4 km/h (2 Bft)
03.07.2017 10:26 14,6 °C 14,7 °C 88 % 1022,6 hPa 0,0 mm 5,0 km/h (1 Bft) S-SW 198 ° 1 min 0,000 mm 2,5 UV-I 334 W/m² 12,6 °C 14,6 °C 8,0 km/h (2 Bft)
03.07.2017 10:27 14,5 °C 14,6 °C 87 % 1022,7 hPa 0,0 mm 5,2 km/h (1 Bft) S 190 ° 1 min 0,000 mm 2,5 UV-I 339 W/m² 12,4 °C 14,5 °C 8,0 km/h (2 Bft)
03.07.2017 10:28 14,4 °C 14,5 °C 89 % 1022,7 hPa 0,0 mm 2,4 km/h (1 Bft) S 186 ° 1 min 0,000 mm 2,4 UV-I 329 W/m² 12,6 °C 14,4 °C 4,8 km/h (1 Bft)
03.07.2017 10:29 14,4 °C 14,4 °C 91 % 1022,7 hPa 0,0 mm 2,6 km/h (1 Bft) S 186 ° 1 min 0,000 mm 2,4 UV-I 308 W/m² 12,9 °C 14,4 °C 4,8 km/h (1 Bft)
03.07.2017 10:30 14,4 °C 14,4 °C 87 % 1022,6 hPa 0,0 mm 5,2 km/h (1 Bft) S 182 ° 1 min 0,000 mm 2,3 UV-I 308 W/m² 12,3 °C 14,4 °C 8,0 km/h (2 Bft)
03.07.2017 10:31 14,4 °C 14,4 °C 87 % 1022,6 hPa 0,0 mm 2,5 km/h (1 Bft) SW 227 ° 1 min 0,000 mm 2,3 UV-I 297 W/m² 12,3 °C 14,4 °C 4,8 km/h (1 Bft)
03.07.2017 10:32 14,6 °C 14,6 °C 88 % 1022,7 hPa 0,0 mm 0,1 km/h (0 Bft) SW 227 ° 0 min 0,000 mm 2,3 UV-I 274 W/m² 12,6 °C 14,6 °C 1,6 km/h (1 Bft)
03.07.2017 10:33 14,6 °C 14,6 °C 89 % 1022,7 hPa 0,0 mm 0,5 km/h (0 Bft) SW 223 ° 0 min 0,000 mm 1,9 UV-I 244 W/m² 12,8 °C 14,6 °C 1,6 km/h (1 Bft)
03.07.2017 10:34 14,6 °C 14,7 °C 88 % 1022,7 hPa 0,0 mm 2,4 km/h (1 Bft) S 182 ° 0 min 0,000 mm 1,5 UV-I 202 W/m² 12,6 °C 14,6 °C 4,8 km/h (1 Bft)
03.07.2017 10:35 14,6 °C 14,6 °C 89 % 1022,7 hPa 0,0 mm 4,0 km/h (1 Bft) S-SW 198 ° 0 min 0,000 mm 1,4 UV-I 169 W/m² 12,8 °C 14,6 °C 6,4 km/h (2 Bft)
03.07.2017 10:36 14,5 °C 14,6 °C 88 % 1022,7 hPa 0,0 mm 2,5 km/h (1 Bft) S-SW 197 ° 0 min 0,000 mm 1,5 UV-I 172 W/m² 12,5 °C 14,5 °C 4,8 km/h (1 Bft)
03.07.2017 10:37 14,4 °C 14,5 °C 88 % 1022,6 hPa 0,0 mm 2,0 km/h (1 Bft) W-SW 257 ° 0 min 0,000 mm 1,6 UV-I 186 W/m² 12,4 °C 14,4 °C 3,2 km/h (1 Bft)
03.07.2017 10:38 14,6 °C 14,6 °C 89 % 1022,7 hPa 0,0 mm 3,7 km/h (1 Bft) W-SW 252 ° 0 min 0,000 mm 1,7 UV-I 204 W/m² 12,8 °C 14,6 °C 4,8 km/h (1 Bft)
03.07.2017 10:39 14,5 °C 14,6 °C 90 % 1022,7 hPa 0,0 mm 1,6 km/h (1 Bft) W-SW 252 ° 0 min 0,000 mm 1,8 UV-I 204 W/m² 12,9 °C 14,5 °C 4,8 km/h (1 Bft)
03.07.2017 10:40 14,5 °C 14,6 °C 90 % 1022,7 hPa 0,0 mm 0,0 km/h (0 Bft) W-SW 252 ° 0 min 0,000 mm 1,8 UV-I 211 W/m² 12,9 °C 14,5 °C 0,0 km/h (0 Bft)
03.07.2017 10:41 14,6 °C 14,6 °C 91 % 1022,7 hPa 0,0 mm 3,2 km/h (1 Bft) W-SW 249 ° 0 min 0,000 mm 1,8 UV-I 207 W/m² 13,1 °C 14,6 °C 4,8 km/h (1 Bft)
03.07.2017 10:42 14,6 °C 14,6 °C 90 % 1022,8 hPa 0,0 mm 3,0 km/h (1 Bft) W 261 ° 0 min 0,000 mm 1,7 UV-I 206 W/m² 13,0 °C 14,6 °C 4,8 km/h (1 Bft)
03.07.2017 10:43 14,6 °C 14,6 °C 89 % 1022,7 hPa 0,0 mm 4,8 km/h (1 Bft) W 261 ° 0 min 0,000 mm 1,6 UV-I 197 W/m² 12,8 °C 14,6 °C 6,4 km/h (2 Bft)
03.07.2017 10:44 14,7 °C 14,7 °C 90 % 1022,8 hPa 0,0 mm 2,0 km/h (1 Bft) W 261 ° 0 min 0,000 mm 1,6 UV-I 193 W/m² 13,1 °C 14,7 °C 4,8 km/h (1 Bft)
03.07.2017 10:45 14,8 °C 14,8 °C 90 % 1022,8 hPa 0,0 mm 3,3 km/h (1 Bft) W 271 ° 0 min 0,000 mm 1,6 UV-I 188 W/m² 13,2 °C 14,8 °C 6,4 km/h (2 Bft)
03.07.2017 10:46 14,8 °C 14,8 °C 89 % 1022,8 hPa 0,0 mm 5,0 km/h (1 Bft) W-SW 258 ° 0 min 0,000 mm 1,6 UV-I 186 W/m² 13,0 °C 14,8 °C 9,7 km/h (2 Bft)
03.07.2017 10:47 14,8 °C 14,8 °C 89 % 1022,8 hPa 0,0 mm 1,7 km/h (1 Bft) W 261 ° 0 min 0,000 mm 1,6 UV-I 193 W/m² 13,0 °C 14,8 °C 4,8 km/h (1 Bft)
03.07.2017 10:48 14,8 °C 14,8 °C 90 % 1022,8 hPa 0,0 mm 5,0 km/h (1 Bft) W 269 ° 0 min 0,000 mm 1,8 UV-I 202 W/m² 13,2 °C 14,8 °C 9,7 km/h (2 Bft)
03.07.2017 10:49 14,8 °C 14,8 °C 90 % 1022,8 hPa 0,0 mm 4,2 km/h (1 Bft) W-SW 250 ° 0 min 0,000 mm 1,9 UV-I 213 W/m² 13,2 °C 14,8 °C 6,4 km/h (2 Bft)
03.07.2017 10:50 14,8 °C 14,8 °C 89 % 1022,8 hPa 0,0 mm 2,1 km/h (1 Bft) W-SW 250 ° 0 min 0,000 mm 1,9 UV-I 223 W/m² 13,0 °C 14,8 °C 4,8 km/h (1 Bft)
03.07.2017 10:51 14,7 °C 14,8 °C 89 % 1022,8 hPa 0,0 mm 4,0 km/h (1 Bft) W 278 ° 0 min 0,000 mm 2,2 UV-I 236 W/m² 12,9 °C 14,7 °C 6,4 km/h (2 Bft)
03.07.2017 10:52 14,7 °C 14,7 °C 90 % 1022,8 hPa 0,0 mm 3,8 km/h (1 Bft) W 259 ° 0 min 0,000 mm 2,3 UV-I 251 W/m² 13,1 °C 14,7 °C 4,8 km/h (1 Bft)
03.07.2017 10:53 14,7 °C 14,7 °C 90 % 1022,8 hPa 0,0 mm 3,0 km/h (1 Bft) W 259 ° 0 min 0,000 mm 2,4 UV-I 279 W/m² 13,1 °C 14,7 °C 4,8 km/h (1 Bft)
03.07.2017 10:54 14,7 °C 14,8 °C 89 % 1022,7 hPa 0,0 mm 1,1 km/h (1 Bft) W 259 ° 1 min 0,000 mm 2,6 UV-I 294 W/m² 12,9 °C 14,7 °C 3,2 km/h (1 Bft)
03.07.2017 10:55 14,8 °C 14,8 °C 89 % 1022,7 hPa 0,0 mm 3,4 km/h (1 Bft) W 267 ° 1 min 0,000 mm 2,8 UV-I 322 W/m² 13,0 °C 14,8 °C 6,4 km/h (2 Bft)
03.07.2017 10:56 14,9 °C 14,9 °C 88 % 1022,7 hPa 0,0 mm 4,3 km/h (1 Bft) W 263 ° 1 min 0,000 mm 2,9 UV-I 325 W/m² 12,9 °C 14,9 °C 6,4 km/h (2 Bft)
03.07.2017 10:57 14,9 °C 14,9 °C 88 % 1022,7 hPa 0,0 mm 5,2 km/h (1 Bft) W-SW 250 ° 1 min 0,000 mm 2,9 UV-I 330 W/m² 12,9 °C 14,9 °C 8,0 km/h (2 Bft)
03.07.2017 10:58 15,0 °C 15,0 °C 89 % 1022,7 hPa 0,0 mm 6,5 km/h (2 Bft) W 267 ° 1 min 0,000 mm 2,9 UV-I 343 W/m² 13,2 °C 15,0 °C 11,3 km/h (2 Bft)
03.07.2017 10:59 15,0 °C 15,0 °C 88 % 1022,7 hPa 0,0 mm 5,9 km/h (2 Bft) W-SW 244 ° 1 min 0,000 mm 3,0 UV-I 350 W/m² 13,0 °C 15,0 °C 9,7 km/h (2 Bft)
03.07.2017 11:00 15,1 °C 15,1 °C 87 % 1022,7 hPa 0,0 mm 3,7 km/h (1 Bft) W 259 ° 1 min 0,153 mm 3,0 UV-I 352 W/m² 13,0 °C 15,1 °C 4,8 km/h (1 Bft)
03.07.2017 11:01 15,0 °C 15,1 °C 86 % 1022,7 hPa 0,0 mm 2,4 km/h (1 Bft) W 263 ° 1 min 0,000 mm 3,0 UV-I 381 W/m² 12,7 °C 15,0 °C 4,8 km/h (1 Bft)
03.07.2017 11:02 15,0 °C 15,0 °C 86 % 1022,7 hPa 0,0 mm 5,8 km/h (2 Bft) W 266 ° 1 min 0,000 mm 3,0 UV-I 352 W/m² 12,7 °C 15,0 °C 9,7 km/h (2 Bft)
03.07.2017 11:03 15,1 °C 15,1 °C 88 % 1022,7 hPa 0,0 mm 3,5 km/h (1 Bft) W-SW 254 ° 1 min 0,000 mm 3,1 UV-I 359 W/m² 13,1 °C 15,1 °C 8,0 km/h (2 Bft)
03.07.2017 11:04 15,1 °C 15,1 °C 88 % 1022,7 hPa 0,0 mm 5,1 km/h (1 Bft) W-NW 286 ° 1 min 0,000 mm 3,1 UV-I 369 W/m² 13,1 °C 15,1 °C 6,4 km/h (2 Bft)
03.07.2017 11:05 15,2 °C 15,2 °C 88 % 1022,7 hPa 0,0 mm 4,2 km/h (1 Bft) S-SW 196 ° 1 min 0,000 mm 3,5 UV-I 390 W/m² 13,2 °C 15,2 °C 8,0 km/h (2 Bft)
03.07.2017 11:06 15,2 °C 15,2 °C 86 % 1022,7 hPa 0,0 mm 3,0 km/h (1 Bft) W 268 ° 1 min 0,000 mm 3,5 UV-I 417 W/m² 12,9 °C 15,2 °C 4,8 km/h (1 Bft)
03.07.2017 11:07 15,2 °C 15,2 °C 87 % 1022,7 hPa 0,0 mm 3,2 km/h (1 Bft) W 268 ° 1 min 0,000 mm 3,3 UV-I 388 W/m² 13,0 °C 15,2 °C 4,8 km/h (1 Bft)
03.07.2017 11:08 15,2 °C 15,2 °C 86 % 1022,7 hPa 0,0 mm 3,0 km/h (1 Bft) W 261 ° 1 min 0,000 mm 3,3 UV-I 394 W/m² 12,9 °C 15,2 °C 4,8 km/h (1 Bft)
03.07.2017 11:09 15,3 °C 15,3 °C 88 % 1022,7 hPa 0,0 mm 3,7 km/h (1 Bft) W 266 ° 1 min 0,000 mm 3,3 UV-I 413 W/m² 13,3 °C 15,3 °C 4,8 km/h (1 Bft)
03.07.2017 11:10 15,3 °C 15,3 °C 87 % 1022,7 hPa 0,0 mm 3,8 km/h (1 Bft) W-NW 283 ° 1 min 0,000 mm 3,1 UV-I 367 W/m² 13,1 °C 15,3 °C 6,4 km/h (2 Bft)
03.07.2017 11:11 15,4 °C 15,4 °C 87 % 1022,7 hPa 0,0 mm 4,2 km/h (1 Bft) W 273 ° 1 min 0,000 mm 3,7 UV-I 383 W/m² 13,2 °C 15,4 °C 6,4 km/h (2 Bft)
03.07.2017 11:12 15,4 °C 15,4 °C 87 % 1022,8 hPa 0,0 mm 5,1 km/h (1 Bft) W-SW 250 ° 1 min 0,000 mm 2,8 UV-I 345 W/m² 13,2 °C 15,4 °C 8,0 km/h (2 Bft)
03.07.2017 11:13 15,4 °C 15,4 °C 87 % 1022,7 hPa 0,0 mm 5,0 km/h (1 Bft) W-SW 257 ° 1 min 0,000 mm 2,9 UV-I 350 W/m² 13,2 °C 15,4 °C 8,0 km/h (2 Bft)
03.07.2017 11:14 15,4 °C 15,4 °C 86 % 1022,8 hPa 0,0 mm 4,0 km/h (1 Bft) W-SW 238 ° 1 min 0,000 mm 3,0 UV-I 355 W/m² 13,1 °C 15,4 °C 4,8 km/h (1 Bft)
03.07.2017 11:15 15,4 °C 15,4 °C 86 % 1022,7 hPa 0,0 mm 4,3 km/h (1 Bft) W 265 ° 1 min 0,000 mm 3,1 UV-I 362 W/m² 13,1 °C 15,4 °C 6,4 km/h (2 Bft)
03.07.2017 11:16 15,4 °C 15,4 °C 85 % 1022,7 hPa 0,0 mm 4,6 km/h (1 Bft) W 270 ° 1 min 0,000 mm 6,3 UV-I 362 W/m² 12,9 °C 15,4 °C 6,4 km/h (2 Bft)
03.07.2017 11:17 15,4 °C 15,4 °C 85 % 1022,7 hPa 0,0 mm 6,0 km/h (2 Bft) W 273 ° 1 min 0,000 mm 3,3 UV-I 499 W/m² 12,9 °C 15,4 °C 9,7 km/h (2 Bft)
03.07.2017 11:18 15,4 °C 15,4 °C 85 % 1022,7 hPa 0,0 mm 2,7 km/h (1 Bft) W 267 ° 1 min 0,000 mm 3,2 UV-I 499 W/m² 12,9 °C 15,4 °C 4,8 km/h (1 Bft)
03.07.2017 11:19 15,4 °C 15,4 °C 84 % 1022,7 hPa 0,0 mm 1,5 km/h (1 Bft) W 265 ° 1 min 0,000 mm 4,0 UV-I 431 W/m² 12,7 °C 15,4 °C 3,2 km/h (1 Bft)
03.07.2017 11:20 15,3 °C 15,4 °C 85 % 1022,7 hPa 0,0 mm 2,1 km/h (1 Bft) W 259 ° 1 min 0,000 mm 3,6 UV-I 469 W/m² 12,8 °C 15,3 °C 3,2 km/h (1 Bft)
03.07.2017 11:21 15,4 °C 15,4 °C 86 % 1022,7 hPa 0,0 mm 5,0 km/h (1 Bft) W-NW 284 ° 1 min 0,000 mm 3,9 UV-I 469 W/m² 13,1 °C 15,4 °C 9,7 km/h (2 Bft)
03.07.2017 11:22 15,4 °C 15,4 °C 84 % 1022,7 hPa 0,0 mm 6,6 km/h (2 Bft) S-SW 212 ° 1 min 0,000 mm 3,1 UV-I 343 W/m² 12,7 °C 15,4 °C 9,7 km/h (2 Bft)
03.07.2017 11:23 15,4 °C 15,4 °C 86 % 1022,7 hPa 0,0 mm 3,5 km/h (1 Bft) SW 221 ° 1 min 0,000 mm 3,4 UV-I 348 W/m² 13,1 °C 15,4 °C 4,8 km/h (1 Bft)
03.07.2017 11:24 15,4 °C 15,4 °C 85 % 1022,7 hPa 0,0 mm 3,9 km/h (1 Bft) W-SW 249 ° 1 min 0,000 mm 3,4 UV-I 380 W/m² 12,9 °C 15,4 °C 6,4 km/h (2 Bft)
03.07.2017 11:25 15,4 °C 15,4 °C 82 % 1022,7 hPa 0,0 mm 1,3 km/h (1 Bft) W-SW 249 ° 1 min 0,000 mm 3,5 UV-I 348 W/m² 12,3 °C 15,4 °C 3,2 km/h (1 Bft)
03.07.2017 11:26 15,4 °C 15,4 °C 83 % 1022,7 hPa 0,0 mm 2,2 km/h (1 Bft) W-SW 258 ° 1 min 0,000 mm 3,8 UV-I 348 W/m² 12,5 °C 15,4 °C 4,8 km/h (1 Bft)
03.07.2017 11:27 15,4 °C 15,4 °C 84 % 1022,7 hPa 0,0 mm 0,7 km/h (0 Bft) W-SW 258 ° 1 min 0,000 mm 3,8 UV-I 422 W/m² 12,7 °C 15,4 °C 1,6 km/h (1 Bft)
03.07.2017 11:28 15,5 °C 15,5 °C 85 % 1022,7 hPa 0,0 mm 2,7 km/h (1 Bft) W-NW 290 ° 1 min 0,000 mm 5,1 UV-I 422 W/m² 13,0 °C 15,5 °C 4,8 km/h (1 Bft)
03.07.2017 11:29 15,7 °C 15,7 °C 86 % 1022,7 hPa 0,0 mm 4,7 km/h (1 Bft) W-SW 253 ° 1 min 0,000 mm 3,9 UV-I 415 W/m² 13,4 °C 15,7 °C 8,0 km/h (2 Bft)
03.07.2017 11:30 15,8 °C 15,8 °C 86 % 1022,7 hPa 0,0 mm 5,2 km/h (1 Bft) W-SW 242 ° 1 min 0,000 mm 4,1 UV-I 392 W/m² 13,5 °C 15,8 °C 9,7 km/h (2 Bft)
03.07.2017 11:31 15,8 °C 15,8 °C 85 % 1022,7 hPa 0,0 mm 9,4 km/h (2 Bft) W 279 ° 1 min 0,000 mm 5,5 UV-I 392 W/m² 13,3 °C 15,8 °C 11,3 km/h (2 Bft)
03.07.2017 11:32 15,9 °C 15,9 °C 84 % 1022,6 hPa 0,0 mm 5,1 km/h (1 Bft) NW 305 ° 1 min 0,000 mm 6,3 UV-I 619 W/m² 13,2 °C 15,9 °C 9,7 km/h (2 Bft)
03.07.2017 11:33 16,1 °C 16,1 °C 81 % 1022,6 hPa 0,0 mm 3,9 km/h (1 Bft) NW 304 ° 1 min 0,000 mm 7,9 UV-I 619 W/m² 12,8 °C 16,1 °C 6,4 km/h (2 Bft)
03.07.2017 11:34 16,2 °C 16,2 °C 84 % 1022,6 hPa 0,0 mm 2,5 km/h (1 Bft) N-NW 337 ° 1 min 0,000 mm 7,9 UV-I 1118 W/m² 13,5 °C 16,2 °C 4,8 km/h (1 Bft)
03.07.2017 11:35 16,3 °C 16,3 °C 82 % 1022,6 hPa 0,0 mm 2,8 km/h (1 Bft) N-NW 338 ° 1 min 0,000 mm 6,3 UV-I 1139 W/m² 13,2 °C 16,3 °C 3,2 km/h (1 Bft)
03.07.2017 11:36 16,1 °C 16,3 °C 80 % 1022,5 hPa 0,0 mm 1,4 km/h (1 Bft) N-NW 342 ° 1 min 0,000 mm 4,3 UV-I 1139 W/m² 12,6 °C 16,1 °C 4,8 km/h (1 Bft)
03.07.2017 11:37 16,1 °C 16,1 °C 82 % 1022,6 hPa 0,0 mm 2,8 km/h (1 Bft) N-NW 333 ° 1 min 0,000 mm 4,1 UV-I 359 W/m² 13,0 °C 16,1 °C 4,8 km/h (1 Bft)
03.07.2017 11:38 16,1 °C 16,1 °C 85 % 1022,6 hPa 0,0 mm 1,8 km/h (1 Bft) N-NW 333 ° 1 min 0,000 mm 4,2 UV-I 378 W/m² 13,6 °C 16,1 °C 4,8 km/h (1 Bft)
03.07.2017 11:39 16,1 °C 16,1 °C 82 % 1022,6 hPa 0,0 mm 0,0 km/h (0 Bft) N-NW 333 ° 1 min 0,000 mm 4,6 UV-I 413 W/m² 13,0 °C 16,1 °C 0,0 km/h (0 Bft)
03.07.2017 11:40 15,9 °C 16,1 °C 80 % 1022,6 hPa 0,0 mm 3,6 km/h (1 Bft) W-NW 287 ° 1 min 0,000 mm 6,3 UV-I 413 W/m² 12,5 °C 15,9 °C 4,8 km/h (1 Bft)
03.07.2017 11:41 15,9 °C 15,9 °C 82 % 1022,5 hPa 0,0 mm 2,3 km/h (1 Bft) S 188 ° 1 min 0,000 mm 8,4 UV-I 413 W/m² 12,8 °C 15,9 °C 8,0 km/h (2 Bft)
03.07.2017 11:42 16,1 °C 16,1 °C 83 % 1022,6 hPa 0,0 mm 5,3 km/h (1 Bft) S 184 ° 1 min 0,000 mm 8,3 UV-I 413 W/m² 13,2 °C 16,1 °C 8,0 km/h (2 Bft)
03.07.2017 11:43 16,1 °C 16,1 °C 79 % 1022,6 hPa 0,0 mm 2,8 km/h (1 Bft) S 177 ° 1 min 0,000 mm 8,1 UV-I 413 W/m² 12,5 °C 16,1 °C 6,4 km/h (2 Bft)
03.07.2017 11:44 16,2 °C 16,2 °C 84 % 1022,5 hPa 0,0 mm 2,0 km/h (1 Bft) N-NO 22 ° 1 min 0,000 mm 8,0 UV-I 413 W/m² 13,5 °C 16,2 °C 4,8 km/h (1 Bft)
03.07.2017 11:45 16,4 °C 16,4 °C 83 % 1022,5 hPa 0,0 mm 3,6 km/h (1 Bft) N-NO 18 ° 1 min 0,000 mm 8,2 UV-I 984 W/m² 13,5 °C 16,4 °C 4,8 km/h (1 Bft)
03.07.2017 11:46 16,5 °C 16,5 °C 81 % 1022,5 hPa 0,0 mm 6,7 km/h (2 Bft) NW 323 ° 1 min 0,000 mm 7,9 UV-I 984 W/m² 13,2 °C 16,5 °C 9,7 km/h (2 Bft)
03.07.2017 11:47 16,5 °C 16,6 °C 79 % 1022,4 hPa 0,0 mm 3,8 km/h (1 Bft) NW 312 ° 1 min 0,000 mm 3,8 UV-I 383 W/m² 12,8 °C 16,5 °C 6,4 km/h (2 Bft)
03.07.2017 11:48 16,4 °C 16,6 °C 81 % 1022,4 hPa 0,0 mm 1,8 km/h (1 Bft) NW 322 ° 1 min 0,000 mm 4,6 UV-I 438 W/m² 13,1 °C 16,4 °C 3,2 km/h (1 Bft)
03.07.2017 11:49 16,4 °C 16,4 °C 81 % 1022,4 hPa 0,0 mm 0,2 km/h (0 Bft) NW 322 ° 1 min 0,000 mm 7,3 UV-I 438 W/m² 13,1 °C 16,4 °C 1,6 km/h (1 Bft)
03.07.2017 11:50 16,6 °C 16,6 °C 79 % 1022,5 hPa 0,0 mm 4,9 km/h (1 Bft) N 350 ° 1 min 0,000 mm 5,3 UV-I 438 W/m² 12,9 °C 16,6 °C 6,4 km/h (2 Bft)
03.07.2017 11:51 16,6 °C 16,6 °C 78 % 1022,5 hPa 0,0 mm 4,6 km/h (1 Bft) NW 320 ° 1 min 0,000 mm 4,0 UV-I 438 W/m² 12,7 °C 16,6 °C 6,4 km/h (2 Bft)
03.07.2017 11:52 16,6 °C 16,6 °C 81 % 1022,5 hPa 0,0 mm 4,5 km/h (1 Bft) N 355 ° 1 min 0,000 mm 3,8 UV-I 385 W/m² 13,3 °C 16,6 °C 6,4 km/h (2 Bft)
03.07.2017 11:53 16,5 °C 16,6 °C 81 % 1022,4 hPa 0,0 mm 3,6 km/h (1 Bft) N-NW 339 ° 1 min 0,000 mm 3,0 UV-I 323 W/m² 13,2 °C 16,5 °C 4,8 km/h (1 Bft)
03.07.2017 11:54 16,4 °C 16,5 °C 80 % 1022,5 hPa 0,0 mm 0,4 km/h (0 Bft) N-NW 339 ° 1 min 0,000 mm 2,9 UV-I 304 W/m² 12,9 °C 16,4 °C 3,2 km/h (1 Bft)
03.07.2017 11:55 16,3 °C 16,4 °C 79 % 1022,5 hPa 0,0 mm 2,3 km/h (1 Bft) N-NW 339 ° 1 min 0,000 mm 3,0 UV-I 309 W/m² 12,6 °C 16,3 °C 4,8 km/h (1 Bft)
03.07.2017 11:56 16,2 °C 16,3 °C 80 % 1022,5 hPa 0,0 mm 0,6 km/h (0 Bft) N-NW 339 ° 1 min 0,000 mm 3,2 UV-I 336 W/m² 12,7 °C 16,2 °C 3,2 km/h (1 Bft)
03.07.2017 11:57 16,1 °C 16,2 °C 79 % 1022,5 hPa 0,0 mm 0,3 km/h (0 Bft) N-NW 339 ° 1 min 0,000 mm 3,5 UV-I 387 W/m² 12,5 °C 16,1 °C 1,6 km/h (1 Bft)
03.07.2017 11:58 16,1 °C 16,1 °C 80 % 1022,6 hPa 0,0 mm 1,8 km/h (1 Bft) N-NW 339 ° 1 min 0,000 mm 4,1 UV-I 420 W/m² 12,6 °C 16,1 °C 3,2 km/h (1 Bft)
03.07.2017 11:59 16,1 °C 16,1 °C 81 % 1022,6 hPa 0,0 mm 3,8 km/h (1 Bft) N-NW 339 ° 1 min 0,000 mm 7,5 UV-I 420 W/m² 12,8 °C 16,1 °C 8,0 km/h (2 Bft)
03.07.2017 12:00 16,3 °C 16,3 °C 83 % 1022,5 hPa 0,0 mm 4,9 km/h (1 Bft) NW 312 ° 1 min 0,000 mm 6,1 UV-I 1141 W/m² 13,4 °C 16,3 °C 8,0 km/h (2 Bft)
03.07.2017 12:01 16,6 °C 16,6 °C 85 % 1022,5 hPa 0,0 mm 0,6 km/h (0 Bft) NW 312 ° 1 min 0,305 mm 4,4 UV-I 1141 W/m² 14,1 °C 16,6 °C 3,2 km/h (1 Bft)
03.07.2017 12:02 16,6 °C 16,6 °C 80 % 1022,5 hPa 0,0 mm 0,3 km/h (0 Bft) W-NW 290 ° 1 min 0,000 mm 4,8 UV-I 445 W/m² 13,1 °C 16,6 °C 3,2 km/h (1 Bft)
03.07.2017 12:03 16,6 °C 16,6 °C 80 % 1022,5 hPa 0,0 mm 3,4 km/h (1 Bft) SW 236 ° 1 min 0,000 mm 4,5 UV-I 417 W/m² 13,1 °C 16,6 °C 8,0 km/h (2 Bft)
03.07.2017 12:04 16,6 °C 16,6 °C 79 % 1022,5 hPa 0,0 mm 3,2 km/h (1 Bft) SW 227 ° 1 min 0,000 mm 4,8 UV-I 417 W/m² 12,9 °C 16,6 °C 4,8 km/h (1 Bft)
03.07.2017 12:05 16,6 °C 16,6 °C 79 % 1022,5 hPa 0,0 mm 3,8 km/h (1 Bft) W-NW 291 ° 1 min 0,000 mm 7,8 UV-I 417 W/m² 12,9 °C 16,6 °C 6,4 km/h (2 Bft)
03.07.2017 12:06 16,8 °C 16,8 °C 84 % 1022,5 hPa 0,0 mm 3,9 km/h (1 Bft) NW 306 ° 1 min 0,000 mm 8,6 UV-I 1260 W/m² 14,1 °C 16,8 °C 6,4 km/h (2 Bft)
03.07.2017 12:07 17,1 °C 17,1 °C 80 % 1022,5 hPa 0,0 mm 5,9 km/h (2 Bft) NW 304 ° 1 min 0,000 mm 8,8 UV-I 1250 W/m² 13,6 °C 17,1 °C 6,4 km/h (2 Bft)
03.07.2017 12:08 17,2 °C 17,2 °C 78 % 1022,5 hPa 0,0 mm 5,3 km/h (1 Bft) N-NW 338 ° 1 min 0,000 mm 8,8 UV-I 1238 W/m² 13,3 °C 17,2 °C 8,0 km/h (2 Bft)
03.07.2017 12:09 17,2 °C 17,3 °C 75 % 1022,4 hPa 0,0 mm 2,7 km/h (1 Bft) N 10 ° 1 min 0,000 mm 4,8 UV-I 1238 W/m² 12,7 °C 17,2 °C 4,8 km/h (1 Bft)
03.07.2017 12:10 17,2 °C 17,2 °C 77 % 1022,4 hPa 0,0 mm 3,3 km/h (1 Bft) N-NW 342 ° 1 min 0,000 mm 6,3 UV-I 515 W/m² 13,1 °C 17,2 °C 6,4 km/h (2 Bft)
03.07.2017 12:11 17,1 °C 17,2 °C 76 % 1022,4 hPa 0,0 mm 2,7 km/h (1 Bft) W 277 ° 1 min 0,000 mm 8,5 UV-I 515 W/m² 12,8 °C 17,1 °C 4,8 km/h (1 Bft)
03.07.2017 12:12 17,2 °C 17,2 °C 80 % 1022,4 hPa 0,0 mm 6,4 km/h (2 Bft) W 273 ° 1 min 0,000 mm 8,4 UV-I 1123 W/m² 13,7 °C 17,2 °C 11,3 km/h (2 Bft)
03.07.2017 12:13 17,3 °C 17,3 °C 76 % 1022,4 hPa 0,0 mm 5,3 km/h (1 Bft) W-NW 286 ° 1 min 0,000 mm 8,5 UV-I 1123 W/m² 13,0 °C 17,3 °C 6,4 km/h (2 Bft)
03.07.2017 12:14 17,4 °C 17,4 °C 81 % 1022,5 hPa 0,0 mm 11,0 km/h (2 Bft) W-NW 291 ° 1 min 0,000 mm 6,7 UV-I 1123 W/m² 14,1 °C 17,4 °C 16,1 km/h (3 Bft)
03.07.2017 12:15 17,6 °C 17,6 °C 76 % 1022,4 hPa 0,0 mm 9,9 km/h (2 Bft) W-NW 284 ° 1 min 0,000 mm 8,6 UV-I 1109 W/m² 13,3 °C 17,6 °C 14,5 km/h (3 Bft)
03.07.2017 12:16 17,6 °C 17,6 °C 78 % 1022,4 hPa 0,0 mm 4,5 km/h (1 Bft) W-NW 298 ° 1 min 0,000 mm 4,9 UV-I 1109 W/m² 13,7 °C 17,6 °C 6,4 km/h (2 Bft)
03.07.2017 12:17 17,5 °C 17,6 °C 75 % 1022,4 hPa 0,0 mm 6,6 km/h (2 Bft) W-NW 285 ° 1 min 0,000 mm 4,3 UV-I 1109 W/m² 13,0 °C 17,5 °C 9,7 km/h (2 Bft)
03.07.2017 12:18 17,4 °C 17,5 °C 76 % 1022,4 hPa 0,0 mm 5,2 km/h (1 Bft) W 281 ° 1 min 0,000 mm 4,2 UV-I 373 W/m² 13,1 °C 17,4 °C 8,0 km/h (2 Bft)
03.07.2017 12:19 17,2 °C 17,4 °C 75 % 1022,4 hPa 0,0 mm 6,6 km/h (2 Bft) W-NW 287 ° 1 min 0,000 mm 4,4 UV-I 387 W/m² 12,7 °C 17,2 °C 11,3 km/h (2 Bft)
03.07.2017 12:20 17,1 °C 17,2 °C 73 % 1022,4 hPa 0,0 mm 5,9 km/h (2 Bft) W-NW 291 ° 1 min 0,000 mm 4,5 UV-I 413 W/m² 12,2 °C 17,1 °C 8,0 km/h (2 Bft)
03.07.2017 12:21 16,9 °C 17,1 °C 74 % 1022,4 hPa 0,0 mm 3,7 km/h (1 Bft) W-NW 285 ° 1 min 0,000 mm 4,5 UV-I 425 W/m² 12,2 °C 16,9 °C 4,8 km/h (1 Bft)
03.07.2017 12:22 16,8 °C 16,9 °C 75 % 1022,4 hPa 0,0 mm 3,9 km/h (1 Bft) NW 323 ° 1 min 0,000 mm 4,3 UV-I 411 W/m² 12,3 °C 16,8 °C 6,4 km/h (2 Bft)
03.07.2017 12:23 16,8 °C 16,8 °C 77 % 1022,4 hPa 0,0 mm 1,6 km/h (1 Bft) N-NW 334 ° 1 min 0,000 mm 4,4 UV-I 390 W/m² 12,7 °C 16,8 °C 3,2 km/h (1 Bft)
03.07.2017 12:24 16,8 °C 16,8 °C 79 % 1022,4 hPa 0,0 mm 2,5 km/h (1 Bft) NW 318 ° 1 min 0,000 mm 6,6 UV-I 476 W/m² 13,1 °C 16,8 °C 6,4 km/h (2 Bft)
03.07.2017 12:25 16,9 °C 16,9 °C 79 % 1022,3 hPa 0,0 mm 6,6 km/h (2 Bft) W 268 ° 1 min 0,000 mm 5,6 UV-I 476 W/m² 13,2 °C 16,9 °C 11,3 km/h (2 Bft)
03.07.2017 12:26 17,0 °C 17,0 °C 78 % 1022,3 hPa 0,0 mm 7,9 km/h (2 Bft) W 271 ° 1 min 0,000 mm 4,8 UV-I 476 W/m² 13,1 °C 17,0 °C 11,3 km/h (2 Bft)
03.07.2017 12:27 17,1 °C 17,1 °C 80 % 1022,4 hPa 0,0 mm 4,6 km/h (1 Bft) S-SW 212 ° 1 min 0,000 mm 8,9 UV-I 476 W/m² 13,6 °C 17,1 °C 6,4 km/h (2 Bft)
03.07.2017 12:28 17,1 °C 17,1 °C 79 % 1022,4 hPa 0,0 mm 1,5 km/h (1 Bft) S-SW 209 ° 1 min 0,000 mm 8,7 UV-I 476 W/m² 13,4 °C 17,1 °C 3,2 km/h (1 Bft)
03.07.2017 12:29 17,2 °C 17,2 °C 75 % 1022,3 hPa 0,0 mm 4,4 km/h (1 Bft) W-NW 302 ° 1 min 0,000 mm 8,6 UV-I 1095 W/m² 12,7 °C 17,2 °C 6,4 km/h (2 Bft)
03.07.2017 12:30 17,5 °C 17,5 °C 78 % 1022,3 hPa 0,0 mm 7,3 km/h (2 Bft) W-NW 282 ° 1 min 0,000 mm 8,5 UV-I 1063 W/m² 13,6 °C 17,5 °C 11,3 km/h (2 Bft)
03.07.2017 12:31 17,6 °C 17,6 °C 76 % 1022,3 hPa 0,0 mm 6,0 km/h (2 Bft) W-SW 251 ° 1 min 0,000 mm 8,4 UV-I 1049 W/m² 13,3 °C 17,6 °C 11,3 km/h (2 Bft)
03.07.2017 12:32 17,6 °C 17,6 °C 76 % 1022,3 hPa 0,0 mm 2,3 km/h (1 Bft) W 260 ° 1 min 0,000 mm 8,0 UV-I 1055 W/m² 13,3 °C 17,6 °C 4,8 km/h (1 Bft)
03.07.2017 12:33 17,7 °C 17,7 °C 79 % 1022,3 hPa 0,0 mm 5,2 km/h (1 Bft) SW 233 ° 1 min 0,000 mm 6,8 UV-I 1078 W/m² 14,0 °C 17,7 °C 11,3 km/h (2 Bft)
03.07.2017 12:34 17,7 °C 17,7 °C 77 % 1022,2 hPa 0,0 mm 4,0 km/h (1 Bft) SW 228 ° 1 min 0,000 mm 7,8 UV-I 1078 W/m² 13,6 °C 17,7 °C 6,4 km/h (2 Bft)
03.07.2017 12:35 17,6 °C 17,7 °C 73 % 1022,2 hPa 0,0 mm 5,0 km/h (1 Bft) NW 313 ° 1 min 0,000 mm 8,4 UV-I 1078 W/m² 12,7 °C 17,6 °C 9,7 km/h (2 Bft)
03.07.2017 12:36 17,6 °C 17,6 °C 74 % 1022,2 hPa 0,0 mm 3,2 km/h (1 Bft) NW 313 ° 1 min 0,000 mm 8,4 UV-I 1037 W/m² 12,9 °C 17,6 °C 6,4 km/h (2 Bft)
03.07.2017 12:37 17,6 °C 17,6 °C 78 % 1022,1 hPa 0,0 mm 2,2 km/h (1 Bft) NW 311 ° 1 min 0,000 mm 8,4 UV-I 1041 W/m² 13,7 °C 17,6 °C 3,2 km/h (1 Bft)
03.07.2017 12:38 17,8 °C 17,8 °C 79 % 1022,2 hPa 0,0 mm 3,1 km/h (1 Bft) SW 234 ° 1 min 0,000 mm 8,4 UV-I 1046 W/m² 14,1 °C 17,8 °C 6,4 km/h (2 Bft)
03.07.2017 12:39 17,8 °C 17,8 °C 71 % 1022,2 hPa 0,0 mm 3,7 km/h (1 Bft) SW 234 ° 1 min 0,000 mm 8,4 UV-I 1056 W/m² 12,5 °C 17,8 °C 6,4 km/h (2 Bft)
03.07.2017 12:40 17,7 °C 17,8 °C 73 % 1022,2 hPa 0,0 mm 1,9 km/h (1 Bft) SW 228 ° 1 min 0,000 mm 8,5 UV-I 1071 W/m² 12,8 °C 17,7 °C 4,8 km/h (1 Bft)
03.07.2017 12:41 17,7 °C 17,8 °C 78 % 1022,2 hPa 0,0 mm 3,3 km/h (1 Bft) N 349 ° 1 min 0,000 mm 8,5 UV-I 1079 W/m² 13,8 °C 17,7 °C 4,8 km/h (1 Bft)
03.07.2017 12:42 17,8 °C 17,8 °C 76 % 1022,1 hPa 0,0 mm 1,5 km/h (1 Bft) N-NW 335 ° 1 min 0,000 mm 8,5 UV-I 1090 W/m² 13,5 °C 17,8 °C 4,8 km/h (1 Bft)
03.07.2017 12:43 18,0 °C 18,0 °C 79 % 1022,1 hPa 0,0 mm 3,8 km/h (1 Bft) S-SW 194 ° 1 min 0,000 mm 8,7 UV-I 1111 W/m² 14,3 °C 18,0 °C 6,4 km/h (2 Bft)
03.07.2017 12:44 18,1 °C 18,1 °C 74 % 1022,1 hPa 0,0 mm 2,2 km/h (1 Bft) W 265 ° 1 min 0,000 mm 8,9 UV-I 1216 W/m² 13,4 °C 18,1 °C 4,8 km/h (1 Bft)
03.07.2017 12:45 18,1 °C 18,2 °C 75 % 1022,0 hPa 0,0 mm 2,2 km/h (1 Bft) W-SW 249 ° 1 min 0,000 mm 5,5 UV-I 1216 W/m² 13,6 °C 18,1 °C 6,4 km/h (2 Bft)
03.07.2017 12:46 18,1 °C 18,1 °C 75 % 1022,1 hPa 0,0 mm 2,1 km/h (1 Bft) SW 235 ° 1 min 0,000 mm 9,1 UV-I 1216 W/m² 13,6 °C 18,1 °C 4,8 km/h (1 Bft)
03.07.2017 12:47 17,9 °C 18,1 °C 73 % 1022,1 hPa 0,0 mm 3,7 km/h (1 Bft) S-SW 194 ° 1 min 0,000 mm 9,1 UV-I 1216 W/m² 13,0 °C 17,9 °C 6,4 km/h (2 Bft)
03.07.2017 12:48 17,8 °C 17,9 °C 75 % 1022,0 hPa 0,0 mm 2,7 km/h (1 Bft) NW 310 ° 1 min 0,000 mm 4,6 UV-I 418 W/m² 13,3 °C 17,8 °C 8,0 km/h (2 Bft)
03.07.2017 12:49 17,8 °C 17,8 °C 73 % 1022,0 hPa 0,0 mm 3,1 km/h (1 Bft) N 355 ° 1 min 0,000 mm 4,4 UV-I 418 W/m² 12,9 °C 17,8 °C 4,8 km/h (1 Bft)
03.07.2017 12:50 17,7 °C 17,8 °C 75 % 1022,0 hPa 0,0 mm 9,2 km/h (2 Bft) W-NW 283 ° 1 min 0,000 mm 3,9 UV-I 418 W/m² 13,2 °C 17,7 °C 12,9 km/h (3 Bft)
03.07.2017 12:51 17,7 °C 17,7 °C 74 % 1022,1 hPa 0,0 mm 6,9 km/h (2 Bft) NW 311 ° 1 min 0,000 mm 7,9 UV-I 418 W/m² 13,0 °C 17,7 °C 11,3 km/h (2 Bft)
03.07.2017 12:52 17,6 °C 17,7 °C 74 % 1022,0 hPa 0,0 mm 4,7 km/h (1 Bft) W-NW 302 ° 0 min 0,000 mm 2,6 UV-I 253 W/m² 12,9 °C 17,6 °C 6,4 km/h (2 Bft)
03.07.2017 12:53 17,7 °C 17,7 °C 75 % 1022,0 hPa 0,0 mm 2,4 km/h (1 Bft) W-NW 302 ° 0 min 0,000 mm 2,4 UV-I 230 W/m² 13,2 °C 17,7 °C 4,8 km/h (1 Bft)
03.07.2017 12:54 17,6 °C 17,7 °C 74 % 1022,1 hPa 0,0 mm 3,3 km/h (1 Bft) W-NW 298 ° 0 min 0,000 mm 2,4 UV-I 239 W/m² 12,9 °C 17,6 °C 6,4 km/h (2 Bft)
03.07.2017 12:55 17,4 °C 17,6 °C 74 % 1022,0 hPa 0,0 mm 4,7 km/h (1 Bft) W-NW 296 ° 0 min 0,000 mm 2,6 UV-I 257 W/m² 12,7 °C 17,4 °C 6,4 km/h (2 Bft)
03.07.2017 12:56 17,2 °C 17,4 °C 76 % 1022,1 hPa 0,0 mm 4,2 km/h (1 Bft) NW 313 ° 1 min 0,000 mm 2,8 UV-I 304 W/m² 12,9 °C 17,2 °C 6,4 km/h (2 Bft)
03.07.2017 12:57 17,2 °C 17,2 °C 77 % 1022,1 hPa 0,0 mm 5,6 km/h (1 Bft) N-NW 329 ° 1 min 0,000 mm 3,0 UV-I 313 W/m² 13,1 °C 17,2 °C 9,7 km/h (2 Bft)
03.07.2017 12:58 17,1 °C 17,2 °C 74 % 1022,1 hPa 0,0 mm 5,6 km/h (1 Bft) NW 325 ° 1 min 0,000 mm 3,1 UV-I 309 W/m² 12,4 °C 17,1 °C 8,0 km/h (2 Bft)
03.07.2017 12:59 17,1 °C 17,1 °C 76 % 1022,1 hPa 0,0 mm 6,0 km/h (2 Bft) NW 317 ° 1 min 0,000 mm 3,1 UV-I 315 W/m² 12,8 °C 17,1 °C 9,7 km/h (2 Bft)
03.07.2017 13:00 17,1 °C 17,1 °C 79 % 1022,1 hPa 0,0 mm 6,6 km/h (2 Bft) W 281 ° 1 min 0,000 mm 3,2 UV-I 315 W/m² 13,4 °C 17,1 °C 8,0 km/h (2 Bft)
03.07.2017 13:01 17,1 °C 17,2 °C 77 % 1022,1 hPa 0,0 mm 4,2 km/h (1 Bft) W 263 ° 1 min 0,406 mm 3,1 UV-I 304 W/m² 13,0 °C 17,1 °C 6,4 km/h (2 Bft)
03.07.2017 13:02 17,1 °C 17,2 °C 80 % 1022,1 hPa 0,0 mm 5,7 km/h (1 Bft) W-NW 295 ° 1 min 0,000 mm 3,1 UV-I 292 W/m² 13,6 °C 17,1 °C 8,0 km/h (2 Bft)
03.07.2017 13:03 17,1 °C 17,1 °C 75 % 1022,1 hPa 0,0 mm 5,0 km/h (1 Bft) W-NW 282 ° 1 min 0,000 mm 3,2 UV-I 297 W/m² 12,6 °C 17,1 °C 6,4 km/h (2 Bft)
03.07.2017 13:04 17,0 °C 17,1 °C 76 % 1022,1 hPa 0,0 mm 4,6 km/h (1 Bft) W-NW 294 ° 1 min 0,000 mm 3,4 UV-I 315 W/m² 12,7 °C 17,0 °C 6,4 km/h (2 Bft)
03.07.2017 13:05 17,0 °C 17,0 °C 77 % 1022,1 hPa 0,0 mm 5,6 km/h (1 Bft) NW 321 ° 1 min 0,000 mm 3,6 UV-I 332 W/m² 12,9 °C 17,0 °C 8,0 km/h (2 Bft)
03.07.2017 13:06 17,0 °C 17,0 °C 77 % 1022,2 hPa 0,0 mm 4,9 km/h (1 Bft) NW 316 ° 1 min 0,000 mm 3,8 UV-I 355 W/m² 12,9 °C 17,0 °C 6,4 km/h (2 Bft)
03.07.2017 13:07 16,9 °C 17,0 °C 75 % 1022,2 hPa 0,0 mm 0,3 km/h (0 Bft) NW 316 ° 1 min 0,000 mm 4,0 UV-I 475 W/m² 12,4 °C 16,9 °C 1,6 km/h (1 Bft)
03.07.2017 13:08 17,0 °C 17,0 °C 77 % 1022,1 hPa 0,0 mm 3,0 km/h (1 Bft) W 281 ° 1 min 0,000 mm 5,4 UV-I 475 W/m² 12,9 °C 17,0 °C 4,8 km/h (1 Bft)
03.07.2017 13:09 17,0 °C 17,0 °C 77 % 1022,1 hPa 0,0 mm 3,6 km/h (1 Bft) NW 324 ° 1 min 0,000 mm 3,5 UV-I 338 W/m² 12,9 °C 17,0 °C 4,8 km/h (1 Bft)
03.07.2017 13:10 17,0 °C 17,1 °C 76 % 1022,1 hPa 0,0 mm 3,4 km/h (1 Bft) W 279 ° 1 min 0,000 mm 3,4 UV-I 325 W/m² 12,7 °C 17,0 °C 6,4 km/h (2 Bft)
03.07.2017 13:11 16,9 °C 17,0 °C 76 % 1022,2 hPa 0,0 mm 4,6 km/h (1 Bft) NW 318 ° 1 min 0,000 mm 3,4 UV-I 318 W/m² 12,6 °C 16,9 °C 6,4 km/h (2 Bft)
03.07.2017 13:12 16,9 °C 16,9 °C 75 % 1022,2 hPa 0,0 mm 3,5 km/h (1 Bft) NW 317 ° 1 min 0,000 mm 3,5 UV-I 323 W/m² 12,4 °C 16,9 °C 4,8 km/h (1 Bft)
03.07.2017 13:13 16,9 °C 16,9 °C 73 % 1022,1 hPa 0,0 mm 4,4 km/h (1 Bft) W-NW 293 ° 1 min 0,000 mm 3,6 UV-I 346 W/m² 12,0 °C 16,9 °C 8,0 km/h (2 Bft)
03.07.2017 13:14 16,9 °C 16,9 °C 76 % 1022,1 hPa 0,0 mm 4,6 km/h (1 Bft) W-NW 302 ° 1 min 0,000 mm 3,7 UV-I 357 W/m² 12,6 °C 16,9 °C 6,4 km/h (2 Bft)
03.07.2017 13:15 16,9 °C 16,9 °C 75 % 1022,1 hPa 0,0 mm 6,0 km/h (2 Bft) W-NW 289 ° 1 min 0,000 mm 4,1 UV-I 381 W/m² 12,4 °C 16,9 °C 8,0 km/h (2 Bft)
03.07.2017 13:16 16,9 °C 16,9 °C 73 % 1022,1 hPa 0,0 mm 6,7 km/h (2 Bft) NW 306 ° 1 min 0,000 mm 4,4 UV-I 427 W/m² 12,0 °C 16,9 °C 9,7 km/h (2 Bft)
03.07.2017 13:17 16,9 °C 16,9 °C 77 % 1022,0 hPa 0,0 mm 6,2 km/h (2 Bft) W-NW 289 ° 1 min 0,000 mm 4,6 UV-I 418 W/m² 12,8 °C 16,9 °C 11,3 km/h (2 Bft)
03.07.2017 13:18 17,1 °C 17,1 °C 78 % 1022,1 hPa 0,0 mm 2,5 km/h (1 Bft) NW 309 ° 1 min 0,000 mm 4,6 UV-I 418 W/m² 13,2 °C 17,1 °C 4,8 km/h (1 Bft)
03.07.2017 13:19 17,3 °C 17,3 °C 77 % 1022,1 hPa 0,0 mm 6,0 km/h (2 Bft) W-NW 283 ° 1 min 0,000 mm 5,7 UV-I 635 W/m² 13,2 °C 17,3 °C 12,9 km/h (3 Bft)
03.07.2017 13:20 17,4 °C 17,4 °C 75 % 1022,0 hPa 0,0 mm 8,0 km/h (2 Bft) W-NW 297 ° 1 min 0,000 mm 5,1 UV-I 635 W/m² 12,9 °C 17,4 °C 12,9 km/h (3 Bft)
03.07.2017 13:21 17,6 °C 17,6 °C 74 % 1022,1 hPa 0,0 mm 4,3 km/h (1 Bft) W-SW 258 ° 1 min 0,000 mm 7,8 UV-I 635 W/m² 12,9 °C 17,6 °C 6,4 km/h (2 Bft)
03.07.2017 13:22 17,6 °C 17,6 °C 72 % 1022,1 hPa 0,0 mm 7,7 km/h (2 Bft) W 260 ° 1 min 0,000 mm 4,5 UV-I 374 W/m² 12,5 °C 17,6 °C 11,3 km/h (2 Bft)
03.07.2017 13:23 17,6 °C 17,6 °C 73 % 1022,1 hPa 0,0 mm 7,7 km/h (2 Bft) W-SW 249 ° 1 min 0,000 mm 4,5 UV-I 374 W/m² 12,7 °C 17,6 °C 11,3 km/h (2 Bft)
03.07.2017 13:24 17,6 °C 17,6 °C 74 % 1022,0 hPa 0,0 mm 7,0 km/h (2 Bft) W-NW 292 ° 1 min 0,000 mm 4,9 UV-I 374 W/m² 12,9 °C 17,6 °C 11,3 km/h (2 Bft)
03.07.2017 13:25 17,4 °C 17,6 °C 69 % 1022,0 hPa 0,0 mm 5,0 km/h (1 Bft) W 269 ° 1 min 0,000 mm 4,3 UV-I 320 W/m² 11,7 °C 17,4 °C 11,3 km/h (2 Bft)
03.07.2017 13:26 17,4 °C 17,4 °C 72 % 1022,0 hPa 0,0 mm 8,7 km/h (2 Bft) W-SW 258 ° 1 min 0,000 mm 4,3 UV-I 320 W/m² 12,3 °C 17,4 °C 14,5 km/h (3 Bft)
03.07.2017 13:27 17,3 °C 17,4 °C 74 % 1022,0 hPa 0,0 mm 7,0 km/h (2 Bft) W 266 ° 1 min 0,000 mm 4,1 UV-I 320 W/m² 12,6 °C 17,3 °C 12,9 km/h (3 Bft)
03.07.2017 13:28 17,4 °C 17,4 °C 73 % 1022,0 hPa 0,0 mm 6,4 km/h (2 Bft) S-SW 205 ° 1 min 0,000 mm 4,1 UV-I 338 W/m² 12,5 °C 17,4 °C 12,9 km/h (3 Bft)
03.07.2017 13:29 17,3 °C 17,4 °C 74 % 1022,0 hPa 0,0 mm 5,2 km/h (1 Bft) W 272 ° 1 min 0,000 mm 4,1 UV-I 311 W/m² 12,6 °C 17,3 °C 11,3 km/h (2 Bft)
03.07.2017 13:30 17,3 °C 17,3 °C 74 % 1022,0 hPa 0,0 mm 7,6 km/h (2 Bft) W 275 ° 1 min 0,000 mm 5,7 UV-I 311 W/m² 12,6 °C 17,3 °C 11,3 km/h (2 Bft)
03.07.2017 13:31 17,3 °C 17,3 °C 73 % 1022,0 hPa 0,0 mm 5,0 km/h (1 Bft) W-NW 300 ° 1 min 0,000 mm 4,1 UV-I 311 W/m² 12,4 °C 17,3 °C 9,7 km/h (2 Bft)
03.07.2017 13:32 17,3 °C 17,3 °C 74 % 1022,0 hPa 0,0 mm 10,1 km/h (2 Bft) W 261 ° 1 min 0,000 mm 6,2 UV-I 311 W/m² 12,6 °C 17,3 °C 12,9 km/h (3 Bft)
03.07.2017 13:33 17,4 °C 17,4 °C 76 % 1022,0 hPa 0,0 mm 7,2 km/h (2 Bft) W-NW 302 ° 1 min 0,000 mm 8,7 UV-I 311 W/m² 13,1 °C 17,4 °C 11,3 km/h (2 Bft)
03.07.2017 13:34 17,6 °C 17,6 °C 72 % 1021,9 hPa 0,0 mm 6,3 km/h (2 Bft) W 264 ° 1 min 0,000 mm 6,3 UV-I 311 W/m² 12,5 °C 17,6 °C 9,7 km/h (2 Bft)
03.07.2017 13:35 17,6 °C 17,6 °C 71 % 1021,9 hPa 0,0 mm 9,7 km/h (2 Bft) NW 309 ° 1 min 0,000 mm 4,1 UV-I 311 W/m² 12,3 °C 17,6 °C 12,9 km/h (3 Bft)
03.07.2017 13:36 17,6 °C 17,6 °C 72 % 1021,9 hPa 0,0 mm 7,0 km/h (2 Bft) W-NW 282 ° 1 min 0,000 mm 4,0 UV-I 297 W/m² 12,5 °C 17,6 °C 11,3 km/h (2 Bft)
03.07.2017 13:37 17,6 °C 17,6 °C 73 % 1021,9 hPa 0,0 mm 8,7 km/h (2 Bft) W 261 ° 1 min 0,000 mm 4,3 UV-I 364 W/m² 12,7 °C 17,6 °C 12,9 km/h (3 Bft)
03.07.2017 13:38 17,4 °C 17,6 °C 70 % 1021,9 hPa 0,0 mm 2,1 km/h (1 Bft) W 267 ° 1 min 0,000 mm 4,0 UV-I 295 W/m² 11,9 °C 17,4 °C 4,8 km/h (1 Bft)
03.07.2017 13:39 17,4 °C 17,4 °C 72 % 1021,9 hPa 0,0 mm 3,2 km/h (1 Bft) W 264 ° 1 min 0,000 mm 4,0 UV-I 295 W/m² 12,3 °C 17,4 °C 4,8 km/h (1 Bft)
03.07.2017 13:40 17,4 °C 17,4 °C 71 % 1021,9 hPa 0,0 mm 4,8 km/h (1 Bft) SW 227 ° 1 min 0,000 mm 8,7 UV-I 1141 W/m² 12,1 °C 17,4 °C 9,7 km/h (2 Bft)
03.07.2017 13:41 17,6 °C 17,6 °C 71 % 1021,9 hPa 0,0 mm 2,9 km/h (1 Bft) W-SW 238 ° 1 min 0,000 mm 5,4 UV-I 1194 W/m² 12,3 °C 17,6 °C 4,8 km/h (1 Bft)
03.07.2017 13:42 17,8 °C 17,8 °C 72 % 1021,8 hPa 0,0 mm 6,6 km/h (2 Bft) W 281 ° 1 min 0,000 mm 8,7 UV-I 1215 W/m² 12,7 °C 17,8 °C 11,3 km/h (2 Bft)
03.07.2017 13:43 18,1 °C 18,1 °C 73 % 1021,9 hPa 0,0 mm 6,1 km/h (2 Bft) W 259 ° 1 min 0,000 mm 8,6 UV-I 1139 W/m² 13,2 °C 18,1 °C 11,3 km/h (2 Bft)
03.07.2017 13:44 18,3 °C 18,3 °C 71 % 1021,9 hPa 0,0 mm 3,0 km/h (1 Bft) W 268 ° 1 min 0,000 mm 8,8 UV-I 1139 W/m² 12,9 °C 18,3 °C 11,3 km/h (2 Bft)
03.07.2017 13:45 18,4 °C 18,4 °C 72 % 1021,8 hPa 0,0 mm 8,5 km/h (2 Bft) W 268 ° 1 min 0,000 mm 7,4 UV-I 1139 W/m² 13,3 °C 18,4 °C 11,3 km/h (2 Bft)
03.07.2017 13:46 18,6 °C 18,6 °C 71 % 1021,8 hPa 0,0 mm 11,5 km/h (2 Bft) W-SW 255 ° 1 min 0,000 mm 7,3 UV-I 1139 W/m² 13,2 °C 18,6 °C 16,1 km/h (3 Bft)
03.07.2017 13:47 18,6 °C 18,6 °C 71 % 1021,8 hPa 0,0 mm 9,7 km/h (2 Bft) W 265 ° 1 min 0,000 mm 7,3 UV-I 1139 W/m² 13,2 °C 18,6 °C 11,3 km/h (2 Bft)
03.07.2017 13:48 18,8 °C 18,8 °C 74 % 1021,8 hPa 0,0 mm 11,3 km/h (2 Bft) W 270 ° 1 min 0,000 mm 9,0 UV-I 1178 W/m² 14,1 °C 18,8 °C 16,1 km/h (3 Bft)
03.07.2017 13:49 19,1 °C 19,1 °C 75 % 1021,8 hPa 0,0 mm 11,3 km/h (2 Bft) W 270 ° 1 min 0,000 mm 9,1 UV-I 1172 W/m² 14,6 °C 19,1 °C 16,1 km/h (3 Bft)
03.07.2017 13:50 19,3 °C 19,3 °C 71 % 1021,8 hPa 0,0 mm 9,7 km/h (2 Bft) W-SW 247 ° 1 min 0,000 mm 8,9 UV-I 1172 W/m² 13,9 °C 19,3 °C 14,5 km/h (3 Bft)
03.07.2017 13:51 19,3 °C 19,3 °C 68 % 1021,8 hPa 0,0 mm 9,7 km/h (2 Bft) W 270 ° 1 min 0,000 mm 8,9 UV-I 1172 W/m² 13,2 °C 19,3 °C 14,5 km/h (3 Bft)
03.07.2017 13:52 19,2 °C 19,3 °C 71 % 1021,8 hPa 0,0 mm 8,0 km/h (2 Bft) NW 315 ° 1 min 0,000 mm 4,2 UV-I 1172 W/m² 13,8 °C 19,2 °C 12,9 km/h (3 Bft)
03.07.2017 13:53 18,9 °C 19,1 °C 68 % 1021,8 hPa 0,0 mm 9,7 km/h (2 Bft) W-NW 292 ° 1 min 0,000 mm 8,0 UV-I 1172 W/m² 12,9 °C 18,9 °C 16,1 km/h (3 Bft)
03.07.2017 13:54 18,9 °C 18,9 °C 74 % 1021,8 hPa 0,0 mm 6,4 km/h (2 Bft) W 270 ° 1 min 0,000 mm 4,7 UV-I 1172 W/m² 14,2 °C 18,9 °C 12,9 km/h (3 Bft)
03.07.2017 13:55 18,7 °C 18,9 °C 64 % 1021,8 hPa 0,0 mm 1,6 km/h (1 Bft) S 180 ° 1 min 0,000 mm 7,3 UV-I 1172 W/m² 11,7 °C 18,7 °C 4,8 km/h (1 Bft)
03.07.2017 13:56 18,5 °C 18,6 °C 66 % 1021,7 hPa 0,0 mm 3,2 km/h (1 Bft) W-NW 292 ° 1 min 0,000 mm 9,4 UV-I 1172 W/m² 12,0 °C 18,5 °C 9,7 km/h (2 Bft)
03.07.2017 13:58 18,7 °C 18,7 °C 72 % 1021,7 hPa 0,0 mm 7,8 km/h (2 Bft) W-SW 237 ° 2 min 0,000 mm 5,8 UV-I 1130 W/m² 13,5 °C 18,7 °C 11,3 km/h (2 Bft)
03.07.2017 13:59 18,7 °C 18,7 °C 68 % 1021,6 hPa 0,0 mm 3,9 km/h (1 Bft) W-SW 248 ° 1 min 0,000 mm 5,6 UV-I 1130 W/m² 12,7 °C 18,7 °C 6,4 km/h (2 Bft)
03.07.2017 14:00 18,7 °C 18,7 °C 69 % 1021,6 hPa 0,0 mm 7,1 km/h (2 Bft) W 263 ° 1 min 0,000 mm 4,3 UV-I 1130 W/m² 12,9 °C 18,7 °C 11,3 km/h (2 Bft)
03.07.2017 14:01 18,6 °C 18,7 °C 70 % 1021,6 hPa 0,0 mm 7,8 km/h (2 Bft) W-NW 290 ° 1 min 0,381 mm 4,6 UV-I 387 W/m² 13,0 °C 18,6 °C 12,9 km/h (3 Bft)
03.07.2017 14:02 18,5 °C 18,6 °C 71 % 1021,6 hPa 0,0 mm 5,4 km/h (1 Bft) W-SW 244 ° 1 min 0,000 mm 3,9 UV-I 387 W/m² 13,1 °C 18,5 °C 9,7 km/h (2 Bft)
03.07.2017 14:03 18,4 °C 18,5 °C 71 % 1021,6 hPa 0,0 mm 4,4 km/h (1 Bft) W-NW 303 ° 1 min 0,000 mm 3,6 UV-I 387 W/m² 13,0 °C 18,4 °C 6,4 km/h (2 Bft)
03.07.2017 14:04 18,2 °C 18,4 °C 70 % 1021,7 hPa 0,0 mm 6,8 km/h (2 Bft) W 281 ° 0 min 0,000 mm 3,4 UV-I 274 W/m² 12,6 °C 18,2 °C 11,3 km/h (2 Bft)
03.07.2017 14:05 18,1 °C 18,2 °C 70 % 1021,7 hPa 0,0 mm 9,7 km/h (2 Bft) W 266 ° 0 min 0,000 mm 3,3 UV-I 272 W/m² 12,5 °C 18,1 °C 14,5 km/h (3 Bft)
03.07.2017 14:06 17,9 °C 18,1 °C 70 % 1021,7 hPa 0,0 mm 7,3 km/h (2 Bft) W 261 ° 0 min 0,000 mm 3,3 UV-I 276 W/m² 12,3 °C 17,9 °C 12,9 km/h (3 Bft)
03.07.2017 14:07 17,8 °C 17,9 °C 70 % 1021,7 hPa 0,0 mm 6,2 km/h (2 Bft) W-NW 291 ° 0 min 0,000 mm 3,3 UV-I 283 W/m² 12,3 °C 17,8 °C 8,0 km/h (2 Bft)
03.07.2017 14:08 17,8 °C 17,8 °C 68 % 1021,7 hPa 0,0 mm 5,0 km/h (1 Bft) W 277 ° 0 min 0,000 mm 3,3 UV-I 288 W/m² 11,8 °C 17,8 °C 8,0 km/h (2 Bft)
03.07.2017 14:09 17,7 °C 17,8 °C 70 % 1021,7 hPa 0,0 mm 2,6 km/h (1 Bft) W-NW 288 ° 0 min 0,000 mm 3,3 UV-I 288 W/m² 12,2 °C 17,7 °C 6,4 km/h (2 Bft)
03.07.2017 14:10 17,6 °C 17,7 °C 72 % 1021,7 hPa 0,0 mm 3,8 km/h (1 Bft) W-SW 245 ° 1 min 0,000 mm 3,4 UV-I 294 W/m² 12,5 °C 17,6 °C 11,3 km/h (2 Bft)
03.07.2017 14:11 17,6 °C 17,7 °C 69 % 1021,7 hPa 0,0 mm 7,8 km/h (2 Bft) W-NW 298 ° 1 min 0,000 mm 3,4 UV-I 292 W/m² 11,8 °C 17,6 °C 12,9 km/h (3 Bft)
03.07.2017 14:12 17,5 °C 17,6 °C 70 % 1021,7 hPa 0,0 mm 7,5 km/h (2 Bft) W-NW 294 ° 0 min 0,000 mm 3,4 UV-I 272 W/m² 12,0 °C 17,5 °C 12,9 km/h (3 Bft)
03.07.2017 14:13 17,4 °C 17,5 °C 69 % 1021,7 hPa 0,0 mm 9,6 km/h (2 Bft) W-SW 251 ° 0 min 0,000 mm 3,2 UV-I 257 W/m² 11,7 °C 17,4 °C 12,9 km/h (3 Bft)
03.07.2017 14:14 17,4 °C 17,4 °C 70 % 1021,7 hPa 0,0 mm 6,8 km/h (2 Bft) W-NW 298 ° 0 min 0,000 mm 3,2 UV-I 246 W/m² 11,9 °C 17,4 °C 11,3 km/h (2 Bft)
03.07.2017 14:15 17,4 °C 17,4 °C 71 % 1021,7 hPa 0,0 mm 5,6 km/h (1 Bft) W 277 ° 0 min 0,000 mm 3,3 UV-I 241 W/m² 12,1 °C 17,4 °C 11,3 km/h (2 Bft)
03.07.2017 14:16 17,3 °C 17,4 °C 71 % 1021,7 hPa 0,0 mm 3,1 km/h (1 Bft) W 280 ° 0 min 0,000 mm 3,4 UV-I 255 W/m² 12,0 °C 17,3 °C 6,4 km/h (2 Bft)
03.07.2017 14:17 17,3 °C 17,3 °C 72 % 1021,7 hPa 0,0 mm 3,2 km/h (1 Bft) W-SW 254 ° 0 min 0,000 mm 3,4 UV-I 250 W/m² 12,2 °C 17,3 °C 6,4 km/h (2 Bft)
03.07.2017 14:18 17,3 °C 17,3 °C 72 % 1021,7 hPa 0,0 mm 4,5 km/h (1 Bft) NW 307 ° 0 min 0,000 mm 3,9 UV-I 262 W/m² 12,2 °C 17,3 °C 8,0 km/h (2 Bft)
03.07.2017 14:19 17,4 °C 17,4 °C 70 % 1021,7 hPa 0,0 mm 5,1 km/h (1 Bft) W 273 ° 0 min 0,000 mm 8,2 UV-I 262 W/m² 11,9 °C 17,4 °C 9,7 km/h (2 Bft)
03.07.2017 14:20 17,7 °C 17,7 °C 73 % 1021,7 hPa 0,0 mm 5,1 km/h (1 Bft) W 271 ° 1 min 0,000 mm 7,9 UV-I 1104 W/m² 12,8 °C 17,7 °C 8,0 km/h (2 Bft)
03.07.2017 14:21 17,9 °C 17,9 °C 70 % 1021,7 hPa 0,0 mm 8,8 km/h (2 Bft) W-NW 303 ° 1 min 0,000 mm 4,6 UV-I 1104 W/m² 12,3 °C 17,9 °C 12,9 km/h (3 Bft)
03.07.2017 14:22 18,1 °C 18,1 °C 68 % 1021,6 hPa 0,0 mm 9,4 km/h (2 Bft) W 276 ° 1 min 0,000 mm 5,8 UV-I 1104 W/m² 12,1 °C 18,1 °C 14,5 km/h (3 Bft)
03.07.2017 14:23 18,1 °C 18,1 °C 69 % 1021,7 hPa 0,0 mm 7,0 km/h (2 Bft) NW 305 ° 1 min 0,000 mm 5,4 UV-I 1104 W/m² 12,3 °C 18,1 °C 12,9 km/h (3 Bft)
03.07.2017 14:24 18,1 °C 18,1 °C 68 % 1021,7 hPa 0,0 mm 5,6 km/h (1 Bft) W-NW 295 ° 0 min 0,000 mm 3,4 UV-I 202 W/m² 12,1 °C 18,1 °C 8,0 km/h (2 Bft)
03.07.2017 14:25 18,0 °C 18,1 °C 71 % 1021,7 hPa 0,0 mm 5,4 km/h (1 Bft) W 265 ° 0 min 0,000 mm 3,1 UV-I 192 W/m² 12,7 °C 18,0 °C 9,7 km/h (2 Bft)
03.07.2017 14:26 17,8 °C 18,0 °C 68 % 1021,7 hPa 0,0 mm 2,9 km/h (1 Bft) W-SW 248 ° 0 min 0,000 mm 3,1 UV-I 185 W/m² 11,8 °C 17,8 °C 4,8 km/h (1 Bft)
03.07.2017 14:27 17,7 °C 17,8 °C 69 % 1021,6 hPa 0,0 mm 2,1 km/h (1 Bft) W-SW 248 ° 0 min 0,000 mm 3,1 UV-I 188 W/m² 11,9 °C 17,7 °C 3,2 km/h (1 Bft)
03.07.2017 14:28 17,6 °C 17,7 °C 70 % 1021,6 hPa 0,0 mm 4,2 km/h (1 Bft) SW 235 ° 0 min 0,000 mm 6,2 UV-I 188 W/m² 12,1 °C 17,6 °C 6,4 km/h (2 Bft)
03.07.2017 14:29 17,7 °C 17,7 °C 71 % 1021,5 hPa 0,0 mm 5,5 km/h (1 Bft) W-NW 288 ° 1 min 0,000 mm 8,0 UV-I 1071 W/m² 12,4 °C 17,7 °C 11,3 km/h (2 Bft)
03.07.2017 14:30 17,8 °C 17,8 °C 69 % 1021,5 hPa 0,0 mm 7,2 km/h (2 Bft) NW 304 ° 1 min 0,000 mm 7,3 UV-I 1071 W/m² 12,0 °C 17,8 °C 11,3 km/h (2 Bft)
03.07.2017 14:31 18,1 °C 18,1 °C 70 % 1021,5 hPa 0,0 mm 4,0 km/h (1 Bft) W-NW 290 ° 1 min 0,000 mm 8,3 UV-I 1071 W/m² 12,5 °C 18,1 °C 6,4 km/h (2 Bft)
03.07.2017 14:32 18,3 °C 18,3 °C 70 % 1021,5 hPa 0,0 mm 8,6 km/h (2 Bft) W 262 ° 1 min 0,000 mm 8,3 UV-I 1071 W/m² 12,7 °C 18,3 °C 11,3 km/h (2 Bft)
03.07.2017 14:33 18,3 °C 18,3 °C 71 % 1021,6 hPa 0,0 mm 5,5 km/h (1 Bft) SW 225 ° 1 min 0,000 mm 7,7 UV-I 1071 W/m² 12,9 °C 18,3 °C 11,3 km/h (2 Bft)
03.07.2017 14:34 18,4 °C 18,4 °C 70 % 1021,5 hPa 0,0 mm 5,4 km/h (1 Bft) W 278 ° 1 min 0,000 mm 7,5 UV-I 1071 W/m² 12,8 °C 18,4 °C 8,0 km/h (2 Bft)
03.07.2017 14:35 18,3 °C 18,4 °C 68 % 1021,5 hPa 0,0 mm 4,3 km/h (1 Bft) W-NW 295 ° 1 min 0,000 mm 4,4 UV-I 1071 W/m² 12,3 °C 18,3 °C 8,0 km/h (2 Bft)
03.07.2017 14:36 18,3 °C 18,3 °C 70 % 1021,5 hPa 0,0 mm 10,1 km/h (2 Bft) W 261 ° 1 min 0,000 mm 3,6 UV-I 338 W/m² 12,7 °C 18,3 °C 12,9 km/h (3 Bft)
03.07.2017 14:37 18,2 °C 18,3 °C 68 % 1021,5 hPa 0,0 mm 6,4 km/h (2 Bft) S-SW 206 ° 1 min 0,000 mm 3,5 UV-I 329 W/m² 12,2 °C 18,2 °C 12,9 km/h (3 Bft)
03.07.2017 14:38 18,1 °C 18,2 °C 64 % 1021,5 hPa 0,0 mm 3,7 km/h (1 Bft) SW 226 ° 1 min 0,000 mm 3,5 UV-I 325 W/m² 11,2 °C 18,1 °C 4,8 km/h (1 Bft)
03.07.2017 14:39 17,9 °C 18,1 °C 66 % 1021,4 hPa 0,0 mm 2,9 km/h (1 Bft) W-NW 292 ° 1 min 0,000 mm 3,5 UV-I 329 W/m² 11,5 °C 17,9 °C 4,8 km/h (1 Bft)
03.07.2017 14:40 17,9 °C 17,9 °C 69 % 1021,4 hPa 0,0 mm 7,3 km/h (2 Bft) W-NW 284 ° 1 min 0,000 mm 3,6 UV-I 343 W/m² 12,1 °C 17,9 °C 11,3 km/h (2 Bft)
03.07.2017 14:41 18,1 °C 18,1 °C 72 % 1021,3 hPa 0,0 mm 5,0 km/h (1 Bft) NW 310 ° 1 min 0,000 mm 5,2 UV-I 343 W/m² 13,0 °C 18,1 °C 9,7 km/h (2 Bft)
03.07.2017 14:42 18,2 °C 18,2 °C 69 % 1021,4 hPa 0,0 mm 8,6 km/h (2 Bft) W 262 ° 1 min 0,000 mm 6,3 UV-I 343 W/m² 12,4 °C 18,2 °C 17,7 km/h (3 Bft)
03.07.2017 14:43 18,3 °C 18,3 °C 71 % 1021,4 hPa 0,0 mm 6,8 km/h (2 Bft) W-SW 242 ° 1 min 0,000 mm 8,3 UV-I 1211 W/m² 12,9 °C 18,3 °C 14,5 km/h (3 Bft)
03.07.2017 14:44 18,4 °C 18,4 °C 70 % 1021,3 hPa 0,0 mm 4,7 km/h (1 Bft) W 261 ° 1 min 0,000 mm 8,4 UV-I 1201 W/m² 12,8 °C 18,4 °C 8,0 km/h (2 Bft)
03.07.2017 14:45 18,6 °C 18,6 °C 69 % 1021,3 hPa 0,0 mm 6,6 km/h (2 Bft) W-SW 243 ° 1 min 0,000 mm 5,7 UV-I 1201 W/m² 12,8 °C 18,6 °C 11,3 km/h (2 Bft)
03.07.2017 14:46 18,7 °C 18,7 °C 70 % 1021,3 hPa 0,0 mm 6,7 km/h (2 Bft) W-NW 283 ° 1 min 0,000 mm 4,3 UV-I 1201 W/m² 13,1 °C 18,7 °C 11,3 km/h (2 Bft)
03.07.2017 14:47 18,8 °C 18,8 °C 68 % 1021,3 hPa 0,0 mm 8,2 km/h (2 Bft) W 267 ° 1 min 0,000 mm 4,0 UV-I 1201 W/m² 12,8 °C 18,8 °C 11,3 km/h (2 Bft)
03.07.2017 14:48 18,8 °C 18,9 °C 70 % 1021,3 hPa 0,0 mm 7,8 km/h (2 Bft) SW 236 ° 1 min 0,000 mm 3,8 UV-I 294 W/m² 13,2 °C 18,8 °C 11,3 km/h (2 Bft)
03.07.2017 14:49 18,8 °C 18,8 °C 69 % 1021,3 hPa 0,0 mm 6,6 km/h (2 Bft) NW 306 ° 1 min 0,000 mm 3,9 UV-I 294 W/m² 13,0 °C 18,8 °C 11,3 km/h (2 Bft)
03.07.2017 14:50 18,7 °C 18,8 °C 69 % 1021,3 hPa 0,0 mm 2,2 km/h (1 Bft) W-SW 254 ° 1 min 0,000 mm 4,1 UV-I 294 W/m² 12,9 °C 18,7 °C 4,8 km/h (1 Bft)
03.07.2017 14:51 18,6 °C 18,7 °C 69 % 1021,4 hPa 0,0 mm 5,6 km/h (1 Bft) W-SW 255 ° 1 min 0,000 mm 4,3 UV-I 418 W/m² 12,8 °C 18,6 °C 11,3 km/h (2 Bft)
03.07.2017 14:52 18,5 °C 18,6 °C 67 % 1021,3 hPa 0,0 mm 5,5 km/h (1 Bft) W 268 ° 1 min 0,000 mm 5,8 UV-I 418 W/m² 12,3 °C 18,5 °C 9,7 km/h (2 Bft)
03.07.2017 14:53 18,4 °C 18,5 °C 69 % 1021,3 hPa 0,0 mm 10,5 km/h (2 Bft) W-SW 252 ° 1 min 0,000 mm 4,1 UV-I 418 W/m² 12,6 °C 18,4 °C 14,5 km/h (3 Bft)
03.07.2017 14:54 18,3 °C 18,4 °C 69 % 1021,3 hPa 0,0 mm 3,5 km/h (1 Bft) W 281 ° 1 min 0,000 mm 3,9 UV-I 341 W/m² 12,5 °C 18,3 °C 6,4 km/h (2 Bft)
03.07.2017 14:55 18,3 °C 18,3 °C 68 % 1021,3 hPa 0,0 mm 3,5 km/h (1 Bft) W-SW 248 ° 1 min 0,000 mm 3,8 UV-I 339 W/m² 12,3 °C 18,3 °C 6,4 km/h (2 Bft)
03.07.2017 14:56 18,3 °C 18,3 °C 70 % 1021,3 hPa 0,0 mm 5,1 km/h (1 Bft) W 279 ° 1 min 0,000 mm 4,3 UV-I 418 W/m² 12,7 °C 18,3 °C 11,3 km/h (2 Bft)
03.07.2017 14:57 18,3 °C 18,3 °C 72 % 1021,3 hPa 0,0 mm 8,4 km/h (2 Bft) W-NW 300 ° 1 min 0,000 mm 5,7 UV-I 418 W/m² 13,2 °C 18,3 °C 12,9 km/h (3 Bft)
03.07.2017 14:59 18,6 °C 18,6 °C 74 % 1021,3 hPa 0,0 mm 6,4 km/h (2 Bft) NW 309 ° 2 min 0,000 mm 8,0 UV-I 731 W/m² 13,9 °C 18,6 °C 12,9 km/h (3 Bft)
03.07.2017 15:00 18,7 °C 18,7 °C 68 % 1021,3 hPa 0,0 mm 8,1 km/h (2 Bft) W-NW 288 ° 1 min 0,000 mm 5,8 UV-I 1004 W/m² 12,7 °C 18,7 °C 12,9 km/h (3 Bft)
03.07.2017 15:01 18,8 °C 18,8 °C 69 % 1021,3 hPa 0,0 mm 12,8 km/h (3 Bft) N-NW 340 ° 1 min 0,330 mm 7,6 UV-I 1004 W/m² 13,0 °C 18,8 °C 17,7 km/h (3 Bft)
03.07.2017 15:02 18,9 °C 18,9 °C 70 % 1021,2 hPa 0,0 mm 8,7 km/h (2 Bft) W-NW 300 ° 1 min 0,000 mm 7,6 UV-I 1004 W/m² 13,3 °C 18,9 °C 14,5 km/h (3 Bft)
03.07.2017 15:03 19,1 °C 19,1 °C 66 % 1021,2 hPa 0,0 mm 6,1 km/h (2 Bft) W-NW 295 ° 1 min 0,000 mm 7,9 UV-I 1063 W/m² 12,6 °C 19,1 °C 9,7 km/h (2 Bft)
03.07.2017 15:04 19,0 °C 19,1 °C 68 % 1021,2 hPa 0,0 mm 4,7 km/h (1 Bft) W 271 ° 1 min 0,000 mm 7,8 UV-I 1039 W/m² 13,0 °C 19,0 °C 11,3 km/h (2 Bft)
03.07.2017 15:05 19,2 °C 19,2 °C 69 % 1021,2 hPa 0,0 mm 7,8 km/h (2 Bft) W-SW 252 ° 1 min 0,000 mm 7,8 UV-I 979 W/m² 13,4 °C 19,2 °C 12,9 km/h (3 Bft)
03.07.2017 15:06 19,3 °C 19,3 °C 69 % 1021,2 hPa 0,0 mm 7,0 km/h (2 Bft) W-NW 296 ° 1 min 0,000 mm 6,9 UV-I 979 W/m² 13,5 °C 19,3 °C 12,9 km/h (3 Bft)
03.07.2017 15:07 19,2 °C 19,3 °C 67 % 1021,2 hPa 0,0 mm 4,6 km/h (1 Bft) W 259 ° 1 min 0,000 mm 7,7 UV-I 1107 W/m² 12,9 °C 19,2 °C 8,0 km/h (2 Bft)
03.07.2017 15:08 19,2 °C 19,2 °C 65 % 1021,2 hPa 0,0 mm 7,2 km/h (2 Bft) W-NW 292 ° 1 min 0,000 mm 4,4 UV-I 1107 W/m² 12,5 °C 19,2 °C 11,3 km/h (2 Bft)
03.07.2017 15:09 19,1 °C 19,2 °C 68 % 1021,2 hPa 0,0 mm 6,3 km/h (2 Bft) NW 308 ° 1 min 0,000 mm 5,6 UV-I 1107 W/m² 13,1 °C 19,1 °C 11,3 km/h (2 Bft)
03.07.2017 15:10 19,0 °C 19,1 °C 67 % 1021,2 hPa 0,0 mm 6,7 km/h (2 Bft) W 262 ° 1 min 0,000 mm 7,6 UV-I 1107 W/m² 12,7 °C 19,0 °C 12,9 km/h (3 Bft)
03.07.2017 15:11 18,8 °C 19,0 °C 62 % 1021,2 hPa 0,0 mm 6,4 km/h (2 Bft) W 261 ° 1 min 0,000 mm 7,5 UV-I 958 W/m² 11,4 °C 18,8 °C 11,3 km/h (2 Bft)
03.07.2017 15:12 18,9 °C 18,9 °C 67 % 1021,1 hPa 0,0 mm 5,4 km/h (1 Bft) W-SW 254 ° 1 min 0,000 mm 7,2 UV-I 925 W/m² 12,6 °C 18,9 °C 12,9 km/h (3 Bft)
03.07.2017 15:13 18,9 °C 18,9 °C 66 % 1021,1 hPa 0,0 mm 5,1 km/h (1 Bft) W-NW 293 ° 1 min 0,000 mm 7,1 UV-I 904 W/m² 12,4 °C 18,9 °C 9,7 km/h (2 Bft)
03.07.2017 15:14 18,9 °C 18,9 °C 66 % 1021,1 hPa 0,0 mm 5,0 km/h (1 Bft) W-NW 291 ° 1 min 0,000 mm 7,0 UV-I 896 W/m² 12,4 °C 18,9 °C 6,4 km/h (2 Bft)
03.07.2017 15:15 18,8 °C 18,9 °C 62 % 1021,2 hPa 0,0 mm 4,4 km/h (1 Bft) W-NW 292 ° 1 min 0,000 mm 7,0 UV-I 891 W/m² 11,4 °C 18,8 °C 6,4 km/h (2 Bft)
03.07.2017 15:16 18,8 °C 18,8 °C 67 % 1021,1 hPa 0,0 mm 4,9 km/h (1 Bft) W-NW 300 ° 1 min 0,000 mm 7,0 UV-I 907 W/m² 12,5 °C 18,8 °C 8,0 km/h (2 Bft)
03.07.2017 15:17 18,8 °C 18,8 °C 67 % 1021,1 hPa 0,0 mm 4,2 km/h (1 Bft) NW 311 ° 1 min 0,000 mm 7,0 UV-I 911 W/m² 12,5 °C 18,8 °C 8,0 km/h (2 Bft)
03.07.2017 15:18 18,8 °C 18,8 °C 64 % 1021,2 hPa 0,0 mm 4,8 km/h (1 Bft) NW 313 ° 1 min 0,000 mm 7,0 UV-I 925 W/m² 11,8 °C 18,8 °C 8,0 km/h (2 Bft)
03.07.2017 15:19 18,9 °C 18,9 °C 67 % 1021,2 hPa 0,0 mm 5,7 km/h (1 Bft) W-NW 292 ° 1 min 0,000 mm 7,0 UV-I 921 W/m² 12,6 °C 18,9 °C 8,0 km/h (2 Bft)
03.07.2017 15:20 19,1 °C 19,1 °C 68 % 1021,1 hPa 0,0 mm 3,9 km/h (1 Bft) NW 314 ° 1 min 0,000 mm 7,0 UV-I 923 W/m² 13,1 °C 19,1 °C 6,4 km/h (2 Bft)
03.07.2017 15:21 19,2 °C 19,2 °C 66 % 1021,1 hPa 0,0 mm 3,8 km/h (1 Bft) W 266 ° 1 min 0,000 mm 7,1 UV-I 939 W/m² 12,7 °C 19,2 °C 6,4 km/h (2 Bft)
03.07.2017 15:22 19,1 °C 19,2 °C 64 % 1021,1 hPa 0,0 mm 0,6 km/h (0 Bft) W 266 ° 1 min 0,000 mm 5,9 UV-I 939 W/m² 12,1 °C 19,1 °C 1,6 km/h (1 Bft)
03.07.2017 15:23 19,1 °C 19,1 °C 65 % 1021,1 hPa 0,0 mm 2,4 km/h (1 Bft) NW 324 ° 1 min 0,000 mm 4,4 UV-I 652 W/m² 12,4 °C 19,1 °C 4,8 km/h (1 Bft)
03.07.2017 15:24 19,2 °C 19,2 °C 65 % 1021,1 hPa 0,0 mm 6,8 km/h (2 Bft) W-NW 286 ° 1 min 0,000 mm 3,5 UV-I 652 W/m² 12,5 °C 19,2 °C 11,3 km/h (2 Bft)
03.07.2017 15:25 19,2 °C 19,2 °C 65 % 1021,1 hPa 0,0 mm 9,4 km/h (2 Bft) W 261 ° 1 min 0,000 mm 7,0 UV-I 652 W/m² 12,5 °C 19,2 °C 11,3 km/h (2 Bft)
03.07.2017 15:26 19,2 °C 19,2 °C 65 % 1021,1 hPa 0,0 mm 6,8 km/h (2 Bft) W-SW 250 ° 1 min 0,000 mm 6,9 UV-I 939 W/m² 12,5 °C 19,2 °C 9,7 km/h (2 Bft)
03.07.2017 15:27 19,2 °C 19,2 °C 67 % 1021,1 hPa 0,0 mm 6,3 km/h (2 Bft) W-SW 248 ° 1 min 0,000 mm 6,8 UV-I 923 W/m² 12,9 °C 19,2 °C 11,3 km/h (2 Bft)
03.07.2017 15:28 19,4 °C 19,4 °C 67 % 1021,1 hPa 0,0 mm 4,6 km/h (1 Bft) W-NW 301 ° 1 min 0,000 mm 6,8 UV-I 921 W/m² 13,1 °C 19,4 °C 8,0 km/h (2 Bft)
03.07.2017 15:29 19,7 °C 19,7 °C 69 % 1021,1 hPa 0,0 mm 7,3 km/h (2 Bft) W-NW 297 ° 1 min 0,000 mm 6,7 UV-I 932 W/m² 13,8 °C 19,7 °C 11,3 km/h (2 Bft)
03.07.2017 15:30 19,8 °C 19,8 °C 67 % 1021,1 hPa 0,0 mm 11,1 km/h (2 Bft) W-NW 293 ° 1 min 0,000 mm 4,2 UV-I 932 W/m² 13,5 °C 19,8 °C 16,1 km/h (3 Bft)
03.07.2017 15:31 19,7 °C 19,8 °C 63 % 1021,1 hPa 0,0 mm 5,7 km/h (1 Bft) W 276 ° 1 min 0,000 mm 6,7 UV-I 932 W/m² 12,5 °C 19,7 °C 11,3 km/h (2 Bft)
03.07.2017 15:32 19,7 °C 19,7 °C 68 % 1021,1 hPa 0,0 mm 6,5 km/h (2 Bft) W-NW 290 ° 1 min 0,000 mm 6,7 UV-I 942 W/m² 13,6 °C 19,7 °C 11,3 km/h (2 Bft)
03.07.2017 15:33 19,7 °C 19,7 °C 65 % 1021,1 hPa 0,0 mm 6,8 km/h (2 Bft) W-NW 285 ° 1 min 0,000 mm 6,2 UV-I 867 W/m² 12,9 °C 19,7 °C 11,3 km/h (2 Bft)
03.07.2017 15:34 19,6 °C 19,7 °C 64 % 1021,1 hPa 0,0 mm 2,4 km/h (1 Bft) W-SW 249 ° 1 min 0,000 mm 3,7 UV-I 867 W/m² 12,6 °C 19,6 °C 4,8 km/h (1 Bft)
03.07.2017 15:35 19,6 °C 19,6 °C 65 % 1021,1 hPa 0,0 mm 5,2 km/h (1 Bft) W 264 ° 1 min 0,000 mm 6,6 UV-I 954 W/m² 12,8 °C 19,6 °C 11,3 km/h (2 Bft)
03.07.2017 15:36 19,7 °C 19,7 °C 68 % 1021,1 hPa 0,0 mm 6,3 km/h (2 Bft) W 267 ° 1 min 0,000 mm 6,5 UV-I 909 W/m² 13,6 °C 19,7 °C 11,3 km/h (2 Bft)
03.07.2017 15:37 19,8 °C 19,8 °C 65 % 1021,1 hPa 0,0 mm 7,9 km/h (2 Bft) W-SW 249 ° 1 min 0,000 mm 6,8 UV-I 946 W/m² 13,0 °C 19,8 °C 16,1 km/h (3 Bft)
03.07.2017 15:38 19,7 °C 19,8 °C 63 % 1021,1 hPa 0,0 mm 8,2 km/h (2 Bft) NW 321 ° 1 min 0,000 mm 6,7 UV-I 958 W/m² 12,5 °C 19,7 °C 12,9 km/h (3 Bft)
03.07.2017 15:39 19,7 °C 19,7 °C 65 % 1021,0 hPa 0,0 mm 5,3 km/h (1 Bft) W-NW 298 ° 1 min 0,000 mm 6,7 UV-I 962 W/m² 12,9 °C 19,7 °C 8,0 km/h (2 Bft)
03.07.2017 15:40 19,6 °C 19,7 °C 64 % 1021,0 hPa 0,0 mm 9,7 km/h (2 Bft) W-NW 295 ° 1 min 0,000 mm 6,5 UV-I 962 W/m² 12,6 °C 19,6 °C 14,5 km/h (3 Bft)
03.07.2017 15:41 19,6 °C 19,6 °C 65 % 1021,1 hPa 0,0 mm 11,5 km/h (2 Bft) N-NW 343 ° 1 min 0,000 mm 3,9 UV-I 962 W/m² 12,8 °C 19,6 °C 16,1 km/h (3 Bft)
03.07.2017 15:42 19,6 °C 19,6 °C 66 % 1021,1 hPa 0,0 mm 9,3 km/h (2 Bft) N-NW 333 ° 1 min 0,000 mm 6,6 UV-I 779 W/m² 13,1 °C 19,6 °C 14,5 km/h (3 Bft)
03.07.2017 15:43 19,5 °C 19,6 °C 64 % 1021,1 hPa 0,0 mm 7,4 km/h (2 Bft) W-NW 298 ° 1 min 0,000 mm 3,2 UV-I 779 W/m² 12,5 °C 19,5 °C 12,9 km/h (3 Bft)
03.07.2017 15:44 19,4 °C 19,5 °C 64 % 1021,1 hPa 0,0 mm 4,7 km/h (1 Bft) W-NW 301 ° 1 min 0,000 mm 4,5 UV-I 779 W/m² 12,4 °C 19,4 °C 8,0 km/h (2 Bft)
03.07.2017 15:45 19,3 °C 19,4 °C 65 % 1021,1 hPa 0,0 mm 5,5 km/h (1 Bft) W-NW 294 ° 1 min 0,000 mm 6,5 UV-I 993 W/m² 12,6 °C 19,3 °C 11,3 km/h (2 Bft)
03.07.2017 15:46 19,4 °C 19,4 °C 67 % 1021,1 hPa 0,0 mm 11,1 km/h (2 Bft) N 11 ° 1 min 0,000 mm 6,6 UV-I 993 W/m² 13,1 °C 19,4 °C 16,1 km/h (3 Bft)
03.07.2017 15:47 19,6 °C 19,6 °C 64 % 1021,1 hPa 0,0 mm 6,5 km/h (2 Bft) NW 324 ° 1 min 0,000 mm 6,7 UV-I 993 W/m² 12,6 °C 19,6 °C 11,3 km/h (2 Bft)
03.07.2017 15:48 19,7 °C 19,7 °C 65 % 1021,1 hPa 0,0 mm 8,3 km/h (2 Bft) N-NW 337 ° 1 min 0,000 mm 6,6 UV-I 958 W/m² 12,9 °C 19,7 °C 16,1 km/h (3 Bft)
03.07.2017 15:49 19,7 °C 19,7 °C 65 % 1021,0 hPa 0,0 mm 10,9 km/h (2 Bft) N 9 ° 1 min 0,000 mm 3,3 UV-I 958 W/m² 12,9 °C 19,7 °C 16,1 km/h (3 Bft)
03.07.2017 15:50 19,7 °C 19,7 °C 64 % 1021,0 hPa 0,0 mm 9,3 km/h (2 Bft) NW 316 ° 1 min 0,000 mm 4,8 UV-I 315 W/m² 12,7 °C 19,7 °C 14,5 km/h (3 Bft)
03.07.2017 15:51 19,6 °C 19,7 °C 65 % 1021,1 hPa 0,0 mm 5,2 km/h (1 Bft) W-SW 254 ° 1 min 0,000 mm 6,1 UV-I 870 W/m² 12,8 °C 19,6 °C 8,0 km/h (2 Bft)
03.07.2017 15:52 19,6 °C 19,6 °C 63 % 1021,1 hPa 0,0 mm 8,0 km/h (2 Bft) NW 324 ° 1 min 0,000 mm 6,1 UV-I 849 W/m² 12,4 °C 19,6 °C 11,3 km/h (2 Bft)
03.07.2017 15:53 19,4 °C 19,6 °C 64 % 1021,1 hPa 0,0 mm 8,5 km/h (2 Bft) N-NW 327 ° 1 min 0,000 mm 6,1 UV-I 849 W/m² 12,4 °C 19,4 °C 12,9 km/h (3 Bft)
03.07.2017 15:54 19,4 °C 19,4 °C 67 % 1021,1 hPa 0,0 mm 3,8 km/h (1 Bft) NW 320 ° 1 min 0,000 mm 2,8 UV-I 851 W/m² 13,1 °C 19,4 °C 6,4 km/h (2 Bft)
03.07.2017 15:55 19,3 °C 19,4 °C 67 % 1021,1 hPa 0,0 mm 3,9 km/h (1 Bft) W 263 ° 1 min 0,000 mm 2,6 UV-I 851 W/m² 13,0 °C 19,3 °C 8,0 km/h (2 Bft)
03.07.2017 15:56 19,2 °C 19,3 °C 66 % 1021,1 hPa 0,0 mm 8,3 km/h (2 Bft) W-NW 298 ° 0 min 0,000 mm 2,5 UV-I 107 W/m² 12,7 °C 19,2 °C 14,5 km/h (3 Bft)
03.07.2017 15:57 18,9 °C 19,2 °C 63 % 1021,1 hPa 0,0 mm 7,1 km/h (2 Bft) W 275 ° 0 min 0,000 mm 5,3 UV-I 153 W/m² 11,7 °C 18,9 °C 11,3 km/h (2 Bft)
03.07.2017 15:58 18,8 °C 18,9 °C 65 % 1021,0 hPa 0,0 mm 5,0 km/h (1 Bft) W-NW 286 ° 1 min 0,000 mm 5,7 UV-I 826 W/m² 12,1 °C 18,8 °C 8,0 km/h (2 Bft)
03.07.2017 15:59 18,8 °C 18,8 °C 67 % 1021,0 hPa 0,0 mm 4,4 km/h (1 Bft) W 264 ° 1 min 0,000 mm 5,9 UV-I 851 W/m² 12,5 °C 18,8 °C 6,4 km/h (2 Bft)
03.07.2017 16:00 18,8 °C 18,8 °C 66 % 1021,0 hPa 0,0 mm 11,5 km/h (2 Bft) W 273 ° 1 min 0,483 mm 5,7 UV-I 823 W/m² 12,3 °C 18,8 °C 16,1 km/h (3 Bft)
03.07.2017 16:01 18,8 °C 18,8 °C 66 % 1020,9 hPa 0,0 mm 8,3 km/h (2 Bft) W-SW 253 ° 1 min 0,000 mm 3,5 UV-I 823 W/m² 12,3 °C 18,8 °C 12,9 km/h (3 Bft)
03.07.2017 16:02 18,8 °C 18,8 °C 66 % 1020,9 hPa 0,0 mm 4,7 km/h (1 Bft) W 269 ° 1 min 0,000 mm 5,7 UV-I 823 W/m² 12,3 °C 18,8 °C 6,4 km/h (2 Bft)
03.07.2017 16:03 18,8 °C 18,8 °C 66 % 1020,9 hPa 0,0 mm 1,9 km/h (1 Bft) W 280 ° 1 min 0,000 mm 5,6 UV-I 830 W/m² 12,3 °C 18,8 °C 4,8 km/h (1 Bft)
03.07.2017 16:04 19,0 °C 19,0 °C 68 % 1020,9 hPa 0,0 mm 5,7 km/h (1 Bft) N 11 ° 1 min 0,000 mm 5,4 UV-I 773 W/m² 13,0 °C 19,0 °C 9,7 km/h (2 Bft)
03.07.2017 16:05 19,1 °C 19,1 °C 68 % 1020,9 hPa 0,0 mm 4,4 km/h (1 Bft) N 9 ° 1 min 0,000 mm 5,7 UV-I 838 W/m² 13,1 °C 19,1 °C 8,0 km/h (2 Bft)
03.07.2017 16:06 19,3 °C 19,3 °C 68 % 1021,0 hPa 0,0 mm 7,3 km/h (2 Bft) N-NO 12 ° 1 min 0,000 mm 5,8 UV-I 847 W/m² 13,2 °C 19,3 °C 11,3 km/h (2 Bft)
03.07.2017 16:07 19,3 °C 19,3 °C 63 % 1020,9 hPa 0,0 mm 4,7 km/h (1 Bft) NW 306 ° 1 min 0,000 mm 3,2 UV-I 847 W/m² 12,1 °C 19,3 °C 6,4 km/h (2 Bft)
03.07.2017 16:08 19,2 °C 19,3 °C 62 % 1020,9 hPa 0,0 mm 4,2 km/h (1 Bft) NO 34 ° 1 min 0,000 mm 2,6 UV-I 847 W/m² 11,7 °C 19,2 °C 6,4 km/h (2 Bft)
03.07.2017 16:09 19,1 °C 19,2 °C 64 % 1020,9 hPa 0,0 mm 3,9 km/h (1 Bft) W-NW 298 ° 0 min 0,000 mm 2,4 UV-I 148 W/m² 12,1 °C 19,1 °C 8,0 km/h (2 Bft)
03.07.2017 16:10 18,9 °C 19,1 °C 65 % 1021,0 hPa 0,0 mm 6,9 km/h (2 Bft) N-NW 332 ° 0 min 0,000 mm 2,3 UV-I 151 W/m² 12,2 °C 18,9 °C 11,3 km/h (2 Bft)
03.07.2017 16:11 18,8 °C 18,9 °C 66 % 1020,9 hPa 0,0 mm 6,1 km/h (2 Bft) W-NW 287 ° 0 min 0,000 mm 2,2 UV-I 160 W/m² 12,3 °C 18,8 °C 8,0 km/h (2 Bft)
03.07.2017 16:12 18,7 °C 18,8 °C 65 % 1020,9 hPa 0,0 mm 4,6 km/h (1 Bft) NW 306 ° 0 min 0,000 mm 2,2 UV-I 167 W/m² 12,0 °C 18,7 °C 8,0 km/h (2 Bft)
03.07.2017 16:13 18,6 °C 18,7 °C 66 % 1020,9 hPa 0,0 mm 5,2 km/h (1 Bft) N-NW 331 ° 0 min 0,000 mm 2,2 UV-I 179 W/m² 12,1 °C 18,6 °C 9,7 km/h (2 Bft)
03.07.2017 16:14 18,6 °C 18,6 °C 67 % 1020,9 hPa 0,0 mm 7,4 km/h (2 Bft) NW 314 ° 0 min 0,000 mm 2,3 UV-I 193 W/m² 12,3 °C 18,6 °C 11,3 km/h (2 Bft)
03.07.2017 16:15 18,5 °C 18,6 °C 66 % 1020,9 hPa 0,0 mm 7,1 km/h (2 Bft) W-NW 296 ° 0 min 0,000 mm 2,4 UV-I 216 W/m² 12,0 °C 18,5 °C 11,3 km/h (2 Bft)
03.07.2017 16:16 18,4 °C 18,5 °C 67 % 1020,9 hPa 0,0 mm 6,8 km/h (2 Bft) NW 315 ° 0 min 0,000 mm 2,4 UV-I 204 W/m² 12,2 °C 18,4 °C 11,3 km/h (2 Bft)
03.07.2017 16:17 18,4 °C 18,4 °C 66 % 1020,9 hPa 0,0 mm 6,7 km/h (2 Bft) NW 308 ° 0 min 0,000 mm 2,3 UV-I 199 W/m² 11,9 °C 18,4 °C 9,7 km/h (2 Bft)
03.07.2017 16:18 18,4 °C 18,4 °C 67 % 1020,9 hPa 0,0 mm 4,4 km/h (1 Bft) NW 313 ° 0 min 0,000 mm 2,3 UV-I 193 W/m² 12,2 °C 18,4 °C 6,4 km/h (2 Bft)
03.07.2017 16:19 18,4 °C 18,4 °C 68 % 1020,9 hPa 0,0 mm 3,4 km/h (1 Bft) NW 306 ° 0 min 0,000 mm 2,4 UV-I 207 W/m² 12,4 °C 18,4 °C 6,4 km/h (2 Bft)
03.07.2017 16:20 18,4 °C 18,4 °C 69 % 1020,9 hPa 0,0 mm 6,4 km/h (2 Bft) NW 323 ° 0 min 0,000 mm 2,5 UV-I 218 W/m² 12,6 °C 18,4 °C 11,3 km/h (2 Bft)
03.07.2017 16:21 18,6 °C 18,6 °C 70 % 1020,8 hPa 0,0 mm 4,9 km/h (1 Bft) NW 325 ° 0 min 0,000 mm 2,6 UV-I 193 W/m² 13,0 °C 18,6 °C 8,0 km/h (2 Bft)
03.07.2017 16:22 18,8 °C 18,8 °C 68 % 1020,8 hPa 0,0 mm 4,9 km/h (1 Bft) NW 309 ° 0 min 0,000 mm 2,6 UV-I 183 W/m² 12,8 °C 18,8 °C 6,4 km/h (2 Bft)
03.07.2017 16:23 18,8 °C 18,8 °C 67 % 1020,8 hPa 0,0 mm 3,5 km/h (1 Bft) N-NW 330 ° 0 min 0,000 mm 2,6 UV-I 192 W/m² 12,5 °C 18,8 °C 4,8 km/h (1 Bft)
03.07.2017 16:24 18,8 °C 18,8 °C 67 % 1020,8 hPa 0,0 mm 6,4 km/h (2 Bft) NW 326 ° 0 min 0,000 mm 2,5 UV-I 162 W/m² 12,5 °C 18,8 °C 9,7 km/h (2 Bft)
03.07.2017 16:25 19,0 °C 19,0 °C 67 % 1020,8 hPa 0,0 mm 6,0 km/h (2 Bft) N-NW 327 ° 0 min 0,000 mm 2,4 UV-I 132 W/m² 12,7 °C 19,0 °C 8,0 km/h (2 Bft)
03.07.2017 16:26 19,2 °C 19,2 °C 69 % 1020,7 hPa 0,0 mm 5,8 km/h (2 Bft) NW 319 ° 0 min 0,000 mm 2,3 UV-I 98 W/m² 13,4 °C 19,2 °C 8,0 km/h (2 Bft)
03.07.2017 16:27 19,3 °C 19,3 °C 68 % 1020,7 hPa 0,0 mm 5,2 km/h (1 Bft) NW 323 ° 0 min 0,000 mm 2,3 UV-I 95 W/m² 13,2 °C 19,3 °C 9,7 km/h (2 Bft)
03.07.2017 16:28 19,3 °C 19,3 °C 67 % 1020,7 hPa 0,0 mm 4,7 km/h (1 Bft) W-NW 302 ° 0 min 0,000 mm 2,2 UV-I 91 W/m² 13,0 °C 19,3 °C 6,4 km/h (2 Bft)
03.07.2017 16:29 19,4 °C 19,4 °C 65 % 1020,6 hPa 0,0 mm 5,7 km/h (1 Bft) W-NW 285 ° 0 min 0,000 mm 2,2 UV-I 91 W/m² 12,6 °C 19,4 °C 9,7 km/h (2 Bft)
03.07.2017 16:30 19,4 °C 19,4 °C 63 % 1020,6 hPa 0,0 mm 9,7 km/h (2 Bft) W-NW 290 ° 0 min 0,000 mm 2,2 UV-I 93 W/m² 12,2 °C 19,4 °C 14,5 km/h (3 Bft)
03.07.2017 16:31 19,4 °C 19,4 °C 64 % 1020,7 hPa 0,0 mm 7,3 km/h (2 Bft) S-SW 205 ° 0 min 0,000 mm 2,2 UV-I 97 W/m² 12,4 °C 19,4 °C 11,3 km/h (2 Bft)
03.07.2017 16:32 19,3 °C 19,4 °C 61 % 1020,6 hPa 0,0 mm 4,1 km/h (1 Bft) S 184 ° 0 min 0,000 mm 2,2 UV-I 102 W/m² 11,6 °C 19,3 °C 9,7 km/h (2 Bft)
03.07.2017 16:33 19,2 °C 19,3 °C 65 % 1020,6 hPa 0,0 mm 1,5 km/h (1 Bft) W-NW 290 ° 0 min 0,000 mm 2,3 UV-I 113 W/m² 12,5 °C 19,2 °C 3,2 km/h (1 Bft)
03.07.2017 16:34 19,2 °C 19,2 °C 63 % 1020,6 hPa 0,0 mm 3,6 km/h (1 Bft) W-SW 244 ° 0 min 0,000 mm 2,2 UV-I 114 W/m² 12,0 °C 19,2 °C 6,4 km/h (2 Bft)
03.07.2017 16:35 19,2 °C 19,2 °C 65 % 1020,6 hPa 0,0 mm 3,7 km/h (1 Bft) SW 224 ° 0 min 0,000 mm 2,2 UV-I 105 W/m² 12,5 °C 19,2 °C 8,0 km/h (2 Bft)
03.07.2017 16:36 19,1 °C 19,2 °C 62 % 1020,6 hPa 0,0 mm 2,7 km/h (1 Bft) W 280 ° 0 min 0,000 mm 2,1 UV-I 107 W/m² 11,6 °C 19,1 °C 11,3 km/h (2 Bft)
03.07.2017 16:37 18,9 °C 19,1 °C 64 % 1020,6 hPa 0,0 mm 7,8 km/h (2 Bft) W-NW 302 ° 0 min 0,000 mm 2,1 UV-I 109 W/m² 11,9 °C 18,9 °C 11,3 km/h (2 Bft)
03.07.2017 16:38 18,8 °C 18,9 °C 63 % 1020,6 hPa 0,0 mm 4,8 km/h (1 Bft) N-NW 329 ° 0 min 0,000 mm 2,0 UV-I 125 W/m² 11,6 °C 18,8 °C 6,4 km/h (2 Bft)
03.07.2017 16:39 18,8 °C 18,8 °C 64 % 1020,6 hPa 0,0 mm 3,7 km/h (1 Bft) NW 306 ° 0 min 0,000 mm 2,0 UV-I 134 W/m² 11,8 °C 18,8 °C 4,8 km/h (1 Bft)
03.07.2017 16:40 18,7 °C 18,8 °C 65 % 1020,6 hPa 0,0 mm 5,1 km/h (1 Bft) W-NW 286 ° 0 min 0,000 mm 2,1 UV-I 144 W/m² 12,0 °C 18,7 °C 11,3 km/h (2 Bft)
03.07.2017 16:41 18,7 °C 18,7 °C 66 % 1020,6 hPa 0,0 mm 6,0 km/h (2 Bft) NW 311 ° 0 min 0,000 mm 2,1 UV-I 158 W/m² 12,2 °C 18,7 °C 9,7 km/h (2 Bft)
03.07.2017 16:42 18,6 °C 18,7 °C 65 % 1020,6 hPa 0,0 mm 4,1 km/h (1 Bft) W-NW 294 ° 0 min 0,000 mm 2,1 UV-I 167 W/m² 11,9 °C 18,6 °C 6,4 km/h (2 Bft)
03.07.2017 16:43 18,6 °C 18,6 °C 66 % 1020,6 hPa 0,0 mm 3,8 km/h (1 Bft) W 265 ° 0 min 0,000 mm 2,1 UV-I 174 W/m² 12,1 °C 18,6 °C 4,8 km/h (1 Bft)
03.07.2017 16:44 18,6 °C 18,6 °C 66 % 1020,6 hPa 0,0 mm 4,3 km/h (1 Bft) W 280 ° 0 min 0,000 mm 2,2 UV-I 181 W/m² 12,1 °C 18,6 °C 9,7 km/h (2 Bft)
03.07.2017 16:45 18,6 °C 18,6 °C 68 % 1020,6 hPa 0,0 mm 5,5 km/h (1 Bft) W 281 ° 0 min 0,000 mm 2,1 UV-I 178 W/m² 12,6 °C 18,6 °C 9,7 km/h (2 Bft)
03.07.2017 16:46 18,5 °C 18,6 °C 67 % 1020,6 hPa 0,0 mm 6,6 km/h (2 Bft) W 269 ° 0 min 0,000 mm 2,1 UV-I 171 W/m² 12,3 °C 18,5 °C 11,3 km/h (2 Bft)
03.07.2017 16:47 18,6 °C 18,6 °C 68 % 1020,6 hPa 0,0 mm 3,0 km/h (1 Bft) W-NW 289 ° 0 min 0,000 mm 2,0 UV-I 165 W/m² 12,6 °C 18,6 °C 4,8 km/h (1 Bft)
03.07.2017 16:48 18,6 °C 18,6 °C 67 % 1020,6 hPa 0,0 mm 5,0 km/h (1 Bft) W-NW 284 ° 0 min 0,000 mm 2,0 UV-I 163 W/m² 12,3 °C 18,6 °C 8,0 km/h (2 Bft)
03.07.2017 16:49 18,6 °C 18,6 °C 69 % 1020,6 hPa 0,0 mm 3,1 km/h (1 Bft) W 267 ° 0 min 0,000 mm 2,0 UV-I 163 W/m² 12,8 °C 18,6 °C 4,8 km/h (1 Bft)
03.07.2017 16:50 18,6 °C 18,6 °C 68 % 1020,6 hPa 0,0 mm 2,5 km/h (1 Bft) W-NW 286 ° 0 min 0,000 mm 2,0 UV-I 169 W/m² 12,6 °C 18,6 °C 9,7 km/h (2 Bft)
03.07.2017 16:51 18,5 °C 18,6 °C 68 % 1020,6 hPa 0,0 mm 8,5 km/h (2 Bft) W-NW 290 ° 0 min 0,000 mm 2,0 UV-I 171 W/m² 12,5 °C 18,5 °C 12,9 km/h (3 Bft)
03.07.2017 16:52 18,4 °C 18,5 °C 65 % 1020,5 hPa 0,0 mm 6,0 km/h (2 Bft) W-NW 283 ° 0 min 0,000 mm 2,0 UV-I 174 W/m² 11,7 °C 18,4 °C 9,7 km/h (2 Bft)
03.07.2017 16:53 18,4 °C 18,4 °C 65 % 1020,5 hPa 0,0 mm 6,6 km/h (2 Bft) W-NW 299 ° 0 min 0,000 mm 2,1 UV-I 179 W/m² 11,7 °C 18,4 °C 11,3 km/h (2 Bft)
03.07.2017 16:54 18,4 °C 18,4 °C 69 % 1020,5 hPa 0,0 mm 5,1 km/h (1 Bft) W-NW 295 ° 0 min 0,000 mm 2,1 UV-I 190 W/m² 12,6 °C 18,4 °C 9,7 km/h (2 Bft)
03.07.2017 16:55 18,4 °C 18,4 °C 67 % 1020,5 hPa 0,0 mm 8,2 km/h (2 Bft) W-SW 257 ° 0 min 0,000 mm 2,3 UV-I 204 W/m² 12,2 °C 18,4 °C 12,9 km/h (3 Bft)
03.07.2017 16:56 18,6 °C 18,6 °C 69 % 1020,5 hPa 0,0 mm 7,9 km/h (2 Bft) W 272 ° 0 min 0,000 mm 2,3 UV-I 171 W/m² 12,8 °C 18,6 °C 11,3 km/h (2 Bft)
03.07.2017 16:57 18,8 °C 18,8 °C 68 % 1020,5 hPa 0,0 mm 6,4 km/h (2 Bft) W 280 ° 0 min 0,000 mm 2,2 UV-I 156 W/m² 12,8 °C 18,8 °C 9,7 km/h (2 Bft)
03.07.2017 16:58 18,9 °C 18,9 °C 69 % 1020,5 hPa 0,0 mm 7,8 km/h (2 Bft) W 267 ° 0 min 0,000 mm 2,2 UV-I 155 W/m² 13,1 °C 18,9 °C 11,3 km/h (2 Bft)
03.07.2017 16:59 19,0 °C 19,0 °C 65 % 1020,5 hPa 0,0 mm 5,7 km/h (1 Bft) W-SW 241 ° 0 min 0,000 mm 2,1 UV-I 144 W/m² 12,3 °C 19,0 °C 6,4 km/h (2 Bft)
03.07.2017 17:00 19,2 °C 19,2 °C 63 % 1020,5 hPa 0,0 mm 6,3 km/h (2 Bft) W 269 ° 0 min 0,000 mm 2,1 UV-I 128 W/m² 12,0 °C 19,2 °C 8,0 km/h (2 Bft)
03.07.2017 17:01 19,2 °C 19,2 °C 65 % 1020,4 hPa 0,0 mm 5,4 km/h (1 Bft) W-SW 248 ° 0 min 0,152 mm 2,1 UV-I 123 W/m² 12,5 °C 19,2 °C 8,0 km/h (2 Bft)
03.07.2017 17:02 19,3 °C 19,3 °C 63 % 1020,5 hPa 0,0 mm 5,2 km/h (1 Bft) W 270 ° 0 min 0,000 mm 2,0 UV-I 125 W/m² 12,1 °C 19,3 °C 12,9 km/h (3 Bft)
03.07.2017 17:03 19,4 °C 19,4 °C 63 % 1020,4 hPa 0,0 mm 5,6 km/h (1 Bft) W 264 ° 0 min 0,000 mm 2,0 UV-I 127 W/m² 12,2 °C 19,4 °C 11,3 km/h (2 Bft)
03.07.2017 17:04 19,4 °C 19,4 °C 61 % 1020,4 hPa 0,0 mm 6,0 km/h (2 Bft) W 277 ° 0 min 0,000 mm 2,0 UV-I 118 W/m² 11,7 °C 19,4 °C 9,7 km/h (2 Bft)
03.07.2017 17:05 19,4 °C 19,4 °C 60 % 1020,4 hPa 0,0 mm 5,5 km/h (1 Bft) W-NW 303 ° 0 min 0,000 mm 2,0 UV-I 127 W/m² 11,4 °C 19,4 °C 9,7 km/h (2 Bft)
03.07.2017 17:06 19,3 °C 19,4 °C 61 % 1020,4 hPa 0,0 mm 6,9 km/h (2 Bft) S-SW 204 ° 0 min 0,000 mm 1,9 UV-I 134 W/m² 11,6 °C 19,3 °C 11,3 km/h (2 Bft)
03.07.2017 17:07 19,2 °C 19,3 °C 60 % 1020,4 hPa 0,0 mm 6,7 km/h (2 Bft) W-SW 238 ° 0 min 0,000 mm 2,0 UV-I 141 W/m² 11,2 °C 19,2 °C 9,7 km/h (2 Bft)
03.07.2017 17:08 19,0 °C 19,2 °C 61 % 1020,4 hPa 0,0 mm 5,6 km/h (1 Bft) W-SW 252 ° 0 min 0,000 mm 2,0 UV-I 158 W/m² 11,3 °C 19,0 °C 9,7 km/h (2 Bft)
03.07.2017 17:09 18,9 °C 19,0 °C 63 % 1020,4 hPa 0,0 mm 1,7 km/h (1 Bft) W 262 ° 0 min 0,000 mm 2,0 UV-I 146 W/m² 11,7 °C 18,9 °C 4,8 km/h (1 Bft)
03.07.2017 17:10 18,8 °C 18,9 °C 64 % 1020,4 hPa 0,0 mm 5,2 km/h (1 Bft) W 267 ° 0 min 0,000 mm 2,0 UV-I 128 W/m² 11,8 °C 18,8 °C 9,7 km/h (2 Bft)
03.07.2017 17:11 18,8 °C 18,8 °C 66 % 1020,3 hPa 0,0 mm 6,5 km/h (2 Bft) W 259 ° 0 min 0,000 mm 1,9 UV-I 114 W/m² 12,3 °C 18,8 °C 11,3 km/h (2 Bft)
03.07.2017 17:12 18,7 °C 18,8 °C 65 % 1020,3 hPa 0,0 mm 3,7 km/h (1 Bft) S 190 ° 0 min 0,000 mm 1,8 UV-I 114 W/m² 12,0 °C 18,7 °C 6,4 km/h (2 Bft)
03.07.2017 17:13 18,7 °C 18,7 °C 65 % 1020,4 hPa 0,0 mm 1,9 km/h (1 Bft) S-SW 200 ° 0 min 0,000 mm 1,8 UV-I 121 W/m² 12,0 °C 18,7 °C 3,2 km/h (1 Bft)
03.07.2017 17:14 18,6 °C 18,7 °C 63 % 1020,4 hPa 0,0 mm 1,5 km/h (1 Bft) W-SW 256 ° 0 min 0,000 mm 1,8 UV-I 121 W/m² 11,4 °C 18,6 °C 4,8 km/h (1 Bft)
03.07.2017 17:15 18,5 °C 18,6 °C 65 % 1020,4 hPa 0,0 mm 4,6 km/h (1 Bft) W-SW 257 ° 0 min 0,000 mm 1,7 UV-I 125 W/m² 11,8 °C 18,5 °C 6,4 km/h (2 Bft)
03.07.2017 17:16 18,5 °C 18,6 °C 67 % 1020,4 hPa 0,0 mm 5,3 km/h (1 Bft) S 190 ° 0 min 0,000 mm 1,7 UV-I 128 W/m² 12,3 °C 18,5 °C 6,4 km/h (2 Bft)
03.07.2017 17:17 18,4 °C 18,5 °C 66 % 1020,4 hPa 0,0 mm 6,0 km/h (2 Bft) S 184 ° 0 min 0,000 mm 1,8 UV-I 151 W/m² 11,9 °C 18,4 °C 9,7 km/h (2 Bft)
03.07.2017 17:18 18,6 °C 18,6 °C 67 % 1020,4 hPa 0,0 mm 5,1 km/h (1 Bft) W 277 ° 0 min 0,000 mm 1,9 UV-I 167 W/m² 12,3 °C 18,6 °C 11,3 km/h (2 Bft)
03.07.2017 17:19 18,7 °C 18,7 °C 63 % 1020,4 hPa 0,0 mm 6,9 km/h (2 Bft) W-NW 292 ° 0 min 0,000 mm 2,0 UV-I 162 W/m² 11,5 °C 18,7 °C 14,5 km/h (3 Bft)
03.07.2017 17:20 18,8 °C 18,8 °C 62 % 1020,4 hPa 0,0 mm 6,3 km/h (2 Bft) W-SW 253 ° 0 min 0,000 mm 2,0 UV-I 151 W/m² 11,4 °C 18,8 °C 11,3 km/h (2 Bft)
03.07.2017 17:21 18,8 °C 18,8 °C 64 % 1020,3 hPa 0,0 mm 5,4 km/h (1 Bft) W 263 ° 0 min 0,000 mm 2,0 UV-I 142 W/m² 11,8 °C 18,8 °C 9,7 km/h (2 Bft)
03.07.2017 17:22 18,9 °C 18,9 °C 65 % 1020,3 hPa 0,0 mm 7,6 km/h (2 Bft) W-SW 258 ° 0 min 0,000 mm 1,9 UV-I 132 W/m² 12,2 °C 18,9 °C 11,3 km/h (2 Bft)
03.07.2017 17:23 19,1 °C 19,1 °C 65 % 1020,3 hPa 0,0 mm 5,6 km/h (1 Bft) W 279 ° 0 min 0,000 mm 1,9 UV-I 125 W/m² 12,4 °C 19,1 °C 8,0 km/h (2 Bft)
03.07.2017 17:24 19,2 °C 19,2 °C 64 % 1020,3 hPa 0,0 mm 5,6 km/h (1 Bft) W 281 ° 0 min 0,000 mm 1,9 UV-I 114 W/m² 12,2 °C 19,2 °C 9,7 km/h (2 Bft)
03.07.2017 17:25 19,3 °C 19,3 °C 65 % 1020,3 hPa 0,0 mm 5,7 km/h (1 Bft) W-SW 251 ° 0 min 0,000 mm 1,9 UV-I 104 W/m² 12,6 °C 19,3 °C 8,0 km/h (2 Bft)
03.07.2017 17:26 19,3 °C 19,3 °C 61 % 1020,3 hPa 0,0 mm 4,0 km/h (1 Bft) W-NW 291 ° 0 min 0,000 mm 1,8 UV-I 86 W/m² 11,6 °C 19,3 °C 6,4 km/h (2 Bft)
03.07.2017 17:27 19,4 °C 19,4 °C 66 % 1020,3 hPa 0,0 mm 5,7 km/h (1 Bft) W-SW 252 ° 0 min 0,000 mm 1,8 UV-I 76 W/m² 12,9 °C 19,4 °C 6,4 km/h (2 Bft)
03.07.2017 17:28 19,4 °C 19,5 °C 61 % 1020,3 hPa 0,0 mm 4,8 km/h (1 Bft) S-SW 196 ° 0 min 0,000 mm 1,7 UV-I 76 W/m² 11,7 °C 19,4 °C 6,4 km/h (2 Bft)
03.07.2017 17:29 19,4 °C 19,5 °C 61 % 1020,3 hPa 0,0 mm 4,2 km/h (1 Bft) S-SW 209 ° 0 min 0,000 mm 1,7 UV-I 76 W/m² 11,7 °C 19,4 °C 6,4 km/h (2 Bft)
03.07.2017 17:30 19,4 °C 19,4 °C 62 % 1020,3 hPa 0,0 mm 1,2 km/h (1 Bft) S-SW 209 ° 0 min 0,000 mm 1,7 UV-I 69 W/m² 11,9 °C 19,4 °C 3,2 km/h (1 Bft)
03.07.2017 17:31 19,3 °C 19,4 °C 63 % 1020,3 hPa 0,0 mm 4,4 km/h (1 Bft) W 267 ° 0 min 0,000 mm 1,7 UV-I 86 W/m² 12,1 °C 19,3 °C 11,3 km/h (2 Bft)
03.07.2017 17:32 19,3 °C 19,3 °C 66 % 1020,3 hPa 0,0 mm 8,6 km/h (2 Bft) NW 310 ° 0 min 0,000 mm 1,7 UV-I 88 W/m² 12,8 °C 19,3 °C 16,1 km/h (3 Bft)
03.07.2017 17:33 19,4 °C 19,4 °C 63 % 1020,3 hPa 0,0 mm 10,7 km/h (2 Bft) W 270 ° 0 min 0,000 mm 1,7 UV-I 86 W/m² 12,2 °C 19,4 °C 12,9 km/h (3 Bft)
03.07.2017 17:34 19,4 °C 19,4 °C 60 % 1020,2 hPa 0,0 mm 7,7 km/h (2 Bft) W-SW 246 ° 0 min 0,000 mm 1,7 UV-I 83 W/m² 11,4 °C 19,4 °C 14,5 km/h (3 Bft)
03.07.2017 17:35 19,5 °C 19,5 °C 61 % 1020,2 hPa 0,0 mm 11,5 km/h (2 Bft) W 274 ° 0 min 0,000 mm 1,6 UV-I 91 W/m² 11,8 °C 19,5 °C 17,7 km/h (3 Bft)
03.07.2017 17:36 19,5 °C 19,5 °C 61 % 1020,1 hPa 0,0 mm 8,3 km/h (2 Bft) W 261 ° 0 min 0,000 mm 1,6 UV-I 100 W/m² 11,8 °C 19,5 °C 12,9 km/h (3 Bft)
03.07.2017 17:37 19,5 °C 19,5 °C 58 % 1020,3 hPa 0,0 mm 11,5 km/h (2 Bft) W-NW 290 ° 0 min 0,000 mm 1,6 UV-I 125 W/m² 11,0 °C 19,5 °C 14,5 km/h (3 Bft)
03.07.2017 17:38 19,6 °C 19,6 °C 61 % 1020,3 hPa 0,0 mm 8,1 km/h (2 Bft) W 271 ° 0 min 0,000 mm 1,7 UV-I 125 W/m² 11,9 °C 19,6 °C 12,9 km/h (3 Bft)
03.07.2017 17:39 19,6 °C 19,6 °C 62 % 1020,2 hPa 0,0 mm 7,8 km/h (2 Bft) W 264 ° 0 min 0,000 mm 1,7 UV-I 127 W/m² 12,1 °C 19,6 °C 12,9 km/h (3 Bft)
03.07.2017 17:40 19,6 °C 19,6 °C 61 % 1020,1 hPa 0,0 mm 8,7 km/h (2 Bft) W-NW 287 ° 0 min 0,000 mm 1,7 UV-I 125 W/m² 11,9 °C 19,6 °C 12,9 km/h (3 Bft)
03.07.2017 17:41 19,5 °C 19,6 °C 62 % 1020,1 hPa 0,0 mm 5,4 km/h (1 Bft) W-NW 302 ° 0 min 0,000 mm 1,6 UV-I 118 W/m² 12,0 °C 19,5 °C 8,0 km/h (2 Bft)
03.07.2017 17:42 19,4 °C 19,5 °C 62 % 1020,1 hPa 0,0 mm 6,3 km/h (2 Bft) W-NW 286 ° 0 min 0,000 mm 1,6 UV-I 114 W/m² 11,9 °C 19,4 °C 11,3 km/h (2 Bft)
03.07.2017 17:43 19,4 °C 19,4 °C 64 % 1020,1 hPa 0,0 mm 5,0 km/h (1 Bft) NW 304 ° 0 min 0,000 mm 1,6 UV-I 116 W/m² 12,4 °C 19,4 °C 6,4 km/h (2 Bft)
03.07.2017 17:44 19,4 °C 19,4 °C 65 % 1020,1 hPa 0,0 mm 4,4 km/h (1 Bft) W-NW 284 ° 0 min 0,000 mm 1,6 UV-I 127 W/m² 12,6 °C 19,4 °C 6,4 km/h (2 Bft)
03.07.2017 17:45 19,5 °C 19,5 °C 62 % 1020,2 hPa 0,0 mm 3,7 km/h (1 Bft) W 261 ° 0 min 0,000 mm 1,7 UV-I 132 W/m² 12,0 °C 19,5 °C 11,3 km/h (2 Bft)
03.07.2017 17:46 19,6 °C 19,6 °C 64 % 1020,1 hPa 0,0 mm 7,9 km/h (2 Bft) W-NW 299 ° 0 min 0,000 mm 1,6 UV-I 120 W/m² 12,6 °C 19,6 °C 11,3 km/h (2 Bft)
03.07.2017 17:47 19,6 °C 19,6 °C 63 % 1020,1 hPa 0,0 mm 6,0 km/h (2 Bft) W-NW 282 ° 0 min 0,000 mm 1,6 UV-I 109 W/m² 12,4 °C 19,6 °C 11,3 km/h (2 Bft)
03.07.2017 17:48 19,6 °C 19,6 °C 62 % 1020,1 hPa 0,0 mm 6,2 km/h (2 Bft) W 268 ° 0 min 0,000 mm 1,6 UV-I 100 W/m² 12,1 °C 19,6 °C 9,7 km/h (2 Bft)
03.07.2017 17:49 19,5 °C 19,6 °C 62 % 1020,1 hPa 0,0 mm 4,9 km/h (1 Bft) W-SW 255 ° 0 min 0,000 mm 1,6 UV-I 104 W/m² 12,0 °C 19,5 °C 6,4 km/h (2 Bft)
03.07.2017 17:50 19,4 °C 19,5 °C 61 % 1020,1 hPa 0,0 mm 6,3 km/h (2 Bft) W-SW 242 ° 0 min 0,000 mm 1,6 UV-I 109 W/m² 11,7 °C 19,4 °C 9,7 km/h (2 Bft)
03.07.2017 17:51 19,4 °C 19,4 °C 63 % 1020,1 hPa 0,0 mm 8,8 km/h (2 Bft) W-NW 283 ° 0 min 0,000 mm 1,6 UV-I 97 W/m² 12,2 °C 19,4 °C 12,9 km/h (3 Bft)
03.07.2017 17:52 19,3 °C 19,4 °C 63 % 1020,1 hPa 0,0 mm 6,2 km/h (2 Bft) W-NW 287 ° 0 min 0,000 mm 1,6 UV-I 86 W/m² 12,1 °C 19,3 °C 9,7 km/h (2 Bft)
03.07.2017 17:53 19,2 °C 19,3 °C 64 % 1020,1 hPa 0,0 mm 3,7 km/h (1 Bft) W 259 ° 0 min 0,000 mm 1,5 UV-I 81 W/m² 12,2 °C 19,2 °C 6,4 km/h (2 Bft)
03.07.2017 17:54 19,1 °C 19,2 °C 61 % 1020,1 hPa 0,0 mm 2,6 km/h (1 Bft) W 259 ° 0 min 0,000 mm 1,5 UV-I 69 W/m² 11,4 °C 19,1 °C 3,2 km/h (1 Bft)
03.07.2017 17:55 19,0 °C 19,1 °C 62 % 1020,1 hPa 0,0 mm 2,4 km/h (1 Bft) W 261 ° 0 min 0,000 mm 1,5 UV-I 69 W/m² 11,6 °C 19,0 °C 4,8 km/h (1 Bft)
03.07.2017 17:56 18,9 °C 19,0 °C 62 % 1020,1 hPa 0,0 mm 1,5 km/h (1 Bft) W 261 ° 0 min 0,000 mm 1,5 UV-I 84 W/m² 11,5 °C 18,9 °C 3,2 km/h (1 Bft)
03.07.2017 17:57 18,8 °C 18,9 °C 65 % 1020,1 hPa 0,0 mm 3,0 km/h (1 Bft) W 261 ° 0 min 0,000 mm 1,5 UV-I 81 W/m² 12,1 °C 18,8 °C 4,8 km/h (1 Bft)
03.07.2017 17:58 18,7 °C 18,8 °C 64 % 1020,1 hPa 0,0 mm 3,8 km/h (1 Bft) W 261 ° 0 min 0,000 mm 1,5 UV-I 81 W/m² 11,7 °C 18,7 °C 9,7 km/h (2 Bft)
03.07.2017 17:59 18,7 °C 18,7 °C 63 % 1020,1 hPa 0,0 mm 3,9 km/h (1 Bft) W 262 ° 0 min 0,000 mm 1,5 UV-I 79 W/m² 11,5 °C 18,7 °C 4,8 km/h (1 Bft)
03.07.2017 18:00 18,7 °C 18,7 °C 62 % 1020,1 hPa 0,0 mm 4,1 km/h (1 Bft) W 277 ° 0 min 0,000 mm 1,4 UV-I 76 W/m² 11,3 °C 18,7 °C 6,4 km/h (2 Bft)
03.07.2017 18:01 18,7 °C 18,7 °C 64 % 1020,1 hPa 0,0 mm 1,4 km/h (1 Bft) W 264 ° 0 min 0,102 mm 1,4 UV-I 81 W/m² 11,7 °C 18,7 °C 3,2 km/h (1 Bft)
03.07.2017 18:02 18,7 °C 18,7 °C 63 % 1020,1 hPa 0,0 mm 3,8 km/h (1 Bft) W-NW 296 ° 0 min 0,000 mm 1,4 UV-I 70 W/m² 11,5 °C 18,7 °C 9,7 km/h (2 Bft)
03.07.2017 18:03 18,8 °C 18,8 °C 63 % 1020,1 hPa 0,0 mm 5,0 km/h (1 Bft) W-NW 292 ° 0 min 0,000 mm 1,4 UV-I 72 W/m² 11,6 °C 18,8 °C 6,4 km/h (2 Bft)
03.07.2017 18:04 18,9 °C 18,9 °C 64 % 1020,1 hPa 0,0 mm 10,7 km/h (2 Bft) W 265 ° 0 min 0,000 mm 1,4 UV-I 83 W/m² 11,9 °C 18,9 °C 14,5 km/h (3 Bft)
03.07.2017 18:05 19,0 °C 19,0 °C 63 % 1020,1 hPa 0,0 mm 6,6 km/h (2 Bft) N-NW 334 ° 0 min 0,000 mm 1,4 UV-I 84 W/m² 11,8 °C 19,0 °C 9,7 km/h (2 Bft)
03.07.2017 18:06 19,2 °C 19,2 °C 64 % 1020,1 hPa 0,0 mm 7,4 km/h (2 Bft) W-SW 252 ° 0 min 0,000 mm 1,4 UV-I 100 W/m² 12,2 °C 19,2 °C 14,5 km/h (3 Bft)
03.07.2017 18:07 19,3 °C 19,3 °C 61 % 1020,1 hPa 0,0 mm 9,1 km/h (2 Bft) W-NW 284 ° 0 min 0,000 mm 1,4 UV-I 107 W/m² 11,6 °C 19,3 °C 11,3 km/h (2 Bft)
03.07.2017 18:08 19,4 °C 19,4 °C 60 % 1020,1 hPa 0,0 mm 7,6 km/h (2 Bft) W 271 ° 0 min 0,000 mm 1,4 UV-I 104 W/m² 11,4 °C 19,4 °C 12,9 km/h (3 Bft)
03.07.2017 18:09 19,5 °C 19,5 °C 60 % 1020,0 hPa 0,0 mm 8,7 km/h (2 Bft) NW 317 ° 0 min 0,000 mm 1,4 UV-I 118 W/m² 11,5 °C 19,5 °C 12,9 km/h (3 Bft)
03.07.2017 18:10 19,7 °C 19,7 °C 59 % 1020,0 hPa 0,0 mm 6,5 km/h (2 Bft) W 276 ° 0 min 0,000 mm 1,4 UV-I 118 W/m² 11,5 °C 19,7 °C 12,9 km/h (3 Bft)
03.07.2017 18:11 19,7 °C 19,7 °C 58 % 1020,0 hPa 0,0 mm 4,7 km/h (1 Bft) NW 315 ° 0 min 0,000 mm 1,4 UV-I 105 W/m² 11,2 °C 19,7 °C 6,4 km/h (2 Bft)
03.07.2017 18:12 19,7 °C 19,7 °C 60 % 1020,0 hPa 0,0 mm 5,3 km/h (1 Bft) W 271 ° 0 min 0,000 mm 1,4 UV-I 104 W/m² 11,7 °C 19,7 °C 9,7 km/h (2 Bft)
03.07.2017 18:13 19,8 °C 19,8 °C 59 % 1020,0 hPa 0,0 mm 5,8 km/h (2 Bft) N-NW 344 ° 0 min 0,000 mm 1,4 UV-I 113 W/m² 11,6 °C 19,8 °C 9,7 km/h (2 Bft)
03.07.2017 18:14 19,8 °C 19,8 °C 59 % 1020,0 hPa 0,0 mm 6,3 km/h (2 Bft) W 271 ° 0 min 0,000 mm 1,4 UV-I 104 W/m² 11,6 °C 19,8 °C 14,5 km/h (3 Bft)
03.07.2017 18:15 19,8 °C 19,8 °C 61 % 1020,0 hPa 0,0 mm 13,2 km/h (3 Bft) W-SW 254 ° 0 min 0,000 mm 1,4 UV-I 93 W/m² 12,1 °C 19,8 °C 17,7 km/h (3 Bft)
03.07.2017 18:16 19,8 °C 19,8 °C 59 % 1020,0 hPa 0,0 mm 6,1 km/h (2 Bft) N-NW 344 ° 0 min 0,000 mm 1,3 UV-I 84 W/m² 11,6 °C 19,8 °C 11,3 km/h (2 Bft)
03.07.2017 18:17 19,8 °C 19,8 °C 59 % 1020,0 hPa 0,0 mm 5,5 km/h (1 Bft) W-NW 288 ° 0 min 0,000 mm 1,3 UV-I 79 W/m² 11,6 °C 19,8 °C 11,3 km/h (2 Bft)
03.07.2017 18:18 19,8 °C 19,8 °C 59 % 1020,0 hPa 0,0 mm 12,1 km/h (2 Bft) W 262 ° 0 min 0,000 mm 1,3 UV-I 67 W/m² 11,6 °C 19,8 °C 14,5 km/h (3 Bft)
03.07.2017 18:19 19,7 °C 19,8 °C 58 % 1020,0 hPa 0,0 mm 10,3 km/h (2 Bft) W 278 ° 0 min 0,000 mm 1,3 UV-I 65 W/m² 11,2 °C 19,7 °C 14,5 km/h (3 Bft)
03.07.2017 18:20 19,7 °C 19,7 °C 59 % 1020,0 hPa 0,0 mm 6,3 km/h (2 Bft) W-NW 292 ° 0 min 0,000 mm 1,3 UV-I 63 W/m² 11,5 °C 19,7 °C 11,3 km/h (2 Bft)
03.07.2017 18:21 19,7 °C 19,7 °C 62 % 1020,0 hPa 0,0 mm 7,4 km/h (2 Bft) W 277 ° 0 min 0,000 mm 0,0 UV-I 53 W/m² 12,2 °C 19,7 °C 12,9 km/h (3 Bft)
03.07.2017 18:22 19,7 °C 19,7 °C 59 % 1019,9 hPa 0,0 mm 11,3 km/h (2 Bft) W 262 ° 0 min 0,000 mm 1,3 UV-I 62 W/m² 11,5 °C 19,7 °C 14,5 km/h (3 Bft)
03.07.2017 18:23 19,6 °C 19,7 °C 60 % 1020,0 hPa 0,0 mm 7,0 km/h (2 Bft) W-SW 248 ° 0 min 0,000 mm 0,0 UV-I 49 W/m² 11,6 °C 19,6 °C 12,9 km/h (3 Bft)
03.07.2017 18:24 19,6 °C 19,6 °C 61 % 1019,9 hPa 0,0 mm 3,5 km/h (1 Bft) W-NW 282 ° 0 min 0,000 mm 1,2 UV-I 58 W/m² 11,9 °C 19,6 °C 9,7 km/h (2 Bft)
03.07.2017 18:25 19,5 °C 19,6 °C 62 % 1019,9 hPa 0,0 mm 2,3 km/h (1 Bft) W 267 ° 0 min 0,000 mm 1,2 UV-I 58 W/m² 12,0 °C 19,5 °C 3,2 km/h (1 Bft)
03.07.2017 18:26 19,4 °C 19,5 °C 64 % 1020,0 hPa 0,0 mm 4,0 km/h (1 Bft) W 265 ° 0 min 0,000 mm 1,2 UV-I 56 W/m² 12,4 °C 19,4 °C 6,4 km/h (2 Bft)
03.07.2017 18:27 19,4 °C 19,4 °C 62 % 1019,9 hPa 0,0 mm 4,2 km/h (1 Bft) W 264 ° 0 min 0,000 mm 0,0 UV-I 51 W/m² 11,9 °C 19,4 °C 6,4 km/h (2 Bft)
03.07.2017 18:28 19,3 °C 19,4 °C 59 % 1019,9 hPa 0,0 mm 3,7 km/h (1 Bft) W 265 ° 0 min 0,000 mm 0,0 UV-I 51 W/m² 11,1 °C 19,3 °C 6,4 km/h (2 Bft)
03.07.2017 18:29 19,2 °C 19,3 °C 62 % 1019,9 hPa 0,0 mm 7,6 km/h (2 Bft) W-SW 256 ° 0 min 0,000 mm 0,0 UV-I 54 W/m² 11,7 °C 19,2 °C 11,3 km/h (2 Bft)
03.07.2017 18:30 19,1 °C 19,2 °C 61 % 1020,0 hPa 0,0 mm 3,1 km/h (1 Bft) W 273 ° 0 min 0,000 mm 1,2 UV-I 65 W/m² 11,4 °C 19,1 °C 6,4 km/h (2 Bft)
03.07.2017 18:31 18,9 °C 19,1 °C 62 % 1020,0 hPa 0,0 mm 3,4 km/h (1 Bft) W-NW 294 ° 0 min 0,000 mm 1,2 UV-I 65 W/m² 11,5 °C 18,9 °C 4,8 km/h (1 Bft)
03.07.2017 18:32 18,7 °C 18,9 °C 64 % 1020,0 hPa 0,0 mm 3,4 km/h (1 Bft) W-NW 292 ° 0 min 0,000 mm 1,2 UV-I 70 W/m² 11,7 °C 18,7 °C 4,8 km/h (1 Bft)
03.07.2017 18:33 18,6 °C 18,7 °C 64 % 1020,0 hPa 0,0 mm 2,4 km/h (1 Bft) W-SW 242 ° 0 min 0,000 mm 1,2 UV-I 77 W/m² 11,7 °C 18,6 °C 6,4 km/h (2 Bft)
03.07.2017 18:34 18,5 °C 18,6 °C 64 % 1019,9 hPa 0,0 mm 5,3 km/h (1 Bft) W 269 ° 0 min 0,000 mm 1,3 UV-I 84 W/m² 11,6 °C 18,5 °C 9,7 km/h (2 Bft)
03.07.2017 18:35 18,4 °C 18,5 °C 66 % 1019,9 hPa 0,0 mm 2,5 km/h (1 Bft) W-SW 248 ° 0 min 0,000 mm 1,2 UV-I 84 W/m² 11,9 °C 18,4 °C 4,8 km/h (1 Bft)
03.07.2017 18:36 18,4 °C 18,4 °C 64 % 1020,0 hPa 0,0 mm 2,2 km/h (1 Bft) W-SW 248 ° 0 min 0,000 mm 1,2 UV-I 76 W/m² 11,5 °C 18,4 °C 3,2 km/h (1 Bft)
03.07.2017 18:37 18,3 °C 18,4 °C 64 % 1020,0 hPa 0,0 mm 1,0 km/h (0 Bft) W-SW 250 ° 0 min 0,000 mm 1,3 UV-I 93 W/m² 11,4 °C 18,3 °C 3,2 km/h (1 Bft)
03.07.2017 18:38 18,3 °C 18,3 °C 66 % 1020,0 hPa 0,0 mm 5,8 km/h (2 Bft) W 265 ° 0 min 0,000 mm 1,2 UV-I 77 W/m² 11,8 °C 18,3 °C 9,7 km/h (2 Bft)
03.07.2017 18:39 18,3 °C 18,3 °C 66 % 1020,0 hPa 0,0 mm 3,9 km/h (1 Bft) W 264 ° 0 min 0,000 mm 1,3 UV-I 149 W/m² 11,8 °C 18,3 °C 6,4 km/h (2 Bft)
03.07.2017 18:40 18,3 °C 18,3 °C 66 % 1020,0 hPa 0,0 mm 1,5 km/h (1 Bft) W 264 ° 0 min 0,000 mm 1,4 UV-I 185 W/m² 11,8 °C 18,3 °C 3,2 km/h (1 Bft)
03.07.2017 18:41 18,4 °C 18,4 °C 62 % 1020,0 hPa 0,0 mm 0,2 km/h (0 Bft) W 264 ° 0 min 0,000 mm 1,5 UV-I 230 W/m² 11,0 °C 18,4 °C 1,6 km/h (1 Bft)
03.07.2017 18:42 18,5 °C 18,5 °C 64 % 1020,0 hPa 0,0 mm 3,6 km/h (1 Bft) W-SW 238 ° 0 min 0,000 mm 1,6 UV-I 236 W/m² 11,6 °C 18,5 °C 6,4 km/h (2 Bft)
03.07.2017 18:43 18,7 °C 18,7 °C 63 % 1020,0 hPa 0,0 mm 1,4 km/h (1 Bft) W-SW 238 ° 0 min 0,000 mm 1,5 UV-I 172 W/m² 11,5 °C 18,7 °C 4,8 km/h (1 Bft)
03.07.2017 18:44 18,8 °C 18,8 °C 63 % 1020,0 hPa 0,0 mm 1,2 km/h (1 Bft) W 281 ° 0 min 0,000 mm 1,5 UV-I 246 W/m² 11,6 °C 18,8 °C 4,8 km/h (1 Bft)
03.07.2017 18:45 18,8 °C 18,8 °C 64 % 1020,0 hPa 0,0 mm 4,8 km/h (1 Bft) SW 236 ° 0 min 0,000 mm 1,3 UV-I 246 W/m² 11,8 °C 18,8 °C 8,0 km/h (2 Bft)
03.07.2017 18:46 18,9 °C 18,9 °C 61 % 1020,0 hPa 0,0 mm 4,4 km/h (1 Bft) SW 216 ° 0 min 0,000 mm 1,1 UV-I 84 W/m² 11,2 °C 18,9 °C 6,4 km/h (2 Bft)
03.07.2017 18:47 19,0 °C 19,0 °C 61 % 1020,0 hPa 0,0 mm 3,1 km/h (1 Bft) W-SW 244 ° 1 min 0,000 mm 1,5 UV-I 339 W/m² 11,3 °C 19,0 °C 6,4 km/h (2 Bft)
03.07.2017 18:48 19,0 °C 19,1 °C 60 % 1020,0 hPa 0,0 mm 7,9 km/h (2 Bft) W-SW 241 ° 1 min 0,000 mm 1,2 UV-I 306 W/m² 11,1 °C 19,0 °C 12,9 km/h (3 Bft)
03.07.2017 18:49 19,1 °C 19,1 °C 60 % 1019,9 hPa 0,0 mm 5,1 km/h (1 Bft) S-SW 213 ° 0 min 0,000 mm 1,5 UV-I 253 W/m² 11,1 °C 19,1 °C 9,7 km/h (2 Bft)
03.07.2017 18:50 19,1 °C 19,1 °C 59 % 1019,9 hPa 0,0 mm 3,6 km/h (1 Bft) SW 222 ° 0 min 0,000 mm 1,4 UV-I 232 W/m² 10,9 °C 19,1 °C 6,4 km/h (2 Bft)
03.07.2017 18:51 19,2 °C 19,2 °C 62 % 1020,0 hPa 0,0 mm 5,0 km/h (1 Bft) SW 223 ° 0 min 0,000 mm 1,4 UV-I 236 W/m² 11,7 °C 19,2 °C 11,3 km/h (2 Bft)
03.07.2017 18:52 19,2 °C 19,2 °C 60 % 1019,9 hPa 0,0 mm 1,9 km/h (1 Bft) W 267 ° 1 min 0,000 mm 1,4 UV-I 299 W/m² 11,2 °C 19,2 °C 6,4 km/h (2 Bft)
03.07.2017 18:53 19,3 °C 19,3 °C 63 % 1019,9 hPa 0,0 mm 3,8 km/h (1 Bft) W 277 ° 0 min 0,000 mm 1,5 UV-I 253 W/m² 12,1 °C 19,3 °C 6,4 km/h (2 Bft)
03.07.2017 18:54 19,4 °C 19,4 °C 63 % 1019,8 hPa 0,0 mm 6,1 km/h (2 Bft) W 261 ° 0 min 0,000 mm 1,1 UV-I 253 W/m² 12,2 °C 19,4 °C 12,9 km/h (3 Bft)
03.07.2017 18:55 19,4 °C 19,4 °C 63 % 1019,9 hPa 0,0 mm 8,1 km/h (2 Bft) W-NW 284 ° 0 min 0,000 mm 1,5 UV-I 253 W/m² 12,2 °C 19,4 °C 11,3 km/h (2 Bft)
03.07.2017 18:56 19,5 °C 19,5 °C 59 % 1019,9 hPa 0,0 mm 8,5 km/h (2 Bft) W-NW 297 ° 0 min 0,000 mm 1,4 UV-I 288 W/m² 11,3 °C 19,5 °C 12,9 km/h (3 Bft)
03.07.2017 18:57 19,6 °C 19,6 °C 60 % 1019,9 hPa 0,0 mm 5,4 km/h (1 Bft) W 272 ° 1 min 0,000 mm 1,4 UV-I 316 W/m² 11,6 °C 19,6 °C 9,7 km/h (2 Bft)
03.07.2017 18:58 19,7 °C 19,7 °C 61 % 1019,9 hPa 0,0 mm 4,8 km/h (1 Bft) W-NW 290 ° 1 min 0,000 mm 1,4 UV-I 345 W/m² 12,0 °C 19,7 °C 6,4 km/h (2 Bft)
03.07.2017 18:59 19,8 °C 19,8 °C 62 % 1019,9 hPa 0,0 mm 4,9 km/h (1 Bft) W 267 ° 1 min 0,000 mm 1,4 UV-I 348 W/m² 12,3 °C 19,8 °C 11,3 km/h (2 Bft)
03.07.2017 19:00 19,8 °C 19,8 °C 59 % 1019,9 hPa 0,0 mm 8,9 km/h (2 Bft) W 281 ° 1 min 0,127 mm 1,3 UV-I 350 W/m² 11,6 °C 19,8 °C 11,3 km/h (2 Bft)
03.07.2017 19:01 19,9 °C 19,9 °C 57 % 1020,0 hPa 0,0 mm 3,6 km/h (1 Bft) W 281 ° 1 min 0,000 mm 1,3 UV-I 345 W/m² 11,1 °C 19,9 °C 9,7 km/h (2 Bft)
03.07.2017 19:02 19,9 °C 19,9 °C 58 % 1019,9 hPa 0,0 mm 7,1 km/h (2 Bft) W 273 ° 1 min 0,000 mm 1,3 UV-I 338 W/m² 11,4 °C 19,9 °C 11,3 km/h (2 Bft)
03.07.2017 19:03 19,8 °C 19,9 °C 60 % 1019,9 hPa 0,0 mm 8,2 km/h (2 Bft) W-SW 258 ° 1 min 0,000 mm 1,3 UV-I 330 W/m² 11,8 °C 19,8 °C 12,9 km/h (3 Bft)
03.07.2017 19:04 19,8 °C 19,8 °C 59 % 1019,9 hPa 0,0 mm 8,5 km/h (2 Bft) S-SW 213 ° 1 min 0,000 mm 1,2 UV-I 320 W/m² 11,6 °C 19,8 °C 12,9 km/h (3 Bft)
03.07.2017 19:05 19,8 °C 19,8 °C 57 % 1019,9 hPa 0,0 mm 5,0 km/h (1 Bft) S-SW 192 ° 0 min 0,000 mm 1,1 UV-I 265 W/m² 11,0 °C 19,8 °C 8,0 km/h (2 Bft)
03.07.2017 19:06 19,8 °C 19,8 °C 58 % 1019,9 hPa 0,0 mm 3,0 km/h (1 Bft) W-SW 255 ° 0 min 0,000 mm 0,9 UV-I 120 W/m² 11,3 °C 19,8 °C 4,8 km/h (1 Bft)
03.07.2017 19:07 19,7 °C 19,8 °C 60 % 1019,9 hPa 0,0 mm 6,0 km/h (2 Bft) W-NW 286 ° 0 min 0,000 mm 1,1 UV-I 146 W/m² 11,7 °C 19,7 °C 11,3 km/h (2 Bft)
03.07.2017 19:08 19,8 °C 19,8 °C 59 % 1019,9 hPa 0,0 mm 6,4 km/h (2 Bft) W-NW 298 ° 0 min 0,000 mm 1,1 UV-I 206 W/m² 11,6 °C 19,8 °C 11,3 km/h (2 Bft)
03.07.2017 19:09 19,8 °C 19,8 °C 59 % 1019,9 hPa 0,0 mm 10,0 km/h (2 Bft) NW 317 ° 0 min 0,000 mm 1,2 UV-I 271 W/m² 11,6 °C 19,8 °C 12,9 km/h (3 Bft)
03.07.2017 19:10 19,8 °C 19,8 °C 59 % 1019,9 hPa 0,0 mm 9,3 km/h (2 Bft) NW 324 ° 0 min 0,000 mm 1,1 UV-I 209 W/m² 11,6 °C 19,8 °C 14,5 km/h (3 Bft)
03.07.2017 19:11 19,9 °C 19,9 °C 58 % 1019,9 hPa 0,0 mm 10,3 km/h (2 Bft) W 278 ° 0 min 0,000 mm 1,0 UV-I 98 W/m² 11,4 °C 19,9 °C 17,7 km/h (3 Bft)
03.07.2017 19:12 19,9 °C 19,9 °C 58 % 1020,0 hPa 0,0 mm 9,0 km/h (2 Bft) NW 305 ° 0 min 0,000 mm 1,0 UV-I 76 W/m² 11,4 °C 19,9 °C 14,5 km/h (3 Bft)
03.07.2017 19:13 19,8 °C 19,9 °C 57 % 1020,0 hPa 0,0 mm 12,8 km/h (3 Bft) W-NW 298 ° 0 min 0,000 mm 0,9 UV-I 69 W/m² 11,0 °C 19,8 °C 17,7 km/h (3 Bft)
03.07.2017 19:14 19,8 °C 19,8 °C 58 % 1020,0 hPa 0,0 mm 8,7 km/h (2 Bft) W 275 ° 0 min 0,000 mm 0,9 UV-I 95 W/m² 11,3 °C 19,8 °C 16,1 km/h (3 Bft)
03.07.2017 19:15 19,7 °C 19,8 °C 58 % 1020,0 hPa 0,0 mm 7,8 km/h (2 Bft) W-NW 296 ° 0 min 0,000 mm 0,9 UV-I 130 W/m² 11,2 °C 19,7 °C 12,9 km/h (3 Bft)
03.07.2017 19:16 19,8 °C 19,8 °C 59 % 1020,0 hPa 0,0 mm 5,5 km/h (1 Bft) W-SW 242 ° 0 min 0,000 mm 1,0 UV-I 181 W/m² 11,6 °C 19,8 °C 8,0 km/h (2 Bft)
03.07.2017 19:17 19,7 °C 19,8 °C 59 % 1020,0 hPa 0,0 mm 8,2 km/h (2 Bft) NW 313 ° 0 min 0,000 mm 1,0 UV-I 257 W/m² 11,5 °C 19,7 °C 12,9 km/h (3 Bft)
03.07.2017 19:18 19,7 °C 19,7 °C 59 % 1020,1 hPa 0,0 mm 8,6 km/h (2 Bft) W-NW 292 ° 0 min 0,000 mm 1,0 UV-I 250 W/m² 11,5 °C 19,7 °C 12,9 km/h (3 Bft)
03.07.2017 19:19 19,6 °C 19,7 °C 59 % 1020,1 hPa 0,0 mm 6,7 km/h (2 Bft) W-NW 286 ° 0 min 0,000 mm 1,0 UV-I 244 W/m² 11,4 °C 19,6 °C 11,3 km/h (2 Bft)
03.07.2017 19:20 19,6 °C 19,6 °C 60 % 1020,0 hPa 0,0 mm 8,0 km/h (2 Bft) W 266 ° 0 min 0,000 mm 1,0 UV-I 241 W/m² 11,6 °C 19,6 °C 12,9 km/h (3 Bft)
03.07.2017 19:21 19,4 °C 19,6 °C 59 % 1020,0 hPa 0,0 mm 9,1 km/h (2 Bft) W-NW 291 ° 0 min 0,000 mm 0,9 UV-I 236 W/m² 11,2 °C 19,4 °C 12,9 km/h (3 Bft)
03.07.2017 19:22 19,4 °C 19,4 °C 61 % 1020,1 hPa 0,0 mm 8,0 km/h (2 Bft) W-NW 290 ° 0 min 0,000 mm 0,9 UV-I 232 W/m² 11,7 °C 19,4 °C 14,5 km/h (3 Bft)
03.07.2017 19:23 19,4 °C 19,4 °C 60 % 1020,0 hPa 0,0 mm 8,0 km/h (2 Bft) W 277 ° 0 min 0,000 mm 0,9 UV-I 229 W/m² 11,4 °C 19,4 °C 11,3 km/h (2 Bft)
03.07.2017 19:24 19,4 °C 19,4 °C 59 % 1020,1 hPa 0,0 mm 5,9 km/h (2 Bft) NW 309 ° 0 min 0,000 mm 0,9 UV-I 225 W/m² 11,2 °C 19,4 °C 9,7 km/h (2 Bft)
03.07.2017 19:25 19,3 °C 19,4 °C 58 % 1020,1 hPa 0,0 mm 4,3 km/h (1 Bft) W-NW 292 ° 0 min 0,000 mm 0,9 UV-I 223 W/m² 10,8 °C 19,3 °C 9,7 km/h (2 Bft)
03.07.2017 19:26 19,3 °C 19,4 °C 60 % 1020,0 hPa 0,0 mm 5,2 km/h (1 Bft) W 278 ° 0 min 0,000 mm 0,9 UV-I 220 W/m² 11,3 °C 19,3 °C 8,0 km/h (2 Bft)
03.07.2017 19:27 19,3 °C 19,3 °C 61 % 1020,1 hPa 0,0 mm 3,8 km/h (1 Bft) W-NW 289 ° 0 min 0,000 mm 0,8 UV-I 218 W/m² 11,6 °C 19,3 °C 6,4 km/h (2 Bft)
03.07.2017 19:28 19,3 °C 19,3 °C 59 % 1020,1 hPa 0,0 mm 6,6 km/h (2 Bft) W 279 ° 0 min 0,000 mm 0,8 UV-I 213 W/m² 11,1 °C 19,3 °C 11,3 km/h (2 Bft)
03.07.2017 19:29 19,3 °C 19,3 °C 59 % 1020,1 hPa 0,0 mm 7,1 km/h (2 Bft) W-NW 292 ° 0 min 0,000 mm 0,8 UV-I 209 W/m² 11,1 °C 19,3 °C 12,9 km/h (3 Bft)
03.07.2017 19:30 19,3 °C 19,3 °C 60 % 1020,1 hPa 0,0 mm 5,2 km/h (1 Bft) W-NW 303 ° 0 min 0,000 mm 0,8 UV-I 204 W/m² 11,3 °C 19,3 °C 9,7 km/h (2 Bft)
03.07.2017 19:31 19,3 °C 19,3 °C 60 % 1020,1 hPa 0,0 mm 4,8 km/h (1 Bft) W 272 ° 0 min 0,000 mm 0,8 UV-I 200 W/m² 11,3 °C 19,3 °C 6,4 km/h (2 Bft)
03.07.2017 19:32 19,3 °C 19,3 °C 61 % 1020,1 hPa 0,0 mm 3,7 km/h (1 Bft) W 273 ° 0 min 0,000 mm 0,8 UV-I 197 W/m² 11,6 °C 19,3 °C 6,4 km/h (2 Bft)
03.07.2017 19:33 19,3 °C 19,3 °C 61 % 1020,1 hPa 0,0 mm 4,5 km/h (1 Bft) W 277 ° 0 min 0,000 mm 0,8 UV-I 192 W/m² 11,6 °C 19,3 °C 6,4 km/h (2 Bft)
03.07.2017 19:34 19,3 °C 19,3 °C 62 % 1020,1 hPa 0,0 mm 5,3 km/h (1 Bft) W-NW 290 ° 0 min 0,000 mm 0,8 UV-I 190 W/m² 11,8 °C 19,3 °C 8,0 km/h (2 Bft)
03.07.2017 19:35 19,3 °C 19,3 °C 62 % 1020,1 hPa 0,0 mm 5,9 km/h (2 Bft) W 281 ° 0 min 0,000 mm 0,7 UV-I 185 W/m² 11,8 °C 19,3 °C 11,3 km/h (2 Bft)
03.07.2017 19:36 19,3 °C 19,3 °C 61 % 1020,1 hPa 0,0 mm 7,2 km/h (2 Bft) NW 322 ° 0 min 0,000 mm 0,7 UV-I 183 W/m² 11,6 °C 19,3 °C 11,3 km/h (2 Bft)
03.07.2017 19:37 19,3 °C 19,3 °C 59 % 1020,1 hPa 0,0 mm 4,4 km/h (1 Bft) W-NW 296 ° 0 min 0,000 mm 0,7 UV-I 181 W/m² 11,1 °C 19,3 °C 8,0 km/h (2 Bft)
03.07.2017 19:38 19,3 °C 19,3 °C 60 % 1020,1 hPa 0,0 mm 7,8 km/h (2 Bft) W-NW 297 ° 0 min 0,000 mm 0,7 UV-I 178 W/m² 11,3 °C 19,3 °C 12,9 km/h (3 Bft)
03.07.2017 19:39 19,2 °C 19,3 °C 61 % 1020,1 hPa 0,0 mm 4,6 km/h (1 Bft) W-NW 301 ° 0 min 0,000 mm 0,7 UV-I 174 W/m² 11,5 °C 19,2 °C 8,0 km/h (2 Bft)
03.07.2017 19:40 19,2 °C 19,2 °C 61 % 1020,1 hPa 0,0 mm 4,7 km/h (1 Bft) W-NW 292 ° 0 min 0,000 mm 0,7 UV-I 169 W/m² 11,5 °C 19,2 °C 6,4 km/h (2 Bft)
03.07.2017 19:41 19,2 °C 19,2 °C 63 % 1020,1 hPa 0,0 mm 4,3 km/h (1 Bft) W 263 ° 0 min 0,000 mm 0,7 UV-I 165 W/m² 12,0 °C 19,2 °C 6,4 km/h (2 Bft)
03.07.2017 19:42 19,2 °C 19,2 °C 62 % 1020,1 hPa 0,0 mm 5,4 km/h (1 Bft) W-NW 298 ° 0 min 0,000 mm 0,7 UV-I 162 W/m² 11,7 °C 19,2 °C 6,4 km/h (2 Bft)
03.07.2017 19:43 19,2 °C 19,2 °C 62 % 1020,1 hPa 0,0 mm 6,0 km/h (2 Bft) W-NW 286 ° 0 min 0,000 mm 0,6 UV-I 160 W/m² 11,7 °C 19,2 °C 8,0 km/h (2 Bft)
03.07.2017 19:44 19,2 °C 19,2 °C 61 % 1020,1 hPa 0,0 mm 1,9 km/h (1 Bft) W-NW 286 ° 0 min 0,000 mm 0,6 UV-I 156 W/m² 11,5 °C 19,2 °C 3,2 km/h (1 Bft)
03.07.2017 19:45 19,2 °C 19,2 °C 62 % 1020,1 hPa 0,0 mm 3,7 km/h (1 Bft) W-SW 246 ° 0 min 0,000 mm 0,6 UV-I 153 W/m² 11,7 °C 19,2 °C 6,4 km/h (2 Bft)
03.07.2017 19:46 19,1 °C 19,2 °C 62 % 1020,1 hPa 0,0 mm 5,8 km/h (2 Bft) W 267 ° 0 min 0,000 mm 0,6 UV-I 148 W/m² 11,6 °C 19,1 °C 9,7 km/h (2 Bft)
03.07.2017 19:47 19,1 °C 19,1 °C 62 % 1020,1 hPa 0,0 mm 4,1 km/h (1 Bft) W-NW 296 ° 0 min 0,000 mm 0,6 UV-I 146 W/m² 11,6 °C 19,1 °C 6,4 km/h (2 Bft)
03.07.2017 19:48 19,1 °C 19,1 °C 62 % 1020,1 hPa 0,0 mm 2,9 km/h (1 Bft) W-NW 294 ° 0 min 0,000 mm 0,6 UV-I 144 W/m² 11,6 °C 19,1 °C 4,8 km/h (1 Bft)
03.07.2017 19:49 19,0 °C 19,1 °C 64 % 1020,1 hPa 0,0 mm 2,4 km/h (1 Bft) W-NW 289 ° 0 min 0,000 mm 0,6 UV-I 141 W/m² 12,0 °C 19,0 °C 4,8 km/h (1 Bft)
03.07.2017 19:50 18,9 °C 19,0 °C 64 % 1020,1 hPa 0,0 mm 5,2 km/h (1 Bft) NW 314 ° 0 min 0,000 mm 0,6 UV-I 139 W/m² 11,9 °C 18,9 °C 11,3 km/h (2 Bft)
03.07.2017 19:51 18,9 °C 18,9 °C 65 % 1020,1 hPa 0,0 mm 6,9 km/h (2 Bft) W-NW 292 ° 0 min 0,000 mm 0,6 UV-I 134 W/m² 12,2 °C 18,9 °C 11,3 km/h (2 Bft)
03.07.2017 19:52 18,8 °C 18,9 °C 63 % 1020,1 hPa 0,0 mm 10,9 km/h (2 Bft) W 263 ° 0 min 0,000 mm 0,5 UV-I 130 W/m² 11,6 °C 18,8 °C 17,7 km/h (3 Bft)
03.07.2017 19:53 18,8 °C 18,9 °C 63 % 1020,1 hPa 0,0 mm 8,4 km/h (2 Bft) W-NW 286 ° 0 min 0,000 mm 0,5 UV-I 127 W/m² 11,6 °C 18,8 °C 16,1 km/h (3 Bft)
03.07.2017 19:54 18,8 °C 18,8 °C 63 % 1020,2 hPa 0,0 mm 6,6 km/h (2 Bft) W 278 ° 0 min 0,000 mm 0,5 UV-I 125 W/m² 11,6 °C 18,8 °C 11,3 km/h (2 Bft)
03.07.2017 19:55 18,7 °C 18,8 °C 63 % 1020,1 hPa 0,0 mm 4,9 km/h (1 Bft) W 279 ° 0 min 0,000 mm 0,5 UV-I 121 W/m² 11,5 °C 18,7 °C 6,4 km/h (2 Bft)
03.07.2017 19:56 18,7 °C 18,7 °C 63 % 1020,2 hPa 0,0 mm 3,4 km/h (1 Bft) W 281 ° 0 min 0,000 mm 0,5 UV-I 100 W/m² 11,5 °C 18,7 °C 4,8 km/h (1 Bft)
03.07.2017 19:57 18,7 °C 18,7 °C 64 % 1020,1 hPa 0,0 mm 2,4 km/h (1 Bft) W 281 ° 0 min 0,000 mm 0,5 UV-I 109 W/m² 11,7 °C 18,7 °C 3,2 km/h (1 Bft)
03.07.2017 19:58 18,7 °C 18,7 °C 64 % 1020,1 hPa 0,0 mm 2,5 km/h (1 Bft) W-NW 286 ° 0 min 0,000 mm 0,5 UV-I 102 W/m² 11,7 °C 18,7 °C 4,8 km/h (1 Bft)
03.07.2017 19:59 18,6 °C 18,7 °C 64 % 1020,1 hPa 0,0 mm 6,0 km/h (2 Bft) W-NW 285 ° 0 min 0,000 mm 0,5 UV-I 114 W/m² 11,7 °C 18,6 °C 11,3 km/h (2 Bft)
03.07.2017 20:00 18,6 °C 18,6 °C 62 % 1020,1 hPa 0,0 mm 5,4 km/h (1 Bft) W-NW 291 ° 0 min 0,000 mm 0,5 UV-I 111 W/m² 11,2 °C 18,6 °C 6,4 km/h (2 Bft)
03.07.2017 20:01 18,6 °C 18,6 °C 64 % 1020,1 hPa 0,0 mm 2,5 km/h (1 Bft) W-NW 289 ° 0 min 0,152 mm 0,5 UV-I 111 W/m² 11,7 °C 18,6 °C 3,2 km/h (1 Bft)
03.07.2017 20:02 18,5 °C 18,6 °C 64 % 1020,1 hPa 0,0 mm 4,1 km/h (1 Bft) W-NW 294 ° 0 min 0,000 mm 0,0 UV-I 107 W/m² 11,6 °C 18,5 °C 6,4 km/h (2 Bft)
03.07.2017 20:03 18,6 °C 18,6 °C 64 % 1020,1 hPa 0,0 mm 4,4 km/h (1 Bft) W-NW 302 ° 0 min 0,000 mm 0,0 UV-I 104 W/m² 11,7 °C 18,6 °C 6,4 km/h (2 Bft)
03.07.2017 20:04 18,5 °C 18,6 °C 65 % 1020,1 hPa 0,0 mm 4,0 km/h (1 Bft) W-NW 296 ° 0 min 0,000 mm 0,0 UV-I 100 W/m² 11,8 °C 18,5 °C 6,4 km/h (2 Bft)
03.07.2017 20:05 18,4 °C 18,5 °C 65 % 1020,1 hPa 0,0 mm 1,7 km/h (1 Bft) W-NW 295 ° 0 min 0,000 mm 0,0 UV-I 98 W/m² 11,7 °C 18,4 °C 6,4 km/h (2 Bft)
03.07.2017 20:06 18,4 °C 18,4 °C 64 % 1020,1 hPa 0,0 mm 5,0 km/h (1 Bft) W-NW 291 ° 0 min 0,000 mm 0,0 UV-I 97 W/m² 11,5 °C 18,4 °C 6,4 km/h (2 Bft)
03.07.2017 20:07 18,4 °C 18,4 °C 65 % 1020,1 hPa 0,0 mm 4,0 km/h (1 Bft) W 271 ° 0 min 0,000 mm 0,0 UV-I 95 W/m² 11,7 °C 18,4 °C 6,4 km/h (2 Bft)
03.07.2017 20:08 18,3 °C 18,4 °C 64 % 1020,1 hPa 0,0 mm 4,1 km/h (1 Bft) W-NW 294 ° 0 min 0,000 mm 0,0 UV-I 93 W/m² 11,4 °C 18,3 °C 6,4 km/h (2 Bft)
03.07.2017 20:09 18,3 °C 18,3 °C 64 % 1020,1 hPa 0,0 mm 5,0 km/h (1 Bft) W-NW 303 ° 0 min 0,000 mm 0,0 UV-I 90 W/m² 11,4 °C 18,3 °C 6,4 km/h (2 Bft)
03.07.2017 20:10 18,3 °C 18,3 °C 65 % 1020,1 hPa 0,0 mm 3,5 km/h (1 Bft) W-NW 287 ° 0 min 0,000 mm 0,0 UV-I 88 W/m² 11,6 °C 18,3 °C 4,8 km/h (1 Bft)
03.07.2017 20:11 18,3 °C 18,3 °C 64 % 1020,1 hPa 0,0 mm 1,9 km/h (1 Bft) W-NW 287 ° 0 min 0,000 mm 0,0 UV-I 86 W/m² 11,4 °C 18,3 °C 3,2 km/h (1 Bft)
03.07.2017 20:12 18,2 °C 18,3 °C 64 % 1020,1 hPa 0,0 mm 1,5 km/h (1 Bft) W-NW 287 ° 0 min 0,000 mm 0,0 UV-I 83 W/m² 11,3 °C 18,2 °C 3,2 km/h (1 Bft)
03.07.2017 20:13 18,2 °C 18,2 °C 64 % 1020,1 hPa 0,0 mm 4,1 km/h (1 Bft) W-NW 282 ° 0 min 0,000 mm 0,0 UV-I 81 W/m² 11,3 °C 18,2 °C 9,7 km/h (2 Bft)
03.07.2017 20:14 18,1 °C 18,2 °C 65 % 1020,1 hPa 0,0 mm 5,7 km/h (1 Bft) W-NW 287 ° 0 min 0,000 mm 0,0 UV-I 79 W/m² 11,4 °C 18,1 °C 9,7 km/h (2 Bft)
03.07.2017 20:15 18,1 °C 18,1 °C 65 % 1020,1 hPa 0,0 mm 3,7 km/h (1 Bft) W-NW 300 ° 0 min 0,000 mm 0,0 UV-I 76 W/m² 11,4 °C 18,1 °C 6,4 km/h (2 Bft)
03.07.2017 20:16 18,1 °C 18,1 °C 63 % 1020,1 hPa 0,0 mm 2,1 km/h (1 Bft) NW 305 ° 0 min 0,000 mm 0,0 UV-I 76 W/m² 10,9 °C 18,1 °C 3,2 km/h (1 Bft)
03.07.2017 20:17 18,1 °C 18,1 °C 65 % 1020,1 hPa 0,0 mm 2,0 km/h (1 Bft) NW 305 ° 0 min 0,000 mm 0,0 UV-I 72 W/m² 11,4 °C 18,1 °C 3,2 km/h (1 Bft)
03.07.2017 20:18 18,0 °C 18,1 °C 65 % 1020,1 hPa 0,0 mm 1,7 km/h (1 Bft) NW 305 ° 0 min 0,000 mm 0,0 UV-I 70 W/m² 11,3 °C 18,0 °C 3,2 km/h (1 Bft)
03.07.2017 20:19 18,0 °C 18,1 °C 64 % 1020,1 hPa 0,0 mm 3,4 km/h (1 Bft) W-NW 303 ° 0 min 0,000 mm 0,0 UV-I 69 W/m² 11,1 °C 18,0 °C 4,8 km/h (1 Bft)
03.07.2017 20:20 18,0 °C 18,0 °C 65 % 1020,1 hPa 0,0 mm 2,7 km/h (1 Bft) W-NW 285 ° 0 min 0,000 mm 0,0 UV-I 67 W/m² 11,3 °C 18,0 °C 4,8 km/h (1 Bft)
03.07.2017 20:21 17,9 °C 18,0 °C 65 % 1020,2 hPa 0,0 mm 8,3 km/h (2 Bft) W 272 ° 0 min 0,000 mm 0,0 UV-I 63 W/m² 11,2 °C 17,9 °C 11,3 km/h (2 Bft)
03.07.2017 20:22 17,9 °C 17,9 °C 65 % 1020,1 hPa 0,0 mm 2,6 km/h (1 Bft) W 272 ° 0 min 0,000 mm 0,0 UV-I 62 W/m² 11,2 °C 17,9 °C 4,8 km/h (1 Bft)
03.07.2017 20:23 17,9 °C 17,9 °C 64 % 1020,2 hPa 0,0 mm 0,6 km/h (0 Bft) W 272 ° 0 min 0,000 mm 0,0 UV-I 60 W/m² 11,0 °C 17,9 °C 3,2 km/h (1 Bft)
03.07.2017 20:24 17,9 °C 17,9 °C 65 % 1020,1 hPa 0,0 mm 1,9 km/h (1 Bft) W 272 ° 0 min 0,000 mm 0,0 UV-I 58 W/m² 11,2 °C 17,9 °C 3,2 km/h (1 Bft)
03.07.2017 20:25 17,8 °C 17,9 °C 64 % 1020,2 hPa 0,0 mm 2,0 km/h (1 Bft) W 272 ° 0 min 0,000 mm 0,0 UV-I 56 W/m² 10,9 °C 17,8 °C 4,8 km/h (1 Bft)
03.07.2017 20:26 17,8 °C 17,9 °C 65 % 1020,2 hPa 0,0 mm 3,7 km/h (1 Bft) W 271 ° 0 min 0,000 mm 0,0 UV-I 53 W/m² 11,1 °C 17,8 °C 6,4 km/h (2 Bft)
03.07.2017 20:27 17,8 °C 17,8 °C 65 % 1020,2 hPa 0,0 mm 3,7 km/h (1 Bft) W-SW 258 ° 0 min 0,000 mm 0,0 UV-I 51 W/m² 11,1 °C 17,8 °C 6,4 km/h (2 Bft)
03.07.2017 20:28 17,8 °C 17,8 °C 65 % 1020,1 hPa 0,0 mm 3,6 km/h (1 Bft) W 260 ° 0 min 0,000 mm 0,0 UV-I 49 W/m² 11,1 °C 17,8 °C 6,4 km/h (2 Bft)
03.07.2017 20:29 17,7 °C 17,8 °C 65 % 1020,2 hPa 0,0 mm 2,4 km/h (1 Bft) W 260 ° 0 min 0,000 mm 0,0 UV-I 47 W/m² 11,0 °C 17,7 °C 4,8 km/h (1 Bft)
03.07.2017 20:30 17,7 °C 17,8 °C 65 % 1020,1 hPa 0,0 mm 2,3 km/h (1 Bft) W 260 ° 0 min 0,000 mm 0,0 UV-I 46 W/m² 11,0 °C 17,7 °C 3,2 km/h (1 Bft)
03.07.2017 20:31 17,7 °C 17,7 °C 65 % 1020,1 hPa 0,0 mm 0,1 km/h (0 Bft) W 260 ° 0 min 0,000 mm 0,0 UV-I 44 W/m² 11,0 °C 17,7 °C 1,6 km/h (1 Bft)
03.07.2017 20:32 17,6 °C 17,7 °C 65 % 1020,1 hPa 0,0 mm 0,3 km/h (0 Bft) W 260 ° 0 min 0,000 mm 0,0 UV-I 42 W/m² 10,9 °C 17,6 °C 1,6 km/h (1 Bft)
03.07.2017 20:33 17,6 °C 17,7 °C 66 % 1020,1 hPa 0,0 mm 0,0 km/h (0 Bft) W 260 ° 0 min 0,000 mm 0,0 UV-I 39 W/m² 11,2 °C 17,6 °C 0,0 km/h (0 Bft)
03.07.2017 20:34 17,6 °C 17,6 °C 67 % 1020,2 hPa 0,0 mm 0,0 km/h (0 Bft) W 260 ° 0 min 0,000 mm 0,0 UV-I 37 W/m² 11,4 °C 17,6 °C 0,0 km/h (0 Bft)
03.07.2017 20:35 17,6 °C 17,6 °C 66 % 1020,1 hPa 0,0 mm 0,0 km/h (0 Bft) W 260 ° 0 min 0,000 mm 0,0 UV-I 35 W/m² 11,2 °C 17,6 °C 0,0 km/h (0 Bft)
03.07.2017 20:36 17,6 °C 17,6 °C 66 % 1020,1 hPa 0,0 mm 1,3 km/h (1 Bft) W 260 ° 0 min 0,000 mm 0,0 UV-I 35 W/m² 11,2 °C 17,6 °C 3,2 km/h (1 Bft)
03.07.2017 20:37 17,5 °C 17,6 °C 66 % 1020,1 hPa 0,0 mm 0,1 km/h (0 Bft) W 260 ° 0 min 0,000 mm 0,0 UV-I 33 W/m² 11,1 °C 17,5 °C 1,6 km/h (1 Bft)
03.07.2017 20:38 17,5 °C 17,6 °C 66 % 1020,1 hPa 0,0 mm 0,0 km/h (0 Bft) W 260 ° 0 min 0,000 mm 0,0 UV-I 18 W/m² 11,1 °C 17,5 °C 0,0 km/h (0 Bft)
03.07.2017 20:39 17,4 °C 17,5 °C 66 % 1020,1 hPa 0,0 mm 0,0 km/h (0 Bft) W 260 ° 0 min 0,000 mm 0,0 UV-I 16 W/m² 11,0 °C 17,4 °C 0,0 km/h (0 Bft)
03.07.2017 20:40 17,4 °C 17,4 °C 66 % 1020,1 hPa 0,0 mm 0,9 km/h (0 Bft) W 260 ° 0 min 0,000 mm 0,0 UV-I 14 W/m² 11,0 °C 17,4 °C 1,6 km/h (1 Bft)
03.07.2017 20:41 17,3 °C 17,4 °C 66 % 1020,2 hPa 0,0 mm 0,0 km/h (0 Bft) W 260 ° 0 min 0,000 mm 0,0 UV-I 16 W/m² 10,9 °C 17,3 °C 0,0 km/h (0 Bft)
03.07.2017 20:42 17,2 °C 17,3 °C 67 % 1020,1 hPa 0,0 mm 0,0 km/h (0 Bft) W 260 ° 0 min 0,000 mm 0,0 UV-I 18 W/m² 11,0 °C 17,2 °C 0,0 km/h (0 Bft)
03.07.2017 20:43 17,1 °C 17,2 °C 67 % 1020,2 hPa 0,0 mm 0,0 km/h (0 Bft) W 260 ° 0 min 0,000 mm 0,0 UV-I 18 W/m² 10,9 °C 17,1 °C 0,0 km/h (0 Bft)
03.07.2017 20:44 17,1 °C 17,1 °C 68 % 1020,1 hPa 0,0 mm 0,0 km/h (0 Bft) W 260 ° 0 min 0,000 mm 0,0 UV-I 18 W/m² 11,1 °C 17,1 °C 0,0 km/h (0 Bft)
03.07.2017 20:45 16,9 °C 17,1 °C 68 % 1020,1 hPa 0,0 mm 0,0 km/h (0 Bft) W 260 ° 0 min 0,000 mm 0,0 UV-I 16 W/m² 11,0 °C 16,9 °C 0,0 km/h (0 Bft)
03.07.2017 20:46 16,8 °C 16,9 °C 70 % 1020,1 hPa 0,0 mm 0,0 km/h (0 Bft) W 260 ° 0 min 0,000 mm 0,0 UV-I 14 W/m² 11,3 °C 16,8 °C 0,0 km/h (0 Bft)
03.07.2017 20:47 16,7 °C 16,8 °C 71 % 1020,2 hPa 0,0 mm 0,0 km/h (0 Bft) W 260 ° 0 min 0,000 mm 0,0 UV-I 12 W/m² 11,4 °C 16,7 °C 0,0 km/h (0 Bft)
03.07.2017 20:48 16,6 °C 16,7 °C 72 % 1020,2 hPa 0,0 mm 0,0 km/h (0 Bft) W 260 ° 0 min 0,000 mm 0,0 UV-I 12 W/m² 11,5 °C 16,6 °C 0,0 km/h (0 Bft)
03.07.2017 20:49 16,4 °C 16,6 °C 72 % 1020,2 hPa 0,0 mm 0,0 km/h (0 Bft) W 260 ° 0 min 0,000 mm 0,0 UV-I 12 W/m² 11,3 °C 16,4 °C 0,0 km/h (0 Bft)
03.07.2017 20:50 16,3 °C 16,4 °C 73 % 1020,2 hPa 0,0 mm 1,1 km/h (1 Bft) W 260 ° 0 min 0,000 mm 0,0 UV-I 12 W/m² 11,4 °C 16,3 °C 3,2 km/h (1 Bft)
03.07.2017 20:51 16,1 °C 16,3 °C 73 % 1020,3 hPa 0,0 mm 0,2 km/h (0 Bft) W 260 ° 0 min 0,000 mm 0,0 UV-I 11 W/m² 11,3 °C 16,1 °C 1,6 km/h (1 Bft)
03.07.2017 20:52 15,9 °C 16,1 °C 74 % 1020,2 hPa 0,0 mm 1,4 km/h (1 Bft) W 259 ° 0 min 0,000 mm 0,0 UV-I 11 W/m² 11,3 °C 15,9 °C 3,2 km/h (1 Bft)
03.07.2017 20:53 15,9 °C 15,9 °C 74 % 1020,3 hPa 0,0 mm 2,9 km/h (1 Bft) W 259 ° 0 min 0,000 mm 0,0 UV-I 11 W/m² 11,3 °C 15,9 °C 3,2 km/h (1 Bft)
03.07.2017 20:54 15,8 °C 15,9 °C 75 % 1020,3 hPa 0,0 mm 2,4 km/h (1 Bft) W 259 ° 0 min 0,000 mm 0,0 UV-I 11 W/m² 11,4 °C 15,8 °C 3,2 km/h (1 Bft)
03.07.2017 20:55 15,8 °C 15,8 °C 75 % 1020,3 hPa 0,0 mm 2,8 km/h (1 Bft) W 259 ° 0 min 0,000 mm 0,0 UV-I 12 W/m² 11,4 °C 15,8 °C 4,8 km/h (1 Bft)
03.07.2017 20:56 15,7 °C 15,8 °C 75 % 1020,3 hPa 0,0 mm 1,9 km/h (1 Bft) W 259 ° 0 min 0,000 mm 0,0 UV-I 11 W/m² 11,3 °C 15,7 °C 4,8 km/h (1 Bft)
03.07.2017 20:57 15,6 °C 15,7 °C 75 % 1020,3 hPa 0,0 mm 1,0 km/h (0 Bft) W 259 ° 0 min 0,000 mm 0,0 UV-I 11 W/m² 11,2 °C 15,6 °C 1,6 km/h (1 Bft)
03.07.2017 20:58 15,6 °C 15,6 °C 76 % 1020,3 hPa 0,0 mm 1,9 km/h (1 Bft) W 259 ° 0 min 0,000 mm 0,0 UV-I 11 W/m² 11,4 °C 15,6 °C 3,2 km/h (1 Bft)
03.07.2017 20:59 15,5 °C 15,6 °C 76 % 1020,3 hPa 0,0 mm 1,7 km/h (1 Bft) W-SW 248 ° 0 min 0,000 mm 0,0 UV-I 11 W/m² 11,3 °C 15,5 °C 4,8 km/h (1 Bft)
03.07.2017 21:00 15,4 °C 15,5 °C 76 % 1020,3 hPa 0,0 mm 0,2 km/h (0 Bft) W-SW 248 ° 0 min 0,000 mm 0,0 UV-I 11 W/m² 11,2 °C 15,4 °C 1,6 km/h (1 Bft)
03.07.2017 21:01 15,3 °C 15,4 °C 77 % 1020,3 hPa 0,0 mm 3,1 km/h (1 Bft) W-SW 242 ° 0 min 0,051 mm 0,0 UV-I 11 W/m² 11,3 °C 15,3 °C 4,8 km/h (1 Bft)
03.07.2017 21:02 15,3 °C 15,3 °C 77 % 1020,3 hPa 0,0 mm 1,9 km/h (1 Bft) W-SW 242 ° 0 min 0,000 mm 0,0 UV-I 9 W/m² 11,3 °C 15,3 °C 3,2 km/h (1 Bft)
03.07.2017 21:03 15,2 °C 15,3 °C 77 % 1020,3 hPa 0,0 mm 3,0 km/h (1 Bft) W-SW 242 ° 0 min 0,000 mm 0,0 UV-I 9 W/m² 11,2 °C 15,2 °C 4,8 km/h (1 Bft)
03.07.2017 21:04 15,2 °C 15,2 °C 77 % 1020,3 hPa 0,0 mm 2,6 km/h (1 Bft) W-SW 242 ° 0 min 0,000 mm 0,0 UV-I 7 W/m² 11,2 °C 15,2 °C 4,8 km/h (1 Bft)
03.07.2017 21:05 15,1 °C 15,2 °C 78 % 1020,3 hPa 0,0 mm 2,9 km/h (1 Bft) S-SW 207 ° 0 min 0,000 mm 0,0 UV-I 7 W/m² 11,3 °C 15,1 °C 6,4 km/h (2 Bft)
03.07.2017 21:06 15,1 °C 15,1 °C 78 % 1020,4 hPa 0,0 mm 3,9 km/h (1 Bft) S-SW 207 ° 0 min 0,000 mm 0,0 UV-I 7 W/m² 11,3 °C 15,1 °C 6,4 km/h (2 Bft)
03.07.2017 21:07 15,1 °C 15,1 °C 78 % 1020,4 hPa 0,0 mm 2,9 km/h (1 Bft) S-SW 207 ° 0 min 0,000 mm 0,0 UV-I 7 W/m² 11,3 °C 15,1 °C 4,8 km/h (1 Bft)
03.07.2017 21:08 15,0 °C 15,1 °C 78 % 1020,3 hPa 0,0 mm 3,2 km/h (1 Bft) S-SW 207 ° 0 min 0,000 mm 0,0 UV-I 5 W/m² 11,2 °C 15,0 °C 4,8 km/h (1 Bft)
03.07.2017 21:09 15,0 °C 15,0 °C 78 % 1020,3 hPa 0,0 mm 2,7 km/h (1 Bft) S-SW 207 ° 0 min 0,000 mm 0,0 UV-I 5 W/m² 11,2 °C 15,0 °C 4,8 km/h (1 Bft)
03.07.2017 21:10 14,9 °C 15,0 °C 79 % 1020,3 hPa 0,0 mm 2,2 km/h (1 Bft) S-SW 207 ° 0 min 0,000 mm 0,0 UV-I 5 W/m² 11,3 °C 14,9 °C 3,2 km/h (1 Bft)
03.07.2017 21:11 14,8 °C 14,9 °C 79 % 1020,3 hPa 0,0 mm 3,1 km/h (1 Bft) S-SW 207 ° 0 min 0,000 mm 0,0 UV-I 5 W/m² 11,2 °C 14,8 °C 4,8 km/h (1 Bft)
03.07.2017 21:12 14,8 °C 14,8 °C 79 % 1020,4 hPa 0,0 mm 3,8 km/h (1 Bft) S-SW 207 ° 0 min 0,000 mm 0,0 UV-I 5 W/m² 11,2 °C 14,8 °C 4,8 km/h (1 Bft)
03.07.2017 21:13 14,7 °C 14,8 °C 80 % 1020,4 hPa 0,0 mm 6,0 km/h (2 Bft) S-SW 199 ° 0 min 0,000 mm 0,0 UV-I 5 W/m² 11,3 °C 14,7 °C 8,0 km/h (2 Bft)
03.07.2017 21:14 14,6 °C 14,7 °C 80 % 1020,4 hPa 0,0 mm 3,7 km/h (1 Bft) S-SW 199 ° 0 min 0,000 mm 0,0 UV-I 0 W/m² 11,2 °C 14,6 °C 4,8 km/h (1 Bft)
03.07.2017 21:15 14,5 °C 14,6 °C 80 % 1020,4 hPa 0,0 mm 2,6 km/h (1 Bft) S-SW 199 ° 0 min 0,000 mm 0,0 UV-I 0 W/m² 11,1 °C 14,5 °C 4,8 km/h (1 Bft)
03.07.2017 21:16 14,4 °C 14,5 °C 81 % 1020,4 hPa 0,0 mm 3,4 km/h (1 Bft) S-SW 199 ° 0 min 0,000 mm 0,0 UV-I 0 W/m² 11,2 °C 14,4 °C 6,4 km/h (2 Bft)
03.07.2017 21:17 14,4 °C 14,4 °C 81 % 1020,4 hPa 0,0 mm 3,1 km/h (1 Bft) S-SW 199 ° 0 min 0,000 mm 0,0 UV-I 0 W/m² 11,2 °C 14,4 °C 4,8 km/h (1 Bft)
03.07.2017 21:18 14,3 °C 14,4 °C 81 % 1020,4 hPa 0,0 mm 4,1 km/h (1 Bft) S-SW 198 ° 0 min 0,000 mm 0,0 UV-I 0 W/m² 11,1 °C 14,3 °C 6,4 km/h (2 Bft)
03.07.2017 21:19 14,3 °C 14,3 °C 81 % 1020,4 hPa 0,0 mm 4,8 km/h (1 Bft) S 180 ° 0 min 0,000 mm 0,0 UV-I 0 W/m² 11,1 °C 14,3 °C 6,4 km/h (2 Bft)
03.07.2017 21:20 14,2 °C 14,3 °C 81 % 1020,4 hPa 0,0 mm 5,2 km/h (1 Bft) S 188 ° 0 min 0,000 mm 0,0 UV-I 0 W/m² 11,0 °C 14,2 °C 8,0 km/h (2 Bft)
03.07.2017 21:21 14,1 °C 14,2 °C 81 % 1020,4 hPa 0,0 mm 6,1 km/h (2 Bft) S-SW 194 ° 0 min 0,000 mm 0,0 UV-I 0 W/m² 10,9 °C 14,1 °C 8,0 km/h (2 Bft)
03.07.2017 21:22 14,1 °C 14,2 °C 81 % 1020,4 hPa 0,0 mm 5,6 km/h (1 Bft) S 191 ° 0 min 0,000 mm 0,0 UV-I 0 W/m² 10,9 °C 14,1 °C 6,4 km/h (2 Bft)
03.07.2017 21:23 13,9 °C 14,1 °C 82 % 1020,4 hPa 0,0 mm 3,6 km/h (1 Bft) S 191 ° 0 min 0,000 mm 0,0 UV-I 0 W/m² 10,9 °C 13,9 °C 6,4 km/h (2 Bft)
03.07.2017 21:24 13,9 °C 13,9 °C 82 % 1020,5 hPa 0,0 mm 3,2 km/h (1 Bft) S 191 ° 0 min 0,000 mm 0,0 UV-I 0 W/m² 10,9 °C 13,9 °C 4,8 km/h (1 Bft)
03.07.2017 21:25 13,9 °C 13,9 °C 82 % 1020,5 hPa 0,0 mm 2,2 km/h (1 Bft) S 191 ° 0 min 0,000 mm 0,0 UV-I 0 W/m² 10,9 °C 13,9 °C 4,8 km/h (1 Bft)
03.07.2017 21:26 13,9 °C 13,9 °C 82 % 1020,5 hPa 0,0 mm 2,5 km/h (1 Bft) S 191 ° 0 min 0,000 mm 0,0 UV-I 0 W/m² 10,9 °C 13,9 °C 3,2 km/h (1 Bft)
03.07.2017 21:27 13,9 °C 13,9 °C 82 % 1020,5 hPa 0,0 mm 1,5 km/h (1 Bft) S 191 ° 0 min 0,000 mm 0,0 UV-I 0 W/m² 10,9 °C 13,9 °C 3,2 km/h (1 Bft)
03.07.2017 21:28 13,9 °C 13,9 °C 82 % 1020,5 hPa 0,0 mm 1,9 km/h (1 Bft) S 191 ° 0 min 0,000 mm 0,0 UV-I 0 W/m² 10,9 °C 13,9 °C 4,8 km/h (1 Bft)
03.07.2017 21:29 13,9 °C 14,0 °C 82 % 1020,5 hPa 0,0 mm 1,8 km/h (1 Bft) S 191 ° 0 min 0,000 mm 0,0 UV-I 0 W/m² 10,9 °C 13,9 °C 3,2 km/h (1 Bft)
03.07.2017 21:30 13,9 °C 13,9 °C 82 % 1020,5 hPa 0,0 mm 2,5 km/h (1 Bft) S 191 ° 0 min 0,000 mm 0,0 UV-I 0 W/m² 10,9 °C 13,9 °C 4,8 km/h (1 Bft)
03.07.2017 21:31 13,8 °C 13,9 °C 82 % 1020,5 hPa 0,0 mm 1,8 km/h (1 Bft) S 191 ° 0 min 0,000 mm 0,0 UV-I 0 W/m² 10,8 °C 13,8 °C 3,2 km/h (1 Bft)
03.07.2017 21:32 13,8 °C 13,8 °C 82 % 1020,5 hPa 0,0 mm 2,5 km/h (1 Bft) S 191 ° 0 min 0,000 mm 0,0 UV-I 0 W/m² 10,8 °C 13,8 °C 3,2 km/h (1 Bft)
03.07.2017 21:33 13,7 °C 13,8 °C 82 % 1020,5 hPa 0,0 mm 2,5 km/h (1 Bft) S 191 ° 0 min 0,000 mm 0,0 UV-I 0 W/m² 10,7 °C 13,7 °C 4,8 km/h (1 Bft)
03.07.2017 21:34 13,7 °C 13,7 °C 82 % 1020,5 hPa 0,0 mm 3,0 km/h (1 Bft) S 191 ° 0 min 0,000 mm 0,0 UV-I 0 W/m² 10,7 °C 13,7 °C 4,8 km/h (1 Bft)
03.07.2017 21:35 13,6 °C 13,7 °C 83 % 1020,5 hPa 0,0 mm 3,6 km/h (1 Bft) S 191 ° 0 min 0,000 mm 0,0 UV-I 0 W/m² 10,8 °C 13,6 °C 4,8 km/h (1 Bft)
03.07.2017 21:36 13,6 °C 13,6 °C 82 % 1020,6 hPa 0,0 mm 2,2 km/h (1 Bft) S 191 ° 0 min 0,000 mm 0,0 UV-I 0 W/m² 10,6 °C 13,6 °C 4,8 km/h (1 Bft)
03.07.2017 21:37 13,6 °C 13,6 °C 82 % 1020,6 hPa 0,0 mm 1,7 km/h (1 Bft) S 191 ° 0 min 0,000 mm 0,0 UV-I 0 W/m² 10,6 °C 13,6 °C 3,2 km/h (1 Bft)
03.07.2017 21:38 13,6 °C 13,6 °C 82 % 1020,6 hPa 0,0 mm 2,6 km/h (1 Bft) S 191 ° 0 min 0,000 mm 0,0 UV-I 0 W/m² 10,6 °C 13,6 °C 4,8 km/h (1 Bft)
03.07.2017 21:39 13,6 °C 13,6 °C 82 % 1020,6 hPa 0,0 mm 3,6 km/h (1 Bft) S 188 ° 0 min 0,000 mm 0,0 UV-I 0 W/m² 10,6 °C 13,6 °C 6,4 km/h (2 Bft)
03.07.2017 21:40 13,6 °C 13,6 °C 83 % 1020,6 hPa 0,0 mm 1,4 km/h (1 Bft) S 188 ° 0 min 0,000 mm 0,0 UV-I 0 W/m² 10,8 °C 13,6 °C 3,2 km/h (1 Bft)
03.07.2017 21:41 13,6 °C 13,6 °C 81 % 1020,6 hPa 0,0 mm 0,8 km/h (0 Bft) S 188 ° 0 min 0,000 mm 0,0 UV-I 0 W/m² 10,4 °C 13,6 °C 1,6 km/h (1 Bft)
03.07.2017 21:42 13,6 °C 13,6 °C 81 % 1020,6 hPa 0,0 mm 2,3 km/h (1 Bft) S 188 ° 0 min 0,000 mm 0,0 UV-I 0 W/m² 10,4 °C 13,6 °C 4,8 km/h (1 Bft)
03.07.2017 21:43 13,7 °C 13,7 °C 81 % 1020,6 hPa 0,0 mm 3,2 km/h (1 Bft) S 186 ° 0 min 0,000 mm 0,0 UV-I 0 W/m² 10,5 °C 13,7 °C 6,4 km/h (2 Bft)
03.07.2017 21:44 13,7 °C 13,8 °C 81 % 1020,6 hPa 0,0 mm 3,7 km/h (1 Bft) S-SW 196 ° 0 min 0,000 mm 0,0 UV-I 0 W/m² 10,5 °C 13,7 °C 6,4 km/h (2 Bft)
03.07.2017 21:45 13,8 °C 13,8 °C 80 % 1020,6 hPa 0,0 mm 3,0 km/h (1 Bft) S-SW 196 ° 0 min 0,000 mm 0,0 UV-I 0 W/m² 10,4 °C 13,8 °C 4,8 km/h (1 Bft)
03.07.2017 21:46 13,8 °C 13,8 °C 79 % 1020,6 hPa 0,0 mm 1,3 km/h (1 Bft) S-SW 196 ° 0 min 0,000 mm 0,0 UV-I 0 W/m² 10,2 °C 13,8 °C 3,2 km/h (1 Bft)
03.07.2017 21:47 13,8 °C 13,8 °C 80 % 1020,6 hPa 0,0 mm 2,3 km/h (1 Bft) S 175 ° 0 min 0,000 mm 0,0 UV-I 0 W/m² 10,4 °C 13,8 °C 3,2 km/h (1 Bft)
03.07.2017 21:48 13,8 °C 13,8 °C 79 % 1020,6 hPa 0,0 mm 2,5 km/h (1 Bft) S 190 ° 0 min 0,000 mm 0,0 UV-I 0 W/m² 10,2 °C 13,8 °C 4,8 km/h (1 Bft)
03.07.2017 21:49 13,8 °C 13,8 °C 79 % 1020,6 hPa 0,0 mm 2,2 km/h (1 Bft) W-SW 248 ° 0 min 0,000 mm 0,0 UV-I 0 W/m² 10,2 °C 13,8 °C 4,8 km/h (1 Bft)
03.07.2017 21:50 13,8 °C 13,8 °C 79 % 1020,6 hPa 0,0 mm 2,0 km/h (1 Bft) S-SW 212 ° 0 min 0,000 mm 0,0 UV-I 0 W/m² 10,2 °C 13,8 °C 4,8 km/h (1 Bft)
03.07.2017 21:51 13,8 °C 13,8 °C 79 % 1020,6 hPa 0,0 mm 2,3 km/h (1 Bft) S-SW 212 ° 0 min 0,000 mm 0,0 UV-I 0 W/m² 10,2 °C 13,8 °C 4,8 km/h (1 Bft)
03.07.2017 21:52 13,8 °C 13,9 °C 79 % 1020,6 hPa 0,0 mm 1,6 km/h (1 Bft) S-SW 212 ° 0 min 0,000 mm 0,0 UV-I 0 W/m² 10,2 °C 13,8 °C 3,2 km/h (1 Bft)
03.07.2017 21:53 13,8 °C 13,8 °C 79 % 1020,6 hPa 0,0 mm 2,5 km/h (1 Bft) SO 127 ° 0 min 0,000 mm 0,0 UV-I 0 W/m² 10,2 °C 13,8 °C 4,8 km/h (1 Bft)
03.07.2017 21:54 13,8 °C 13,8 °C 80 % 1020,6 hPa 0,0 mm 1,8 km/h (1 Bft) SO 126 ° 0 min 0,000 mm 0,0 UV-I 0 W/m² 10,4 °C 13,8 °C 3,2 km/h (1 Bft)
03.07.2017 21:55 13,8 °C 13,8 °C 80 % 1020,6 hPa 0,0 mm 1,1 km/h (1 Bft) S 186 ° 0 min 0,000 mm 0,0 UV-I 0 W/m² 10,4 °C 13,8 °C 1,6 km/h (1 Bft)
03.07.2017 21:56 13,8 °C 13,8 °C 80 % 1020,6 hPa 0,0 mm 2,2 km/h (1 Bft) S 190 ° 0 min 0,000 mm 0,0 UV-I 0 W/m² 10,4 °C 13,8 °C 3,2 km/h (1 Bft)
03.07.2017 21:57 13,8 °C 13,8 °C 80 % 1020,6 hPa 0,0 mm 0,5 km/h (0 Bft) S 190 ° 0 min 0,000 mm 0,0 UV-I 0 W/m² 10,4 °C 13,8 °C 1,6 km/h (1 Bft)
03.07.2017 21:58 13,8 °C 13,8 °C 80 % 1020,7 hPa 0,0 mm 1,5 km/h (1 Bft) S 190 ° 0 min 0,000 mm 0,0 UV-I 0 W/m² 10,4 °C 13,8 °C 4,8 km/h (1 Bft)
03.07.2017 21:59 13,7 °C 13,8 °C 80 % 1020,7 hPa 0,0 mm 2,7 km/h (1 Bft) S 179 ° 0 min 0,000 mm 0,0 UV-I 0 W/m² 10,3 °C 13,7 °C 4,8 km/h (1 Bft)
03.07.2017 22:00 13,7 °C 13,7 °C 81 % 1020,6 hPa 0,0 mm 1,3 km/h (1 Bft) S 179 ° 0 min 0,000 mm 0,0 UV-I 0 W/m² 10,5 °C 13,7 °C 3,2 km/h (1 Bft)
03.07.2017 22:01 13,7 °C 13,7 °C 80 % 1020,7 hPa 0,0 mm 2,2 km/h (1 Bft) S 180 ° 0 min 0,000 mm 0,0 UV-I 0 W/m² 10,3 °C 13,7 °C 4,8 km/h (1 Bft)
03.07.2017 22:02 13,7 °C 13,7 °C 80 % 1020,8 hPa 0,0 mm 3,4 km/h (1 Bft) S-SW 196 ° 0 min 0,000 mm 0,0 UV-I 0 W/m² 10,3 °C 13,7 °C 4,8 km/h (1 Bft)
03.07.2017 22:03 13,7 °C 13,7 °C 80 % 1020,8 hPa 0,0 mm 4,0 km/h (1 Bft) S 172 ° 0 min 0,000 mm 0,0 UV-I 0 W/m² 10,3 °C 13,7 °C 6,4 km/h (2 Bft)
03.07.2017 22:04 13,7 °C 13,7 °C 81 % 1020,7 hPa 0,0 mm 3,0 km/h (1 Bft) S 172 ° 0 min 0,000 mm 0,0 UV-I 0 W/m² 10,5 °C 13,7 °C 8,0 km/h (2 Bft)
03.07.2017 22:05 13,6 °C 13,7 °C 81 % 1020,8 hPa 0,0 mm 2,5 km/h (1 Bft) S 172 ° 0 min 0,000 mm 0,0 UV-I 0 W/m² 10,4 °C 13,6 °C 3,2 km/h (1 Bft)
03.07.2017 22:06 13,6 °C 13,6 °C 80 % 1020,8 hPa 0,0 mm 3,3 km/h (1 Bft) S 169 ° 0 min 0,000 mm 0,0 UV-I 0 W/m² 10,2 °C 13,6 °C 9,7 km/h (2 Bft)
03.07.2017 22:07 13,6 °C 13,7 °C 80 % 1020,8 hPa 0,0 mm 4,2 km/h (1 Bft) S 174 ° 0 min 0,000 mm 0,0 UV-I 0 W/m² 10,2 °C 13,6 °C 8,0 km/h (2 Bft)
03.07.2017 22:08 13,6 °C 13,6 °C 80 % 1020,8 hPa 0,0 mm 3,0 km/h (1 Bft) S 184 ° 0 min 0,000 mm 0,0 UV-I 0 W/m² 10,2 °C 13,6 °C 6,4 km/h (2 Bft)
03.07.2017 22:09 13,6 °C 13,6 °C 80 % 1020,8 hPa 0,0 mm 4,4 km/h (1 Bft) S 184 ° 0 min 0,000 mm 0,0 UV-I 0 W/m² 10,2 °C 13,6 °C 6,4 km/h (2 Bft)
03.07.2017 22:10 13,6 °C 13,6 °C 80 % 1020,8 hPa 0,0 mm 3,8 km/h (1 Bft) S 184 ° 0 min 0,000 mm 0,0 UV-I 0 W/m² 10,2 °C 13,6 °C 6,4 km/h (2 Bft)
03.07.2017 22:11 13,6 °C 13,6 °C 81 % 1020,8 hPa 0,0 mm 2,7 km/h (1 Bft) S-SW 196 ° 0 min 0,000 mm 0,0 UV-I 0 W/m² 10,4 °C 13,6 °C 4,8 km/h (1 Bft)
03.07.2017 22:12 13,5 °C 13,6 °C 81 % 1020,8 hPa 0,0 mm 1,9 km/h (1 Bft) S-SW 196 ° 0 min 0,000 mm 0,0 UV-I 0 W/m² 10,3 °C 13,5 °C 3,2 km/h (1 Bft)
03.07.2017 22:13 13,4 °C 13,5 °C 81 % 1020,8 hPa 0,0 mm 3,2 km/h (1 Bft) S-SW 196 ° 0 min 0,000 mm 0,0 UV-I 0 W/m² 10,2 °C 13,4 °C 4,8 km/h (1 Bft)
03.07.2017 22:14 13,4 °C 13,4 °C 81 % 1020,8 hPa 0,0 mm 3,9 km/h (1 Bft) S-SW 194 ° 0 min 0,000 mm 0,0 UV-I 0 W/m² 10,2 °C 13,4 °C 4,8 km/h (1 Bft)
03.07.2017 22:15 13,5 °C 13,5 °C 81 % 1020,8 hPa 0,0 mm 3,8 km/h (1 Bft) S 174 ° 0 min 0,000 mm 0,0 UV-I 0 W/m² 10,3 °C 13,5 °C 4,8 km/h (1 Bft)
03.07.2017 22:16 13,4 °C 13,5 °C 81 % 1020,8 hPa 0,0 mm 3,2 km/h (1 Bft) S 181 ° 0 min 0,000 mm 0,0 UV-I 0 W/m² 10,2 °C 13,4 °C 4,8 km/h (1 Bft)
03.07.2017 22:17 13,4 °C 13,5 °C 81 % 1020,8 hPa 0,0 mm 2,3 km/h (1 Bft) S 181 ° 0 min 0,000 mm 0,0 UV-I 0 W/m² 10,2 °C 13,4 °C 4,8 km/h (1 Bft)
03.07.2017 22:18 13,3 °C 13,4 °C 81 % 1020,9 hPa 0,0 mm 1,9 km/h (1 Bft) S 181 ° 0 min 0,000 mm 0,0 UV-I 0 W/m² 10,1 °C 13,3 °C 3,2 km/h (1 Bft)
03.07.2017 22:19 13,4 °C 13,4 °C 82 % 1020,8 hPa 0,0 mm 2,3 km/h (1 Bft) S 181 ° 0 min 0,000 mm 0,0 UV-I 0 W/m² 10,4 °C 13,4 °C 4,8 km/h (1 Bft)
03.07.2017 22:20 13,3 °C 13,4 °C 81 % 1020,8 hPa 0,0 mm 3,4 km/h (1 Bft) S 181 ° 0 min 0,000 mm 0,0 UV-I 0 W/m² 10,1 °C 13,3 °C 6,4 km/h (2 Bft)
03.07.2017 22:21 13,3 °C 13,4 °C 82 % 1020,8 hPa 0,0 mm 1,9 km/h (1 Bft) S 181 ° 0 min 0,000 mm 0,0 UV-I 0 W/m² 10,3 °C 13,3 °C 4,8 km/h (1 Bft)
03.07.2017 22:22 13,2 °C 13,3 °C 83 % 1020,8 hPa 0,0 mm 2,9 km/h (1 Bft) S 181 ° 0 min 0,000 mm 0,0 UV-I 0 W/m² 10,4 °C 13,2 °C 4,8 km/h (1 Bft)
03.07.2017 22:23 13,2 °C 13,2 °C 83 % 1020,8 hPa 0,0 mm 2,0 km/h (1 Bft) S 181 ° 0 min 0,000 mm 0,0 UV-I 0 W/m² 10,4 °C 13,2 °C 3,2 km/h (1 Bft)
03.07.2017 22:24 13,1 °C 13,2 °C 83 % 1020,8 hPa 0,0 mm 2,7 km/h (1 Bft) S 181 ° 0 min 0,000 mm 0,0 UV-I 0 W/m² 10,3 °C 13,1 °C 3,2 km/h (1 Bft)
03.07.2017 22:25 12,9 °C 13,1 °C 83 % 1020,9 hPa 0,0 mm 2,6 km/h (1 Bft) S 181 ° 0 min 0,000 mm 0,0 UV-I 0 W/m² 10,1 °C 12,9 °C 3,2 km/h (1 Bft)
03.07.2017 22:26 12,8 °C 12,9 °C 84 % 1020,9 hPa 0,0 mm 2,2 km/h (1 Bft) S 181 ° 0 min 0,000 mm 0,0 UV-I 0 W/m² 10,2 °C 12,8 °C 3,2 km/h (1 Bft)
03.07.2017 22:27 12,7 °C 12,8 °C 84 % 1020,9 hPa 0,0 mm 2,3 km/h (1 Bft) S 181 ° 0 min 0,000 mm 0,0 UV-I 0 W/m² 10,1 °C 12,7 °C 3,2 km/h (1 Bft)
03.07.2017 22:28 12,7 °C 12,7 °C 85 % 1020,9 hPa 0,0 mm 2,8 km/h (1 Bft) S 181 ° 0 min 0,000 mm 0,0 UV-I 0 W/m² 10,2 °C 12,7 °C 4,8 km/h (1 Bft)
03.07.2017 22:29 12,6 °C 12,7 °C 85 % 1020,9 hPa 0,0 mm 2,0 km/h (1 Bft) S 181 ° 0 min 0,000 mm 0,0 UV-I 0 W/m² 10,1 °C 12,6 °C 4,8 km/h (1 Bft)
03.07.2017 22:30 12,5 °C 12,6 °C 85 % 1020,9 hPa 0,0 mm 0,8 km/h (0 Bft) S 181 ° 0 min 0,000 mm 0,0 UV-I 0 W/m² 10,0 °C 12,5 °C 3,2 km/h (1 Bft)
03.07.2017 22:31 12,4 °C 12,5 °C 86 % 1020,9 hPa 0,0 mm 1,1 km/h (1 Bft) S 181 ° 0 min 0,000 mm 0,0 UV-I 0 W/m² 10,1 °C 12,4 °C 3,2 km/h (1 Bft)
03.07.2017 22:32 12,4 °C 12,4 °C 86 % 1020,9 hPa 0,0 mm 0,1 km/h (0 Bft) S 181 ° 0 min 0,000 mm 0,0 UV-I 0 W/m² 10,1 °C 12,4 °C 1,6 km/h (1 Bft)
03.07.2017 22:33 12,4 °C 12,4 °C 86 % 1020,9 hPa 0,0 mm 0,9 km/h (0 Bft) S 181 ° 0 min 0,000 mm 0,0 UV-I 0 W/m² 10,1 °C 12,4 °C 3,2 km/h (1 Bft)
03.07.2017 22:34 12,4 °C 12,4 °C 86 % 1020,9 hPa 0,0 mm 2,4 km/h (1 Bft) S 174 ° 0 min 0,000 mm 0,0 UV-I 0 W/m² 10,1 °C 12,4 °C 4,8 km/h (1 Bft)
03.07.2017 22:35 12,4 °C 12,4 °C 87 % 1020,9 hPa 0,0 mm 1,1 km/h (1 Bft) S 174 ° 0 min 0,000 mm 0,0 UV-I 0 W/m² 10,3 °C 12,4 °C 3,2 km/h (1 Bft)
03.07.2017 22:36 12,5 °C 12,5 °C 86 % 1020,9 hPa 0,0 mm 0,7 km/h (0 Bft) S 174 ° 0 min 0,000 mm 0,0 UV-I 0 W/m² 10,2 °C 12,5 °C 3,2 km/h (1 Bft)
03.07.2017 22:37 12,6 °C 12,6 °C 85 % 1020,9 hPa 0,0 mm 2,5 km/h (1 Bft) S 174 ° 0 min 0,000 mm 0,0 UV-I 0 W/m² 10,1 °C 12,6 °C 4,8 km/h (1 Bft)
03.07.2017 22:38 12,6 °C 12,6 °C 85 % 1020,8 hPa 0,0 mm 0,3 km/h (0 Bft) S 174 ° 0 min 0,000 mm 0,0 UV-I 0 W/m² 10,1 °C 12,6 °C 1,6 km/h (1 Bft)
03.07.2017 22:39 12,6 °C 12,6 °C 85 % 1020,9 hPa 0,0 mm 0,0 km/h (0 Bft) S 174 ° 0 min 0,000 mm 0,0 UV-I 0 W/m² 10,1 °C 12,6 °C 0,0 km/h (0 Bft)
03.07.2017 22:40 12,6 °C 12,6 °C 85 % 1020,9 hPa 0,0 mm 0,0 km/h (0 Bft) S 174 ° 0 min 0,000 mm 0,0 UV-I 0 W/m² 10,1 °C 12,6 °C 0,0 km/h (0 Bft)
03.07.2017 22:41 12,6 °C 12,6 °C 86 % 1020,8 hPa 0,0 mm 0,0 km/h (0 Bft) S 174 ° 0 min 0,000 mm 0,0 UV-I 0 W/m² 10,3 °C 12,6 °C 0,0 km/h (0 Bft)
03.07.2017 22:42 12,5 °C 12,6 °C 86 % 1020,8 hPa 0,0 mm 0,0 km/h (0 Bft) S 174 ° 0 min 0,000 mm 0,0 UV-I 0 W/m² 10,2 °C 12,5 °C 0,0 km/h (0 Bft)
03.07.2017 22:43 12,5 °C 12,5 °C 86 % 1020,8 hPa 0,0 mm 0,0 km/h (0 Bft) S 174 ° 0 min 0,000 mm 0,0 UV-I 0 W/m² 10,2 °C 12,5 °C 0,0 km/h (0 Bft)
03.07.2017 22:44 12,5 °C 12,5 °C 86 % 1020,8 hPa 0,0 mm 2,2 km/h (1 Bft) S 186 ° 0 min 0,000 mm 0,0 UV-I 0 W/m² 10,2 °C 12,5 °C 6,4 km/h (2 Bft)
03.07.2017 22:45 12,6 °C 12,6 °C 85 % 1020,8 hPa 0,0 mm 2,6 km/h (1 Bft) S 186 ° 0 min 0,000 mm 0,0 UV-I 0 W/m² 10,1 °C 12,6 °C 3,2 km/h (1 Bft)
03.07.2017 22:46 12,6 °C 12,6 °C 85 % 1020,8 hPa 0,0 mm 2,0 km/h (1 Bft) S 186 ° 0 min 0,000 mm 0,0 UV-I 0 W/m² 10,1 °C 12,6 °C 3,2 km/h (1 Bft)
03.07.2017 22:47 12,6 °C 12,6 °C 85 % 1020,9 hPa 0,0 mm 0,3 km/h (0 Bft) S 186 ° 0 min 0,000 mm 0,0 UV-I 0 W/m² 10,1 °C 12,6 °C 1,6 km/h (1 Bft)
03.07.2017 22:48 12,5 °C 12,6 °C 86 % 1020,8 hPa 0,0 mm 0,2 km/h (0 Bft) S 186 ° 0 min 0,000 mm 0,0 UV-I 0 W/m² 10,2 °C 12,5 °C 1,6 km/h (1 Bft)
03.07.2017 22:49 12,6 °C 12,6 °C 85 % 1020,9 hPa 0,0 mm 1,8 km/h (1 Bft) S 186 ° 0 min 0,000 mm 0,0 UV-I 0 W/m² 10,1 °C 12,6 °C 4,8 km/h (1 Bft)
03.07.2017 22:50 12,6 °C 12,6 °C 85 % 1020,9 hPa 0,0 mm 2,2 km/h (1 Bft) S 186 ° 0 min 0,000 mm 0,0 UV-I 0 W/m² 10,1 °C 12,6 °C 3,2 km/h (1 Bft)
03.07.2017 22:51 12,5 °C 12,6 °C 85 % 1020,9 hPa 0,0 mm 0,1 km/h (0 Bft) S 186 ° 0 min 0,000 mm 0,0 UV-I 0 W/m² 10,0 °C 12,5 °C 1,6 km/h (1 Bft)
03.07.2017 22:52 12,5 °C 12,5 °C 86 % 1020,9 hPa 0,0 mm 1,5 km/h (1 Bft) S 186 ° 0 min 0,000 mm 0,0 UV-I 0 W/m² 10,2 °C 12,5 °C 3,2 km/h (1 Bft)
03.07.2017 22:53 12,5 °C 12,5 °C 86 % 1020,9 hPa 0,0 mm 0,0 km/h (0 Bft) S 186 ° 0 min 0,000 mm 0,0 UV-I 0 W/m² 10,2 °C 12,5 °C 0,0 km/h (0 Bft)
03.07.2017 22:54 12,5 °C 12,5 °C 86 % 1020,9 hPa 0,0 mm 0,3 km/h (0 Bft) S 186 ° 0 min 0,000 mm 0,0 UV-I 0 W/m² 10,2 °C 12,5 °C 1,6 km/h (1 Bft)
03.07.2017 22:55 12,4 °C 12,5 °C 86 % 1020,8 hPa 0,0 mm 0,7 km/h (0 Bft) S 186 ° 0 min 0,000 mm 0,0 UV-I 0 W/m² 10,1 °C 12,4 °C 1,6 km/h (1 Bft)
03.07.2017 22:56 12,4 °C 12,4 °C 85 % 1020,8 hPa 0,0 mm 0,0 km/h (0 Bft) S 186 ° 0 min 0,000 mm 0,0 UV-I 0 W/m² 9,9 °C 12,4 °C 0,0 km/h (0 Bft)
03.07.2017 22:57 12,4 °C 12,4 °C 86 % 1020,8 hPa 0,0 mm 0,0 km/h (0 Bft) S 186 ° 0 min 0,000 mm 0,0 UV-I 0 W/m² 10,1 °C 12,4 °C 0,0 km/h (0 Bft)
03.07.2017 22:58 12,4 °C 12,4 °C 85 % 1020,8 hPa 0,0 mm 0,1 km/h (0 Bft) S 186 ° 0 min 0,000 mm 0,0 UV-I 0 W/m² 9,9 °C 12,4 °C 1,6 km/h (1 Bft)
03.07.2017 22:59 12,4 °C 12,4 °C 85 % 1020,8 hPa 0,0 mm 1,4 km/h (1 Bft) S 186 ° 0 min 0,000 mm 0,0 UV-I 0 W/m² 9,9 °C 12,4 °C 3,2 km/h (1 Bft)
03.07.2017 23:00 12,4 °C 12,4 °C 86 % 1020,8 hPa 0,0 mm 0,1 km/h (0 Bft) S 186 ° 0 min 0,000 mm 0,0 UV-I 0 W/m² 10,1 °C 12,4 °C 1,6 km/h (1 Bft)
03.07.2017 23:01 12,3 °C 12,4 °C 86 % 1020,8 hPa 0,0 mm 0,0 km/h (0 Bft) S 186 ° 0 min 0,025 mm 0,0 UV-I 0 W/m² 10,0 °C 12,3 °C 0,0 km/h (0 Bft)
03.07.2017 23:02 12,3 °C 12,3 °C 85 % 1020,8 hPa 0,0 mm 0,3 km/h (0 Bft) S 186 ° 0 min 0,000 mm 0,0 UV-I 0 W/m² 9,9 °C 12,3 °C 1,6 km/h (1 Bft)
03.07.2017 23:03 12,3 °C 12,3 °C 85 % 1020,8 hPa 0,0 mm 0,0 km/h (0 Bft) S 186 ° 0 min 0,000 mm 0,0 UV-I 0 W/m² 9,9 °C 12,3 °C 0,0 km/h (0 Bft)
03.07.2017 23:04 12,3 °C 12,3 °C 86 % 1020,8 hPa 0,0 mm 0,2 km/h (0 Bft) S 186 ° 0 min 0,000 mm 0,0 UV-I 0 W/m² 10,0 °C 12,3 °C 1,6 km/h (1 Bft)
03.07.2017 23:05 12,3 °C 12,3 °C 86 % 1020,7 hPa 0,0 mm 1,1 km/h (1 Bft) S 186 ° 0 min 0,000 mm 0,0 UV-I 0 W/m² 10,0 °C 12,3 °C 3,2 km/h (1 Bft)
03.07.2017 23:06 12,3 °C 12,3 °C 87 % 1020,7 hPa 0,0 mm 1,3 km/h (1 Bft) S 186 ° 0 min 0,000 mm 0,0 UV-I 0 W/m² 10,2 °C 12,3 °C 3,2 km/h (1 Bft)
03.07.2017 23:07 12,2 °C 12,3 °C 87 % 1020,7 hPa 0,0 mm 1,5 km/h (1 Bft) S 186 ° 0 min 0,000 mm 0,0 UV-I 0 W/m² 10,1 °C 12,2 °C 3,2 km/h (1 Bft)
03.07.2017 23:08 12,2 °C 12,3 °C 86 % 1020,7 hPa 0,0 mm 0,6 km/h (0 Bft) S 186 ° 0 min 0,000 mm 0,0 UV-I 0 W/m² 9,9 °C 12,2 °C 1,6 km/h (1 Bft)
03.07.2017 23:09 12,2 °C 12,2 °C 86 % 1020,7 hPa 0,0 mm 1,0 km/h (0 Bft) S 186 ° 0 min 0,000 mm 0,0 UV-I 0 W/m² 9,9 °C 12,2 °C 1,6 km/h (1 Bft)
03.07.2017 23:10 12,2 °C 12,2 °C 86 % 1020,8 hPa 0,0 mm 0,5 km/h (0 Bft) S 186 ° 0 min 0,000 mm 0,0 UV-I 0 W/m² 9,9 °C 12,2 °C 1,6 km/h (1 Bft)
03.07.2017 23:11 12,2 °C 12,2 °C 86 % 1020,8 hPa 0,0 mm 1,1 km/h (1 Bft) S 186 ° 0 min 0,000 mm 0,0 UV-I 0 W/m² 9,9 °C 12,2 °C 3,2 km/h (1 Bft)
03.07.2017 23:12 12,2 °C 12,2 °C 86 % 1020,8 hPa 0,0 mm 0,0 km/h (0 Bft) S 186 ° 0 min 0,000 mm 0,0 UV-I 0 W/m² 9,9 °C 12,2 °C 0,0 km/h (0 Bft)
03.07.2017 23:13 12,2 °C 12,2 °C 86 % 1020,8 hPa 0,0 mm 0,9 km/h (0 Bft) S 186 ° 0 min 0,000 mm 0,0 UV-I 0 W/m² 9,9 °C 12,2 °C 1,6 km/h (1 Bft)
03.07.2017 23:14 12,2 °C 12,2 °C 86 % 1020,8 hPa 0,0 mm 0,6 km/h (0 Bft) S 186 ° 0 min 0,000 mm 0,0 UV-I 0 W/m² 9,9 °C 12,2 °C 1,6 km/h (1 Bft)
03.07.2017 23:15 12,2 °C 12,2 °C 86 % 1020,8 hPa 0,0 mm 0,3 km/h (0 Bft) S 186 ° 0 min 0,000 mm 0,0 UV-I 0 W/m² 9,9 °C 12,2 °C 1,6 km/h (1 Bft)
03.07.2017 23:16 12,2 °C 12,2 °C 86 % 1020,8 hPa 0,0 mm 0,1 km/h (0 Bft) S 186 ° 0 min 0,000 mm 0,0 UV-I 0 W/m² 9,9 °C 12,2 °C 1,6 km/h (1 Bft)
03.07.2017 23:17 12,1 °C 12,2 °C 86 % 1020,8 hPa 0,0 mm 0,6 km/h (0 Bft) S 186 ° 0 min 0,000 mm 0,0 UV-I 0 W/m² 9,8 °C 12,1 °C 3,2 km/h (1 Bft)
03.07.2017 23:18 12,2 °C 12,2 °C 86 % 1020,8 hPa 0,0 mm 0,9 km/h (0 Bft) S 186 ° 0 min 0,000 mm 0,0 UV-I 0 W/m² 9,9 °C 12,2 °C 3,2 km/h (1 Bft)
03.07.2017 23:19 12,2 °C 12,2 °C 86 % 1020,8 hPa 0,0 mm 1,7 km/h (1 Bft) S-SW 192 ° 0 min 0,000 mm 0,0 UV-I 0 W/m² 9,9 °C 12,2 °C 4,8 km/h (1 Bft)
03.07.2017 23:20 12,2 °C 12,2 °C 86 % 1020,8 hPa 0,0 mm 3,0 km/h (1 Bft) S-SW 193 ° 0 min 0,000 mm 0,0 UV-I 0 W/m² 9,9 °C 12,2 °C 4,8 km/h (1 Bft)
03.07.2017 23:21 12,2 °C 12,2 °C 86 % 1020,8 hPa 0,0 mm 1,4 km/h (1 Bft) S-SW 193 ° 0 min 0,000 mm 0,0 UV-I 0 W/m² 9,9 °C 12,2 °C 3,2 km/h (1 Bft)
03.07.2017 23:22 12,2 °C 12,2 °C 86 % 1020,8 hPa 0,0 mm 1,1 km/h (1 Bft) S-SW 193 ° 0 min 0,000 mm 0,0 UV-I 0 W/m² 9,9 °C 12,2 °C 3,2 km/h (1 Bft)
03.07.2017 23:23 12,2 °C 12,2 °C 86 % 1020,8 hPa 0,0 mm 1,6 km/h (1 Bft) S-SW 193 ° 0 min 0,000 mm 0,0 UV-I 0 W/m² 9,9 °C 12,2 °C 3,2 km/h (1 Bft)
03.07.2017 23:24 12,3 °C 12,3 °C 86 % 1020,8 hPa 0,0 mm 1,5 km/h (1 Bft) S-SW 193 ° 0 min 0,000 mm 0,0 UV-I 0 W/m² 10,0 °C 12,3 °C 4,8 km/h (1 Bft)
03.07.2017 23:25 12,3 °C 12,3 °C 85 % 1020,8 hPa 0,0 mm 2,8 km/h (1 Bft) S-SW 193 ° 0 min 0,000 mm 0,0 UV-I 0 W/m² 9,9 °C 12,3 °C 3,2 km/h (1 Bft)
03.07.2017 23:26 12,3 °C 12,3 °C 86 % 1020,8 hPa 0,0 mm 1,7 km/h (1 Bft) S-SW 193 ° 0 min 0,000 mm 0,0 UV-I 0 W/m² 10,0 °C 12,3 °C 3,2 km/h (1 Bft)
03.07.2017 23:27 12,3 °C 12,3 °C 86 % 1020,8 hPa 0,0 mm 0,5 km/h (0 Bft) S-SW 193 ° 0 min 0,000 mm 0,0 UV-I 0 W/m² 10,0 °C 12,3 °C 3,2 km/h (1 Bft)
03.07.2017 23:28 12,3 °C 12,3 °C 86 % 1020,9 hPa 0,0 mm 0,6 km/h (0 Bft) S-SW 193 ° 0 min 0,000 mm 0,0 UV-I 0 W/m² 10,0 °C 12,3 °C 3,2 km/h (1 Bft)
03.07.2017 23:29 12,3 °C 12,3 °C 86 % 1020,8 hPa 0,0 mm 1,3 km/h (1 Bft) S-SW 193 ° 0 min 0,000 mm 0,0 UV-I 0 W/m² 10,0 °C 12,3 °C 3,2 km/h (1 Bft)
03.07.2017 23:30 12,3 °C 12,3 °C 86 % 1020,8 hPa 0,0 mm 0,7 km/h (0 Bft) S-SW 193 ° 0 min 0,000 mm 0,0 UV-I 0 W/m² 10,0 °C 12,3 °C 1,6 km/h (1 Bft)
03.07.2017 23:31 12,3 °C 12,3 °C 86 % 1020,9 hPa 0,0 mm 1,4 km/h (1 Bft) S-SW 193 ° 0 min 0,000 mm 0,0 UV-I 0 W/m² 10,0 °C 12,3 °C 1,6 km/h (1 Bft)
03.07.2017 23:32 12,3 °C 12,3 °C 86 % 1020,9 hPa 0,0 mm 0,9 km/h (0 Bft) S-SW 193 ° 0 min 0,000 mm 0,0 UV-I 0 W/m² 10,0 °C 12,3 °C 3,2 km/h (1 Bft)
03.07.2017 23:33 12,2 °C 12,3 °C 86 % 1020,9 hPa 0,0 mm 0,3 km/h (0 Bft) S-SW 193 ° 0 min 0,000 mm 0,0 UV-I 0 W/m² 9,9 °C 12,2 °C 1,6 km/h (1 Bft)
03.07.2017 23:34 12,2 °C 12,2 °C 86 % 1020,9 hPa 0,0 mm 0,0 km/h (0 Bft) S-SW 193 ° 0 min 0,000 mm 0,0 UV-I 0 W/m² 9,9 °C 12,2 °C 0,0 km/h (0 Bft)
03.07.2017 23:35 12,2 °C 12,2 °C 86 % 1020,9 hPa 0,0 mm 0,7 km/h (0 Bft) S-SW 193 ° 0 min 0,000 mm 0,0 UV-I 0 W/m² 9,9 °C 12,2 °C 3,2 km/h (1 Bft)
03.07.2017 23:36 12,1 °C 12,2 °C 86 % 1020,9 hPa 0,0 mm 0,6 km/h (0 Bft) S-SW 193 ° 0 min 0,000 mm 0,0 UV-I 0 W/m² 9,8 °C 12,1 °C 3,2 km/h (1 Bft)
03.07.2017 23:37 12,1 °C 12,1 °C 87 % 1020,9 hPa 0,0 mm 1,4 km/h (1 Bft) S-SW 193 ° 0 min 0,000 mm 0,0 UV-I 0 W/m² 10,0 °C 12,1 °C 3,2 km/h (1 Bft)
03.07.2017 23:38 12,1 °C 12,1 °C 86 % 1020,8 hPa 0,0 mm 1,8 km/h (1 Bft) S-SW 193 ° 0 min 0,000 mm 0,0 UV-I 0 W/m² 9,8 °C 12,1 °C 3,2 km/h (1 Bft)
03.07.2017 23:39 12,1 °C 12,1 °C 86 % 1020,9 hPa 0,0 mm 0,6 km/h (0 Bft) S-SW 198 ° 0 min 0,000 mm 0,0 UV-I 0 W/m² 9,8 °C 12,1 °C 3,2 km/h (1 Bft)
03.07.2017 23:40 12,1 °C 12,1 °C 86 % 1020,8 hPa 0,0 mm 0,2 km/h (0 Bft) S-SW 198 ° 0 min 0,000 mm 0,0 UV-I 0 W/m² 9,8 °C 12,1 °C 1,6 km/h (1 Bft)
03.07.2017 23:41 12,0 °C 12,1 °C 87 % 1020,8 hPa 0,0 mm 0,0 km/h (0 Bft) S-SW 198 ° 0 min 0,000 mm 0,0 UV-I 0 W/m² 9,9 °C 12,0 °C 0,0 km/h (0 Bft)
03.07.2017 23:42 12,0 °C 12,0 °C 87 % 1020,8 hPa 0,0 mm 0,0 km/h (0 Bft) S-SW 198 ° 0 min 0,000 mm 0,0 UV-I 0 W/m² 9,9 °C 12,0 °C 0,0 km/h (0 Bft)
03.07.2017 23:43 12,0 °C 12,0 °C 87 % 1020,8 hPa 0,0 mm 0,0 km/h (0 Bft) S-SW 198 ° 0 min 0,000 mm 0,0 UV-I 0 W/m² 9,9 °C 12,0 °C 0,0 km/h (0 Bft)
03.07.2017 23:44 12,0 °C 12,1 °C 86 % 1020,8 hPa 0,0 mm 0,0 km/h (0 Bft) S-SW 198 ° 0 min 0,000 mm 0,0 UV-I 0 W/m² 9,7 °C 12,0 °C 0,0 km/h (0 Bft)
03.07.2017 23:45 11,9 °C 12,0 °C 86 % 1020,8 hPa 0,0 mm 0,6 km/h (0 Bft) S-SW 198 ° 0 min 0,000 mm 0,0 UV-I 0 W/m² 9,6 °C 11,9 °C 1,6 km/h (1 Bft)
03.07.2017 23:46 11,9 °C 11,9 °C 86 % 1020,8 hPa 0,0 mm 0,3 km/h (0 Bft) SW 227 ° 0 min 0,000 mm 0,0 UV-I 0 W/m² 9,6 °C 11,9 °C 1,6 km/h (1 Bft)
03.07.2017 23:47 11,9 °C 11,9 °C 87 % 1020,8 hPa 0,0 mm 0,4 km/h (0 Bft) SW 226 ° 0 min 0,000 mm 0,0 UV-I 0 W/m² 9,8 °C 11,9 °C 1,6 km/h (1 Bft)
03.07.2017 23:48 11,9 °C 11,9 °C 87 % 1020,8 hPa 0,0 mm 0,0 km/h (0 Bft) SW 226 ° 0 min 0,000 mm 0,0 UV-I 0 W/m² 9,8 °C 11,9 °C 0,0 km/h (0 Bft)
03.07.2017 23:49 11,9 °C 11,9 °C 87 % 1020,7 hPa 0,0 mm 0,0 km/h (0 Bft) SW 226 ° 0 min 0,000 mm 0,0 UV-I 0 W/m² 9,8 °C 11,9 °C 0,0 km/h (0 Bft)
03.07.2017 23:50 11,9 °C 11,9 °C 86 % 1020,7 hPa 0,0 mm 0,0 km/h (0 Bft) SW 226 ° 0 min 0,000 mm 0,0 UV-I 0 W/m² 9,6 °C 11,9 °C 0,0 km/h (0 Bft)
03.07.2017 23:51 11,9 °C 11,9 °C 86 % 1020,8 hPa 0,0 mm 0,9 km/h (0 Bft) SW 226 ° 0 min 0,000 mm 0,0 UV-I 0 W/m² 9,6 °C 11,9 °C 1,6 km/h (1 Bft)
03.07.2017 23:52 11,9 °C 11,9 °C 86 % 1020,8 hPa 0,0 mm 0,7 km/h (0 Bft) SW 226 ° 0 min 0,000 mm 0,0 UV-I 0 W/m² 9,6 °C 11,9 °C 3,2 km/h (1 Bft)
03.07.2017 23:53 11,9 °C 11,9 °C 86 % 1020,8 hPa 0,0 mm 0,8 km/h (0 Bft) SW 226 ° 0 min 0,000 mm 0,0 UV-I 0 W/m² 9,6 °C 11,9 °C 1,6 km/h (1 Bft)
03.07.2017 23:54 11,9 °C 11,9 °C 86 % 1020,8 hPa 0,0 mm 1,0 km/h (0 Bft) SW 226 ° 0 min 0,000 mm 0,0 UV-I 0 W/m² 9,6 °C 11,9 °C 3,2 km/h (1 Bft)
03.07.2017 23:55 11,9 °C 11,9 °C 86 % 1020,8 hPa 0,0 mm 0,0 km/h (0 Bft) SW 226 ° 0 min 0,000 mm 0,0 UV-I 0 W/m² 9,6 °C 11,9 °C 0,0 km/h (0 Bft)
03.07.2017 23:56 11,9 °C 11,9 °C 86 % 1020,8 hPa 0,0 mm 0,0 km/h (0 Bft) SW 226 ° 0 min 0,000 mm 0,0 UV-I 0 W/m² 9,6 °C 11,9 °C 0,0 km/h (0 Bft)
03.07.2017 23:57 11,9 °C 11,9 °C 86 % 1020,8 hPa 0,0 mm 0,0 km/h (0 Bft) SW 226 ° 0 min 0,000 mm 0,0 UV-I 0 W/m² 9,6 °C 11,9 °C 0,0 km/h (0 Bft)
03.07.2017 23:58 11,9 °C 11,9 °C 86 % 1020,8 hPa 0,0 mm 0,0 km/h (0 Bft) SW 226 ° 0 min 0,000 mm 0,0 UV-I 0 W/m² 9,6 °C 11,9 °C 0,0 km/h (0 Bft)
03.07.2017 23:59 11,9 °C 11,9 °C 87 % 1020,7 hPa 0,0 mm 0,0 km/h (0 Bft) SW 226 ° 0 min 0,000 mm 0,0 UV-I 0 W/m² 9,8 °C 11,9 °C 0,0 km/h (0 Bft)
_ Min-Zeit 06:13 02:14 19:13 18:54 - 23:59 - - - - - - 23:58 06:13 23:59
Minimum _ 11,7 °C 11,7 °C 57 % 1019,8 hPa - 0,0 km/h (0 Bft) - - - - - - 9,6 °C 11,7 °C 0,0 km/h (0 Bft)
_ Max-Zeit 19:12 19:13 07:43 11:14 10:03 00:47 - - 14:59 16:00 13:56 12:06 13:49 19:12 03:08
Maximum _ 19,9 °C 19,9 °C 95 % 1022,8 hPa 0,2 mm 14,6 km/h
W (3 Bft)
- - 2 min 0,483 mm 9,4 UV-I 1260 W/m² 14,6 °C 19,9 °C 19,3 km/h
W (3 Bft)
Durchschnitt _ 14,9 °C 15,0 °C 82 % 1021,4 hPa #8,8 mm 4,2 km/h (1 Bft) W - #5:38 h #2,946 mm 3,2 UV-I 203 W/m² 11,6 °C 14,9 °C 7,2 km/h (2 Bft)